# Wetter Temperatur Luftdruck Luftfeuchtigkeit Sichtweite Windgeschwindigkeit Windrichtung Zeit
1 Clouds 21 1025 52 10000 2.1 360 21:38 12.07.2020
2 Clouds 21 1025 52 10000 2.1 360 21:19 12.07.2020
3 Clouds 22 1025 46 10000 2.1 20 20:42 12.07.2020
4 Clouds 22 1026 43 10000 2.1 30 20:20 12.07.2020
5 Clouds 23 1026 43 10000 1.5 40 19:59 12.07.2020
6 Clouds 22 1026 43 10000 2.6 60 19:40 12.07.2020
7 Clouds 22 1026 43 10000 2.6 60 19:21 12.07.2020
8 Clouds 23 1026 37 10000 1.5 230 18:57 12.07.2020
9 Clouds 23 1026 40 10000 3.1 20 18:38 12.07.2020
10 Clear 23 1026 40 10000 3.1 20 18:18 12.07.2020
11 Clear 24 1026 38 10000 2.1 280 17:39 12.07.2020
12 Clear 24 1026 40 10000 2.6 360 17:21 12.07.2020
13 Clear 24 1027 40 10000 3.6 30 16:56 12.07.2020
14 Clear 23 1027 43 10000 4.1 310 16:38 12.07.2020
15 Clear 22 1027 43 10000 4.1 310 16:18 12.07.2020
16 Clear 23 1027 40 10000 3.1 320 15:41 12.07.2020
17 Clear 21 1027 43 10000 3.6 30 15:21 12.07.2020
18 Clear 22 1027 40 10000 2.6 0 14:42 12.07.2020
19 Clear 21 1028 40 10000 2.6 20 14:23 12.07.2020
20 Clear 21 1028 49 10000 3.1 0 13:41 12.07.2020
21 Clear 20 1028 45 10000 1.5 0 13:22 12.07.2020
22 Clouds 19 1028 55 10000 2.6 10 12:59 12.07.2020
23 Clouds 19 1028 55 10000 2.6 10 12:41 12.07.2020
24 Clouds 19 1028 49 10000 2.1 0 12:20 12.07.2020
25 Clouds 19 1028 55 10000 1.5 0 11:58 12.07.2020
26 Clouds 19 1028 55 10000 1.5 0 11:40 12.07.2020
27 Clouds 17 1028 63 10000 1.5 0 11:19 12.07.2020
28 Clouds 18 1028 63 10000 1.5 0 10:42 12.07.2020
29 Clouds 17 1028 67 10000 1 0 10:20 12.07.2020
30 Clouds 18 1028 72 10000 1 0 09:43 12.07.2020
31 Clouds 15 1028 76 10000 1 0 09:24 12.07.2020
32 Clear 15 1028 87 10000 1.5 160 08:59 12.07.2020
33 Clear 14 1028 87 10000 1.5 160 08:40 12.07.2020
34 Clear 13 1027 87 10000 1 0 08:22 12.07.2020
35 Clear 12 1027 93 10000 0.5 140 07:54 12.07.2020
36 Clear 11 1027 100 10000 1 0 07:36 12.07.2020
37 Clear 11 1027 100 10000 1 0 07:18 12.07.2020
38 Clear 10 1027 100 10000 1 30 06:47 12.07.2020
39 Clear 10 1027 93 10000 0.5 0 06:19 12.07.2020
40 Clear 11 1026 93 10000 1.5 110 05:22 12.07.2020
41 Clear 11 1026 93 10000 1 0 04:29 12.07.2020
42 Clear 11 1026 100 10000 0.5 0 03:53 12.07.2020
43 Clear 12 1026 93 10000 1.5 50 03:31 12.07.2020
44 Clear 12 1026 93 10000 1.5 50 03:31 12.07.2020
45 Clear 13 1026 100 10000 1 0 02:46 12.07.2020
46 Clear 13 1026 93 10000 1 0 01:36 12.07.2020
47 Clear 13 1026 93 10000 0.5 70 00:42 12.07.2020
48 Clear 14 1026 87 10000 1 0 00:22 12.07.2020
49 Clear 15 1026 93 10000 0.5 0 23:56 11.07.2020
50 Clear 15 1026 93 10000 0.5 0 23:38 11.07.2020
51 Clear 15 1026 87 10000 0.5 0 23:19 11.07.2020
52 Clear 16 1026 87 10000 1 0 22:45 11.07.2020
53 Clouds 16 1025 87 10000 1 40 22:26 11.07.2020
54 Clouds 17 1025 87 10000 1 40 21:59 11.07.2020
55 Clouds 17 1025 82 10000 1 0 21:40 11.07.2020
56 Clouds 18 1025 82 10000 1 0 21:22 11.07.2020
57 Rain 18 1025 63 10000 3.1 280 20:56 11.07.2020
58 Rain 18 1025 63 10000 3.1 280 20:38 11.07.2020
59 Rain 19 1025 55 10000 2.6 330 20:20 11.07.2020
60 Rain 19 1025 55 10000 3.6 330 19:57 11.07.2020
61 Rain 19 1025 55 10000 3.6 330 19:39 11.07.2020
62 Clouds 20 1024 48 10000 3.6 330 19:20 11.07.2020
63 Clouds 20 1024 42 10000 3.6 340 18:55 11.07.2020
64 Clouds 21 1024 40 10000 1.5 0 18:37 11.07.2020
65 Clouds 21 1024 40 10000 1.5 0 18:18 11.07.2020
66 Clouds 21 1024 42 10000 2.6 320 17:42 11.07.2020
67 Clouds 21 1024 48 10000 3.1 360 17:22 11.07.2020
68 Clouds 21 1024 40 10000 3.1 300 16:59 11.07.2020
69 Clouds 21 1024 40 10000 3.1 300 16:39 11.07.2020
70 Clouds 20 1025 45 10000 2.6 330 16:20 11.07.2020
71 Clouds 20 1025 45 10000 3.1 300 15:57 11.07.2020
72 Clouds 20 1025 45 10000 3.1 300 15:37 11.07.2020
73 Clouds 20 1024 48 10000 3.6 310 15:18 11.07.2020
74 Clouds 19 1024 52 10000 3.1 330 14:47 11.07.2020
75 Clouds 20 1024 49 10000 3.6 280 14:24 11.07.2020
76 Clouds 19 1024 45 10000 3.1 280 13:58 11.07.2020
77 Clouds 19 1024 52 10000 4.6 310 13:40 11.07.2020
78 Clouds 19 1024 52 10000 4.6 310 13:21 11.07.2020
79 Clouds 18 1024 48 10000 3.1 0 12:45 11.07.2020
80 Clouds 18 1024 48 10000 3.1 0 12:45 11.07.2020
81 Clouds 18 1024 52 10000 2.6 310 12:23 11.07.2020
82 Clouds 18 1024 55 10000 2.1 0 11:59 11.07.2020
83 Clouds 17 1024 55 10000 2.1 0 11:41 11.07.2020
84 Clouds 17 1024 55 10000 2.6 310 11:20 11.07.2020
85 Clouds 16 1024 63 10000 4.1 290 10:56 11.07.2020
86 Clouds 17 1024 63 10000 4.1 290 10:38 11.07.2020
87 Clouds 16 1024 63 10000 2.6 360 10:19 11.07.2020
88 Clouds 15 1024 76 10000 1 0 09:39 11.07.2020
89 Clouds 14 1024 76 10000 1 0 09:20 11.07.2020
90 Clouds 15 1023 76 10000 1.5 320 08:46 11.07.2020
91 Clouds 14 1023 82 10000 1.5 300 08:28 11.07.2020
92 Clouds 12 1023 93 10000 0.5 0 07:56 11.07.2020
93 Clouds 12 1022 93 10000 0.5 60 07:37 11.07.2020
94 Clouds 12 1022 93 10000 0.5 60 07:18 11.07.2020
95 Clouds 11 1022 93 10000 1 60 06:28 11.07.2020
96 Clear 11 1021 100 10000 0.92 296 05:59 11.07.2020
97 Clear 12 1021 100 10000 0.5 40 05:20 11.07.2020
98 Clear 12 1021 93 10000 0.5 0 04:53 11.07.2020
99 Clear 12 1021 93 10000 0.5 0 04:31 11.07.2020
100 Clouds 13 1021 93 10000 0.5 60 02:57 11.07.2020
101 Clouds 13 1021 93 10000 0.5 60 02:36 11.07.2020
102 Clouds 13 1020 93 10000 1.5 60 01:27 11.07.2020
103 Clouds 13 1020 93 10000 1.42 339 00:59 11.07.2020
104 Clouds 13 1020 93 10000 1.42 339 00:38 11.07.2020
105 Clouds 14 1019 87 10000 1.5 30 00:19 11.07.2020
106 Clouds 14 1019 87 10000 1.5 50 23:57 10.07.2020
107 Clouds 14 1019 87 10000 1.5 50 23:38 10.07.2020
108 Clouds 14 1019 87 10000 1.5 50 23:38 10.07.2020
109 Clouds 15 1019 87 10000 1 40 23:18 10.07.2020
110 Clouds 15 1018 87 10000 2.1 10 22:43 10.07.2020
111 Clouds 16 1018 76 10000 2.6 340 22:19 10.07.2020
112 Clouds 16 1018 72 10000 2.6 340 21:55 10.07.2020
113 Clouds 17 1018 72 10000 2.6 340 21:36 10.07.2020
114 Clouds 17 1017 67 10000 3.1 340 21:18 10.07.2020
115 Clouds 17 1017 67 10000 3.1 340 21:18 10.07.2020
116 Clouds 18 1017 72 10000 3.1 340 20:41 10.07.2020
117 Clouds 18 1017 63 10000 4.1 340 20:22 10.07.2020
118 Clouds 18 1017 67 10000 5.1 360 19:57 10.07.2020
119 Clouds 19 1017 63 10000 6.7 320 19:39 10.07.2020
120 Clouds 19 1017 63 10000 6.7 320 19:20 10.07.2020
121 Clouds 19 1016 72 10000 4.6 340 18:42 10.07.2020
122 Clouds 19 1016 77 10000 5.1 340 18:21 10.07.2020
123 Rain 19 1016 77 10000 6.7 320 17:58 10.07.2020
124 Rain 19 1016 77 10000 6.7 320 17:39 10.07.2020
125 Rain 19 1015 63 10000 7.2 310 17:21 10.07.2020
126 Clouds 21 1015 60 10000 6.7 330 16:43 10.07.2020
127 Clouds 21 1014 60 10000 5.7 310 16:21 10.07.2020
128 Clouds 20 1014 56 10000 6.2 300 15:55 10.07.2020
129 Clouds 20 1014 63 10000 7.2 310 15:37 10.07.2020
130 Clouds 20 1014 63 10000 7.2 310 15:18 10.07.2020
131 Clouds 20 1014 72 10000 6.7 310 14:41 10.07.2020
132 Clouds 20 1013 72 10000 10.3 300 14:21 10.07.2020
133 Clouds 19 1012 68 10000 6.7 290 13:58 10.07.2020
134 Clouds 19 1012 68 10000 6.7 290 13:39 10.07.2020
135 Rain 19 1012 72 10000 9.8 270 13:21 10.07.2020
136 Rain 19 1011 68 10000 7.2 250 12:58 10.07.2020
137 Rain 20 1011 68 10000 7.2 250 12:38 10.07.2020
138 Clouds 19 1011 72 10000 8.7 260 12:19 10.07.2020
139 Rain 19 1011 82 10000 5.7 260 11:42 10.07.2020
140 Clouds 19 1010 77 10000 8.2 250 11:21 10.07.2020
141 Clouds 19 1010 77 10000 8.2 250 10:58 10.07.2020
142 Clouds 19 1010 77 10000 7.2 250 10:40 10.07.2020
143 Clouds 19 1010 77 10000 6.7 250 10:21 10.07.2020
144 Clouds 19 1010 77 10000 6.7 250 09:42 10.07.2020
145 Clouds 19 1009 77 10000 7.2 260 09:23 10.07.2020
146 Clouds 18 1009 77 10000 6.2 260 08:59 10.07.2020
147 Clouds 18 1009 77 10000 6.2 260 08:41 10.07.2020
148 Clouds 19 1009 77 10000 3.6 250 08:23 10.07.2020
149 Clouds 19 1009 82 10000 2.6 210 07:58 10.07.2020
150 Clouds 19 1009 82 10000 2.6 210 07:39 10.07.2020
151 Clouds 19 1009 82 10000 2.6 190 07:19 10.07.2020
152 Clouds 18 1009 88 10000 2.1 200 06:43 10.07.2020
153 Clouds 18 1009 93 10000 1.5 220 05:53 10.07.2020
154 Clouds 18 1009 88 10000 1.5 340 04:31 10.07.2020
155 Clouds 18 1010 88 10000 2.1 60 03:22 10.07.2020
156 Clouds 18 1010 82 10000 3.6 60 02:41 10.07.2020
157 Clouds 18 1011 88 10000 2.1 60 01:39 10.07.2020
158 Clouds 18 1011 88 10000 2.1 70 00:40 10.07.2020
159 Clouds 18 1011 88 10000 2.1 60 00:18 10.07.2020
160 Clouds 18 1011 88 10000 1.5 80 23:43 09.07.2020
161 Clouds 19 1012 88 10000 2.1 80 23:20 09.07.2020
162 Clouds 19 1012 88 10000 2.6 70 22:58 09.07.2020
163 Clouds 19 1012 88 10000 2.6 70 22:39 09.07.2020
164 Clouds 20 1012 82 10000 2.1 50 22:21 09.07.2020
165 Clouds 21 1012 73 10000 2.1 110 21:56 09.07.2020
166 Clouds 22 1012 73 10000 2.1 110 21:37 09.07.2020
167 Clouds 22 1012 73 10000 2.1 110 21:37 09.07.2020
168 Clouds 22 1012 68 10000 1.5 90 21:18 09.07.2020
169 Clouds 22 1012 73 10000 2.1 50 20:43 09.07.2020
170 Clouds 22 1012 77 10000 2.1 60 20:24 09.07.2020
171 Rain 22 1012 73 10000 2.1 350 19:58 09.07.2020
172 Rain 22 1012 73 10000 2.1 350 19:40 09.07.2020
173 Rain 22 1012 73 10000 3.1 350 19:20 09.07.2020
174 Rain 22 1012 60 10000 6.2 310 18:42 09.07.2020
175 Rain 23 1012 53 10000 6.7 290 18:21 09.07.2020
176 Clouds 24 1012 53 10000 6.7 280 17:55 09.07.2020
177 Clouds 24 1012 53 10000 6.7 280 17:37 09.07.2020
178 Clouds 25 1012 53 10000 7.2 290 17:18 09.07.2020
179 Clouds 25 1013 54 10000 6.7 280 16:55 09.07.2020
180 Clouds 25 1013 54 10000 6.7 280 16:37 09.07.2020
181 Clouds 24 1013 53 10000 6.7 280 16:18 09.07.2020
182 Clouds 25 1013 53 10000 6.7 260 15:46 09.07.2020
183 Clouds 24 1013 57 10000 5.7 270 15:28 09.07.2020
184 Clouds 24 1013 60 10000 6.2 280 14:59 09.07.2020
185 Clouds 24 1013 60 10000 6.2 280 14:41 09.07.2020
186 Clouds 23 1014 64 10000 6.2 280 14:23 09.07.2020
187 Clouds 23 1014 64 10000 6.7 260 13:59 09.07.2020
188 Clouds 22 1014 64 10000 6.7 260 13:41 09.07.2020
189 Clouds 22 1014 64 10000 7.2 270 13:20 09.07.2020
190 Clouds 22 1014 73 10000 5.1 270 12:58 09.07.2020
191 Clouds 22 1014 73 10000 5.1 270 12:39 09.07.2020
192 Clouds 21 1014 73 10000 5.1 280 12:20 09.07.2020
193 Clouds 20 1014 77 10000 5.1 240 11:54 09.07.2020
194 Clouds 20 1014 82 10000 3.1 220 11:36 09.07.2020
195 Clouds 19 1014 82 10000 3.1 220 11:18 09.07.2020
196 Clouds 20 1014 82 10000 3.6 170 10:42 09.07.2020
197 Clouds 19 1014 82 10000 3.1 180 10:23 09.07.2020
198 Clouds 18 1014 93 10000 2.1 190 09:59 09.07.2020
199 Clouds 18 1014 93 10000 2.1 190 09:41 09.07.2020
200 Clouds 18 1014 88 10000 2.6 180 09:21 09.07.2020
201 Rain 17 1014 93 10000 2.1 0 08:45 09.07.2020
202 Drizzle 17 1015 93 10000 2.1 170 08:25 09.07.2020
203 Drizzle 17 1015 93 10000 2.6 180 07:47 09.07.2020
204 Drizzle 17 1015 100 10000 2.1 180 07:25 09.07.2020
205 Drizzle 16 1015 100 10000 2.1 180 06:55 09.07.2020
206 Drizzle 16 1015 100 10000 2.1 200 06:20 09.07.2020
207 Drizzle 16 1015 100 10000 2.1 200 05:37 09.07.2020
208 Drizzle 16 1015 100 10000 1.5 180 04:28 09.07.2020
209 Drizzle 16 1015 100 10000 2.6 190 02:33 09.07.2020
210 Drizzle 16 1016 93 10000 2.6 180 01:40 09.07.2020
211 Drizzle 16 1016 93 10000 2.1 160 00:56 09.07.2020
212 Drizzle 16 1016 93 10000 3.1 0 00:37 09.07.2020
213 Drizzle 16 1016 93 10000 3.1 0 00:18 09.07.2020
214 Drizzle 16 1016 93 10000 3.1 160 23:43 08.07.2020
215 Drizzle 16 1016 93 10000 2.6 150 23:24 08.07.2020
216 Drizzle 16 1016 93 4500 2.1 130 22:55 08.07.2020
217 Drizzle 16 1016 100 4500 2.1 130 22:36 08.07.2020
218 Drizzle 16 1016 100 4500 2.1 130 22:18 08.07.2020
219 Drizzle 16 1016 100 4000 2.1 120 21:39 08.07.2020
220 Drizzle 16 1016 100 4000 2.1 120 21:39 08.07.2020
221 Drizzle 16 1016 93 4500 1 0 21:21 08.07.2020
222 Drizzle 16 1016 93 9000 1.5 50 20:59 08.07.2020
223 Drizzle 16 1016 93 9000 1.5 50 20:41 08.07.2020
224 Drizzle 16 1016 93 9000 1 0 20:23 08.07.2020
225 Drizzle 16 1016 93 4500 1 0 19:54 08.07.2020
226 Drizzle 16 1016 93 4500 1.5 100 19:36 08.07.2020
227 Drizzle 16 1016 93 4500 1.5 100 19:18 08.07.2020
228 Drizzle 16 1016 93 8000 1.5 110 18:40 08.07.2020
229 Drizzle 16 1017 87 6000 1.5 60 18:21 08.07.2020
230 Drizzle 16 1017 93 7000 1 0 17:57 08.07.2020
231 Drizzle 16 1017 93 7000 1 0 17:38 08.07.2020
232 Drizzle 16 1017 93 6000 1.5 60 17:20 08.07.2020
233 Rain 16 1017 93 10000 1.5 60 16:57 08.07.2020
234 Rain 16 1017 93 10000 1.5 60 16:38 08.07.2020
235 Rain 16 1017 87 10000 1.5 60 16:18 08.07.2020
236 Rain 16 1017 87 10000 1 0 15:57 08.07.2020
237 Rain 16 1017 87 10000 1 0 15:38 08.07.2020
238 Rain 15 1017 87 10000 1.5 180 15:19 08.07.2020
239 Rain 15 1017 87 10000 1.5 180 15:19 08.07.2020
240 Rain 15 1017 87 10000 2.1 160 14:42 08.07.2020
241 Rain 15 1017 87 10000 1 0 14:23 08.07.2020
242 Rain 15 1016 87 10000 2.1 160 13:57 08.07.2020
243 Rain 15 1016 87 10000 2.1 160 13:38 08.07.2020
244 Rain 15 1017 87 10000 2.1 160 13:18 08.07.2020
245 Rain 14 1017 93 10000 2.1 140 12:41 08.07.2020
246 Rain 14 1017 93 10000 2.1 140 12:20 08.07.2020
247 Rain 14 1017 93 10000 1 0 11:56 08.07.2020
248 Rain 14 1017 93 10000 1 0 11:37 08.07.2020
249 Rain 14 1017 87 10000 1 0 11:19 08.07.2020
250 Rain 14 1016 87 10000 1 0 10:43 08.07.2020
251 Rain 13 1016 93 10000 1.5 230 10:24 08.07.2020
252 Rain 13 1016 93 10000 2.1 220 09:46 08.07.2020
253 Rain 13 1016 93 10000 0.5 0 09:25 08.07.2020
254 Rain 12 1016 93 10000 2.1 230 08:56 08.07.2020
255 Rain 12 1016 93 10000 2.1 230 08:38 08.07.2020
256 Rain 12 1016 93 10000 2.1 260 08:19 08.07.2020
257 Rain 12 1016 93 8000 4.6 250 07:42 08.07.2020
258 Rain 12 1016 87 7000 7.2 260 07:19 08.07.2020
259 Rain 14 1016 71 10000 5.7 250 06:45 08.07.2020
260 Rain 14 1016 87 10000 0.5 0 06:25 08.07.2020
261 Rain 14 1016 87 10000 2.1 170 05:48 08.07.2020
262 Clouds 14 1016 82 10000 1.5 70 04:50 08.07.2020
263 Clouds 14 1016 82 10000 3.1 70 03:39 08.07.2020
264 Clouds 16 1017 82 10000 1.5 20 02:19 08.07.2020
265 Rain 16 1017 72 10000 1.5 50 01:38 08.07.2020
266 Rain 16 1017 77 10000 2.1 140 00:51 08.07.2020
267 Clouds 17 1017 72 10000 1.5 70 00:20 08.07.2020
268 Rain 17 1017 67 10000 0.5 0 23:44 07.07.2020
269 Rain 18 1017 67 10000 1 70 23:22 07.07.2020
270 Rain 18 1017 67 10000 1 70 23:22 07.07.2020
271 Rain 18 1017 67 10000 1 70 22:58 07.07.2020
272 Clouds 18 1018 59 10000 1 40 22:39 07.07.2020
273 Clouds 19 1018 59 10000 1 40 22:20 07.07.2020
274 Clouds 19 1018 55 10000 1.5 30 21:57 07.07.2020
275 Clouds 19 1018 55 10000 1.5 30 21:38 07.07.2020
276 Clouds 19 1018 55 10000 1.5 30 21:38 07.07.2020
277 Clouds 19 1018 59 10000 2.6 340 21:19 07.07.2020
278 Clouds 19 1018 52 10000 3.1 340 20:55 07.07.2020
279 Clouds 20 1018 52 10000 3.1 330 20:36 07.07.2020
280 Clouds 20 1018 52 10000 3.1 330 20:18 07.07.2020
281 Clouds 20 1018 52 10000 3.1 330 20:18 07.07.2020
282 Clouds 20 1018 55 10000 4.6 320 19:39 07.07.2020
283 Clouds 21 1018 52 10000 4.6 320 19:20 07.07.2020
284 Clouds 21 1018 49 10000 5.7 300 18:55 07.07.2020
285 Clouds 21 1018 45 10000 6.2 290 18:37 07.07.2020
286 Clouds 21 1018 45 10000 6.2 290 18:19 07.07.2020
287 Clouds 20 1018 45 10000 5.7 280 17:57 07.07.2020
288 Clouds 20 1018 45 10000 5.7 280 17:38 07.07.2020
289 Rain 21 1019 43 10000 6.7 280 17:20 07.07.2020
290 Rain 21 1019 45 10000 6.7 280 16:43 07.07.2020
291 Clouds 21 1019 43 10000 5.1 240 16:23 07.07.2020
292 Clouds 21 1019 49 10000 5.7 260 15:57 07.07.2020
293 Clouds 21 1019 49 10000 5.7 260 15:38 07.07.2020
294 Rain 20 1019 45 10000 4.6 270 15:20 07.07.2020
295 Rain 20 1019 45 10000 4.6 270 15:20 07.07.2020
296 Rain 21 1020 46 10000 5.1 280 14:46 07.07.2020
297 Clouds 21 1020 46 10000 5.1 270 14:25 07.07.2020
298 Clouds 21 1020 46 10000 5.1 270 14:25 07.07.2020
299 Clouds 21 1020 49 10000 5.1 280 13:57 07.07.2020
300 Clear 20 1020 45 10000 5.1 260 13:38 07.07.2020
301 Clear 20 1020 45 10000 5.1 260 13:18 07.07.2020
302 Clouds 19 1021 45 10000 2.1 0 12:40 07.07.2020
303 Clouds 19 1021 45 10000 2.1 0 12:22 07.07.2020
304 Clouds 19 1021 52 10000 2.1 240 11:50 07.07.2020
305 Clouds 19 1021 48 10000 2.6 0 11:26 07.07.2020
306 Clouds 18 1021 48 10000 2.6 0 10:59 07.07.2020
307 Clouds 17 1021 55 10000 2.1 0 10:41 07.07.2020
308 Clouds 17 1021 63 10000 1.5 0 10:22 07.07.2020
309 Clouds 17 1021 67 10000 1.5 0 09:59 07.07.2020
310 Clouds 16 1021 67 10000 1.5 0 09:38 07.07.2020
311 Clouds 15 1022 72 10000 1 0 09:20 07.07.2020
312 Clouds 15 1022 71 10000 1 0 08:42 07.07.2020
313 Clouds 14 1022 82 10000 2.1 130 08:23 07.07.2020
314 Clouds 12 1022 81 10000 1 0 07:45 07.07.2020
315 Clouds 11 1022 93 10000 1 0 07:23 07.07.2020
316 Clouds 10 1022 93 10000 0.5 0 06:49 07.07.2020
317 Clouds 10 1022 93 10000 1 0 06:30 07.07.2020
318 Clouds 10 1022 93 10000 1 0 05:53 07.07.2020
319 Clear 10 1022 93 10000 1.5 160 05:23 07.07.2020
320 Clouds 11 1022 93 10000 0.5 0 04:40 07.07.2020
321 Clouds 11 1022 87 10000 0.5 0 03:40 07.07.2020
322 Clouds 13 1022 81 10000 2.1 270 02:28 07.07.2020
323 Clouds 14 1022 76 10000 3.1 260 01:25 07.07.2020
324 Clear 14 1022 71 10000 3.1 270 00:44 07.07.2020
325 Clear 14 1022 67 10000 3.6 300 00:25 07.07.2020
326 Clear 15 1021 62 10000 6.2 290 23:59 06.07.2020
327 Clear 15 1021 62 10000 6.2 290 23:40 06.07.2020
328 Clear 15 1021 62 10000 4.6 300 23:22 06.07.2020
329 Clouds 16 1021 62 10000 5.7 310 22:55 06.07.2020
330 Clouds 16 1021 62 10000 5.7 310 22:37 06.07.2020
331 Clouds 16 1021 55 10000 6.7 300 22:18 06.07.2020
332 Clouds 16 1020 59 10000 5.7 310 21:54 06.07.2020
333 Clouds 16 1020 59 10000 5.7 310 21:36 06.07.2020
334 Clouds 17 1020 55 10000 8.2 300 21:18 06.07.2020
335 Clouds 18 1019 45 10000 10.3 290 20:39 06.07.2020
336 Clouds 18 1019 45 10000 10.3 290 20:20 06.07.2020
337 Clouds 18 1019 51 10000 7.2 320 19:57 06.07.2020
338 Clouds 19 1019 52 10000 8.7 300 19:39 06.07.2020
339 Clouds 19 1019 52 10000 8.7 300 19:20 06.07.2020
340 Clouds 19 1019 52 10000 6.7 310 18:56 06.07.2020
341 Clouds 19 1019 52 10000 6.7 310 18:38 06.07.2020
342 Rain 18 1019 63 10000 5.1 340 18:19 06.07.2020
343 Rain 19 1018 55 10000 7.2 290 17:42 06.07.2020
344 Rain 18 1018 52 10000 7.7 280 17:24 06.07.2020
345 Rain 18 1018 63 10000 5.7 280 16:58 06.07.2020
346 Rain 18 1018 63 10000 5.7 280 16:40 06.07.2020
347 Rain 18 1017 51 10000 11.3 290 16:21 06.07.2020
348 Rain 18 1017 52 10000 8.7 280 15:43 06.07.2020
349 Clouds 18 1017 59 10000 9.3 270 15:25 06.07.2020
350 Rain 16 1017 72 10000 4.6 270 14:57 06.07.2020
351 Rain 17 1017 72 10000 4.6 270 14:38 06.07.2020
352 Rain 17 1017 72 10000 4.6 270 14:38 06.07.2020
353 Rain 16 1017 63 10000 11.8 290 14:20 06.07.2020
354 Rain 16 1016 48 10000 9.3 260 13:56 06.07.2020
355 Rain 17 1016 48 10000 9.3 260 13:38 06.07.2020
356 Rain 18 1016 52 10000 8.2 260 13:19 06.07.2020
357 Clouds 18 1016 52 10000 6.7 270 12:42 06.07.2020
358 Clouds 17 1015 52 10000 8.7 280 12:19 06.07.2020
359 Clouds 17 1015 52 10000 8.7 280 12:19 06.07.2020
360 Clouds 17 1015 59 10000 7.7 280 11:58 06.07.2020
361 Clouds 16 1015 59 10000 7.7 280 11:39 06.07.2020
362 Clouds 16 1015 59 10000 7.7 260 11:20 06.07.2020
363 Clouds 17 1015 59 10000 7.7 260 10:57 06.07.2020
364 Clouds 16 1015 59 10000 7.7 260 10:39 06.07.2020
365 Clouds 16 1015 63 10000 7.7 250 10:18 06.07.2020
366 Clouds 15 1015 67 10000 8.7 260 09:42 06.07.2020
367 Clouds 15 1015 67 10000 7.2 260 09:22 06.07.2020
368 Clouds 15 1015 67 10000 7.7 260 08:58 06.07.2020
369 Clouds 15 1015 67 10000 7.7 260 08:39 06.07.2020
370 Clouds 15 1014 71 10000 9.3 270 08:20 06.07.2020
371 Clouds 14 1014 71 10000 7.7 270 07:47 06.07.2020
372 Clouds 14 1014 76 10000 4.1 240 07:29 06.07.2020
373 Clouds 14 1014 76 10000 4.1 240 06:49 06.07.2020
374 Clouds 13 1014 76 10000 4.6 250 06:31 06.07.2020
375 Clouds 14 1014 71 10000 5.1 260 05:44 06.07.2020
376 Clouds 14 1014 71 10000 6.7 260 05:25 06.07.2020
377 Clouds 15 1014 67 10000 6.7 280 03:53 06.07.2020
378 Clouds 16 1014 59 10000 10.3 270 02:29 06.07.2020
379 Clouds 17 1013 59 10000 9.8 280 01:45 06.07.2020
380 Clouds 18 1013 63 10000 8.2 280 00:49 06.07.2020
381 Clouds 19 1012 68 10000 7.7 280 00:23 06.07.2020
382 Clouds 19 1012 64 10000 7.7 280 23:56 05.07.2020
383 Clouds 20 1012 64 10000 7.7 280 23:38 05.07.2020
384 Clouds 21 1012 64 10000 7.2 280 23:19 05.07.2020
385 Clouds 21 1012 64 10000 8.2 280 22:42 05.07.2020
386 Clouds 22 1011 64 10000 5.7 250 22:21 05.07.2020
387 Clouds 22 1011 64 10000 5.7 250 21:59 05.07.2020
388 Clouds 22 1011 64 10000 6.2 230 21:41 05.07.2020
389 Clouds 22 1011 64 10000 5.7 240 21:19 05.07.2020
390 Clouds 22 1011 64 10000 5.7 240 21:19 05.07.2020
391 Clouds 23 1011 60 10000 7.7 240 20:59 05.07.2020
392 Clouds 23 1011 60 10000 7.7 240 20:40 05.07.2020
393 Clouds 23 1012 60 10000 9.8 240 20:22 05.07.2020
394 Clouds 23 1012 64 10000 8.7 240 19:57 05.07.2020
395 Rain 23 1012 73 10000 8.2 250 19:39 05.07.2020
396 Rain 23 1012 73 10000 8.2 250 19:19 05.07.2020
397 Rain 23 1012 60 10000 10.3 260 18:42 05.07.2020
398 Rain 23 1012 61 10000 7.7 240 18:23 05.07.2020
399 Rain 23 1012 61 10000 8.7 250 17:59 05.07.2020
400 Rain 24 1012 61 10000 8.7 250 17:41 05.07.2020
401 Rain 24 1012 64 10000 8.7 260 17:19 05.07.2020
402 Rain 23 1012 64 10000 8.2 260 16:44 05.07.2020
403 Clouds 23 1012 60 10000 6.7 240 16:25 05.07.2020
404 Clouds 23 1012 60 10000 7.7 230 15:59 05.07.2020
405 Clouds 24 1012 60 10000 7.7 230 15:39 05.07.2020
406 Clouds 24 1012 60 10000 8.7 240 15:19 05.07.2020
407 Clouds 24 1012 60 10000 9.3 230 14:43 05.07.2020
408 Clouds 25 1012 57 10000 7.7 230 14:23 05.07.2020
409 Clouds 25 1012 53 10000 7.7 230 13:59 05.07.2020
410 Clouds 25 1012 53 10000 7.7 230 13:40 05.07.2020
411 Clouds 24 1012 57 10000 7.7 230 13:22 05.07.2020
412 Clouds 24 1013 57 10000 8.2 220 12:45 05.07.2020
413 Clouds 23 1013 60 10000 8.2 240 12:21 05.07.2020
414 Clouds 23 1013 64 10000 8.2 230 11:56 05.07.2020
415 Clouds 23 1013 64 10000 8.2 230 11:38 05.07.2020
416 Clouds 23 1013 64 10000 7.2 240 11:19 05.07.2020
417 Clouds 22 1013 68 10000 7.2 230 10:55 05.07.2020
418 Clouds 22 1013 68 10000 7.2 230 10:37 05.07.2020
419 Clouds 22 1013 73 10000 7.2 230 10:18 05.07.2020
420 Clouds 22 1013 73 10000 6.7 220 09:41 05.07.2020
421 Clouds 21 1013 73 10000 7.2 220 09:20 05.07.2020
422 Clouds 21 1013 73 10000 5.7 230 08:57 05.07.2020
423 Clouds 21 1013 73 10000 5.7 230 08:38 05.07.2020
424 Clouds 20 1013 77 10000 4.6 220 08:18 05.07.2020
425 Clouds 21 1013 77 10000 4.1 210 07:43 05.07.2020
426 Clouds 21 1013 77 10000 4.1 210 07:22 05.07.2020
427 Clouds 20 1013 77 10000 4.1 210 06:47 05.07.2020
428 Clouds 20 1013 77 10000 3.6 210 04:37 05.07.2020
429 Clouds 20 1014 82 10000 3.6 230 03:19 05.07.2020
430 Clouds 20 1014 82 10000 4.1 220 02:41 05.07.2020
431 Rain 19 1014 93 10000 3.1 180 01:59 05.07.2020
432 Rain 19 1015 93 8000 2.6 210 01:31 05.07.2020
433 Rain 20 1015 77 10000 4.1 210 00:53 05.07.2020
434 Rain 20 1015 72 10000 5.1 210 00:31 05.07.2020
435 Rain 20 1015 72 10000 4.1 210 23:59 04.07.2020
436 Rain 20 1015 72 10000 4.1 210 23:41 04.07.2020
437 Rain 20 1015 72 10000 3.6 210 23:23 04.07.2020
438 Rain 20 1015 72 10000 6.7 220 22:54 04.07.2020
439 Rain 21 1015 68 10000 4.6 220 22:36 04.07.2020
440 Rain 21 1015 68 10000 4.6 220 22:18 04.07.2020
441 Rain 21 1015 64 10000 7.2 230 21:40 04.07.2020
442 Rain 21 1015 56 10000 4.1 220 21:22 04.07.2020
443 Rain 22 1015 56 10000 5.7 220 20:57 04.07.2020
444 Rain 22 1015 56 10000 5.7 220 20:38 04.07.2020
445 Clouds 22 1015 60 10000 5.1 220 20:18 04.07.2020
446 Clouds 23 1015 60 10000 6.2 230 19:43 04.07.2020
447 Clouds 22 1015 60 10000 7.7 240 19:22 04.07.2020
448 Clouds 22 1015 60 10000 7.7 240 19:22 04.07.2020
449 Clouds 23 1015 56 10000 7.2 240 18:55 04.07.2020
450 Clouds 23 1015 56 10000 5.7 240 18:37 04.07.2020
451 Clouds 23 1015 56 10000 5.7 240 18:19 04.07.2020
452 Clouds 23 1015 56 10000 7.2 230 17:42 04.07.2020
453 Clouds 23 1015 56 10000 6.7 230 17:24 04.07.2020
454 Clouds 23 1015 53 10000 6.7 210 16:57 04.07.2020
455 Clouds 23 1015 53 10000 6.7 210 16:38 04.07.2020
456 Clouds 23 1015 53 10000 6.7 220 16:19 04.07.2020
457 Clouds 23 1015 49 10000 6.2 220 15:46 04.07.2020
458 Clouds 23 1015 53 10000 4.1 220 15:28 04.07.2020
459 Clouds 22 1015 53 10000 4.6 220 14:59 04.07.2020
460 Clouds 22 1015 53 10000 4.6 220 14:38 04.07.2020
461 Clouds 22 1016 53 10000 6.7 200 14:19 04.07.2020
462 Clouds 22 1016 53 10000 5.7 200 13:59 04.07.2020
463 Clouds 22 1016 53 10000 5.7 200 13:40 04.07.2020
464 Clouds 22 1016 53 10000 7.2 210 13:18 04.07.2020
465 Clouds 21 1016 56 10000 7.7 210 12:43 04.07.2020
466 Rain 21 1016 60 10000 4.1 220 12:21 04.07.2020
467 Clouds 21 1016 56 10000 7.7 230 11:57 04.07.2020
468 Clouds 20 1016 56 10000 7.7 230 11:38 04.07.2020
469 Clouds 20 1017 56 10000 7.7 230 11:19 04.07.2020
470 Rain 20 1017 52 10000 6.7 220 10:42 04.07.2020
471 Rain 20 1017 56 10000 5.1 220 10:22 04.07.2020
472 Clouds 19 1017 59 10000 4.6 200 09:59 04.07.2020
473 Clouds 19 1017 59 10000 4.6 200 09:40 04.07.2020
474 Clouds 18 1017 63 10000 4.6 190 09:20 04.07.2020
475 Clouds 17 1017 72 10000 4.1 180 08:50 04.07.2020
476 Rain 17 1017 72 10000 4.1 170 08:32 04.07.2020
477 Clouds 16 1017 77 10000 4.1 170 07:55 04.07.2020
478 Clouds 15 1017 77 10000 4.1 170 07:36 04.07.2020
479 Clouds 15 1017 82 10000 3.1 160 06:57 04.07.2020
480 Clouds 14 1017 87 10000 3.1 150 06:23 04.07.2020
481 Clouds 14 1017 82 10000 2.6 160 05:41 04.07.2020
482 Clouds 14 1018 82 10000 2.6 180 04:57 04.07.2020
483 Clouds 15 1018 82 10000 2.1 170 03:47 04.07.2020
484 Clouds 16 1018 82 10000 0.5 0 02:39 04.07.2020
485 Clouds 16 1018 77 10000 2.1 200 01:38 04.07.2020
486 Clouds 17 1018 72 10000 2.6 190 00:47 04.07.2020
487 Clouds 18 1018 72 10000 3.1 210 00:29 04.07.2020
488 Clouds 18 1018 72 10000 2.1 240 23:57 03.07.2020
489 Clouds 18 1018 72 10000 2.1 240 23:38 03.07.2020
490 Clouds 18 1018 67 10000 1.5 230 23:18 03.07.2020
491 Clouds 19 1018 63 10000 3.6 230 22:41 03.07.2020
492 Clouds 19 1018 63 10000 3.1 250 22:23 03.07.2020
493 Clouds 20 1017 59 10000 4.1 260 21:58 03.07.2020
494 Clouds 20 1017 59 10000 4.1 260 21:38 03.07.2020
495 Clouds 21 1017 52 10000 4.6 260 21:19 03.07.2020
496 Clouds 22 1017 52 10000 5.1 250 20:43 03.07.2020
497 Clouds 22 1017 52 10000 3.1 220 20:25 03.07.2020
498 Clouds 22 1017 52 10000 5.1 230 19:57 03.07.2020
499 Clouds 23 1017 52 10000 5.1 230 19:39 03.07.2020
500 Clouds 23 1017 49 10000 4.6 250 19:18 03.07.2020
501 Clouds 23 1017 49 10000 5.1 260 18:45 03.07.2020
502 Clouds 23 1017 56 10000 3.1 260 18:23 03.07.2020
503 Clouds 23 1017 56 10000 3.6 270 17:56 03.07.2020
504 Clouds 23 1017 56 10000 3.6 270 17:38 03.07.2020
505 Clouds 23 1018 56 10000 4.1 300 17:20 03.07.2020
506 Clouds 23 1018 60 10000 4.1 270 16:41 03.07.2020
507 Clouds 23 1018 56 10000 3.6 290 16:21 03.07.2020
508 Clouds 22 1018 56 10000 4.6 280 15:45 03.07.2020
509 Clouds 21 1018 64 10000 2.6 320 15:24 03.07.2020
510 Clouds 21 1018 60 10000 4.6 290 14:57 03.07.2020
511 Clouds 21 1018 64 10000 3.1 250 14:39 03.07.2020
512 Clouds 20 1018 64 10000 3.1 250 14:20 03.07.2020
513 Clouds 21 1019 64 10000 3.1 290 13:47 03.07.2020
514 Clouds 20 1019 72 10000 2.6 250 13:29 03.07.2020
515 Clouds 19 1019 72 10000 1.5 300 12:57 03.07.2020
516 Clouds 18 1019 77 10000 3.1 320 12:38 03.07.2020
517 Clouds 17 1019 77 10000 3.1 320 12:19 03.07.2020
518 Clouds 17 1019 77 10000 1.5 250 11:42 03.07.2020
519 Clouds 17 1019 72 10000 1 0 11:23 03.07.2020
520 Clouds 16 1019 72 10000 1 0 10:58 03.07.2020
521 Clouds 16 1019 82 10000 1.5 180 10:39 03.07.2020
522 Clouds 16 1018 77 10000 1 0 10:20 03.07.2020
523 Clouds 15 1018 82 10000 0.5 0 09:55 03.07.2020
524 Clouds 15 1018 82 10000 0.5 0 09:37 03.07.2020
525 Clouds 15 1018 82 10000 1.5 170 09:18 03.07.2020
526 Clouds 14 1018 82 10000 1.5 180 08:40 03.07.2020
527 Clouds 14 1018 87 10000 1.5 180 08:19 03.07.2020
528 Clouds 14 1017 87 10000 2.1 160 07:49 03.07.2020
529 Clouds 13 1017 87 10000 3.1 150 07:27 03.07.2020
530 Clouds 13 1017 93 10000 2.6 170 06:58 03.07.2020
531 Clouds 12 1017 93 10000 2.6 150 06:25 03.07.2020
532 Clouds 13 1016 93 10000 0.5 0 04:56 03.07.2020
533 Clouds 13 1016 87 10000 2.1 220 03:46 03.07.2020
534 Clouds 14 1016 93 10000 1.5 160 02:49 03.07.2020
535 Clouds 14 1016 93 10000 1.5 160 02:30 03.07.2020
536 Clouds 14 1016 93 10000 2.1 170 01:30 03.07.2020
537 Clouds 14 1015 100 10000 1 160 00:56 03.07.2020
538 Clouds 14 1015 87 10000 0.5 0 00:37 03.07.2020
539 Rain 15 1015 82 10000 4.1 350 23:52 02.07.2020
540 Thunderstorm 15 1014 93 10000 3.1 150 23:21 02.07.2020
541 Rain 16 1014 93 10000 1 0 22:59 02.07.2020
542 Rain 17 1014 93 10000 1 0 22:40 02.07.2020
543 Clouds 17 1014 93 10000 1.5 120 22:21 02.07.2020
544 Rain 17 1014 93 10000 2.6 60 21:58 02.07.2020
545 Rain 17 1014 93 10000 2.6 60 21:39 02.07.2020
546 Rain 18 1013 88 10000 1.5 90 21:19 02.07.2020
547 Rain 18 1013 93 10000 1 0 20:58 02.07.2020
548 Rain 18 1013 93 10000 1 0 20:39 02.07.2020
549 Rain 18 1013 93 10000 1 0 20:39 02.07.2020
550 Rain 18 1013 93 10000 1 120 20:19 02.07.2020
551 Rain 18 1013 82 10000 4.1 290 19:43 02.07.2020
552 Rain 18 1013 82 10000 4.1 290 19:24 02.07.2020
553 Rain 18 1012 88 10000 6.2 270 18:59 02.07.2020
554 Rain 18 1012 88 10000 6.2 270 18:59 02.07.2020
555 Rain 18 1012 88 10000 6.2 270 18:40 02.07.2020
556 Rain 18 1012 82 10000 2.6 220 18:22 02.07.2020
557 Clouds 20 1012 77 10000 3.1 240 17:57 02.07.2020
558 Rain 21 1012 82 10000 2.1 160 17:38 02.07.2020
559 Rain 21 1012 82 10000 2.1 160 17:18 02.07.2020
560 Rain 21 1012 93 9000 4.6 260 16:42 02.07.2020
561 Rain 20 1012 68 10000 4.1 210 16:21 02.07.2020
562 Rain 22 1012 68 10000 3.6 210 15:59 02.07.2020
563 Rain 21 1012 82 10000 2.6 190 15:38 02.07.2020
564 Rain 21 1012 82 10000 2.6 190 15:20 02.07.2020
565 Rain 21 1012 77 10000 2.6 240 14:46 02.07.2020
566 Rain 21 1012 77 10000 2.6 240 14:23 02.07.2020
567 Rain 20 1012 82 10000 2.1 240 13:57 02.07.2020
568 Rain 20 1012 82 10000 2.1 240 13:39 02.07.2020
569 Rain 19 1012 88 10000 2.1 230 13:20 02.07.2020
570 Rain 19 1012 88 10000 3.6 240 12:58 02.07.2020
571 Rain 19 1012 88 10000 3.6 240 12:38 02.07.2020
572 Rain 19 1012 88 10000 2.1 210 12:20 02.07.2020
573 Rain 19 1011 82 10000 0.5 0 11:44 02.07.2020
574 Rain 19 1011 72 10000 2.6 280 11:25 02.07.2020
575 Clouds 19 1011 59 10000 3.1 300 10:48 02.07.2020
576 Clouds 19 1011 56 10000 2.1 300 10:28 02.07.2020
577 Clouds 19 1011 56 10000 2.1 300 10:28 02.07.2020
578 Clouds 19 1011 59 10000 3.1 300 10:28 02.07.2020
579 Clouds 19 1011 59 10000 3.6 290 09:59 02.07.2020
580 Clouds 19 1011 59 10000 3.6 290 09:40 02.07.2020
581 Clouds 18 1011 63 10000 2.1 290 09:20 02.07.2020
582 Clouds 18 1011 68 10000 2.1 210 08:56 02.07.2020
583 Clouds 18 1011 68 10000 2.1 210 08:37 02.07.2020
584 Clouds 17 1011 72 10000 1.5 200 08:18 02.07.2020
585 Clouds 16 1011 77 10000 1.5 200 07:40 02.07.2020
586 Clouds 15 1010 82 10000 1 0 07:20 02.07.2020
587 Clouds 15 1010 93 10000 0.5 0 06:41 02.07.2020
588 Clouds 14 1010 93 10000 1.5 170 06:20 02.07.2020
589 Clouds 15 1010 87 10000 2.6 200 05:45 02.07.2020
590 Clouds 15 1010 77 10000 3.1 230 04:40 02.07.2020
591 Clouds 16 1010 87 10000 3.1 240 03:33 02.07.2020
592 Clouds 17 1010 88 10000 3.6 240 01:44 02.07.2020
593 Rain 18 1010 88 10000 2.1 190 00:26 02.07.2020
594 Rain 18 1009 88 10000 2.1 250 23:55 01.07.2020
595 Rain 18 1009 88 10000 2.1 250 23:37 01.07.2020
596 Rain 18 1009 88 10000 2.1 280 23:18 01.07.2020
597 Clouds 18 1009 93 10000 1.5 240 22:54 01.07.2020
598 Clouds 18 1009 93 10000 1.5 240 22:36 01.07.2020
599 Rain 18 1009 88 10000 2.6 270 22:18 01.07.2020
600 Rain 19 1008 88 10000 4.1 290 21:55 01.07.2020
601 Rain 19 1008 88 10000 4.1 290 21:37 01.07.2020
602 Clouds 19 1008 88 10000 5.7 290 21:19 01.07.2020
603 Rain 19 1008 93 10000 8.2 290 20:44 01.07.2020
604 Rain 20 1007 64 10000 6.2 230 20:25 01.07.2020
605 Rain 21 1007 60 0 5.1 230 19:57 01.07.2020
606 Rain 22 1007 68 10000 4.6 230 19:38 01.07.2020
607 Rain 22 1007 68 10000 4.6 230 19:20 01.07.2020
608 Clouds 23 1008 68 10000 6.7 230 18:54 01.07.2020
609 Clouds 23 1008 68 10000 6.7 230 18:36 01.07.2020
610 Clouds 22 1007 64 10000 6.7 220 18:18 01.07.2020
611 Clouds 22 1007 64 10000 6.7 210 17:41 01.07.2020
612 Clouds 23 1007 68 10000 6.2 200 17:20 01.07.2020
613 Clouds 23 1007 73 10000 4.1 200 16:48 01.07.2020
614 Clouds 23 1008 78 10000 3.6 0 16:29 01.07.2020
615 Clouds 23 1008 78 10000 3.6 0 15:59 01.07.2020
616 Rain 22 1008 77 10000 2.1 0 15:41 01.07.2020
617 Rain 22 1008 82 10000 3.1 250 15:22 01.07.2020
618 Rain 20 1008 82 10000 3.6 250 14:56 01.07.2020
619 Rain 20 1008 82 10000 3.6 250 14:37 01.07.2020
620 Rain 21 1008 73 10000 4.6 220 14:19 01.07.2020
621 Rain 21 1008 68 10000 6.2 230 13:40 01.07.2020
622 Clouds 21 1007 64 10000 5.7 210 13:22 01.07.2020
623 Clouds 21 1008 64 10000 6.7 220 12:59 01.07.2020
624 Clouds 21 1008 68 10000 4.6 220 12:41 01.07.2020
625 Clouds 21 1008 68 10000 4.6 220 12:22 01.07.2020
626 Clouds 20 1008 68 10000 3.1 210 11:58 01.07.2020
627 Clouds 20 1008 68 10000 3.1 210 11:40 01.07.2020
628 Clouds 20 1008 72 10000 3.1 190 11:21 01.07.2020
629 Clouds 20 1008 72 10000 3.6 200 10:55 01.07.2020
630 Clouds 19 1008 72 10000 4.6 210 10:36 01.07.2020
631 Clouds 19 1008 72 10000 4.6 210 10:18 01.07.2020
632 Clouds 19 1008 77 10000 2.6 190 09:38 01.07.2020
633 Clouds 19 1008 72 10000 3.1 190 09:20 01.07.2020
634 Clouds 19 1008 77 10000 3.1 180 08:57 01.07.2020
635 Clouds 19 1008 77 10000 3.1 180 08:39 01.07.2020
636 Clouds 18 1008 72 10000 3.1 160 08:19 01.07.2020
637 Clouds 18 1008 77 10000 2.6 160 07:41 01.07.2020
638 Clouds 18 1008 77 10000 2.6 160 07:23 01.07.2020
639 Clouds 18 1008 77 10000 3.1 180 06:55 01.07.2020
640 Clouds 18 1008 77 10000 3.1 160 06:32 01.07.2020
641 Clouds 18 1008 77 10000 3.1 170 05:46 01.07.2020
642 Rain 18 1008 68 10000 3.1 170 04:30 01.07.2020
643 Rain 19 1008 72 10000 2.6 170 03:42 01.07.2020
644 Rain 19 1009 68 10000 3.1 170 03:22 01.07.2020
645 Clouds 19 1009 68 10000 2.6 180 02:19 01.07.2020
646 Clouds 20 1009 68 10000 2.6 190 01:23 01.07.2020
647 Clouds 20 1009 64 10000 3.6 200 00:38 01.07.2020
648 Clouds 20 1009 64 10000 3.6 200 00:19 01.07.2020
649 Clouds 20 1009 60 10000 4.1 200 23:40 30.06.2020
650 Clouds 20 1009 60 10000 3.6 200 23:20 30.06.2020
651 Clouds 20 1009 60 10000 3.6 210 22:42 30.06.2020
652 Clouds 20 1009 60 10000 5.1 220 22:19 30.06.2020
653 Clouds 20 1009 56 10000 4.6 220 21:54 30.06.2020
654 Clouds 21 1009 56 10000 4.6 220 21:36 30.06.2020
655 Clouds 21 1009 56 10000 4.1 220 21:18 30.06.2020
656 Rain 21 1009 52 10000 5.7 230 20:42 30.06.2020
657 Rain 21 1009 52 10000 5.1 230 20:21 30.06.2020
658 Rain 21 1009 52 10000 4.6 230 19:44 30.06.2020
659 Clouds 21 1009 52 10000 4.1 230 19:21 30.06.2020
660 Clouds 21 1010 52 10000 3.6 240 18:58 30.06.2020
661 Clouds 22 1010 52 10000 4.6 240 18:40 30.06.2020
662 Clouds 22 1010 52 10000 4.6 240 18:20 30.06.2020
663 Clouds 22 1010 46 10000 5.7 250 17:40 30.06.2020
664 Clouds 22 1010 46 10000 6.2 240 17:21 30.06.2020
665 Clouds 22 1010 46 10000 6.2 240 16:59 30.06.2020
666 Clouds 22 1010 46 10000 6.2 250 16:40 30.06.2020
667 Clouds 22 1010 49 10000 7.2 260 16:21 30.06.2020
668 Clouds 22 1010 49 10000 7.2 260 16:21 30.06.2020
669 Clouds 22 1011 46 10000 6.7 250 15:56 30.06.2020
670 Clouds 21 1011 46 10000 6.7 250 15:38 30.06.2020
671 Clouds 21 1011 49 10000 6.7 230 15:19 30.06.2020
672 Clouds 21 1011 46 10000 8.2 240 14:43 30.06.2020
673 Clouds 21 1011 46 10000 7.2 240 14:22 30.06.2020
674 Clouds 21 1011 49 10000 7.2 250 13:59 30.06.2020
675 Clouds 21 1011 49 10000 7.7 230 13:38 30.06.2020
676 Clouds 21 1011 49 10000 7.7 230 13:19 30.06.2020
677 Clouds 21 1011 52 10000 7.2 250 12:57 30.06.2020
678 Clouds 20 1011 52 10000 7.2 250 12:39 30.06.2020
679 Clouds 19 1011 52 10000 6.7 240 12:20 30.06.2020
680 Clouds 19 1011 49 10000 6.2 250 11:57 30.06.2020
681 Clouds 19 1011 49 10000 6.2 250 11:38 30.06.2020
682 Clouds 19 1011 52 10000 7.2 240 11:18 30.06.2020
683 Clouds 18 1011 52 10000 7.2 240 10:55 30.06.2020
684 Clouds 22 1014 52 10000 5.1 200 16:38 28.06.2020
685 Clouds 22 1015 56 10000 5.7 200 16:19 28.06.2020
686 Clouds 21 1015 59 10000 4.1 200 15:55 28.06.2020
687 Clouds 21 1015 59 10000 5.1 210 15:37 28.06.2020
688 Clouds 21 1015 59 10000 5.1 210 15:18 28.06.2020
689 Clouds 20 1015 59 10000 6.7 250 14:42 28.06.2020
690 Clouds 20 1015 63 10000 6.2 240 14:24 28.06.2020
691 Clouds 19 1015 63 10000 6.7 260 13:55 28.06.2020
692 Clouds 19 1015 63 10000 6.7 260 13:36 28.06.2020
693 Clouds 19 1015 59 10000 6.2 250 13:18 28.06.2020
694 Clouds 18 1015 63 10000 5.7 250 12:55 28.06.2020
695 Rain 17 1015 59 10000 4.6 270 12:36 28.06.2020
696 Rain 17 1015 59 10000 4.6 270 12:18 28.06.2020
697 Rain 17 1014 72 10000 3.6 270 11:43 28.06.2020
698 Rain 16 1014 77 10000 7.2 280 11:21 28.06.2020
699 Clouds 17 1014 72 10000 7.7 290 10:59 28.06.2020
700 Clouds 17 1014 72 10000 7.7 290 10:41 28.06.2020
701 Clouds 17 1013 68 10000 5.7 270 10:23 28.06.2020
702 Clouds 18 1013 68 10000 5.7 270 09:57 28.06.2020
703 Clouds 19 1013 68 10000 5.1 260 09:39 28.06.2020
704 Clouds 19 1013 68 10000 6.7 260 09:20 28.06.2020
705 Clouds 19 1012 68 10000 5.1 250 08:42 28.06.2020
706 Rain 20 1012 72 10000 2.6 230 08:22 28.06.2020
707 Clouds 19 1012 77 10000 3.6 210 07:45 28.06.2020
708 Rain 19 1011 77 10000 3.1 210 07:27 28.06.2020
709 Rain 20 1011 72 10000 4.1 270 06:34 28.06.2020
710 Rain 20 1011 68 10000 4.6 190 05:55 28.06.2020
711 Clouds 20 1011 68 10000 3.6 190 05:25 28.06.2020
712 Clouds 21 1011 64 10000 5.1 190 03:23 28.06.2020
713 Clouds 22 1011 64 10000 4.1 180 02:36 28.06.2020
714 Rain 21 1011 68 10000 3.1 170 01:49 28.06.2020
715 Clouds 22 1011 64 10000 2.6 170 01:25 28.06.2020
716 Clouds 22 1011 64 10000 3.6 170 00:44 28.06.2020
717 Clouds 22 1011 64 10000 3.1 180 00:24 28.06.2020
718 Clouds 23 1011 56 10000 3.1 210 23:41 27.06.2020
719 Clouds 23 1011 56 10000 4.1 210 23:22 27.06.2020
720 Clouds 23 1011 56 10000 4.1 210 22:58 27.06.2020
721 Clouds 23 1011 56 10000 4.1 210 22:40 27.06.2020
722 Clouds 24 1011 53 10000 4.6 210 22:19 27.06.2020
723 Clouds 24 1011 57 10000 5.1 230 21:54 27.06.2020
724 Clouds 24 1011 57 10000 5.1 230 21:36 27.06.2020
725 Clouds 24 1011 53 10000 6.2 230 21:18 27.06.2020
726 Clouds 25 1010 50 10000 8.2 240 20:41 27.06.2020
727 Clouds 26 1010 50 10000 5.7 230 20:18 27.06.2020
728 Clouds 26 1010 47 10000 7.2 220 19:55 27.06.2020
729 Clouds 27 1010 47 10000 7.2 240 19:36 27.06.2020
730 Rain 27 1010 47 10000 7.2 240 19:18 27.06.2020
731 Rain 27 1010 44 10000 7.7 230 18:43 27.06.2020
732 Clouds 27 1010 44 10000 7.7 240 18:22 27.06.2020
733 Clouds 28 1010 44 10000 6.7 220 17:57 27.06.2020
734 Rain 28 1010 47 10000 9.3 230 17:38 27.06.2020
735 Rain 28 1010 47 10000 9.3 230 17:19 27.06.2020
736 Clouds 29 1010 45 10000 6.7 230 16:43 27.06.2020
737 Clouds 29 1010 57 10000 2.6 150 16:25 27.06.2020
738 Clouds 29 1010 54 10000 3.6 150 15:55 27.06.2020
739 Clouds 28 1010 54 10000 3.6 150 15:37 27.06.2020
740 Clouds 28 1011 57 10000 4.6 140 15:18 27.06.2020
741 Clouds 26 1011 61 10000 3.6 180 14:42 27.06.2020
742 Rain 25 1011 64 10000 5.7 190 14:24 27.06.2020
743 Rain 25 1011 64 10000 6.2 190 13:57 27.06.2020
744 Rain 25 1011 57 10000 6.7 190 13:37 27.06.2020
745 Rain 26 1011 57 10000 6.7 190 13:19 27.06.2020
746 Clouds 27 1011 50 10000 7.7 190 12:57 27.06.2020
747 Clouds 27 1011 50 10000 7.7 190 12:38 27.06.2020
748 Clouds 24 1011 53 10000 5.7 200 12:20 27.06.2020
749 Clouds 25 1010 50 10000 4.6 180 11:54 27.06.2020
750 Clouds 24 1010 50 10000 4.6 180 11:36 27.06.2020
751 Clouds 24 1010 60 10000 4.1 180 11:18 27.06.2020
752 Clouds 23 1010 64 10000 2.1 0 10:38 27.06.2020
753 Rain 23 1010 64 10000 0.5 0 10:19 27.06.2020
754 Rain 22 1011 64 10000 4.1 210 09:41 27.06.2020
755 Rain 22 1011 68 10000 3.6 200 09:22 27.06.2020
756 Rain 22 1011 73 10000 5.1 210 08:58 27.06.2020
757 Clouds 22 1011 77 10000 2.6 160 08:39 27.06.2020
758 Clouds 21 1011 77 10000 2.6 160 08:20 27.06.2020
759 Clouds 21 1011 82 10000 2.1 120 07:42 27.06.2020
760 Clouds 21 1011 82 10000 2.1 120 07:42 27.06.2020
761 Clouds 20 1010 82 10000 1.5 110 07:24 27.06.2020
762 Clouds 20 1010 82 10000 2.1 120 06:45 27.06.2020
763 Clouds 20 1010 82 10000 3.1 130 06:27 27.06.2020
764 Clouds 20 1011 77 10000 2.6 120 04:23 27.06.2020
765 Clouds 20 1011 82 10000 3.6 150 03:52 27.06.2020
766 Clouds 20 1011 82 10000 2.1 140 03:23 27.06.2020
767 Clouds 20 1011 82 10000 2.1 130 02:36 27.06.2020
768 Clouds 21 1011 88 10000 2.1 130 01:45 27.06.2020
769 Rain 21 1011 88 10000 1 0 01:23 27.06.2020
770 Rain 21 1011 82 10000 2.1 90 00:38 27.06.2020
771 Rain 22 1011 77 10000 1 0 23:46 26.06.2020
772 Rain 22 1011 73 10000 0.5 70 23:26 26.06.2020
773 Rain 22 1010 73 10000 1.5 120 22:57 26.06.2020
774 Rain 23 1010 68 10000 2.6 130 22:39 26.06.2020
775 Rain 23 1010 68 10000 2.6 130 22:20 26.06.2020
776 Rain 23 1010 68 10000 2.6 130 21:57 26.06.2020
777 Rain 23 1010 68 10000 2.1 160 21:38 26.06.2020
778 Rain 24 1010 60 10000 2.6 200 21:20 26.06.2020
779 Rain 24 1010 64 10000 2.6 210 20:46 26.06.2020
780 Rain 25 1010 57 10000 5.1 230 20:26 26.06.2020
781 Rain 28 1009 42 10000 2.6 90 19:47 26.06.2020
782 Clouds 31 1009 42 10000 2.6 80 19:24 26.06.2020
783 Clouds 31 1010 39 10000 2.1 90 18:59 26.06.2020
784 Clouds 31 1010 39 10000 2.1 90 18:40 26.06.2020
785 Clear 32 1010 33 10000 2.6 90 18:21 26.06.2020
786 Clear 32 1010 33 10000 2.1 0 17:44 26.06.2020
787 Clear 32 1010 33 10000 2.6 0 17:26 26.06.2020
788 Clear 32 1010 33 10000 2.6 0 16:59 26.06.2020
789 Clear 32 1010 33 10000 2.6 0 16:41 26.06.2020
790 Clear 32 1010 37 10000 1.5 0 16:21 26.06.2020
791 Clear 32 1011 35 10000 3.6 150 15:41 26.06.2020
792 Clear 30 1011 37 10000 3.1 120 15:21 26.06.2020
793 Clear 30 1012 37 10000 5.1 130 14:58 26.06.2020
794 Clear 29 1012 37 10000 5.1 130 14:39 26.06.2020
795 Clear 29 1012 39 10000 5.1 140 14:21 26.06.2020
796 Clear 30 1012 39 10000 4.6 130 13:45 26.06.2020
797 Clear 29 1012 42 10000 5.1 130 13:24 26.06.2020
798 Clear 29 1012 42 10000 5.7 140 12:57 26.06.2020
799 Clear 29 1012 42 10000 7.2 150 12:38 26.06.2020
800 Clear 27 1012 42 10000 7.2 150 12:19 26.06.2020
801 Clear 27 1013 44 10000 7.2 150 11:57 26.06.2020
802 Clear 26 1013 44 10000 7.2 150 11:38 26.06.2020
803 Clear 26 1013 47 10000 6.7 150 11:20 26.06.2020
804 Clear 25 1013 47 10000 5.7 140 10:57 26.06.2020
805 Clear 25 1013 47 10000 5.7 140 10:37 26.06.2020
806 Clear 26 1013 50 10000 5.1 120 10:18 26.06.2020
807 Clear 25 1014 56 10000 4.1 140 09:43 26.06.2020
808 Clear 22 1014 60 10000 4.1 140 09:23 26.06.2020
809 Clear 22 1014 60 10000 3.6 120 08:55 26.06.2020
810 Clear 21 1014 68 10000 2.6 120 08:28 26.06.2020
811 Clear 20 1014 68 10000 2.6 120 07:53 26.06.2020
812 Clear 19 1014 68 10000 3.1 90 07:24 26.06.2020
813 Clear 19 1014 68 10000 3.1 90 06:58 26.06.2020
814 Clear 18 1014 72 10000 1.5 110 06:36 26.06.2020
815 Clear 18 1014 72 10000 2.1 110 05:59 26.06.2020
816 Clear 18 1014 72 10000 2.1 110 05:40 26.06.2020
817 Clear 20 1015 72 10000 3.6 80 03:30 26.06.2020
818 Clear 20 1015 68 10000 2.1 100 02:22 26.06.2020
819 Clear 21 1015 64 10000 3.1 80 01:19 26.06.2020
820 Clear 22 1016 68 10000 2.1 90 00:40 26.06.2020
821 Clear 22 1016 68 10000 2.1 90 00:19 26.06.2020
822 Clear 22 1016 64 10000 1.5 100 23:42 25.06.2020
823 Clear 22 1016 60 10000 1.5 110 23:18 25.06.2020
824 Clear 23 1016 56 10000 1.5 100 22:56 25.06.2020
825 Clear 24 1016 60 10000 2.1 100 22:37 25.06.2020
826 Clear 24 1016 60 10000 2.1 100 22:18 25.06.2020
827 Clear 25 1016 64 10000 1.5 80 21:56 25.06.2020
828 Clear 25 1016 64 10000 1.5 80 21:38 25.06.2020
829 Clear 26 1016 57 10000 1.5 110 21:19 25.06.2020
830 Clouds 26 1016 54 10000 2.6 110 20:44 25.06.2020
831 Clouds 26 1016 57 10000 3.1 100 20:23 25.06.2020
832 Clouds 27 1016 50 10000 3.6 110 19:58 25.06.2020
833 Clouds 27 1016 54 10000 3.1 90 19:39 25.06.2020
834 Clouds 27 1016 54 10000 3.1 90 19:19 25.06.2020
835 Clouds 27 1016 50 10000 4.1 110 18:57 25.06.2020
836 Clouds 27 1016 50 10000 4.1 110 18:37 25.06.2020
837 Clouds 28 1017 51 10000 3.1 100 18:19 25.06.2020
838 Rain 28 1017 47 10000 4.1 130 17:41 25.06.2020
839 Rain 28 1017 51 10000 4.1 150 17:19 25.06.2020
840 Rain 28 1017 45 10000 4.1 100 16:57 25.06.2020
841 Rain 29 1017 45 10000 4.1 100 16:37 25.06.2020
842 Rain 29 1017 42 10000 4.1 110 16:18 25.06.2020
843 Rain 28 1017 44 10000 2.6 110 15:41 25.06.2020
844 Clouds 29 1017 42 10000 4.1 90 15:21 25.06.2020
845 Clouds 29 1018 42 10000 4.1 100 14:44 25.06.2020
846 Clear 29 1018 42 10000 4.6 120 14:25 25.06.2020
847 Clear 29 1018 42 10000 4.1 100 13:56 25.06.2020
848 Clear 29 1018 42 10000 4.1 100 13:38 25.06.2020
849 Clear 28 1018 42 10000 4.1 100 13:19 25.06.2020
850 Clear 28 1019 44 10000 4.6 120 12:46 25.06.2020
851 Clear 27 1019 44 10000 3.1 90 12:21 25.06.2020
852 Clear 27 1019 44 10000 3.6 80 11:59 25.06.2020
853 Clear 26 1019 44 10000 3.6 80 11:40 25.06.2020
854 Clouds 26 1019 47 10000 4.6 120 11:21 25.06.2020
855 Clouds 25 1020 50 10000 5.1 90 10:43 25.06.2020
856 Clouds 24 1020 53 10000 4.1 100 10:25 25.06.2020
857 Clear 23 1020 53 10000 4.1 100 09:42 25.06.2020
858 Clouds 22 1020 56 10000 3.6 100 09:23 25.06.2020
859 Clouds 22 1020 56 10000 3.6 100 09:23 25.06.2020
860 Clouds 22 1020 60 10000 3.1 100 08:59 25.06.2020
861 Clouds 21 1020 60 10000 3.1 100 08:41 25.06.2020
862 Clouds 21 1020 64 10000 3.1 90 08:18 25.06.2020
863 Clouds 20 1020 68 10000 3.1 100 07:42 25.06.2020
864 Clouds 19 1020 72 10000 2.1 130 07:24 25.06.2020
865 Clouds 18 1020 72 10000 1.5 130 06:45 25.06.2020
866 Clouds 18 1020 72 10000 1.5 90 06:25 25.06.2020
867 Clouds 18 1020 72 10000 1.5 110 05:39 25.06.2020
868 Clouds 19 1021 63 10000 1.5 110 03:51 25.06.2020
869 Clouds 20 1021 59 10000 2.1 100 02:59 25.06.2020
870 Clouds 20 1021 59 10000 2.1 120 02:41 25.06.2020
871 Clouds 21 1021 52 10000 2.1 90 01:43 25.06.2020
872 Clouds 21 1021 49 10000 2.6 90 00:59 25.06.2020
873 Clouds 22 1021 49 10000 2.6 90 00:40 25.06.2020
874 Clouds 23 1021 46 10000 2.6 90 00:18 25.06.2020
875 Clouds 23 1021 46 10000 2.6 100 23:41 24.06.2020
876 Clouds 23 1021 46 10000 3.1 80 23:23 24.06.2020
877 Clouds 23 1021 43 10000 2.1 90 22:56 24.06.2020
878 Clouds 24 1021 43 10000 2.1 90 22:37 24.06.2020
879 Clouds 25 1020 38 10000 2.1 90 22:18 24.06.2020
880 Clouds 25 1020 33 10000 2.1 100 21:55 24.06.2020
881 Clear 27 1020 29 10000 3.1 110 21:36 24.06.2020
882 Clear 27 1020 29 10000 3.1 110 21:18 24.06.2020
883 Clear 28 1020 30 10000 3.6 120 20:56 24.06.2020
884 Clear 28 1020 30 10000 3.6 120 20:37 24.06.2020
885 Clouds 28 1020 30 10000 4.1 130 20:19 24.06.2020
886 Clouds 29 1020 30 10000 4.1 120 19:55 24.06.2020
887 Clear 29 1020 32 10000 4.6 130 19:36 24.06.2020
888 Clear 30 1020 32 10000 4.6 130 19:18 24.06.2020
889 Clear 30 1020 32 10000 4.6 160 18:56 24.06.2020
890 Clear 30 1020 32 10000 4.6 160 18:37 24.06.2020
891 Clear 30 1020 32 10000 4.1 150 18:18 24.06.2020
892 Clear 30 1020 32 10000 3.1 110 17:41 24.06.2020
893 Clear 30 1020 32 10000 3.1 110 17:41 24.06.2020
894 Clear 30 1020 30 10000 2.6 140 17:19 24.06.2020
895 Clear 30 1020 32 10000 3.1 130 16:58 24.06.2020
896 Clear 30 1020 32 10000 3.1 130 16:39 24.06.2020
897 Clear 30 1020 32 10000 2.6 120 16:21 24.06.2020
898 Clear 30 1021 30 10000 2.1 130 15:57 24.06.2020
899 Clear 31 1021 30 10000 2.1 130 15:38 24.06.2020
900 Clear 29 1021 32 10000 3.1 0 15:20 24.06.2020
901 Clear 29 1021 32 10000 3.6 120 14:54 24.06.2020
902 Clear 29 1021 32 10000 3.6 120 14:36 24.06.2020
903 Clear 29 1022 34 10000 3.1 0 14:18 24.06.2020
904 Clear 28 1022 37 10000 3.1 90 13:41 24.06.2020
905 Clear 28 1022 34 10000 3.6 80 13:19 24.06.2020
906 Clear 28 1022 36 10000 3.6 120 12:41 24.06.2020
907 Clear 28 1022 36 10000 3.6 120 12:41 24.06.2020
908 Clear 27 1023 39 10000 3.6 80 12:20 24.06.2020
909 Clear 26 1023 36 10000 3.6 100 11:57 24.06.2020
910 Clear 26 1023 36 10000 3.6 100 11:39 24.06.2020
911 Clear 26 1023 38 10000 3.1 90 11:21 24.06.2020
912 Clear 25 1023 41 10000 2.6 110 10:44 24.06.2020
913 Clear 24 1023 44 10000 2.6 110 10:19 24.06.2020
914 Clear 23 1023 43 10000 2.6 120 09:45 24.06.2020
915 Clear 20 1023 49 10000 3.1 110 09:23 24.06.2020
916 Clear 20 1023 56 10000 2.1 100 08:59 24.06.2020
917 Clear 21 1023 56 10000 2.1 100 08:39 24.06.2020
918 Clear 20 1023 60 10000 1.5 0 08:18 24.06.2020
919 Clear 18 1023 68 10000 1 0 07:44 24.06.2020
920 Clear 16 1023 87 10000 2.1 150 07:24 24.06.2020
921 Clear 15 1023 82 10000 1 140 06:44 24.06.2020
922 Clear 15 1023 76 10000 1 0 06:24 24.06.2020
923 Clear 15 1023 76 10000 1 0 06:24 24.06.2020
924 Clear 15 1023 77 10000 0.5 0 05:39 24.06.2020
925 Clear 15 1023 82 10000 1.5 150 04:38 24.06.2020
926 Clear 17 1023 63 10000 1 0 03:38 24.06.2020
927 Clear 18 1023 55 10000 2.1 90 02:54 24.06.2020
928 Clouds 19 1023 52 10000 3.1 80 02:21 24.06.2020
929 Clouds 20 1024 52 10000 4.1 80 00:52 24.06.2020
930 Clouds 21 1024 52 10000 4.1 80 00:33 24.06.2020
931 Clouds 22 1024 52 10000 3.6 70 23:49 23.06.2020
932 Clear 22 1023 52 10000 3.1 60 23:23 23.06.2020
933 Clear 23 1023 53 10000 2.1 50 22:59 23.06.2020
934 Clear 23 1023 53 10000 2.1 50 22:41 23.06.2020
935 Clear 24 1023 49 10000 1.5 40 22:19 23.06.2020
936 Clear 24 1023 47 10000 2.1 30 21:59 23.06.2020
937 Clear 26 1023 41 10000 2.6 20 21:38 23.06.2020
938 Clear 26 1023 41 10000 2.6 20 21:18 23.06.2020
939 Clear 27 1023 36 10000 3.6 30 20:55 23.06.2020
940 Clear 27 1023 36 10000 3.6 30 20:37 23.06.2020
941 Clear 27 1023 39 10000 2.6 20 20:18 23.06.2020
942 Clear 28 1023 32 10000 2.1 20 19:44 23.06.2020
943 Clear 28 1023 34 10000 2.1 10 19:24 23.06.2020
944 Clear 28 1023 34 10000 1.5 0 18:40 23.06.2020
945 Clear 28 1023 34 10000 1.5 0 18:19 23.06.2020
946 Clear 28 1023 34 10000 1.5 0 18:19 23.06.2020
947 Clear 28 1023 34 10000 1 0 17:56 23.06.2020
948 Clear 28 1023 34 10000 1 0 17:38 23.06.2020
949 Clear 28 1024 34 10000 1.5 130 17:19 23.06.2020
950 Clear 28 1024 37 10000 1.5 0 16:54 23.06.2020
951 Clear 27 1024 39 10000 2.1 260 16:36 23.06.2020
952 Clear 27 1024 39 10000 2.1 260 16:18 23.06.2020
953 Clear 27 1024 39 10000 2.6 0 15:43 23.06.2020
954 Clear 27 1025 36 10000 2.6 60 15:24 23.06.2020
955 Clear 26 1025 39 10000 2.1 0 14:56 23.06.2020
956 Clear 26 1025 39 10000 2.1 0 14:37 23.06.2020
957 Clear 26 1025 41 10000 1.5 0 14:18 23.06.2020
958 Clear 25 1025 41 10000 2.1 0 13:45 23.06.2020
959 Clear 25 1025 41 10000 2.1 0 13:26 23.06.2020
960 Clear 26 1025 41 10000 2.1 0 12:59 23.06.2020
961 Clear 26 1025 41 10000 2.1 0 12:59 23.06.2020
962 Clear 24 1025 41 10000 2.1 0 12:40 23.06.2020
963 Clear 24 1025 44 10000 1 0 12:20 23.06.2020
964 Clear 24 1026 44 10000 2.1 0 11:43 23.06.2020
965 Clear 23 1026 46 10000 1.5 0 11:23 23.06.2020
966 Clear 22 1026 56 10000 1 0 10:59 23.06.2020
967 Clear 22 1026 56 10000 1 0 10:41 23.06.2020
968 Clear 21 1026 56 10000 1.5 190 10:22 23.06.2020
969 Clear 20 1026 63 10000 1.5 150 09:57 23.06.2020
970 Clear 20 1026 63 10000 1.5 150 09:38 23.06.2020
971 Clear 19 1026 68 10000 1.5 160 09:20 23.06.2020
972 Clear 17 1026 72 10000 1.5 160 08:46 23.06.2020
973 Clear 16 1026 77 10000 1.5 140 08:26 23.06.2020
974 Clear 15 1026 82 10000 0.5 0 07:49 23.06.2020
975 Clear 13 1026 93 10000 1.5 140 07:25 23.06.2020
976 Clear 13 1026 93 10000 1.48 134 06:57 23.06.2020
977 Clear 12 1026 93 10000 0.5 0 06:38 23.06.2020
978 Clear 12 1026 93 10000 0.5 0 06:19 23.06.2020
979 Clear 12 1025 100 10000 0.5 0 05:28 23.06.2020
980 Clear 14 1025 93 10000 0.5 0 03:23 23.06.2020
981 Clear 14 1025 87 10000 0.5 0 02:53 23.06.2020
982 Clear 14 1025 87 10000 0.5 0 02:34 23.06.2020
983 Clear 15 1025 87 10000 0.5 0 01:46 23.06.2020
984 Clear 15 1025 87 10000 1 0 01:25 23.06.2020
985 Clear 15 1025 87 10000 1 0 00:49 23.06.2020
986 Clear 16 1025 82 10000 1 70 00:21 23.06.2020
987 Clear 16 1025 82 10000 1 70 23:55 22.06.2020
988 Clear 16 1025 82 10000 1 70 23:37 22.06.2020
989 Clouds 17 1025 72 10000 2.1 60 23:18 22.06.2020
990 Clouds 18 1025 67 10000 1 70 22:55 22.06.2020
991 Clouds 18 1025 67 10000 1 70 22:37 22.06.2020
992 Clouds 19 1025 68 10000 0.5 0 22:18 22.06.2020
993 Clouds 21 1024 60 10000 1 0 21:54 22.06.2020
994 Clouds 21 1025 52 10000 1 0 21:36 22.06.2020
995 Clouds 22 1025 52 10000 1 0 21:18 22.06.2020
996 Clear 23 1025 49 10000 1.5 0 20:41 22.06.2020
997 Clear 23 1025 43 10000 1.5 300 20:22 22.06.2020
998 Clear 24 1025 40 10000 2.6 330 19:45 22.06.2020
999 Clear 24 1025 40 10000 2.6 330 19:20 22.06.2020
1000 -273 0 0 0 0 0 18:59 22.06.2020
1001 Clouds 23 1025 49 10000 2.6 340 18:39 22.06.2020
1002 Clouds 23 1025 43 10000 3.6 320 18:21 22.06.2020
1003 Clouds 23 1025 43 10000 3.6 320 17:56 22.06.2020
1004 Clouds 23 1025 43 10000 3.6 360 17:38 22.06.2020
1005 Clouds 23 1025 43 10000 3.6 360 17:38 22.06.2020
1006 Clouds 23 1025 43 10000 3.6 360 17:19 22.06.2020
1007 Clouds 23 1025 43 10000 3.6 360 17:19 22.06.2020
1008 Clouds 23 1026 46 10000 4.1 360 16:55 22.06.2020
1009 Clouds 22 1026 49 10000 3.6 330 16:37 22.06.2020
1010 Clouds 22 1026 52 10000 2.6 340 16:18 22.06.2020
1011 Clouds 22 1026 56 10000 2.1 0 15:42 22.06.2020
1012 Clouds 22 1026 56 10000 2.1 0 15:24 22.06.2020
1013 Clouds 21 1026 60 10000 2.6 0 14:57 22.06.2020
1014 Clouds 21 1026 64 10000 2.1 0 14:36 22.06.2020
1015 Clouds 20 1026 64 10000 2.1 0 14:18 22.06.2020
1016 Clouds 18 1026 72 10000 4.1 330 13:40 22.06.2020
1017 Clouds 18 1026 72 10000 4.1 330 13:21 22.06.2020
1018 Clouds 18 1026 72 10000 3.6 340 12:59 22.06.2020
1019 Clouds 17 1026 68 10000 3.1 320 12:41 22.06.2020
1020 Clouds 17 1026 68 10000 3.1 320 12:22 22.06.2020
1021 Clouds 16 1025 77 10000 2.1 330 11:38 22.06.2020
1022 Clouds 16 1025 77 10000 2.6 310 11:19 22.06.2020
1023 Clouds 16 1025 77 10000 2.6 310 10:57 22.06.2020
1024 Clouds 15 1025 77 10000 3.1 280 10:38 22.06.2020
1025 Clouds 15 1025 77 10000 3.1 280 10:19 22.06.2020
1026 Clouds 15 1025 87 10000 2.1 280 09:58 22.06.2020
1027 Drizzle 14 1025 93 5000 3.1 280 09:39 22.06.2020
1028 Drizzle 14 1025 93 6000 3.1 290 09:19 22.06.2020
1029 Drizzle 14 1025 93 6000 3.1 290 08:56 22.06.2020
1030 Clouds 14 1024 87 10000 3.1 310 08:38 22.06.2020
1031 Clouds 14 1024 87 10000 3.1 310 08:19 22.06.2020
1032 Clouds 14 1024 87 10000 3.1 290 07:49 22.06.2020
1033 Clouds 14 1024 87 10000 3.1 290 07:30 22.06.2020
1034 Clouds 13 1023 93 10000 3.6 270 06:43 22.06.2020
1035 Clouds 13 1023 93 10000 3.6 270 06:24 22.06.2020
1036 Clouds 14 1023 87 10000 6.7 280 05:43 22.06.2020
1037 Rain 18 1021 77 10000 0.5 0 03:48 22.06.2020
1038 Rain 18 1021 72 10000 0.5 0 02:35 22.06.2020
1039 Rain 20 1021 68 10000 0.5 0 01:21 22.06.2020
1040 Rain 20 1021 68 10000 2.1 320 00:39 22.06.2020
1041 Rain 21 1020 68 10000 0.5 0 23:58 21.06.2020
1042 Rain 21 1020 60 10000 1.5 0 23:39 21.06.2020
1043 Clouds 21 1020 60 10000 1.5 0 23:21 21.06.2020
1044 Clouds 21 1020 60 10000 3.1 330 22:57 21.06.2020
1045 Clouds 22 1019 53 10000 3.6 290 22:37 21.06.2020
1046 Clouds 22 1019 53 10000 3.6 290 22:19 21.06.2020
1047 Clouds 22 1019 49 10000 4.1 290 21:57 21.06.2020
1048 Clouds 23 1019 44 10000 5.7 280 21:39 21.06.2020
1049 Clouds 23 1019 44 10000 5.7 280 21:39 21.06.2020
1050 Clouds 23 1019 47 10000 6.2 290 21:21 21.06.2020
1051 Clouds 23 1019 47 10000 6.2 290 20:58 21.06.2020
1052 Clouds 24 1019 50 10000 4.1 260 20:38 21.06.2020
1053 Clouds 24 1019 50 10000 4.1 260 20:18 21.06.2020
1054 Clouds 24 1018 50 10000 2.6 220 19:56 21.06.2020
1055 Clouds 25 1018 47 10000 2.6 220 19:38 21.06.2020
1056 Rain 25 1018 47 10000 2.6 220 19:19 21.06.2020
1057 Rain 25 1019 44 10000 1.5 180 18:54 21.06.2020
1058 Clouds 26 1019 44 10000 1.5 180 18:36 21.06.2020
1059 Clouds 26 1019 47 10000 2.1 210 18:18 21.06.2020
1060 Clouds 26 1019 41 10000 3.1 240 17:40 21.06.2020
1061 Clouds 26 1019 41 10000 3.1 240 17:39 21.06.2020
1062 Clouds 26 1019 44 10000 2.6 210 17:20 21.06.2020
1063 Clouds 26 1019 44 10000 2.6 210 16:56 21.06.2020
1064 Clouds 27 1019 39 10000 2.6 0 16:37 21.06.2020
1065 Clouds 27 1019 39 10000 3.6 230 16:19 21.06.2020
1066 Clouds 26 1019 38 10000 2.1 0 15:38 21.06.2020
1067 Clouds 26 1019 38 10000 2.1 0 15:20 21.06.2020
1068 Clouds 25 1019 44 10000 2.1 0 14:55 21.06.2020
1069 Clouds 25 1019 44 10000 2.1 0 14:36 21.06.2020
1070 Clouds 25 1019 47 10000 1.5 0 14:18 21.06.2020
1071 Clouds 24 1020 46 10000 1 0 13:41 21.06.2020
1072 Clouds 25 1020 47 10000 2.6 230 13:23 21.06.2020
1073 Clouds 24 1020 47 10000 2.6 230 12:57 21.06.2020
1074 Clouds 23 1020 43 10000 1.5 0 12:39 21.06.2020
1075 Clouds 23 1020 43 10000 1.5 0 12:20 21.06.2020
1076 Clouds 23 1020 46 10000 1.5 0 11:42 21.06.2020
1077 Clouds 23 1020 46 10000 1.5 0 11:24 21.06.2020
1078 Clouds 22 1020 49 10000 2.6 160 10:58 21.06.2020
1079 Clouds 21 1021 60 10000 2.1 150 10:39 21.06.2020
1080 Clear 20 1021 63 10000 2.1 140 10:21 21.06.2020
1081 Clear 19 1021 68 10000 2.6 130 09:44 21.06.2020
1082 Clear 17 1021 68 10000 2.6 130 09:25 21.06.2020
1083 Clear 17 1021 72 10000 1.5 130 08:59 21.06.2020
1084 Clear 16 1021 82 10000 1.5 150 08:41 21.06.2020
1085 Clear 15 1021 82 10000 0.5 0 08:20 21.06.2020
1086 Clear 15 1021 82 10000 0.5 0 07:59 21.06.2020
1087 Clear 14 1021 93 10000 1.5 60 07:39 21.06.2020
1088 Clear 13 1021 93 10000 1.5 60 07:19 21.06.2020
1089 Clear 12 1020 93 10000 0.5 0 06:46 21.06.2020
1090 Clear 12 1021 100 10000 1.74 146 05:57 21.06.2020
1091 Clear 12 1020 93 10000 0.5 70 04:48 21.06.2020
1092 Clear 13 1021 93 10000 1.5 60 03:20 21.06.2020
1093 Clear 14 1021 93 10000 1.5 60 02:46 21.06.2020
1094 Clear 14 1021 87 10000 0.5 0 01:48 21.06.2020
1095 Clouds 14 1021 87 10000 1.5 70 01:21 21.06.2020
1096 Clouds 15 1021 87 10000 1.5 70 00:55 21.06.2020
1097 Clouds 15 1021 87 10000 0.5 40 00:36 21.06.2020
1098 Clouds 15 1021 87 10000 0.5 40 00:18 21.06.2020
1099 Clouds 16 1021 77 10000 1 0 23:41 20.06.2020
1100 Clouds 17 1021 77 10000 1 160 23:21 20.06.2020
1101 Clouds 18 1021 77 10000 1 160 22:55 20.06.2020
1102 Clouds 18 1021 77 10000 1 160 22:55 20.06.2020
1103 Clear 19 1020 68 10000 1 0 22:36 20.06.2020
1104 Clear 19 1020 63 10000 1.5 10 22:18 20.06.2020
1105 Clear 20 1020 63 10000 1.5 10 21:55 20.06.2020
1106 Clear 20 1020 63 10000 2.1 350 21:37 20.06.2020
1107 Clear 20 1020 63 10000 2.1 350 21:19 20.06.2020
1108 Clear 21 1020 56 10000 3.1 330 20:55 20.06.2020
1109 Clear 21 1020 52 10000 2.1 330 20:37 20.06.2020
1110 Clear 22 1020 46 10000 4.1 330 20:19 20.06.2020
1111 Clear 22 1020 46 10000 2.1 340 19:43 20.06.2020
1112 Clear 22 1020 46 10000 2.1 340 19:22 20.06.2020
1113 Clear 23 1020 43 10000 4.6 340 18:54 20.06.2020
1114 Clear 23 1020 40 10000 5.1 320 18:36 20.06.2020
1115 Clear 23 1020 40 10000 4.1 330 18:18 20.06.2020
1116 Clear 23 1020 40 10000 4.1 330 17:54 20.06.2020
1117 Clear 23 1020 40 10000 4.1 320 17:36 20.06.2020
1118 Clear 23 1020 43 10000 5.1 300 17:18 20.06.2020
1119 Clear 23 1021 43 10000 4.6 310 16:39 20.06.2020
1120 Clear 23 1021 43 10000 4.1 300 16:18 20.06.2020
1121 Clear 23 1021 43 10000 4.6 310 16:18 20.06.2020
1122 Clear 23 1021 43 10000 5.1 280 15:42 20.06.2020
1123 Clear 22 1021 43 10000 5.1 280 15:18 20.06.2020
1124 Clear 22 1021 43 10000 6.2 290 14:57 20.06.2020
1125 Clouds 22 1021 43 10000 4.6 290 14:39 20.06.2020
1126 Clouds 22 1021 43 10000 4.6 290 14:19 20.06.2020
1127 Clouds 21 1021 49 10000 4.1 300 13:41 20.06.2020
1128 Clouds 21 1021 49 10000 4.1 300 13:20 20.06.2020
1129 Clouds 21 1021 56 10000 3.6 270 12:55 20.06.2020
1130 Clouds 20 1021 68 10000 2.6 280 12:37 20.06.2020
1131 Clouds 20 1021 72 10000 3.1 320 12:18 20.06.2020
1132 Clouds 18 1021 77 10000 2.6 310 11:39 20.06.2020
1133 Clouds 18 1021 72 10000 2.6 310 11:20 20.06.2020
1134 Clouds 18 1021 72 10000 2.6 310 10:57 20.06.2020
1135 Clouds 17 1021 82 10000 3.1 340 10:39 20.06.2020
1136 Clouds 16 1021 87 10000 2.6 10 10:20 20.06.2020
1137 Clouds 16 1021 82 10000 1.5 0 09:43 20.06.2020
1138 Clouds 16 1021 82 10000 1.5 0 09:25 20.06.2020
1139 Clouds 15 1021 87 10000 1.5 250 08:58 20.06.2020
1140 Clouds 15 1021 87 10000 0.5 0 08:39 20.06.2020
1141 Clouds 15 1021 87 10000 0.5 0 08:21 20.06.2020
1142 Clouds 14 1021 93 10000 0.5 0 07:50 20.06.2020
1143 Clouds 14 1020 100 10000 1 0 07:25 20.06.2020
1144 Clouds 13 1020 100 10000 1 70 06:49 20.06.2020
1145 Clouds 13 1020 93 10000 1 0 06:21 20.06.2020
1146 Fog 12 1020 100 10000 0.5 0 05:48 20.06.2020
1147 Clouds 14 1020 93 10000 0.5 0 03:55 20.06.2020
1148 Clouds 15 1019 93 10000 0.5 0 01:58 20.06.2020
1149 Clouds 15 1019 93 10000 1 0 01:40 20.06.2020
1150 Clouds 16 1019 93 10000 0.5 330 00:49 20.06.2020
1151 Clouds 16 1019 93 10000 0.5 0 00:20 20.06.2020
1152 Clouds 17 1018 93 10000 1 0 23:46 19.06.2020
1153 Clouds 18 1018 88 10000 0.5 0 23:21 19.06.2020
1154 Clouds 18 1018 88 10000 0.5 0 22:58 19.06.2020
1155 Clouds 19 1018 82 10000 1.5 0 22:40 19.06.2020
1156 Clouds 19 1018 82 10000 1.5 0 22:21 19.06.2020
1157 Clouds 20 1017 88 10000 1.5 140 21:56 19.06.2020
1158 Clouds 20 1017 88 10000 1.5 140 21:56 19.06.2020
1159 Clouds 20 1017 82 10000 2.1 160 21:37 19.06.2020
1160 Clouds 21 1017 72 10000 2.6 180 21:18 19.06.2020
1161 Clouds 21 1017 72 10000 2.6 180 20:57 19.06.2020
1162 Rain 21 1017 82 10000 1.5 130 20:39 19.06.2020
1163 Rain 21 1017 82 10000 1.5 130 20:20 19.06.2020
1164 Rain 21 1017 93 10000 2.6 150 19:55 19.06.2020
1165 Rain 20 1017 88 10000 1.5 90 19:37 19.06.2020
1166 Rain 20 1017 88 10000 3.1 210 19:18 19.06.2020
1167 Rain 20 1017 93 10000 6.7 210 18:41 19.06.2020
1168 Rain 22 1016 68 10000 6.7 220 18:21 19.06.2020
1169 Rain 22 1016 68 10000 6.7 220 17:58 19.06.2020
1170 Rain 24 1016 47 10000 6.2 290 17:38 19.06.2020
1171 Rain 23 1016 47 10000 6.2 290 17:20 19.06.2020
1172 Rain 23 1016 47 10000 6.2 290 17:20 19.06.2020
1173 Rain 23 1016 47 10000 5.1 270 16:54 19.06.2020
1174 Rain 23 1016 49 10000 5.7 300 16:36 19.06.2020
1175 Rain 23 1016 49 10000 5.7 300 16:18 19.06.2020
1176 Clouds 23 1016 46 10000 4.6 280 15:42 19.06.2020
1177 Clouds 23 1016 46 10000 4.6 280 15:20 19.06.2020
1178 Clouds 23 1016 46 10000 3.1 280 14:56 19.06.2020
1179 Clouds 23 1016 46 10000 3.1 280 14:38 19.06.2020
1180 Clouds 23 1016 46 10000 3.1 280 14:18 19.06.2020
1181 Clouds 22 1016 49 10000 3.1 240 13:43 19.06.2020
1182 Clouds 22 1016 49 10000 3.1 240 13:25 19.06.2020
1183 Clouds 21 1016 56 10000 3.1 270 12:48 19.06.2020
1184 Clouds 21 1016 56 10000 3.1 270 12:23 19.06.2020
1185 Clouds 21 1016 56 10000 3.6 240 11:59 19.06.2020
1186 Clouds 21 1016 60 10000 2.6 260 11:40 19.06.2020
1187 Clouds 20 1016 64 10000 2.6 300 11:19 19.06.2020
1188 Clouds 20 1016 64 10000 2.6 300 10:55 19.06.2020
1189 Clouds 20 1016 64 10000 2.6 300 10:55 19.06.2020
1190 Clouds 19 1015 68 10000 2.1 240 10:37 19.06.2020
1191 Clouds 19 1015 68 10000 2.1 240 10:18 19.06.2020
1192 Clouds 18 1015 72 10000 2.1 230 09:41 19.06.2020
1193 Clouds 18 1015 72 10000 2.1 230 09:21 19.06.2020
1194 Clouds 17 1015 72 10000 1.5 190 08:55 19.06.2020
1195 Clouds 16 1015 82 10000 2.1 160 08:37 19.06.2020
1196 Clouds 16 1015 82 10000 0.5 0 08:19 19.06.2020
1197 Clear 15 1015 93 10000 1 60 07:40 19.06.2020
1198 Clear 14 1015 93 10000 1 60 07:21 19.06.2020
1199 Clear 13 1015 93 10000 1.5 60 06:44 19.06.2020
1200 Clear 12 1015 93 10000 1.5 60 06:19 19.06.2020
1201 Clear 13 1014 93 10000 1.5 130 04:30 19.06.2020
1202 Clear 14 1014 93 10000 1 0 03:22 19.06.2020
1203 Clouds 16 1014 93 10000 1 40 01:23 19.06.2020
1204 Rain 16 1014 87 10000 2.1 340 00:42 19.06.2020
1205 Rain 16 1014 87 10000 2.1 340 00:22 19.06.2020
1206 Rain 17 1014 82 10000 5.7 300 23:56 18.06.2020
1207 Rain 17 1014 82 10000 4.6 280 23:37 18.06.2020
1208 Rain 17 1014 82 10000 4.6 280 23:19 18.06.2020
1209 Clouds 17 1012 77 10000 1.5 40 22:39 18.06.2020
1210 Clouds 17 1012 77 10000 1.5 40 22:20 18.06.2020
1211 Clouds 18 1012 77 10000 1 0 21:56 18.06.2020
1212 Clouds 19 1012 72 10000 0.5 0 21:37 18.06.2020
1213 Clouds 19 1012 72 10000 0.5 0 21:18 18.06.2020
1214 Rain 21 1012 64 10000 1 0 20:40 18.06.2020
1215 Rain 22 1011 56 10000 1 0 20:20 18.06.2020
1216 Rain 22 1011 56 10000 1 0 19:57 18.06.2020
1217 Rain 22 1011 56 10000 2.1 80 19:39 18.06.2020
1218 Clouds 22 1011 49 10000 2.6 70 19:19 18.06.2020
1219 Clouds 22 1011 53 10000 2.1 80 18:41 18.06.2020
1220 Clouds 23 1011 53 10000 1.5 90 18:22 18.06.2020
1221 Clouds 23 1011 49 10000 2.6 130 17:55 18.06.2020
1222 Clouds 23 1011 49 10000 2.6 130 17:37 18.06.2020
1223 Clouds 22 1011 49 10000 2.6 130 17:19 18.06.2020
1224 Rain 23 1012 53 10000 2.1 130 16:43 18.06.2020
1225 Clouds 23 1012 56 10000 2.6 150 16:25 18.06.2020
1226 Rain 23 1012 53 10000 2.1 130 16:25 18.06.2020
1227 Clouds 23 1012 56 10000 2.6 150 15:59 18.06.2020
1228 Clouds 23 1012 46 10000 2.6 130 15:40 18.06.2020
1229 Clouds 23 1012 46 10000 2.6 130 15:20 18.06.2020
1230 Clouds 23 1012 46 10000 2.1 0 14:57 18.06.2020
1231 Clouds 22 1012 49 10000 3.6 190 14:38 18.06.2020
1232 Clouds 22 1012 43 10000 3.1 0 14:20 18.06.2020
1233 Clouds 21 1012 56 10000 3.1 220 13:48 18.06.2020
1234 Clouds 21 1012 56 10000 3.1 220 13:29 18.06.2020
1235 Clouds 21 1012 56 10000 3.1 240 12:58 18.06.2020
1236 Clouds 21 1012 60 10000 4.1 200 12:40 18.06.2020
1237 Clouds 21 1012 60 10000 4.1 200 12:20 18.06.2020
1238 Clouds 21 1012 64 10000 2.6 220 11:59 18.06.2020
1239 Clouds 20 1012 68 10000 3.6 170 11:40 18.06.2020
1240 Clouds 20 1012 72 10000 2.6 190 11:19 18.06.2020
1241 Clouds 20 1012 72 10000 2.6 190 11:19 18.06.2020
1242 Clouds 18 1012 77 10000 3.1 180 10:41 18.06.2020
1243 Clouds 18 1012 77 10000 3.1 180 10:41 18.06.2020
1244 Clouds 18 1012 77 10000 2.6 190 10:19 18.06.2020
1245 Clouds 17 1012 77 10000 2.6 190 09:55 18.06.2020
1246 Clouds 16 1012 82 0 3.1 170 09:37 18.06.2020
1247 Clouds 16 1012 87 10000 2.6 180 09:19 18.06.2020
1248 Clouds 15 1012 93 10000 2.6 180 08:40 18.06.2020
1249 Clouds 15 1012 93 10000 2.6 180 08:21 18.06.2020
1250 Clouds 15 1011 93 10000 2.6 160 07:46 18.06.2020
1251 Clouds 15 1011 93 10000 2.6 160 07:26 18.06.2020
1252 Clouds 15 1011 93 10000 2.1 150 06:55 18.06.2020
1253 Rain 15 1011 87 10000 1 0 05:58 18.06.2020
1254 Rain 15 1010 93 10000 3.6 230 04:24 18.06.2020
1255 Clouds 16 1010 93 10000 1.5 210 02:51 18.06.2020
1256 Rain 16 1011 93 10000 2.1 190 01:30 18.06.2020
1257 Rain 16 1011 93 10000 2.6 150 00:58 18.06.2020
1258 Rain 16 1010 93 10000 3.1 140 00:38 18.06.2020
1259 Rain 16 1010 93 10000 3.1 140 00:20 18.06.2020
1260 Rain 16 1011 93 10000 2.1 120 23:44 17.06.2020
1261 Rain 16 1011 93 10000 2.1 120 23:21 17.06.2020
1262 Rain 17 1011 93 0 1.5 130 22:57 17.06.2020
1263 Rain 17 1011 93 0 1.5 130 22:57 17.06.2020
1264 Rain 17 1010 93 10000 3.1 160 22:39 17.06.2020
1265 Rain 17 1010 93 10000 3.1 160 22:20 17.06.2020
1266 Rain 17 1010 93 10000 1.5 100 21:55 17.06.2020
1267 Rain 17 1010 93 7000 3.1 120 21:37 17.06.2020
1268 Thunderstorm 18 1010 93 2000 7.2 80 21:19 17.06.2020
1269 Rain 20 1009 94 10000 5.1 40 20:38 17.06.2020
1270 Rain 20 1009 94 10000 5.1 40 20:38 17.06.2020
1271 Rain 20 1009 94 10000 5.1 40 20:20 17.06.2020
1272 Rain 22 1008 88 10000 0.5 0 19:57 17.06.2020
1273 Rain 24 1009 77 10000 1.5 160 19:39 17.06.2020
1274 Rain 24 1009 60 10000 1 0 19:19 17.06.2020
1275 Clouds 25 1009 57 10000 1 0 18:45 17.06.2020
1276 Clouds 25 1009 57 10000 1 0 18:27 17.06.2020
1277 Clouds 25 1009 57 10000 1.5 0 17:46 17.06.2020
1278 Clouds 24 1009 57 10000 1.5 0 17:23 17.06.2020
1279 Clouds 24 1010 57 10000 1 0 16:58 17.06.2020
1280 Clouds 24 1010 57 10000 1.5 0 16:40 17.06.2020
1281 Clouds 24 1010 57 10000 1.5 0 16:21 17.06.2020
1282 Clouds 24 1010 57 10000 2.1 0 15:58 17.06.2020
1283 Clouds 24 1010 57 10000 1.5 0 15:39 17.06.2020
1284 Rain 23 1011 60 10000 1.5 360 15:20 17.06.2020
1285 Rain 23 1011 60 10000 1.5 360 14:58 17.06.2020
1286 Rain 23 1011 64 10000 2.1 320 14:39 17.06.2020
1287 Clouds 22 1011 68 10000 2.1 0 14:19 17.06.2020
1288 Clouds 22 1011 68 10000 2.1 0 13:57 17.06.2020
1289 Clouds 22 1012 68 10000 2.1 300 13:38 17.06.2020
1290 Clouds 22 1012 68 10000 2.1 280 13:20 17.06.2020
1291 Clouds 22 1012 68 10000 2.1 280 13:20 17.06.2020
1292 Clouds 21 1012 72 10000 1 0 12:43 17.06.2020
1293 Clouds 21 1012 72 10000 1 0 12:23 17.06.2020
1294 Clouds 20 1012 77 10000 1 0 11:58 17.06.2020
1295 Clouds 19 1012 82 10000 1 0 11:40 17.06.2020
1296 Clouds 19 1013 88 10000 0.5 0 11:22 17.06.2020
1297 Clouds 18 1013 88 9000 0.5 0 10:39 17.06.2020
1298 Clouds 17 1013 88 9000 0.5 0 10:19 17.06.2020
1299 Clouds 17 1013 93 7000 0.5 0 09:59 17.06.2020
1300 Mist 16 1013 93 5000 1.5 190 09:41 17.06.2020
1301 Mist 16 1013 100 5000 1.5 150 09:21 17.06.2020
1302 Mist 15 1013 100 5000 1.5 150 08:56 17.06.2020
1303 Mist 15 1013 93 5000 1.5 170 08:38 17.06.2020
1304 Mist 15 1013 93 5000 1.5 170 08:18 17.06.2020
1305 Fog 14 1012 100 3300 1 0 07:43 17.06.2020
1306 Fog 14 1012 100 3300 1 0 07:21 17.06.2020
1307 Mist 13 1012 100 1200 0.5 0 06:56 17.06.2020
1308 Fog 13 1013 100 500 2.1 140 06:37 17.06.2020
1309 Fog 13 1013 100 500 2.1 140 06:19 17.06.2020
1310 Fog 13 1013 100 300 1.5 60 05:18 17.06.2020
1311 Clouds 14 1013 100 10000 0.5 0 03:28 17.06.2020
1312 Clouds 15 1014 93 10000 1.5 70 01:52 17.06.2020
1313 Clouds 16 1014 93 10000 1 0 00:47 17.06.2020
1314 Clouds 16 1014 93 10000 1 0 00:23 17.06.2020
1315 Clouds 16 1014 93 10000 2.6 60 23:56 16.06.2020
1316 Clouds 16 1014 100 10000 1.5 60 23:38 16.06.2020
1317 Clouds 16 1014 100 10000 1.5 60 23:19 16.06.2020
1318 Clouds 17 1014 100 10000 1.5 80 22:56 16.06.2020
1319 Clouds 17 1014 93 10000 1.5 70 22:37 16.06.2020
1320 Clouds 18 1014 88 10000 1.5 50 22:18 16.06.2020
1321 Clouds 18 1014 82 10000 1 0 21:54 16.06.2020
1322 Clouds 18 1014 82 10000 1 0 21:36 16.06.2020
1323 Clouds 19 1014 82 10000 1.5 120 21:18 16.06.2020
1324 Clouds 19 1014 82 10000 2.1 130 20:42 16.06.2020
1325 Clouds 19 1014 82 10000 2.1 130 20:19 16.06.2020
1326 Clouds 19 1014 88 10000 1.5 200 19:58 16.06.2020
1327 Clouds 19 1014 88 10000 1.5 190 19:39 16.06.2020
1328 Rain 18 1014 88 10000 1 0 19:21 16.06.2020
1329 Rain 18 1014 88 10000 1 0 18:55 16.06.2020
1330 Rain 18 1015 88 10000 2.6 120 18:37 16.06.2020
1331 Rain 18 1015 100 10000 3.1 150 18:19 16.06.2020
1332 Rain 18 1015 100 10000 3.1 150 17:55 16.06.2020
1333 Rain 18 1015 100 6000 2.1 130 17:36 16.06.2020
1334 Rain 18 1015 87 4500 6.7 300 17:18 16.06.2020
1335 Rain 18 1015 87 4500 6.7 300 17:18 16.06.2020
1336 Rain 18 1015 87 4500 6.7 300 16:55 16.06.2020
1337 Rain 18 1015 72 10000 3.1 0 16:37 16.06.2020
1338 Rain 19 1015 72 10000 3.1 0 16:18 16.06.2020
1339 Rain 20 1015 64 10000 2.6 70 15:55 16.06.2020
1340 Rain 19 1015 64 10000 2.1 0 15:37 16.06.2020
1341 Rain 19 1015 64 10000 2.1 0 15:19 16.06.2020
1342 Rain 21 1015 68 10000 1.5 90 14:42 16.06.2020
1343 Rain 21 1015 68 10000 1.5 90 14:23 16.06.2020
1344 Rain 21 1015 68 10000 2.1 90 13:55 16.06.2020
1345 Rain 20 1016 72 10000 1 0 13:37 16.06.2020
1346 Rain 20 1016 72 10000 1 0 13:18 16.06.2020
1347 Rain 20 1016 72 10000 1 0 12:41 16.06.2020
1348 Rain 19 1016 77 10000 1 0 12:21 16.06.2020
1349 Rain 19 1016 77 10000 1 0 11:56 16.06.2020
1350 Rain 19 1016 82 10000 2.1 210 11:38 16.06.2020
1351 Rain 18 1016 88 10000 2.1 210 11:19 16.06.2020
1352 Rain 18 1016 88 10000 2.1 210 10:55 16.06.2020
1353 Rain 18 1016 88 10000 2.6 200 10:37 16.06.2020
1354 Rain 18 1016 88 10000 2.6 200 10:18 16.06.2020
1355 Rain 17 1016 93 10000 2.6 170 09:42 16.06.2020
1356 Rain 17 1016 93 10000 2.6 170 09:22 16.06.2020
1357 Rain 17 1016 93 10000 1 0 08:48 16.06.2020
1358 Rain 17 1016 93 10000 1 0 08:30 16.06.2020
1359 Rain 16 1016 93 9000 1 0 07:51 16.06.2020
1360 Rain 16 1016 93 9000 1 0 07:29 16.06.2020
1361 Rain 16 1016 93 9000 1 0 06:56 16.06.2020
1362 Rain 16 1016 93 9000 1 0 06:33 16.06.2020
1363 Rain 16 1016 93 10000 1 0 05:50 16.06.2020
1364 Rain 16 1016 93 10000 1.5 140 04:54 16.06.2020
1365 Rain 17 1016 93 10000 1.5 130 03:55 16.06.2020
1366 Rain 18 1016 77 10000 2.6 100 02:35 16.06.2020
1367 Rain 18 1017 77 10000 2.1 90 01:33 16.06.2020
1368 Clouds 19 1017 77 10000 1.5 70 00:55 16.06.2020
1369 Clouds 19 1017 77 10000 1 0 00:22 16.06.2020
1370 Clouds 19 1017 72 10000 1 0 23:56 15.06.2020
1371 Clouds 19 1017 72 10000 1.5 140 23:38 15.06.2020
1372 Clouds 19 1017 72 10000 2.1 150 23:19 15.06.2020
1373 Clouds 20 1016 72 10000 2.1 140 22:42 15.06.2020
1374 Clouds 20 1016 72 10000 2.1 140 22:22 15.06.2020
1375 Clouds 21 1016 68 10000 2.6 160 21:58 15.06.2020
1376 Clouds 21 1016 68 10000 1.5 140 21:38 15.06.2020
1377 Clouds 21 1016 68 10000 1.5 140 21:20 15.06.2020
1378 Clouds 21 1016 72 10000 1.5 160 20:59 15.06.2020
1379 Clouds 22 1016 68 10000 1.5 160 20:39 15.06.2020
1380 Clouds 22 1016 64 10000 1.5 180 20:20 15.06.2020
1381 Clouds 22 1016 64 10000 1.5 180 19:59 15.06.2020
1382 Clouds 22 1016 64 10000 1.5 180 19:59 15.06.2020
1383 Clouds 22 1016 64 10000 2.6 180 19:40 15.06.2020
1384 Clouds 22 1016 64 10000 2.1 180 19:21 15.06.2020
1385 Clouds 22 1016 64 10000 2.1 180 18:57 15.06.2020
1386 Clouds 22 1016 64 10000 2.1 190 18:39 15.06.2020
1387 Clouds 22 1016 64 10000 2.1 190 18:19 15.06.2020
1388 Clouds 22 1016 64 10000 1 0 17:57 15.06.2020
1389 Clouds 22 1016 60 10000 1.5 160 17:39 15.06.2020
1390 Clouds 22 1016 60 10000 1.5 160 17:19 15.06.2020
1391 Clouds 22 1017 64 10000 0.5 0 16:42 15.06.2020
1392 Clouds 22 1017 60 10000 1 0 16:19 15.06.2020
1393 Clouds 22 1017 60 10000 1 0 15:58 15.06.2020
1394 Clouds 22 1017 64 10000 1.5 340 15:40 15.06.2020
1395 Clouds 22 1017 64 10000 1.5 340 15:20 15.06.2020
1396 Clouds 22 1017 64 10000 1.5 310 14:56 15.06.2020
1397 Clouds 21 1017 64 10000 3.1 290 14:37 15.06.2020
1398 Clouds 21 1017 68 10000 4.1 290 14:18 15.06.2020
1399 Clouds 21 1017 60 10000 4.1 300 13:42 15.06.2020
1400 Clouds 21 1017 60 10000 4.1 300 13:24 15.06.2020
1401 Clouds 21 1017 64 10000 3.6 300 12:59 15.06.2020
1402 Clouds 21 1017 60 10000 2.6 340 12:41 15.06.2020
1403 Clouds 20 1017 64 10000 2.6 0 12:21 15.06.2020
1404 Clouds 20 1017 64 10000 2.6 20 11:46 15.06.2020
1405 Clouds 20 1017 64 10000 2.6 20 11:27 15.06.2020
1406 Clouds 20 1017 68 10000 2.1 360 10:59 15.06.2020
1407 Clouds 19 1017 68 10000 2.6 320 10:41 15.06.2020
1408 Clouds 19 1017 68 10000 1.5 0 10:21 15.06.2020
1409 Clouds 19 1017 72 10000 2.6 280 09:43 15.06.2020
1410 Clouds 18 1017 72 10000 2.6 280 09:23 15.06.2020
1411 Clouds 17 1017 77 10000 1.5 240 08:47 15.06.2020
1412 Clouds 17 1017 77 10000 1.5 240 08:27 15.06.2020
1413 Clouds 16 1016 82 10000 1.5 260 07:57 15.06.2020
1414 Clouds 16 1016 82 10000 3.1 260 07:39 15.06.2020
1415 Clouds 16 1016 82 10000 3.1 260 07:19 15.06.2020
1416 Clouds 16 1016 82 10000 3.1 260 06:29 15.06.2020
1417 Clouds 16 1016 82 10000 3.1 260 05:51 15.06.2020
1418 Clouds 16 1016 82 10000 3.1 280 05:30 15.06.2020
1419 Clouds 16 1016 82 10000 2.6 280 04:22 15.06.2020
1420 Clouds 16 1016 77 10000 3.1 280 03:49 15.06.2020
1421 Clouds 17 1016 77 10000 3.1 290 03:27 15.06.2020
1422 Clouds 17 1016 87 10000 0.5 0 02:33 15.06.2020
1423 Clouds 17 1016 82 10000 1 0 01:49 15.06.2020
1424 Clouds 17 1016 82 10000 0.5 0 01:29 15.06.2020
1425 Rain 17 1016 82 10000 1.5 360 00:56 15.06.2020
1426 Clouds 17 1016 82 10000 2.6 40 00:38 15.06.2020
1427 Clouds 17 1016 82 10000 2.6 40 00:18 15.06.2020
1428 Clouds 17 1016 82 10000 1.5 340 23:42 14.06.2020
1429 Clouds 17 1016 82 10000 1.5 340 23:24 14.06.2020
1430 Clouds 18 1015 72 10000 3.1 280 22:58 14.06.2020
1431 Rain 18 1015 82 10000 1.5 260 22:39 14.06.2020
1432 Rain 18 1015 82 10000 1.5 260 22:19 14.06.2020
1433 Clouds 18 1015 82 10000 2.6 350 21:57 14.06.2020
1434 Clouds 18 1015 82 10000 2.6 350 21:38 14.06.2020
1435 Clouds 18 1015 82 10000 5.1 340 21:19 14.06.2020
1436 Clouds 18 1015 82 10000 2.6 350 21:19 14.06.2020
1437 Clouds 19 1015 82 10000 5.1 340 20:58 14.06.2020
1438 Clouds 20 1015 77 10000 4.1 340 20:38 14.06.2020
1439 Rain 20 1014 68 10000 4.6 330 20:20 14.06.2020
1440 Rain 20 1014 68 10000 4.6 330 19:59 14.06.2020
1441 Clouds 20 1014 68 10000 4.6 300 19:38 14.06.2020
1442 Clouds 20 1014 68 10000 4.6 300 19:19 14.06.2020
1443 Clouds 20 1014 68 10000 4.6 300 19:19 14.06.2020
1444 Clouds 21 1014 64 10000 4.6 290 18:57 14.06.2020
1445 Clouds 21 1014 64 10000 4.6 290 18:57 14.06.2020
1446 Clouds 21 1014 68 10000 4.1 290 18:38 14.06.2020
1447 Clouds 21 1014 68 10000 4.1 290 18:20 14.06.2020
1448 Clouds 21 1014 68 10000 6.2 290 17:58 14.06.2020
1449 Clouds 21 1014 72 10000 4.1 290 17:38 14.06.2020
1450 Clouds 21 1014 72 10000 4.1 290 17:19 14.06.2020
1451 Rain 20 1014 88 10000 3.1 270 16:41 14.06.2020
1452 Rain 20 1014 72 10000 4.6 320 16:22 14.06.2020
1453 -273 0 0 0 0 0 15:59 14.06.2020
1454 Rain 21 1014 64 10000 5.7 290 15:41 14.06.2020
1455 Rain 21 1014 64 10000 5.7 290 15:19 14.06.2020
1456 Clouds 21 1014 68 10000 6.2 300 14:59 14.06.2020
1457 Clouds 20 1014 64 10000 6.7 280 14:40 14.06.2020
1458 Clouds 20 1014 64 10000 6.7 280 14:21 14.06.2020
1459 Clouds 21 1014 64 10000 7.2 310 13:58 14.06.2020
1460 Clouds 21 1014 64 10000 6.2 290 13:39 14.06.2020
1461 Clouds 21 1014 64 10000 6.2 290 13:21 14.06.2020
1462 Clouds 20 1014 64 10000 4.6 280 12:56 14.06.2020
1463 Clouds 20 1014 60 10000 5.7 280 12:38 14.06.2020
1464 Clouds 20 1014 60 10000 5.7 280 12:18 14.06.2020
1465 Clouds 20 1013 64 10000 6.2 280 11:56 14.06.2020
1466 Clouds 20 1013 64 10000 6.2 280 11:38 14.06.2020
1467 Clouds 20 1014 64 10000 5.1 280 11:18 14.06.2020
1468 Clouds 19 1013 64 10000 5.7 290 10:42 14.06.2020
1469 Clouds 19 1013 60 10000 7.2 280 10:20 14.06.2020
1470 Clouds 19 1013 64 10000 5.7 290 09:51 14.06.2020
1471 Clouds 19 1013 64 10000 5.7 290 09:26 14.06.2020
1472 Clouds 19 1013 68 10000 6.7 300 08:59 14.06.2020
1473 Clouds 19 1013 68 10000 4.1 280 08:41 14.06.2020
1474 Clouds 19 1012 68 10000 5.1 290 08:19 14.06.2020
1475 Clouds 18 1012 82 10000 1 0 07:52 14.06.2020
1476 Clouds 18 1012 82 10000 1 0 07:32 14.06.2020
1477 Rain 18 1012 82 10000 1.5 240 06:39 14.06.2020
1478 Rain 18 1012 88 10000 3.1 140 05:45 14.06.2020
1479 Rain 18 1011 88 10000 2.1 190 05:18 14.06.2020
1480 Rain 18 1012 88 10000 2.6 160 04:35 14.06.2020
1481 Rain 19 1012 72 10000 1.5 350 03:36 14.06.2020
1482 Rain 19 1012 77 10000 1 0 02:32 14.06.2020
1483 Rain 19 1012 77 10000 1.5 180 01:49 14.06.2020
1484 Rain 20 1012 77 10000 1.5 180 01:26 14.06.2020
1485 Clouds 20 1011 72 10000 1.5 80 00:42 14.06.2020
1486 Clouds 21 1011 72 10000 1.5 80 00:20 14.06.2020
1487 Rain 21 1011 82 10000 1.5 10 23:44 13.06.2020
1488 Rain 21 1011 82 10000 1.5 10 23:25 13.06.2020
1489 Rain 21 1011 82 10000 1.5 10 23:25 13.06.2020
1490 Clouds 22 1011 68 10000 1 0 22:58 13.06.2020
1491 Rain 22 1011 68 10000 2.1 360 22:38 13.06.2020
1492 Clouds 23 1011 60 10000 2.1 30 22:18 13.06.2020
1493 Clouds 23 1010 56 10000 1.5 360 21:57 13.06.2020
1494 Clouds 23 1010 56 10000 1.5 360 21:38 13.06.2020
1495 Clouds 24 1010 56 10000 2.6 330 21:20 13.06.2020
1496 Clouds 24 1010 57 10000 0.5 0 20:44 13.06.2020
1497 Clouds 25 1010 53 10000 1 0 20:20 13.06.2020
1498 Clouds 25 1010 53 10000 1 0 19:58 13.06.2020
1499 Clouds 25 1009 47 10000 2.6 300 19:37 13.06.2020
1500 Clouds 26 1009 44 10000 2.6 290 19:19 13.06.2020
1501 Clouds 26 1009 44 10000 2.6 290 18:57 13.06.2020
1502 Clouds 26 1009 44 10000 2.6 290 18:57 13.06.2020
1503 Clouds 26 1010 47 10000 1.5 340 18:38 13.06.2020
1504 Clouds 26 1010 47 10000 1.5 340 18:19 13.06.2020
1505 Clouds 26 1010 50 10000 1.5 20 17:55 13.06.2020
1506 Clouds 25 1010 57 10000 2.1 50 17:37 13.06.2020
1507 Clouds 25 1010 57 10000 2.1 50 17:19 13.06.2020
1508 Clouds 24 1011 56 10000 1.5 200 16:41 13.06.2020
1509 Clouds 24 1011 56 10000 1.5 200 16:20 13.06.2020
1510 Rain 24 1011 64 10000 1.5 70 15:59 13.06.2020
1511 Rain 23 1011 64 10000 1.5 70 15:41 13.06.2020
1512 Rain 23 1011 60 10000 2.1 140 15:21 13.06.2020
1513 Clouds 23 1011 60 10000 2.1 130 14:44 13.06.2020
1514 Clouds 23 1011 60 10000 3.1 140 14:23 13.06.2020
1515 Clouds 24 1011 60 10000 3.1 140 13:57 13.06.2020
1516 Clouds 24 1011 53 10000 2.6 180 13:37 13.06.2020
1517 Rain 23 1011 60 10000 1.5 150 13:19 13.06.2020
1518 Clouds 23 1011 60 10000 1.5 140 12:43 13.06.2020
1519 Clouds 23 1011 60 10000 1.5 140 12:25 13.06.2020
1520 Clouds 23 1011 56 10000 1.5 210 11:57 13.06.2020
1521 Clouds 22 1011 60 10000 2.6 210 11:38 13.06.2020
1522 Clouds 22 1011 60 10000 2.6 210 11:19 13.06.2020
1523 Clouds 22 1011 60 10000 2.6 200 10:56 13.06.2020
1524 Clouds 21 1011 64 10000 3.1 180 10:37 13.06.2020
1525 Clouds 21 1011 64 10000 3.1 180 10:18 13.06.2020
1526 Clouds 20 1010 64 10000 1.5 120 09:42 13.06.2020
1527 Clouds 19 1010 68 10000 2.1 150 09:21 13.06.2020
1528 Clouds 19 1010 72 10000 2.6 140 08:48 13.06.2020
1529 Clouds 19 1010 72 10000 2.6 140 08:30 13.06.2020
1530 Clouds 17 1010 77 10000 1.5 180 07:50 13.06.2020
1531 Clouds 17 1010 82 10000 2.6 160 07:28 13.06.2020
1532 Clouds 17 1010 82 10000 2.1 180 06:50 13.06.2020
1533 Clouds 16 1010 82 10000 2.1 180 06:30 13.06.2020
1534 Clouds 16 1009 82 10000 2.6 40 05:45 13.06.2020
1535 Clouds 16 1009 82 10000 2.6 40 05:24 13.06.2020
1536 Clouds 17 1010 77 10000 3.1 300 03:48 13.06.2020
1537 Clouds 17 1010 77 10000 4.1 300 02:54 13.06.2020
1538 Clouds 17 1010 82 10000 7.2 250 02:34 13.06.2020
1539 Clouds 18 1008 77 10000 4.1 310 01:46 13.06.2020
1540 Clouds 18 1008 77 10000 4.1 310 01:21 13.06.2020
1541 Clouds 18 1007 68 10000 5.7 330 00:42 13.06.2020
1542 Clouds 19 1007 68 10000 5.7 330 00:23 13.06.2020
1543 Clouds 19 1006 60 10000 1.5 70 23:42 12.06.2020
1544 Clouds 20 1006 60 10000 1.5 70 23:19 12.06.2020
1545 Clouds 21 1006 56 10000 2.6 70 22:59 12.06.2020
1546 Clouds 22 1006 53 10000 2.6 80 22:40 12.06.2020
1547 Rain 24 1005 44 10000 1.5 100 22:19 12.06.2020
1548 Rain 24 1005 44 10000 1.5 100 22:19 12.06.2020
1549 Rain 25 1005 44 10000 1.5 100 21:49 12.06.2020
1550 Rain 27 1005 36 10000 4.6 120 21:26 12.06.2020
1551 Rain 27 1005 36 10000 4.6 120 20:59 12.06.2020
1552 Rain 28 1005 34 10000 2.6 120 20:41 12.06.2020
1553 Clouds 28 1005 34 10000 2.6 120 20:22 12.06.2020
1554 Clouds 28 1005 39 10000 3.1 90 19:57 12.06.2020
1555 Clouds 28 1005 34 10000 3.6 110 19:38 12.06.2020
1556 Clouds 28 1005 37 10000 2.6 120 19:18 12.06.2020
1557 Clouds 28 1005 34 10000 2.6 100 18:39 12.06.2020
1558 Clouds 29 1005 34 10000 4.6 120 18:19 12.06.2020
1559 Clouds 29 1005 34 10000 4.6 120 17:58 12.06.2020
1560 Clouds 29 1005 37 10000 4.1 130 17:39 12.06.2020
1561 Clouds 29 1005 37 10000 4.1 130 17:19 12.06.2020
1562 Clouds 28 1006 42 10000 5.1 130 16:44 12.06.2020
1563 Clear 28 1006 42 10000 5.1 130 16:20 12.06.2020
1564 Clear 28 1006 42 10000 5.1 140 15:49 12.06.2020
1565 Clear 28 1006 42 10000 5.1 140 15:26 12.06.2020
1566 Clear 27 1006 39 10000 5.1 150 14:58 12.06.2020
1567 Clear 27 1006 44 10000 5.1 130 14:39 12.06.2020
1568 Clouds 27 1006 44 10000 5.1 130 14:21 12.06.2020
1569 Clouds 26 1007 47 10000 5.1 130 13:42 12.06.2020
1570 Clouds 26 1007 47 10000 5.1 130 13:22 12.06.2020
1571 Clouds 24 1007 56 10000 4.6 120 12:55 12.06.2020
1572 Clouds 24 1007 56 10000 4.6 120 12:37 12.06.2020
1573 Clouds 24 1007 56 10000 4.1 110 12:18 12.06.2020
1574 Clouds 23 1007 60 10000 4.1 120 11:42 12.06.2020
1575 Clouds 22 1007 60 10000 4.1 120 11:23 12.06.2020
1576 Clouds 21 1008 68 10000 4.1 110 10:49 12.06.2020
1577 Clouds 20 1008 72 10000 4.6 80 10:26 12.06.2020
1578 Clouds 19 1008 72 10000 4.6 80 09:58 12.06.2020
1579 Clouds 17 1008 77 10000 4.1 90 09:39 12.06.2020
1580 Clouds 17 1008 77 10000 4.1 80 09:19 12.06.2020
1581 Clouds 17 1008 82 10000 1.5 140 08:41 12.06.2020
1582 Clear 16 1008 82 10000 1.5 140 08:22 12.06.2020
1583 Clear 13 1008 93 10000 2.1 170 07:41 12.06.2020
1584 Clear 13 1008 93 10000 1.5 130 07:23 12.06.2020
1585 Clear 12 1008 93 10000 2.1 150 06:41 12.06.2020
1586 Clear 12 1008 93 10000 2.1 150 06:21 12.06.2020
1587 Clear 12 1008 100 10000 1 0 05:49 12.06.2020
1588 Clear 12 1008 100 10000 1 0 05:23 12.06.2020
1589 Clear 13 1009 87 10000 1.5 100 03:53 12.06.2020
1590 Clear 13 1010 93 10000 1.5 40 02:43 12.06.2020
1591 Clouds 14 1010 87 10000 2.1 90 01:47 12.06.2020
1592 Clouds 14 1010 87 10000 2.1 90 01:20 12.06.2020
1593 Clouds 15 1010 82 10000 2.1 90 00:40 12.06.2020
1594 Clouds 16 1010 82 10000 1.5 100 00:21 12.06.2020
1595 Clouds 16 1010 82 10000 1.5 100 23:57 11.06.2020
1596 Clouds 16 1010 77 10000 2.1 90 23:39 11.06.2020
1597 Clouds 16 1010 77 10000 2.1 90 23:20 11.06.2020
1598 Clouds 17 1010 77 10000 2.6 70 22:56 11.06.2020
1599 Clouds 17 1009 77 10000 1.5 80 22:38 11.06.2020
1600 Clear 18 1009 77 10000 1.5 80 22:19 11.06.2020
1601 Clouds 19 1009 68 10000 2.1 90 21:43 11.06.2020
1602 Clouds 19 1009 63 10000 2.6 90 21:20 11.06.2020
1603 Clouds 19 1009 63 10000 2.6 90 20:59 11.06.2020
1604 Clouds 19 1009 59 10000 3.6 80 20:41 11.06.2020
1605 Clouds 19 1009 63 10000 1.5 80 20:21 11.06.2020
1606 Clouds 19 1009 63 10000 2.6 80 19:44 11.06.2020
1607 Clouds 20 1009 63 10000 2.6 80 19:23 11.06.2020
1608 Clouds 20 1009 63 10000 2.6 80 19:23 11.06.2020
1609 Clouds 20 1009 63 10000 2.6 80 18:58 11.06.2020
1610 Clouds 20 1009 63 10000 2.6 80 18:40 11.06.2020
1611 Clouds 20 1009 56 10000 3.1 70 18:20 11.06.2020
1612 Clouds 20 1009 56 10000 2.1 90 17:56 11.06.2020
1613 Clouds 20 1009 56 10000 2.1 90 17:37 11.06.2020
1614 Clouds 20 1009 56 10000 2.1 110 17:19 11.06.2020
1615 Clouds 20 1009 56 10000 2.6 80 16:55 11.06.2020
1616 Clouds 20 1010 59 10000 2.6 70 16:37 11.06.2020
1617 Clouds 20 1010 59 10000 2.6 70 16:18 11.06.2020
1618 Clouds 20 1010 52 10000 1 0 15:42 11.06.2020
1619 Clouds 20 1010 56 10000 1 0 15:23 11.06.2020
1620 Clouds 19 1010 59 10000 3.1 20 14:55 11.06.2020
1621 Clouds 19 1010 59 10000 3.1 20 14:37 11.06.2020
1622 Clouds 19 1010 59 10000 1 0 14:19 11.06.2020
1623 Clouds 19 1010 63 10000 2.6 0 13:54 11.06.2020
1624 Clouds 19 1010 55 10000 1 0 13:36 11.06.2020
1625 Clouds 19 1010 55 10000 1 0 13:18 11.06.2020
1626 Clouds 18 1010 59 10000 1.5 50 12:39 11.06.2020
1627 Clouds 18 1010 63 10000 1 0 12:20 11.06.2020
1628 Clouds 18 1011 77 10000 1.5 10 11:59 11.06.2020
1629 Clouds 17 1011 77 10000 1.5 10 11:40 11.06.2020
1630 Rain 17 1011 77 10000 1 0 11:22 11.06.2020
1631 Rain 16 1011 87 10000 1.5 20 10:59 11.06.2020
1632 Rain 16 1011 87 10000 1.5 20 10:41 11.06.2020
1633 Clouds 15 1011 77 10000 1 310 10:18 11.06.2020
1634 Clouds 15 1011 82 10000 0.5 0 09:44 11.06.2020
1635 Rain 15 1011 93 10000 1 0 09:26 11.06.2020
1636 Rain 14 1011 93 10000 0.5 0 08:54 11.06.2020
1637 Rain 14 1011 93 10000 0.5 0 08:36 11.06.2020
1638 Rain 14 1011 93 9000 0.5 0 08:18 11.06.2020
1639 Rain 14 1011 93 9000 1 190 07:41 11.06.2020
1640 Rain 14 1011 100 9000 0.5 0 07:22 11.06.2020
1641 Rain 14 1011 100 10000 1 90 06:33 11.06.2020
1642 Rain 14 1011 100 10000 1.5 70 05:54 11.06.2020
1643 Rain 14 1012 100 10000 0.5 0 04:41 11.06.2020
1644 Rain 15 1012 93 10000 0.5 50 03:25 11.06.2020
1645 Clouds 15 1012 87 10000 0.45 87 02:46 11.06.2020
1646 Clouds 15 1013 82 10000 0.5 0 01:56 11.06.2020
1647 Clouds 15 1013 82 10000 2.1 130 01:35 11.06.2020
1648 Clouds 16 1013 77 10000 1.5 60 00:57 11.06.2020
1649 Clouds 16 1013 77 10000 2.1 50 00:39 11.06.2020
1650 Clouds 16 1013 77 10000 2.1 50 00:19 11.06.2020
1651 Clouds 16 1013 77 10000 2.1 40 23:41 10.06.2020
1652 Clouds 16 1013 77 10000 2.1 40 23:22 10.06.2020
1653 Clouds 17 1013 72 10000 2.1 10 22:55 10.06.2020
1654 Clouds 17 1013 77 10000 2.1 30 22:37 10.06.2020
1655 Clouds 17 1013 77 10000 2.1 30 22:18 10.06.2020
1656 Clouds 17 1013 72 10000 2.6 20 21:55 10.06.2020
1657 Clouds 17 1013 72 10000 2.6 20 21:37 10.06.2020
1658 Clouds 18 1013 68 10000 3.1 30 21:18 10.06.2020
1659 Clouds 18 1013 68 10000 2.6 30 20:55 10.06.2020
1660 Clouds 18 1013 68 10000 3.1 40 20:37 10.06.2020
1661 Clouds 19 1013 68 10000 3.1 40 20:18 10.06.2020
1662 Clouds 19 1013 59 10000 3.6 50 19:38 10.06.2020
1663 Clouds 19 1013 59 10000 3.6 50 19:18 10.06.2020
1664 Clouds 19 1013 59 10000 3.6 50 19:18 10.06.2020
1665 Clouds 19 1013 52 10000 2.1 20 18:57 10.06.2020
1666 Clouds 19 1013 52 10000 2.1 20 18:38 10.06.2020
1667 Clouds 19 1013 55 10000 2.6 30 18:19 10.06.2020
1668 Clouds 19 1013 59 10000 2.1 40 17:55 10.06.2020
1669 Clouds 18 1013 59 10000 2.1 40 17:36 10.06.2020
1670 Clouds 18 1014 55 10000 2.1 90 17:18 10.06.2020
1671 Clouds 18 1014 55 10000 2.1 130 16:56 10.06.2020
1672 Clouds 18 1014 55 10000 2.1 130 16:38 10.06.2020
1673 Clouds 18 1014 59 10000 2.1 140 16:18 10.06.2020
1674 Clouds 17 1015 68 10000 2.6 170 15:40 10.06.2020
1675 Clouds 17 1015 68 10000 2.6 170 15:21 10.06.2020
1676 Clouds 17 1015 72 10000 1.5 20 14:56 10.06.2020
1677 Clouds 17 1015 72 10000 1.5 20 14:38 10.06.2020
1678 Clouds 16 1015 82 10000 1.5 140 14:19 10.06.2020
1679 Rain 16 1015 82 10000 1.5 120 13:40 10.06.2020
1680 Clouds 17 1015 72 10000 1 0 13:21 10.06.2020
1681 Rain 17 1015 77 10000 1.5 0 12:44 10.06.2020
1682 Rain 17 1015 77 10000 1.5 0 12:20 10.06.2020
1683 Rain 16 1015 77 10000 1 0 11:58 10.06.2020
1684 Rain 16 1015 77 10000 1 0 11:40 10.06.2020
1685 Rain 16 1016 82 10000 1.5 20 11:19 10.06.2020
1686 Rain 16 1016 87 10000 1 0 10:57 10.06.2020
1687 Rain 16 1016 87 10000 0.5 20 10:39 10.06.2020
1688 Rain 15 1016 87 10000 0.5 20 10:20 10.06.2020
1689 Rain 15 1016 93 9000 1 0 09:41 10.06.2020
1690 Rain 15 1016 87 10000 1 0 09:41 10.06.2020
1691 Rain 15 1016 87 10000 1 0 09:41 10.06.2020
1692 Rain 15 1016 93 9000 1 0 09:23 10.06.2020
1693 Clouds 14 1016 93 6000 0.5 0 08:57 10.06.2020
1694 Mist 14 1016 87 4500 1 0 08:38 10.06.2020
1695 Mist 14 1016 87 4500 1 0 08:20 10.06.2020
1696 Mist 13 1016 100 4000 0.5 280 07:39 10.06.2020
1697 Mist 13 1016 93 3500 1 0 07:20 10.06.2020
1698 Mist 13 1015 100 3500 1 140 06:44 10.06.2020
1699 Mist 13 1015 100 3500 1 140 06:23 10.06.2020
1700 Mist 13 1016 100 3500 0.5 0 05:56 10.06.2020
1701 Rain 13 1016 100 6000 0.5 130 05:26 10.06.2020
1702 Clouds 13 1016 100 6000 0.5 0 04:35 10.06.2020
1703 Clouds 13 1017 93 6000 1.5 50 02:57 10.06.2020
1704 Clouds 13 1017 93 6000 1 0 02:22 10.06.2020
1705 Clouds 13 1017 93 8000 1 0 01:38 10.06.2020
1706 Clouds 14 1017 100 10000 2.1 360 00:40 10.06.2020
1707 Clouds 14 1017 100 10000 2.1 360 00:22 10.06.2020
1708 Clouds 14 1017 100 8000 2.1 350 23:58 09.06.2020
1709 Clouds 14 1017 100 8000 2.1 350 23:39 09.06.2020
1710 Clouds 14 1017 100 8000 2.1 350 23:39 09.06.2020
1711 Clouds 14 1017 100 10000 1.5 340 23:21 09.06.2020
1712 Rain 14 1017 93 10000 1 0 22:56 09.06.2020
1713 Rain 14 1017 93 10000 1 0 22:38 09.06.2020
1714 Rain 14 1017 93 10000 1.5 300 22:20 09.06.2020
1715 Rain 15 1017 93 10000 1 0 21:57 09.06.2020
1716 Rain 15 1017 93 10000 1 0 21:57 09.06.2020
1717 Rain 15 1017 93 10000 1 0 21:38 09.06.2020
1718 Rain 15 1017 93 10000 1 0 21:38 09.06.2020
1719 Rain 16 1017 93 10000 2.6 60 21:20 09.06.2020
1720 Rain 16 1016 87 10000 4.1 70 20:57 09.06.2020
1721 Rain 16 1016 87 10000 4.1 70 20:38 09.06.2020
1722 Rain 17 1016 93 8000 6.2 60 20:20 09.06.2020
1723 Rain 17 1016 93 8000 6.2 60 20:20 09.06.2020
1724 Rain 18 1016 63 10000 2.6 350 19:57 09.06.2020
1725 Rain 19 1016 63 10000 2.6 350 19:39 09.06.2020
1726 Rain 19 1016 63 10000 2.6 350 19:39 09.06.2020
1727 Clouds 19 1016 59 10000 2.6 10 19:20 09.06.2020
1728 Clouds 19 1016 55 10000 2.1 360 18:57 09.06.2020
1729 Clouds 19 1016 55 10000 2.1 360 18:38 09.06.2020
1730 Clouds 19 1016 55 10000 3.1 340 18:19 09.06.2020
1731 Clouds 19 1016 63 10000 3.1 40 17:55 09.06.2020
1732 Clouds 19 1016 68 10000 2.6 20 17:37 09.06.2020
1733 Clouds 19 1016 68 10000 2.6 20 17:18 09.06.2020
1734 Rain 19 1016 82 10000 1 0 16:42 09.06.2020
1735 Rain 18 1016 82 10000 3.6 140 16:23 09.06.2020
1736 Rain 19 1016 63 10000 4.6 320 15:56 09.06.2020
1737 Rain 19 1016 63 10000 4.6 320 15:38 09.06.2020
1738 Rain 19 1016 59 10000 6.2 300 15:20 09.06.2020
1739 Clouds 18 1016 63 10000 6.2 300 14:54 09.06.2020
1740 Clouds 18 1016 63 10000 6.2 300 14:36 09.06.2020
1741 Clouds 18 1017 63 10000 5.1 310 14:18 09.06.2020
1742 Clouds 17 1017 59 10000 5.7 310 13:42 09.06.2020
1743 Clouds 17 1017 63 10000 5.7 310 13:21 09.06.2020
1744 Clouds 17 1017 63 10000 4.6 310 12:58 09.06.2020
1745 Clouds 16 1017 67 10000 4.1 310 12:40 09.06.2020
1746 Clouds 16 1017 67 10000 4.1 310 12:18 09.06.2020
1747 Clouds 15 1017 67 10000 3.6 320 11:55 09.06.2020
1748 Clouds 15 1017 67 10000 3.6 320 11:37 09.06.2020
1749 Clouds 15 1017 72 10000 3.6 310 11:19 09.06.2020
1750 Clouds 14 1017 77 10000 2.6 360 10:44 09.06.2020
1751 Clouds 14 1017 77 10000 3.1 350 10:25 09.06.2020
1752 Clouds 14 1017 76 10000 3.1 340 09:44 09.06.2020
1753 Clouds 14 1017 82 10000 3.1 320 09:25 09.06.2020
1754 Clouds 14 1017 82 10000 3.1 320 09:25 09.06.2020
1755 Clouds 13 1017 82 10000 2.1 320 08:58 09.06.2020
1756 Clouds 13 1017 82 10000 2.1 320 08:39 09.06.2020
1757 Clouds 13 1016 87 10000 1 0 08:20 09.06.2020
1758 Clouds 12 1016 93 10000 1 0 07:40 09.06.2020
1759 Clouds 12 1016 93 10000 1 0 07:21 09.06.2020
1760 Clouds 11 1016 100 8000 0.5 0 06:55 09.06.2020
1761 Clouds 11 1016 100 9000 1.5 40 06:36 09.06.2020
1762 Clear 12 1016 93 10000 0.5 0 05:36 09.06.2020
1763 Clear 11 1016 93 10000 1 60 03:52 09.06.2020
1764 Clouds 12 1016 87 10000 1 0 02:20 09.06.2020
1765 Clouds 13 1015 82 10000 2.1 350 01:36 09.06.2020
1766 Clouds 13 1015 82 10000 2.1 350 01:18 09.06.2020
1767 Rain 14 1015 82 10000 2.6 340 00:40 09.06.2020
1768 Rain 14 1015 82 10000 2.6 340 00:19 09.06.2020
1769 Clouds 15 1016 71 10000 1 0 23:41 08.06.2020
1770 Clouds 15 1016 71 10000 1 0 23:21 08.06.2020
1771 Clouds 15 1015 71 10000 1.5 350 22:58 08.06.2020
1772 Clouds 16 1015 67 10000 1.5 330 22:38 08.06.2020
1773 Clouds 16 1015 67 10000 1.5 330 22:20 08.06.2020
1774 Rain 16 1014 63 10000 3.1 320 21:56 08.06.2020
1775 Rain 17 1014 55 10000 4.6 320 21:37 08.06.2020
1776 Rain 17 1014 55 10000 4.6 320 21:19 08.06.2020
1777 Rain 17 1014 55 10000 4.6 330 20:55 08.06.2020
1778 Rain 18 1014 55 10000 4.6 330 20:36 08.06.2020
1779 Rain 18 1014 52 10000 5.1 360 20:18 08.06.2020
1780 Clouds 19 1013 52 10000 4.1 360 19:43 08.06.2020
1781 Clouds 19 1013 55 10000 4.6 330 19:21 08.06.2020
1782 Clouds 19 1013 42 10000 3.6 330 18:44 08.06.2020
1783 Clouds 20 1013 43 10000 3.6 310 18:21 08.06.2020
1784 Clouds 20 1013 48 10000 3.1 350 17:58 08.06.2020
1785 Rain 20 1013 49 10000 2.6 0 17:40 08.06.2020
1786 Rain 20 1013 49 10000 2.6 0 17:40 08.06.2020
1787 Rain 20 1013 49 10000 2.6 0 17:22 08.06.2020
1788 Clouds 20 1014 52 10000 2.6 0 16:58 08.06.2020
1789 Clouds 20 1014 52 10000 2.6 0 16:40 08.06.2020
1790 Clouds 19 1014 52 10000 3.1 0 16:21 08.06.2020
1791 Clouds 19 1013 49 10000 4.6 320 15:44 08.06.2020
1792 Clouds 18 1013 55 10000 4.6 330 15:22 08.06.2020
1793 Clouds 19 1014 52 10000 4.1 320 14:58 08.06.2020
1794 Clouds 18 1014 48 10000 3.6 300 14:39 08.06.2020
1795 Clouds 18 1014 48 10000 3.6 300 14:20 08.06.2020
1796 Clouds 18 1014 52 10000 1.5 0 13:44 08.06.2020
1797 Clouds 18 1014 52 10000 2.1 0 13:24 08.06.2020
1798 Clouds 18 1014 55 10000 2.6 260 12:44 08.06.2020
1799 Clouds 18 1014 55 10000 2.6 260 12:22 08.06.2020
1800 Clouds 17 1014 67 10000 2.1 0 11:59 08.06.2020
1801 Clouds 17 1014 67 10000 2.1 0 11:41 08.06.2020
1802 Clouds 16 1014 63 10000 1.5 10 11:23 08.06.2020
1803 Clouds 16 1014 71 10000 2.1 150 10:58 08.06.2020
1804 Clouds 15 1014 76 10000 2.6 150 10:40 08.06.2020
1805 Clouds 15 1014 76 10000 2.6 150 10:21 08.06.2020
1806 Clouds 15 1014 81 10000 2.1 140 09:58 08.06.2020
1807 Clouds 15 1014 81 10000 2.1 140 09:58 08.06.2020
1808 Clouds 14 1014 81 10000 2.1 140 09:40 08.06.2020
1809 Clouds 14 1014 81 10000 1.5 150 09:22 08.06.2020
1810 Clouds 13 1014 87 10000 1 0 08:47 08.06.2020
1811 Clouds 12 1014 87 10000 1 0 08:23 08.06.2020
1812 Clear 12 1013 93 10000 1.5 150 07:46 08.06.2020
1813 Clear 12 1013 87 10000 1 0 07:24 08.06.2020
1814 Clear 12 1013 87 10000 0.5 0 06:54 08.06.2020
1815 Clear 12 1013 87 10000 0.5 0 06:36 08.06.2020
1816 Clear 11 1013 87 10000 0.5 0 05:54 08.06.2020
1817 Clear 11 1013 93 10000 1 50 04:35 08.06.2020
1818 Clear 11 1012 93 10000 0.5 0 02:56 08.06.2020
1819 Clear 11 1012 87 10000 0.5 0 02:25 08.06.2020
1820 Clear 11 1012 87 10000 1.55 248 01:40 08.06.2020
1821 Clear 12 1012 81 10000 1.5 360 00:41 08.06.2020
1822 Clear 13 1012 81 10000 1.88 282 00:19 08.06.2020
1823 Clear 13 1011 76 10000 1.88 282 23:38 07.06.2020
1824 Clear 14 1011 71 10000 1 60 23:18 07.06.2020
1825 Clear 15 1011 76 10000 0.5 0 22:56 07.06.2020
1826 Clear 15 1011 67 10000 1.5 10 22:36 07.06.2020
1827 Clear 16 1011 67 10000 1.5 10 22:18 07.06.2020
1828 Clear 16 1011 58 10000 2.1 350 21:57 07.06.2020
1829 Clear 17 1011 58 10000 2.1 350 21:36 07.06.2020
1830 Clear 17 1010 48 10000 3.6 300 21:18 07.06.2020
1831 Clear 18 1010 45 10000 3.6 300 20:39 07.06.2020
1832 Clouds 18 1010 45 10000 3.6 330 20:21 07.06.2020
1833 Clouds 18 1010 42 10000 5.1 300 19:57 07.06.2020
1834 Clouds 18 1009 39 10000 5.1 280 19:39 07.06.2020
1835 Clouds 18 1009 39 10000 5.1 280 19:20 07.06.2020
1836 Clouds 18 1009 42 10000 4.6 280 18:59 07.06.2020
1837 Clouds 18 1009 39 10000 5.1 260 18:38 07.06.2020
1838 Rain 18 1009 39 10000 5.1 260 18:20 07.06.2020
1839 Rain 18 1009 39 10000 4.1 270 17:57 07.06.2020
1840 Clouds 18 1009 39 10000 4.1 270 17:38 07.06.2020
1841 Clouds 19 1009 42 10000 4.6 290 17:20 07.06.2020
1842 Clouds 19 1009 42 10000 5.7 260 16:43 07.06.2020
1843 Clouds 19 1009 42 10000 6.2 270 16:22 07.06.2020
1844 Clouds 18 1009 42 10000 7.2 290 15:44 07.06.2020
1845 Clouds 18 1009 42 10000 7.2 290 15:44 07.06.2020
1846 Clouds 18 1009 42 10000 6.7 270 15:22 07.06.2020
1847 Clouds 17 1008 42 10000 6.2 300 14:54 07.06.2020
1848 Clouds 17 1008 45 10000 6.7 260 14:36 07.06.2020
1849 Clouds 17 1008 45 10000 6.7 260 14:18 07.06.2020
1850 Clouds 16 1008 42 10000 5.7 270 13:42 07.06.2020
1851 Clouds 16 1008 42 10000 5.7 270 13:42 07.06.2020
1852 Clouds 16 1008 42 10000 5.7 270 13:42 07.06.2020
1853 Clouds 16 1008 42 10000 5.7 270 13:41 07.06.2020
1854 Clouds 16 1008 48 10000 4.6 270 13:19 07.06.2020
1855 Clouds 16 1008 48 10000 5.1 240 12:43 07.06.2020
1856 Clouds 16 1007 54 10000 4.1 220 12:25 07.06.2020
1857 Clouds 16 1007 58 10000 3.6 200 11:55 07.06.2020
1858 Clouds 16 1007 58 10000 3.6 200 11:55 07.06.2020
1859 Clouds 15 1007 58 10000 4.6 240 11:37 07.06.2020
1860 Clouds 15 1007 58 10000 4.6 240 11:19 07.06.2020
1861 Clouds 14 1007 62 10000 5.7 230 10:54 07.06.2020
1862 Clouds 14 1006 58 10000 5.7 240 10:36 07.06.2020
1863 Clouds 14 1006 58 10000 5.7 240 10:18 07.06.2020
1864 Clouds 13 1006 62 10000 6.2 250 09:41 07.06.2020
1865 Clouds 12 1006 66 10000 5.7 240 09:22 07.06.2020
1866 Clouds 12 1006 66 10000 5.7 240 08:59 07.06.2020
1867 Clouds 12 1005 66 10000 4.6 210 08:41 07.06.2020
1868 Clouds 12 1005 62 10000 5.1 220 08:23 07.06.2020
1869 Clouds 12 1005 62 10000 5.1 210 07:43 07.06.2020
1870 Clouds 11 1004 62 10000 5.1 210 07:24 07.06.2020
1871 Clouds 11 1004 62 10000 3.1 190 06:24 07.06.2020
1872 Clouds 11 1004 62 10000 4.1 170 05:28 07.06.2020
1873 Clouds 11 1004 66 10000 3.6 190 04:19 07.06.2020
1874 Clouds 11 1003 66 10000 3.1 190 02:30 07.06.2020
1875 Clouds 11 1003 66 10000 3.1 190 01:43 07.06.2020
1876 Clouds 12 1003 62 10000 3.1 200 01:24 07.06.2020
1877 Clouds 12 1003 58 10000 3.1 200 00:40 07.06.2020
1878 Clouds 13 1003 58 10000 3.1 200 00:18 07.06.2020
1879 Clouds 13 1003 50 10000 4.1 230 23:56 06.06.2020
1880 Clouds 14 1003 47 10000 4.6 220 23:36 06.06.2020
1881 Clouds 14 1003 47 10000 4.6 220 23:18 06.06.2020
1882 Clouds 14 1003 47 10000 4.6 230 22:55 06.06.2020
1883 Clouds 15 1003 47 10000 4.6 230 22:37 06.06.2020
1884 Clouds 15 1003 47 10000 4.6 230 22:18 06.06.2020
1885 Clouds 15 1002 47 10000 3.6 220 21:43 06.06.2020
1886 Clear 16 1002 51 10000 3.6 220 21:22 06.06.2020
1887 Clear 16 1002 44 10000 5.1 240 20:56 06.06.2020
1888 Clear 16 1002 44 10000 5.1 240 20:37 06.06.2020
1889 Rain 17 1002 44 10000 5.7 260 20:18 06.06.2020
1890 Rain 17 1002 41 10000 7.2 260 19:56 06.06.2020
1891 Clouds 17 1002 39 10000 6.7 240 19:37 06.06.2020
1892 Clouds 17 1002 39 10000 6.7 240 19:37 06.06.2020
1893 Clouds 17 1002 39 10000 6.7 240 19:19 06.06.2020
1894 Clouds 17 1002 42 10000 7.7 250 18:43 06.06.2020
1895 Clouds 18 1001 36 10000 8.2 250 18:24 06.06.2020
1896 Clouds 18 1001 39 10000 7.2 260 17:58 06.06.2020
1897 Clouds 18 1001 39 10000 7.2 260 17:39 06.06.2020
1898 Clouds 17 1001 39 10000 7.7 250 17:19 06.06.2020
1899 Clouds 18 1001 42 10000 7.7 260 16:44 06.06.2020
1900 Clouds 18 1001 42 10000 7.7 260 16:22 06.06.2020
1901 Clouds 18 1001 36 10000 9.3 240 15:58 06.06.2020
1902 Clouds 18 1001 36 10000 9.3 240 15:40 06.06.2020
1903 Clouds 18 1001 39 10000 9.8 240 15:20 06.06.2020
1904 Clouds 17 1001 45 10000 7.2 250 14:44 06.06.2020
1905 Clouds 17 1001 51 10000 6.7 250 14:25 06.06.2020
1906 Clouds 16 1001 54 10000 6.7 230 13:59 06.06.2020
1907 Clouds 16 1001 58 10000 4.6 240 13:41 06.06.2020
1908 Clouds 15 1001 58 10000 4.6 240 13:18 06.06.2020
1909 Clouds 14 1001 66 10000 4.1 220 12:43 06.06.2020
1910 Rain 13 1001 76 10000 5.1 210 12:24 06.06.2020
1911 Rain 12 1001 76 10000 6.7 250 11:59 06.06.2020
1912 Rain 12 1001 71 10000 8.2 240 11:39 06.06.2020
1913 Rain 12 1001 71 10000 8.2 240 11:20 06.06.2020
1914 Rain 13 1000 58 10000 7.7 230 10:59 06.06.2020
1915 Rain 13 1000 58 10000 7.7 230 10:40 06.06.2020
1916 Clouds 13 1000 62 10000 6.7 220 10:21 06.06.2020
1917 Clouds 13 1000 66 10000 6.7 230 09:58 06.06.2020
1918 Clouds 13 1000 66 10000 6.7 230 09:40 06.06.2020
1919 Clouds 13 1000 66 10000 5.1 210 09:21 06.06.2020
1920 Clouds 12 1000 71 10000 3.1 180 08:45 06.06.2020
1921 Clouds 11 1000 81 10000 2.6 170 08:24 06.06.2020
1922 Clouds 10 1000 81 10000 3.6 170 07:55 06.06.2020
1923 Clouds 10 1000 81 10000 3.6 170 07:36 06.06.2020
1924 Clouds 9 999 87 10000 3.6 180 07:18 06.06.2020
1925 Clouds 9 999 87 10000 3.6 180 06:42 06.06.2020
1926 Clouds 9 999 87 10000 3.1 150 06:23 06.06.2020
1927 Clouds 9 999 81 10000 2.6 190 05:32 06.06.2020
1928 Rain 9 999 76 10000 3.1 180 04:47 06.06.2020
1929 Clouds 9 999 87 10000 2.6 140 03:29 06.06.2020
1930 Clouds 9 999 81 10000 2.6 140 01:59 06.06.2020
1931 Rain 9 1000 81 10000 2.6 230 01:21 06.06.2020
1932 Clouds 9 1000 76 10000 7.2 280 00:56 06.06.2020
1933 Clouds 9 999 87 10000 3.6 230 00:38 06.06.2020
1934 Clouds 9 999 87 10000 3.6 230 00:20 06.06.2020
1935 Clouds 10 999 93 10000 1.5 180 23:40 05.06.2020
1936 Clouds 10 999 93 10000 1.5 180 23:20 05.06.2020
1937 Clouds 10 999 93 10000 1.5 180 23:20 05.06.2020
1938 Clouds 10 999 87 10000 2.1 230 22:56 05.06.2020
1939 Rain 10 998 93 10000 5.1 240 22:38 05.06.2020
1940 Rain 10 998 93 10000 5.1 240 22:20 05.06.2020
1941 Rain 11 998 76 10000 3.6 260 21:54 05.06.2020
1942 Clouds 11 997 71 10000 5.1 280 21:36 05.06.2020
1943 Clouds 11 997 71 10000 5.1 280 21:18 05.06.2020
1944 Clouds 11 997 71 10000 6.2 290 20:44 05.06.2020
1945 Clouds 11 996 71 10000 7.2 280 20:22 05.06.2020
1946 Clouds 11 996 76 10000 8.7 270 19:44 05.06.2020
1947 Clouds 12 995 81 10000 7.7 270 19:24 05.06.2020
1948 Rain 12 995 81 10000 6.7 270 18:59 05.06.2020
1949 Rain 11 995 81 10000 6.7 270 18:40 05.06.2020
1950 Rain 11 994 76 10000 17 280 18:21 05.06.2020
1951 Rain 12 993 76 10000 4.6 220 17:59 05.06.2020
1952 Clouds 13 993 87 10000 3.6 220 17:40 05.06.2020
1953 Clouds 13 993 87 10000 3.6 220 17:20 05.06.2020
1954 Rain 12 994 93 10000 5.1 250 16:57 05.06.2020
1955 Rain 12 994 93 10000 5.1 250 16:37 05.06.2020
1956 Rain 11 994 93 10000 8.2 260 16:19 05.06.2020
1957 Rain 11 994 93 10000 8.2 260 16:19 05.06.2020
1958 Rain 12 993 87 6000 3.6 210 15:39 05.06.2020
1959 Rain 12 993 81 10000 6.2 170 15:20 05.06.2020
1960 Rain 12 993 81 10000 4.6 190 14:58 05.06.2020
1961 Rain 12 993 81 10000 4.6 190 14:39 05.06.2020
1962 Rain 12 993 81 10000 4.6 190 14:39 05.06.2020
1963 Rain 12 994 81 10000 4.6 180 14:21 05.06.2020
1964 Rain 12 994 81 10000 5.7 180 13:47 05.06.2020
1965 Rain 13 995 76 10000 7.2 190 13:28 05.06.2020
1966 Clouds 13 995 71 10000 5.7 190 12:57 05.06.2020
1967 Clouds 14 995 76 10000 6.2 160 12:39 05.06.2020
1968 Clouds 13 995 76 10000 6.2 160 12:19 05.06.2020
1969 Clouds 13 996 81 10000 5.7 170 11:43 05.06.2020
1970 Rain 12 996 81 10000 5.1 170 11:24 05.06.2020
1971 Rain 12 996 81 10000 5.7 170 10:59 05.06.2020
1972 Rain 12 996 81 10000 5.7 170 10:41 05.06.2020
1973 Clouds 12 997 87 10000 5.1 160 10:20 05.06.2020
1974 Clouds 12 997 87 10000 4.1 160 09:57 05.06.2020
1975 Clouds 11 997 87 10000 4.1 160 09:39 05.06.2020
1976 Rain 11 997 87 10000 2.6 160 09:20 05.06.2020
1977 Rain 10 998 87 10000 2.6 160 08:58 05.06.2020
1978 Rain 10 998 87 10000 2.6 160 08:40 05.06.2020
1979 Clouds 11 998 87 10000 2.6 180 08:18 05.06.2020
1980 Clouds 10 998 87 10000 2.6 170 07:52 05.06.2020
1981 Clouds 10 998 93 10000 2.6 190 07:32 05.06.2020
1982 Clouds 9 998 93 10000 1.5 180 06:50 05.06.2020
1983 Clouds 9 998 93 10000 3.1 260 05:23 05.06.2020
1984 Clouds 9 998 87 10000 3.6 260 04:28 05.06.2020
1985 Clouds 9 998 93 10000 1.5 320 03:32 05.06.2020
1986 Rain 10 998 93 10000 3.1 270 02:30 05.06.2020
1987 Rain 10 998 93 10000 2.1 320 01:59 05.06.2020
1988 Drizzle 10 998 100 10000 5.7 320 01:33 05.06.2020
1989 Rain 10 998 93 8000 5.1 310 00:55 05.06.2020
1990 Rain 10 998 93 8000 5.1 310 00:36 05.06.2020
1991 Clouds 11 998 87 10000 5.7 290 00:18 05.06.2020
1992 Rain 11 998 93 10000 6.2 260 23:42 04.06.2020
1993 Rain 12 998 93 8000 4.6 260 23:24 04.06.2020
1994 Rain 12 997 87 10000 4.1 280 22:42 04.06.2020
1995 Clouds 12 997 87 10000 4.1 270 22:22 04.06.2020
1996 Rain 12 997 87 10000 4.6 270 21:58 04.06.2020
1997 Rain 12 997 87 10000 4.6 270 21:39 04.06.2020
1998 Rain 12 997 87 10000 5.1 290 21:21 04.06.2020
1999 Rain 12 997 93 10000 3.6 300 20:57 04.06.2020
2000 Rain 12 997 93 10000 3.6 300 20:39 04.06.2020
2001 Rain 12 997 87 10000 6.2 320 20:20 04.06.2020
2002 Rain 13 996 87 10000 4.6 280 19:55 04.06.2020
2003 Rain 13 996 87 10000 4.1 280 19:37 04.06.2020
2004 Rain 13 996 87 10000 4.1 280 19:19 04.06.2020
2005 Clouds 13 996 87 10000 7.2 290 18:40 04.06.2020
2006 Clouds 13 996 87 10000 7.2 290 18:21 04.06.2020
2007 Clouds 13 996 82 10000 5.1 320 17:59 04.06.2020
2008 Clouds 13 996 82 10000 5.1 320 17:41 04.06.2020
2009 Clouds 14 996 82 10000 5.1 320 17:20 04.06.2020
2010 Clouds 14 996 82 10000 6.7 300 16:41 04.06.2020
2011 Rain 14 996 87 10000 7.2 300 16:21 04.06.2020
2012 Rain 14 996 87 10000 7.2 300 16:21 04.06.2020
2013 Rain 14 996 87 10000 4.6 310 15:55 04.06.2020
2014 Clouds 14 996 82 10000 4.6 310 15:37 04.06.2020
2015 Clouds 15 996 82 10000 4.6 310 15:19 04.06.2020
2016 Rain 15 996 93 10000 4.1 300 14:38 04.06.2020
2017 Rain 15 996 93 10000 4.1 300 14:19 04.06.2020
2018 Clouds 15 996 87 10000 4.1 300 13:56 04.06.2020
2019 Clouds 14 996 87 10000 4.1 300 13:37 04.06.2020
2020 Clouds 15 996 82 10000 4.6 290 13:18 04.06.2020
2021 Clouds 15 996 87 10000 5.7 290 12:42 04.06.2020
2022 Clouds 15 996 82 10000 5.7 290 12:23 04.06.2020
2023 Clouds 15 996 87 10000 4.1 290 12:00 04.06.2020
2024 Clouds 15 996 82 10000 3.6 290 11:39 04.06.2020
2025 Clouds 15 996 82 10000 3.6 290 11:20 04.06.2020
2026 Clouds 15 996 87 10000 3.1 290 10:58 04.06.2020
2027 Clouds 15 996 93 8000 2.6 320 10:38 04.06.2020
2028 Clouds 15 996 93 8000 2.6 320 10:20 04.06.2020
2029 Rain 15 996 93 8000 4.1 300 09:46 04.06.2020
2030 Rain 15 997 93 7000 3.1 260 09:28 04.06.2020
2031 Rain 15 997 93 7000 1.5 320 08:51 04.06.2020
2032 Rain 15 997 93 7000 1 0 08:31 04.06.2020
2033 Rain 15 997 100 7000 1 150 07:59 04.06.2020
2034 Rain 15 997 93 7000 1 40 07:31 04.06.2020
2035 Rain 15 997 93 8000 1.5 210 06:45 04.06.2020
2036 Rain 15 997 93 7000 0.5 0 06:45 04.06.2020
2037 Rain 15 997 93 8000 1.5 210 06:26 04.06.2020
2038 Rain 15 998 93 9000 1 0 05:51 04.06.2020
2039 Rain 15 998 93 10000 2.1 130 05:31 04.06.2020
2040 Rain 15 998 93 10000 2.1 130 05:31 04.06.2020
2041 Rain 16 1000 82 10000 2.6 220 03:34 04.06.2020
2042 Clouds 17 1000 55 10000 5.1 260 02:19 04.06.2020
2043 Clouds 18 1000 59 10000 2.6 330 01:21 04.06.2020
2044 Clouds 18 1000 59 10000 3.6 330 00:59 04.06.2020
2045 Clouds 18 1000 59 10000 2.6 350 00:18 04.06.2020
2046 Clouds 19 1000 59 10000 1.5 50 23:37 03.06.2020
2047 Clouds 19 1000 59 10000 1.5 50 23:19 03.06.2020
2048 Clouds 19 1000 59 10000 1.5 50 23:19 03.06.2020
2049 Clouds 20 1001 59 10000 0.5 0 22:54 03.06.2020
2050 Clouds 21 1001 59 10000 0.5 0 22:36 03.06.2020
2051 Clouds 21 1001 55 10000 1 0 22:18 03.06.2020
2052 Clouds 22 1001 49 10000 2.6 330 21:55 03.06.2020
2053 Clouds 22 1001 49 10000 2.6 330 21:36 03.06.2020
2054 Clouds 22 1001 46 10000 3.1 330 21:18 03.06.2020
2055 Clouds 24 1001 38 10000 2.1 260 20:41 03.06.2020
2056 Clouds 24 1001 40 10000 3.6 300 20:21 03.06.2020
2057 Clouds 24 1001 36 10000 3.1 300 19:57 03.06.2020
2058 Clouds 25 1001 33 10000 3.6 270 19:39 03.06.2020
2059 Clouds 25 1001 33 10000 3.6 270 19:20 03.06.2020
2060 Clouds 25 1001 33 10000 4.1 280 18:58 03.06.2020
2061 Clouds 25 1001 33 10000 4.1 280 18:39 03.06.2020
2062 Clouds 25 1002 36 10000 4.1 270 18:19 03.06.2020
2063 Clouds 25 1002 36 10000 4.1 0 17:45 03.06.2020
2064 Clouds 24 1002 38 10000 3.6 300 17:23 03.06.2020
2065 Clouds 24 1003 38 10000 3.1 310 16:58 03.06.2020
2066 Clouds 24 1003 38 10000 3.1 310 16:39 03.06.2020
2067 Rain 24 1003 38 10000 2.6 270 16:19 03.06.2020
2068 Clouds 24 1004 38 10000 2.6 330 15:55 03.06.2020
2069 Clouds 24 1004 38 10000 2.6 330 15:37 03.06.2020
2070 Clouds 24 1004 40 10000 3.6 290 15:18 03.06.2020
2071 Clouds 24 1004 32 10000 4.6 280 14:42 03.06.2020
2072 Clouds 24 1004 36 10000 2.1 0 14:23 03.06.2020
2073 Clouds 24 1005 36 10000 3.6 300 13:40 03.06.2020
2074 Clouds 24 1005 38 10000 3.1 310 13:40 03.06.2020
2075 Clouds 24 1005 38 10000 3.1 310 13:21 03.06.2020
2076 Clouds 24 1005 33 10000 3.6 300 12:57 03.06.2020
2077 Clouds 23 1005 33 10000 3.6 300 12:39 03.06.2020
2078 Clouds 23 1006 36 10000 4.1 310 12:19 03.06.2020
2079 Clouds 22 1006 38 10000 4.1 310 11:44 03.06.2020
2080 Clouds 22 1006 40 10000 3.1 320 11:25 03.06.2020
2081 Clouds 21 1006 43 10000 2.6 0 10:44 03.06.2020
2082 Clouds 21 1007 46 10000 2.1 0 10:25 03.06.2020
2083 Clouds 20 1007 49 10000 2.1 290 09:58 03.06.2020
2084 Clouds 19 1007 55 10000 2.6 340 09:37 03.06.2020
2085 Clouds 19 1007 55 10000 2.6 340 09:18 03.06.2020
2086 Clouds 18 1007 55 10000 1 0 08:47 03.06.2020
2087 Clouds 17 1007 59 10000 1 0 08:22 03.06.2020
2088 Clouds 17 1008 72 10000 1 60 07:57 03.06.2020
2089 Clouds 17 1008 67 10000 2.21 275 07:36 03.06.2020
2090 Clouds 16 1008 76 10000 1 0 07:18 03.06.2020
2091 Clouds 16 1008 76 10000 1 0 06:44 03.06.2020
2092 Rain 16 1008 71 10000 0.5 80 06:22 03.06.2020
2093 Rain 16 1008 71 10000 0.5 0 05:44 03.06.2020
2094 Rain 17 1009 72 10000 0.5 160 04:26 03.06.2020
2095 Rain 17 1009 67 10000 2.12 267 03:42 03.06.2020
2096 Rain 18 1010 63 10000 1 0 02:39 03.06.2020
2097 Rain 18 1010 67 10000 1 0 01:46 03.06.2020
2098 Clouds 21 1011 59 10000 1.5 320 00:39 03.06.2020
2099 Clouds 21 1011 59 10000 1.5 320 00:21 03.06.2020
2100 Clouds 21 1011 48 10000 2.6 60 23:46 02.06.2020
2101 Clouds 21 1011 42 10000 0.5 0 23:27 02.06.2020
2102 Clouds 23 1011 43 10000 0.5 0 22:55 02.06.2020
2103 Clouds 23 1011 43 10000 0.5 0 22:36 02.06.2020
2104 Clouds 24 1011 46 10000 1 0 22:18 02.06.2020
2105 Clouds 24 1011 52 10000 1.5 0 21:54 02.06.2020
2106 Clouds 26 1011 46 10000 0.5 0 21:36 02.06.2020
2107 Clouds 26 1011 46 10000 0.5 0 21:18 02.06.2020
2108 Clouds 27 1011 34 10000 1 110 20:42 02.06.2020
2109 Clouds 28 1012 26 10000 1 0 20:23 02.06.2020
2110 Clouds 28 1012 26 10000 1 0 20:23 02.06.2020
2111 Clouds 28 1012 24 10000 1.5 90 19:59 02.06.2020
2112 Clouds 29 1012 26 10000 1.5 80 19:40 02.06.2020
2113 Clouds 29 1012 26 10000 1.5 80 19:22 02.06.2020
2114 Clouds 29 1012 24 10000 2.1 50 18:55 02.06.2020
2115 Clouds 29 1013 24 10000 2.1 80 18:37 02.06.2020
2116 Clouds 29 1013 24 10000 2.1 80 18:19 02.06.2020
2117 Clouds 30 1013 23 10000 1.5 0 17:42 02.06.2020
2118 Clouds 30 1014 23 10000 3.1 250 17:23 02.06.2020
2119 Clouds 30 1014 23 10000 3.1 250 17:23 02.06.2020
2120 Clouds 30 1014 21 10000 1.5 0 16:57 02.06.2020
2121 Clouds 30 1014 20 10000 3.1 100 16:38 02.06.2020
2122 Clouds 30 1014 20 10000 3.1 100 16:20 02.06.2020
2123 Clouds 29 1015 24 10000 3.6 170 15:54 02.06.2020
2124 Clouds 29 1015 25 10000 2.1 0 15:36 02.06.2020
2125 Clouds 29 1015 25 10000 2.1 0 15:18 02.06.2020
2126 Clouds 28 1015 26 10000 3.1 0 14:42 02.06.2020
2127 Clouds 28 1016 30 10000 4.1 170 14:22 02.06.2020
2128 Clouds 27 1016 28 10000 4.1 170 13:54 02.06.2020
2129 Clouds 27 1017 30 10000 2.6 0 13:36 02.06.2020
2130 Clouds 27 1017 30 10000 2.6 0 13:18 02.06.2020
2131 Clouds 27 1017 29 10000 1.5 0 12:40 02.06.2020
2132 Clouds 25 1017 31 10000 3.1 120 12:21 02.06.2020
2133 Clouds 25 1018 31 10000 1.5 0 11:59 02.06.2020
2134 Clouds 25 1018 31 10000 1.5 0 11:39 02.06.2020
2135 Clouds 24 1018 36 10000 3.1 160 11:20 02.06.2020
2136 Clouds 23 1018 38 10000 3.6 150 10:50 02.06.2020
2137 Clouds 23 1019 40 10000 2.1 0 10:28 02.06.2020
2138 Clouds 22 1019 43 10000 2.6 100 09:59 02.06.2020
2139 Clouds 22 1019 43 10000 2.6 100 09:40 02.06.2020
2140 Clouds 17 1019 49 10000 2.6 110 09:20 02.06.2020
2141 Clouds 18 1019 48 10000 2.1 110 08:53 02.06.2020
2142 Clouds 18 1019 52 10000 2.6 90 08:27 02.06.2020
2143 Clouds 17 1019 55 10000 1 0 07:54 02.06.2020
2144 Clouds 16 1019 62 10000 1 0 07:31 02.06.2020
2145 Clouds 14 1019 71 10000 2.1 80 06:51 02.06.2020
2146 Clouds 14 1019 81 10000 0.5 120 06:31 02.06.2020
2147 Clouds 14 1019 81 10000 1 0 05:28 02.06.2020
2148 Clouds 15 1019 71 10000 0.5 0 03:53 02.06.2020
2149 Clouds 16 1019 51 10000 2.6 90 02:30 02.06.2020
2150 Clouds 17 1020 51 10000 1.5 100 01:43 02.06.2020
2151 Clouds 19 1019 45 10000 3.1 80 00:40 02.06.2020
2152 Clouds 19 1019 45 10000 3.1 80 00:20 02.06.2020
2153 Clouds 20 1019 42 10000 2.6 80 23:39 01.06.2020
2154 Clouds 20 1019 40 10000 2.6 80 23:19 01.06.2020
2155 Clouds 21 1019 40 10000 2.6 90 22:56 01.06.2020
2156 Clouds 22 1019 40 10000 2.6 90 22:38 01.06.2020
2157 Clouds 22 1019 37 10000 2.6 100 22:18 01.06.2020
2158 Clouds 23 1019 35 10000 2.1 100 21:42 01.06.2020
2159 Clouds 24 1018 31 10000 2.6 130 21:21 01.06.2020
2160 Clouds 25 1018 31 10000 2.6 120 20:59 01.06.2020
2161 Clouds 25 1018 31 10000 2.6 120 20:41 01.06.2020
2162 Clear 26 1018 23 10000 2.1 0 20:20 01.06.2020
2163 Clear 27 1018 23 10000 2.1 0 19:58 01.06.2020
2164 Clear 27 1018 24 10000 2.1 70 19:39 01.06.2020
2165 Clear 27 1018 24 10000 2.1 70 19:20 01.06.2020
2166 Clear 27 1018 26 10000 3.1 190 18:57 01.06.2020
2167 Clear 28 1019 26 10000 3.1 170 18:38 01.06.2020
2168 Clear 28 1019 26 10000 3.1 170 18:19 01.06.2020
2169 Clear 28 1019 24 10000 3.6 150 17:42 01.06.2020
2170 Clear 28 1019 26 10000 1.5 0 17:22 01.06.2020
2171 -273 0 0 0 0 0 16:58 01.06.2020
2172 Clear 28 1019 26 10000 2.6 80 16:39 01.06.2020
2173 Clear 28 1020 26 10000 2.1 0 16:19 01.06.2020
2174 Clear 28 1020 26 10000 2.1 0 15:55 01.06.2020
2175 Clear 27 1020 24 10000 1.5 0 15:36 01.06.2020
2176 Clear 27 1020 24 10000 1.5 0 15:18 01.06.2020
2177 Clear 26 1020 26 10000 3.1 0 14:55 01.06.2020
2178 Clear 26 1020 26 10000 3.1 0 14:36 01.06.2020
2179 Clouds 26 1020 27 10000 3.6 0 14:18 01.06.2020
2180 Clouds 25 1021 29 10000 4.1 40 13:41 01.06.2020
2181 Clouds 25 1021 29 10000 4.1 40 13:21 01.06.2020
2182 Clouds 25 1021 31 10000 3.1 50 12:58 01.06.2020
2183 Clouds 24 1021 33 10000 3.1 50 12:40 01.06.2020
2184 Clear 24 1021 33 10000 3.1 50 12:21 01.06.2020
2185 Clear 23 1022 35 10000 3.1 0 11:56 01.06.2020
2186 Clear 23 1022 37 10000 3.6 90 11:36 01.06.2020
2187 Clear 23 1022 37 10000 3.6 90 11:18 01.06.2020
2188 Clear 22 1022 40 10000 3.1 120 10:54 01.06.2020
2189 Clear 21 1022 45 10000 2.6 110 10:36 01.06.2020
2190 Clear 21 1022 45 10000 2.6 110 10:18 01.06.2020
2191 Clear 19 1022 48 10000 3.6 70 09:43 01.06.2020
2192 Clear 19 1022 48 10000 3.6 70 09:24 01.06.2020
2193 Clear 18 1022 52 10000 2.6 70 08:54 01.06.2020
2194 Clouds 17 1022 62 10000 0.5 0 08:31 01.06.2020
2195 Clouds 15 1022 66 10000 0.5 0 07:58 01.06.2020
2196 Clouds 14 1022 76 10000 0.5 0 07:39 01.06.2020
2197 Clouds 13 1022 76 10000 0.5 0 07:21 01.06.2020
2198 Clouds 12 1022 87 10000 0.5 0 06:49 01.06.2020
2199 Clouds 12 1022 87 10000 0.5 0 05:56 01.06.2020
2200 Clouds 12 1022 76 10000 0.5 0 04:56 01.06.2020
2201 Clouds 13 1022 71 10000 0.5 0 03:56 01.06.2020
2202 Clouds 13 1022 71 10000 0.5 0 03:37 01.06.2020
2203 Clouds 13 1022 76 10000 1 0 02:42 01.06.2020
2204 Clouds 15 1022 54 10000 2.1 70 01:40 01.06.2020
2205 Clouds 15 1022 54 10000 2.6 80 01:18 01.06.2020
2206 Clouds 16 1022 58 10000 2.1 80 00:46 01.06.2020
2207 Clouds 16 1022 58 10000 2.1 80 00:21 01.06.2020
2208 Clouds 17 1022 48 10000 2.1 80 23:59 31.05.2020
2209 Clouds 17 1022 48 10000 2.1 80 23:59 31.05.2020
2210 Clouds 18 1022 45 10000 3.1 80 23:40 31.05.2020
2211 Clouds 18 1022 45 10000 3.1 80 23:22 31.05.2020
2212 Clouds 18 1022 51 10000 2.1 70 22:58 31.05.2020
2213 Clouds 19 1021 48 10000 1.5 70 22:40 31.05.2020
2214 Clouds 19 1021 39 10000 1.5 90 22:22 31.05.2020
2215 Clouds 20 1021 39 10000 1.5 90 21:57 31.05.2020
2216 Clouds 20 1021 37 10000 2.6 90 21:38 31.05.2020
2217 Clouds 20 1021 37 10000 2.6 90 21:20 31.05.2020
2218 Clouds 21 1020 33 10000 3.6 80 20:44 31.05.2020
2219 Clouds 22 1020 33 10000 3.1 90 20:25 31.05.2020
2220 Clouds 22 1020 33 10000 3.1 90 19:56 31.05.2020
2221 Clouds 23 1020 31 10000 4.6 60 19:38 31.05.2020
2222 Clouds 23 1020 31 10000 4.1 60 19:20 31.05.2020
2223 Clouds 23 1020 31 10000 4.1 60 18:45 31.05.2020
2224 Clouds 23 1020 31 10000 3.6 100 18:25 31.05.2020
2225 Clouds 23 1020 30 10000 3.1 110 17:59 31.05.2020
2226 Clouds 23 1020 28 10000 4.1 100 17:40 31.05.2020
2227 Clouds 23 1020 30 10000 4.6 100 17:21 31.05.2020
2228 Clouds 23 1020 30 10000 3.6 0 16:41 31.05.2020
2229 Clouds 22 1020 30 10000 3.6 0 16:22 31.05.2020
2230 Clouds 23 1020 28 10000 3.1 0 15:56 31.05.2020
2231 Clouds 23 1021 27 10000 2.6 0 15:37 31.05.2020
2232 Clouds 22 1021 26 10000 4.1 60 15:19 31.05.2020
2233 Clouds 22 1021 26 10000 3.6 100 14:42 31.05.2020
2234 Clouds 22 1021 26 10000 3.6 100 14:19 31.05.2020
2235 Clouds 21 1021 32 10000 4.1 60 13:56 31.05.2020
2236 Clouds 21 1021 32 10000 3.6 50 13:37 31.05.2020
2237 Clouds 20 1022 32 10000 4.1 50 13:19 31.05.2020
2238 Clouds 20 1022 34 10000 3.6 0 12:54 31.05.2020
2239 Clouds 19 1022 34 10000 3.6 0 12:36 31.05.2020
2240 Clouds 19 1022 34 10000 3.6 0 12:18 31.05.2020
2241 Clouds 19 1022 36 10000 3.6 60 11:42 31.05.2020
2242 Clouds 18 1022 36 10000 3.6 60 11:21 31.05.2020
2243 Clouds 17 1022 39 10000 3.6 60 10:46 31.05.2020
2244 Clouds 17 1022 39 10000 3.6 60 10:28 31.05.2020
2245 Clouds 16 1022 44 10000 4.1 60 09:59 31.05.2020
2246 Clouds 15 1022 54 10000 0.5 0 09:41 31.05.2020
2247 Clouds 15 1022 54 10000 0.5 0 09:21 31.05.2020
2248 Clouds 14 1022 58 10000 0.5 0 08:56 31.05.2020
2249 Clouds 14 1022 71 10000 1 0 08:36 31.05.2020
2250 Clouds 13 1022 71 10000 1 0 08:18 31.05.2020
2251 Clouds 12 1022 81 10000 0.5 0 07:39 31.05.2020
2252 Clouds 11 1022 75 10000 1 180 07:18 31.05.2020
2253 Clouds 11 1022 75 10000 0.5 0 06:49 31.05.2020
2254 Clouds 11 1022 75 10000 0.5 0 06:31 31.05.2020
2255 Clouds 11 1022 62 10000 2.6 80 05:41 31.05.2020
2256 Clouds 12 1022 62 10000 3.1 60 04:25 31.05.2020
2257 Clouds 12 1022 66 10000 3.6 60 03:48 31.05.2020
2258 Clouds 12 1022 66 10000 4.1 60 02:59 31.05.2020
2259 Clouds 13 1022 62 10000 3.6 60 01:48 31.05.2020
2260 Clouds 14 1022 58 10000 2.1 80 01:19 31.05.2020
2261 Clouds 15 1022 50 10000 2.6 80 00:30 31.05.2020
2262 Clouds 16 1022 50 10000 2.6 80 23:56 30.05.2020
2263 Clouds 17 1022 47 10000 2.6 90 23:38 30.05.2020
2264 Clouds 17 1022 47 10000 2.6 90 23:38 30.05.2020
2265 Clouds 17 1022 47 10000 2.6 90 23:19 30.05.2020
2266 Clouds 18 1022 36 10000 2.6 70 22:41 30.05.2020
2267 Clouds 18 1022 36 10000 2.6 70 22:23 30.05.2020
2268 Clouds 19 1021 34 10000 3.6 60 21:56 30.05.2020
2269 Clear 20 1021 34 10000 4.1 60 21:37 30.05.2020
2270 Clouds 20 1021 34 10000 4.1 60 21:19 30.05.2020
2271 Clouds 21 1021 30 10000 5.1 70 20:56 30.05.2020
2272 Clouds 21 1021 30 10000 4.1 80 20:38 30.05.2020
2273 Clouds 22 1021 30 10000 4.1 80 20:20 30.05.2020
2274 Clouds 22 1021 28 10000 5.1 80 19:42 30.05.2020
2275 Clouds 22 1021 28 10000 5.1 80 19:22 30.05.2020
2276 Clouds 22 1021 30 10000 4.6 70 18:46 30.05.2020
2277 Clouds 22 1021 30 10000 4.6 70 18:25 30.05.2020
2278 Clouds 23 1021 28 10000 4.6 60 17:56 30.05.2020
2279 Clouds 23 1021 27 10000 4.6 70 17:37 30.05.2020
2280 Clouds 23 1021 23 10000 4.6 60 17:19 30.05.2020
2281 Clouds 24 1021 23 10000 4.1 70 16:43 30.05.2020
2282 Clear 24 1021 23 10000 4.1 70 16:23 30.05.2020
2283 Clear 24 1021 23 10000 2.6 90 15:56 30.05.2020
2284 Clear 23 1022 28 10000 4.6 50 15:38 30.05.2020
2285 Clear 24 1022 28 10000 4.6 50 15:19 30.05.2020
2286 Clear 23 1022 32 10000 4.1 70 14:42 30.05.2020
2287 Clear 23 1022 28 10000 4.6 50 14:21 30.05.2020
2288 Clear 22 1023 32 10000 3.1 0 13:42 30.05.2020
2289 Clear 22 1023 32 10000 3.1 0 13:20 30.05.2020
2290 Clear 22 1023 32 10000 3.6 60 12:40 30.05.2020
2291 Clear 21 1024 32 10000 4.1 130 12:20 30.05.2020
2292 Clear 22 1024 32 10000 4.1 130 11:56 30.05.2020
2293 Clear 21 1024 32 10000 3.6 90 11:38 30.05.2020
2294 Clear 21 1024 32 10000 3.6 90 11:20 30.05.2020
2295 Clear 20 1024 34 10000 3.6 110 10:39 30.05.2020
2296 Clear 20 1024 39 10000 3.6 80 10:21 30.05.2020
2297 Clear 18 1024 39 10000 2.6 90 09:48 30.05.2020
2298 Clear 16 1024 39 10000 2.6 90 09:30 30.05.2020
2299 Clear 16 1024 39 10000 2.6 90 09:30 30.05.2020
2300 Clear 16 1024 51 10000 2.1 80 08:51 30.05.2020
2301 Clear 16 1024 51 10000 2.1 80 08:32 30.05.2020
2302 Clear 13 1024 66 10000 0.5 0 07:45 30.05.2020
2303 Clear 13 1024 66 10000 0.5 0 07:23 30.05.2020
2304 Clear 11 1024 75 10000 0.5 0 06:50 30.05.2020
2305 Clear 11 1024 70 10000 0.5 0 06:23 30.05.2020
2306 Clear 11 1024 70 10000 0.5 0 05:49 30.05.2020
2307 Clear 13 1024 54 10000 3.6 80 03:39 30.05.2020
2308 Clear 14 1024 54 10000 2.6 80 02:30 30.05.2020
2309 Clear 15 1024 47 10000 3.1 80 01:49 30.05.2020
2310 Clear 15 1024 41 10000 3.1 80 00:38 30.05.2020
2311 Clear 16 1024 41 10000 3.1 80 00:19 30.05.2020
2312 Clear 16 1024 41 10000 3.1 80 23:57 29.05.2020
2313 Clear 17 1024 38 10000 2.6 70 23:38 29.05.2020
2314 Clear 18 1023 39 10000 3.1 70 23:18 29.05.2020
2315 Clear 18 1023 34 10000 3.1 80 22:41 29.05.2020
2316 Clear 19 1023 34 10000 3.1 80 22:20 29.05.2020
2317 Clear 19 1023 32 10000 3.1 50 21:59 29.05.2020
2318 Clouds 21 1023 28 10000 4.1 40 21:39 29.05.2020
2319 Clouds 21 1023 24 10000 4.6 30 21:20 29.05.2020
2320 Clouds 22 1023 25 10000 4.6 40 20:54 29.05.2020
2321 Clear 22 1023 25 10000 4.6 40 20:36 29.05.2020
2322 Clear 22 1023 25 10000 4.6 40 20:18 29.05.2020
2323 Clear 23 1023 28 10000 4.1 40 19:42 29.05.2020
2324 Clear 23 1023 28 10000 4.1 40 19:23 29.05.2020
2325 Clear 23 1023 27 10000 3.6 60 18:47 29.05.2020
2326 Clear 23 1023 33 10000 3.1 40 18:21 29.05.2020
2327 Clear 23 1024 27 10000 2.6 0 17:57 29.05.2020
2328 Clear 23 1024 27 10000 3.6 0 17:38 29.05.2020
2329 Clear 23 1024 27 10000 3.6 0 17:20 29.05.2020
2330 Clear 23 1024 25 10000 2.1 0 16:46 29.05.2020
2331 Clear 23 1025 25 10000 2.6 0 16:28 29.05.2020
2332 Clear 23 1025 28 10000 2.6 70 15:58 29.05.2020
2333 Clear 23 1025 27 10000 3.1 0 15:40 29.05.2020
2334 Clear 23 1026 28 10000 3.1 0 15:20 29.05.2020
2335 Clear 22 1026 28 10000 3.1 0 14:54 29.05.2020
2336 Clear 22 1026 30 10000 2.6 50 14:36 29.05.2020
2337 Clear 22 1027 26 10000 2.1 0 14:18 29.05.2020
2338 Clear 22 1027 30 10000 4.6 60 13:41 29.05.2020
2339 Clear 22 1027 30 10000 4.6 60 13:21 29.05.2020
2340 Clear 21 1027 32 10000 2.6 120 12:55 29.05.2020
2341 Clear 21 1028 32 10000 4.1 50 12:37 29.05.2020
2342 Clear 20 1028 34 10000 2.6 20 12:18 29.05.2020
2343 Clear 19 1028 39 10000 2.1 0 11:42 29.05.2020
2344 Clear 20 1028 39 10000 2.1 0 11:42 29.05.2020
2345 Clear 19 1028 39 10000 2.1 0 11:24 29.05.2020
2346 Clouds 19 1028 45 10000 1.5 0 10:46 29.05.2020
2347 Clouds 18 1028 45 10000 1.5 0 10:24 29.05.2020
2348 Clear 17 1029 51 10000 0.5 0 09:58 29.05.2020
2349 Clear 16 1029 54 10000 1 0 09:40 29.05.2020
2350 Clear 15 1029 54 10000 1 0 09:19 29.05.2020
2351 Clear 14 1029 62 10000 1 0 08:47 29.05.2020
2352 Clear 13 1029 76 10000 1.5 150 08:24 29.05.2020
2353 Clear 12 1029 81 10000 2.1 150 07:48 29.05.2020
2354 Clear 11 1029 81 10000 2.1 150 07:30 29.05.2020
2355 Clear 10 1029 87 10000 1.5 150 06:58 29.05.2020
2356 Clear 10 1029 86 10000 2.1 140 06:39 29.05.2020
2357 Clear 10 1029 86 10000 2.1 140 06:21 29.05.2020
2358 Clear 10 1029 75 10000 0.5 0 05:40 29.05.2020
2359 Clear 13 1029 61 10000 2.1 60 02:18 29.05.2020
2360 Clear 13 1029 61 10000 2.1 50 01:27 29.05.2020
2361 Clear 13 1029 66 10000 2.1 50 00:53 29.05.2020
2362 Clear 14 1029 62 10000 2.1 60 00:32 29.05.2020
2363 Clear 14 1029 58 10000 1 0 23:57 28.05.2020
2364 Clear 16 1029 54 10000 3.1 40 23:39 28.05.2020
2365 Clear 15 1029 50 10000 1.5 40 23:18 28.05.2020
2366 Clear 17 1029 41 10000 2.6 30 22:42 28.05.2020
2367 Clear 17 1029 41 10000 2.6 30 22:24 28.05.2020
2368 Clear 18 1029 39 10000 3.1 20 21:56 28.05.2020
2369 Clear 18 1029 39 10000 3.1 20 21:56 28.05.2020
2370 Clear 19 1029 36 10000 4.1 20 21:38 28.05.2020
2371 Clear 19 1029 36 10000 4.1 20 21:19 28.05.2020
2372 Clear 19 1029 36 10000 4.1 20 21:19 28.05.2020
2373 Clear 20 1029 32 10000 4.6 10 20:56 28.05.2020
2374 Clear 21 1029 30 10000 5.7 20 20:37 28.05.2020
2375 Clear 21 1029 30 10000 5.7 20 20:18 28.05.2020
2376 Clear 21 1029 28 10000 5.1 20 19:43 28.05.2020
2377 Clear 22 1029 28 10000 5.1 20 19:21 28.05.2020
2378 Clear 21 1029 28 10000 5.7 20 18:58 28.05.2020
2379 Clear 22 1029 28 10000 6.7 20 18:40 28.05.2020
2380 Clear 22 1030 24 10000 4.6 40 18:22 28.05.2020
2381 Clear 22 1030 28 10000 6.2 20 17:43 28.05.2020
2382 Clear 22 1030 28 10000 6.2 20 17:22 28.05.2020
2383 Clear 22 1030 28 10000 6.2 20 17:22 28.05.2020
2384 Clear 21 1030 28 10000 5.7 360 16:58 28.05.2020
2385 Clear 21 1030 26 10000 5.7 20 16:38 28.05.2020
2386 Clear 21 1030 26 10000 5.7 20 16:20 28.05.2020
2387 Clear 21 1031 28 10000 4.6 40 15:42 28.05.2020
2388 Clear 21 1031 28 10000 4.6 40 15:24 28.05.2020
2389 Clear 21 1031 30 10000 4.6 10 14:57 28.05.2020
2390 Clear 20 1031 30 10000 5.1 20 14:38 28.05.2020
2391 Clear 20 1032 32 10000 5.1 20 14:20 28.05.2020
2392 Clear 20 1032 34 10000 4.6 50 13:42 28.05.2020
2393 Clear 19 1032 34 10000 4.6 50 13:24 28.05.2020
2394 Clear 19 1032 32 10000 5.7 40 12:42 28.05.2020
2395 Clear 18 1032 39 10000 5.1 10 12:19 28.05.2020
2396 Clear 18 1033 42 10000 4.1 20 11:44 28.05.2020
2397 Clear 18 1033 42 10000 4.1 20 11:26 28.05.2020
2398 Clear 18 1033 42 10000 4.1 20 11:26 28.05.2020
2399 Clear 17 1033 45 10000 2.1 0 10:58 28.05.2020
2400 Clouds 17 1033 48 10000 3.1 360 10:40 28.05.2020
2401 Clouds 16 1033 48 10000 3.1 360 10:22 28.05.2020
2402 Clouds 15 1033 62 10000 2.1 50 09:40 28.05.2020
2403 Clouds 14 1033 66 10000 2.1 360 09:22 28.05.2020
2404 Clouds 13 1033 71 10000 4.1 20 08:52 28.05.2020
2405 Clouds 13 1033 71 10000 4.1 20 08:32 28.05.2020
2406 Clear 13 1033 71 10000 1.5 360 07:58 28.05.2020
2407 Clouds 11 1033 76 10000 2.1 320 07:38 28.05.2020
2408 Clouds 11 1033 76 10000 2.1 320 07:20 28.05.2020
2409 Clouds 11 1033 71 10000 1.5 10 06:39 28.05.2020
2410 Clouds 11 1033 71 10000 1.5 360 06:21 28.05.2020
2411 Clouds 11 1032 66 10000 2.6 10 05:38 28.05.2020
2412 Clouds 12 1032 54 10000 4.1 20 04:35 28.05.2020
2413 Clouds 13 1032 54 10000 4.6 30 03:52 28.05.2020
2414 Clouds 15 1032 62 10000 3.1 360 02:52 28.05.2020
2415 Clouds 16 1032 63 10000 5.1 30 01:57 28.05.2020
2416 Clouds 16 1032 67 10000 3.6 20 01:35 28.05.2020
2417 Clouds 17 1031 59 10000 5.1 360 00:47 28.05.2020
2418 Clouds 17 1031 59 10000 5.1 360 00:19 28.05.2020
2419 Clouds 18 1031 59 10000 3.6 360 23:56 27.05.2020
2420 Clouds 18 1031 59 10000 3.1 350 23:37 27.05.2020
2421 Clouds 18 1031 55 10000 3.1 340 23:19 27.05.2020
2422 Clouds 19 1031 55 10000 3.6 340 22:41 27.05.2020
2423 Clouds 19 1031 55 10000 3.6 340 22:23 27.05.2020
2424 Clouds 20 1030 52 10000 2.1 340 21:56 27.05.2020
2425 Clouds 20 1030 49 10000 2.6 350 21:38 27.05.2020
2426 Clouds 21 1030 46 10000 3.6 330 21:20 27.05.2020
2427 Clouds 22 1030 46 10000 3.6 330 20:58 27.05.2020
2428 Clouds 22 1030 43 10000 3.6 350 20:39 27.05.2020
2429 Clouds 23 1030 38 10000 5.7 310 20:19 27.05.2020
2430 Clouds 23 1030 43 10000 5.1 320 19:46 27.05.2020
2431 Clouds 23 1030 36 10000 5.7 330 19:21 27.05.2020
2432 Clouds 24 1030 36 10000 5.7 330 18:56 27.05.2020
2433 Clouds 24 1031 35 10000 3.6 350 18:37 27.05.2020
2434 Clouds 23 1031 33 10000 4.1 350 18:18 27.05.2020
2435 Clouds 24 1031 29 10000 2.1 0 17:42 27.05.2020
2436 Clouds 25 1031 31 10000 3.6 0 17:24 27.05.2020
2437 Clouds 24 1031 31 10000 3.6 0 16:57 27.05.2020
2438 Clouds 24 1031 29 10000 3.1 300 16:38 27.05.2020
2439 Clouds 25 1031 29 10000 3.1 300 16:20 27.05.2020
2440 Clouds 24 1032 27 10000 2.1 0 15:49 27.05.2020
2441 Clouds 24 1032 27 10000 2.1 0 15:23 27.05.2020
2442 Clouds 24 1032 29 10000 2.6 170 14:58 27.05.2020
2443 Clouds 24 1032 31 10000 2.1 360 14:39 27.05.2020
2444 Clouds 24 1032 31 10000 2.1 360 14:20 27.05.2020
2445 Clouds 24 1032 33 10000 3.6 270 13:44 27.05.2020
2446 Clouds 23 1032 33 10000 3.6 270 13:25 27.05.2020
2447 Clouds 23 1033 35 10000 2.1 0 12:56 27.05.2020
2448 Clouds 22 1033 35 10000 2.6 100 12:37 27.05.2020
2449 Clouds 22 1033 37 10000 1.5 0 12:18 27.05.2020
2450 Clouds 21 1033 40 10000 2.6 180 11:39 27.05.2020
2451 Clouds 21 1033 40 10000 2.6 180 11:21 27.05.2020
2452 Clouds 20 1033 42 10000 3.6 170 10:56 27.05.2020
2453 Clouds 19 1033 48 10000 2.6 160 10:38 27.05.2020
2454 Clouds 19 1033 48 10000 2.6 160 10:19 27.05.2020
2455 Clouds 17 1034 59 10000 2.6 140 09:40 27.05.2020
2456 Clouds 16 1034 59 10000 2.6 140 09:21 27.05.2020
2457 Clouds 16 1034 58 10000 3.1 130 08:56 27.05.2020
2458 Clouds 15 1034 62 10000 2.1 130 08:36 27.05.2020
2459 Clear 15 1034 62 10000 2.1 130 08:18 27.05.2020
2460 Clear 13 1034 71 10000 0.5 0 07:49 27.05.2020
2461 Clear 12 1034 71 10000 0.5 0 07:30 27.05.2020
2462 Clear 11 1034 87 10000 1 0 06:47 27.05.2020
2463 Clear 11 1034 87 10000 1 0 06:20 27.05.2020
2464 Clear 11 1033 76 10000 1.5 50 05:49 27.05.2020
2465 Clear 12 1033 71 10000 1.5 0 04:38 27.05.2020
2466 Clear 14 1034 62 10000 3.6 80 02:32 27.05.2020
2467 Clouds 14 1034 62 10000 3.1 70 01:53 27.05.2020
2468 Clouds 15 1034 62 10000 3.1 80 01:30 27.05.2020
2469 Clouds 15 1034 62 10000 4.1 50 00:46 27.05.2020
2470 Clouds 16 1034 58 10000 3.1 50 00:20 27.05.2020
2471 Clouds 16 1034 58 10000 3.1 50 23:56 26.05.2020
2472 Clouds 17 1034 55 10000 3.1 60 23:38 26.05.2020
2473 Clouds 17 1034 55 10000 3.1 60 23:19 26.05.2020
2474 Clouds 17 1034 51 10000 2.6 40 22:41 26.05.2020
2475 Clouds 18 1034 51 10000 2.6 40 22:21 26.05.2020
2476 Clouds 19 1033 45 10000 3.6 20 21:59 26.05.2020
2477 Clear 20 1033 40 10000 4.1 20 21:40 26.05.2020
2478 Clouds 20 1033 40 10000 4.1 20 21:40 26.05.2020
2479 Clear 20 1033 40 10000 4.1 20 21:21 26.05.2020
2480 Clear 21 1033 37 10000 3.6 10 20:57 26.05.2020
2481 Clouds 21 1033 37 10000 4.1 10 20:39 26.05.2020
2482 Clouds 22 1033 37 10000 4.1 10 20:19 26.05.2020
2483 Clouds 22 1033 31 10000 4.6 350 19:40 26.05.2020
2484 Clouds 23 1033 28 10000 4.1 330 19:20 26.05.2020
2485 Clouds 23 1033 28 10000 4.1 330 18:58 26.05.2020
2486 Clouds 23 1033 27 10000 3.6 10 18:39 26.05.2020
2487 Clouds 23 1033 27 10000 3.6 10 18:20 26.05.2020
2488 Clouds 23 1033 28 10000 3.6 360 17:40 26.05.2020
2489 Clouds 23 1033 28 10000 3.6 360 17:21 26.05.2020
2490 Clouds 23 1033 28 10000 3.1 10 16:48 26.05.2020
2491 Clear 22 1034 31 10000 3.6 0 16:23 26.05.2020
2492 Clear 22 1034 31 10000 3.6 0 15:59 26.05.2020
2493 Clear 21 1034 30 10000 3.6 360 15:40 26.05.2020
2494 Clouds 21 1034 35 10000 2.6 0 15:19 26.05.2020
2495 Clouds 21 1034 35 10000 2.6 0 15:19 26.05.2020
2496 Clouds 21 1034 35 10000 2.6 0 14:55 26.05.2020
2497 Clouds 22 1034 33 10000 5.1 50 14:36 26.05.2020
2498 Clouds 21 1034 33 10000 5.1 50 14:18 26.05.2020
2499 Clouds 21 1035 42 10000 3.1 330 13:41 26.05.2020
2500 Clouds 20 1035 45 10000 2.6 0 13:22 26.05.2020
2501 Clouds 19 1035 48 10000 2.1 0 12:44 26.05.2020
2502 Clouds 19 1035 48 10000 3.6 350 12:23 26.05.2020
2503 Clouds 18 1035 48 10000 3.6 350 11:59 26.05.2020
2504 Clouds 18 1035 51 10000 3.1 340 11:41 26.05.2020
2505 Clouds 17 1035 55 10000 2.1 0 11:20 26.05.2020
2506 Clouds 16 1035 62 10000 2.1 280 10:47 26.05.2020
2507 Clouds 16 1035 62 10000 2.1 280 10:20 26.05.2020
2508 Clouds 15 1035 67 10000 1.5 0 09:59 26.05.2020
2509 Clouds 14 1035 67 10000 1 0 09:37 26.05.2020
2510 Clouds 14 1035 81 10000 1 0 09:18 26.05.2020
2511 Clouds 12 1035 81 10000 1.5 50 08:41 26.05.2020
2512 Clouds 12 1035 81 10000 1.5 50 08:22 26.05.2020
2513 Clouds 11 1035 93 10000 1 0 07:43 26.05.2020
2514 Clouds 10 1035 93 10000 1 0 07:23 26.05.2020
2515 Clouds 10 1035 100 10000 1 40 06:53 26.05.2020
2516 Clouds 10 1034 100 10000 1.5 140 06:31 26.05.2020
2517 Clouds 10 1034 93 10000 2.6 60 05:44 26.05.2020
2518 Clear 10 1034 93 10000 2.6 60 05:25 26.05.2020
2519 Clear 10 1034 87 10000 0.5 0 04:49 26.05.2020
2520 Clear 10 1034 87 10000 0.5 0 04:31 26.05.2020
2521 Clear 11 1034 93 10000 0.5 0 03:52 26.05.2020
2522 Clear 12 1034 87 10000 0.5 0 02:40 26.05.2020
2523 Clear 13 1034 81 10000 2.1 60 01:48 26.05.2020
2524 Clear 13 1034 81 10000 2.1 60 01:21 26.05.2020
2525 Clear 14 1034 76 10000 2.1 60 00:37 26.05.2020
2526 Clear 14 1034 76 10000 2.1 60 00:18 26.05.2020
2527 Clear 15 1034 76 10000 2.1 50 23:55 25.05.2020
2528 Clear 15 1034 71 10000 2.6 20 23:36 25.05.2020
2529 Clear 15 1034 71 10000 2.6 20 23:18 25.05.2020
2530 Clear 16 1034 71 10000 3.1 350 22:54 25.05.2020
2531 Clear 16 1034 71 10000 3.1 350 22:36 25.05.2020
2532 Clear 17 1033 63 10000 3.6 350 22:18 25.05.2020
2533 Clear 17 1033 59 10000 4.6 350 21:54 25.05.2020
2534 Clouds 18 1033 59 10000 4.6 350 21:36 25.05.2020
2535 Clouds 18 1033 55 10000 4.1 360 21:18 25.05.2020
2536 Clouds 19 1033 55 10000 4.1 340 20:42 25.05.2020
2537 Clouds 19 1033 52 10000 4.6 330 20:21 25.05.2020
2538 Clouds 19 1033 52 10000 4.6 330 19:59 25.05.2020
2539 -273 0 0 0 0 0 19:59 25.05.2020
2540 Clouds 20 1032 45 10000 6.2 340 19:39 25.05.2020
2541 Clouds 20 1032 49 10000 5.1 360 19:18 25.05.2020
2542 Clouds 20 1032 49 10000 5.1 360 18:54 25.05.2020
2543 Clouds 20 1032 49 10000 5.7 350 18:36 25.05.2020
2544 Clouds 20 1032 49 10000 6.7 330 18:18 25.05.2020
2545 Clouds 20 1032 52 10000 5.7 340 17:41 25.05.2020
2546 Clouds 20 1032 52 10000 5.7 340 17:23 25.05.2020
2547 Clouds 20 1033 55 10000 5.7 340 16:57 25.05.2020
2548 Clouds 20 1033 55 10000 5.7 330 16:39 25.05.2020
2549 Clouds 19 1033 55 10000 4.6 350 16:19 25.05.2020
2550 Clouds 19 1033 59 10000 4.6 350 15:44 25.05.2020
2551 Clouds 19 1033 59 10000 4.6 350 15:20 25.05.2020
2552 Clouds 18 1033 63 10000 5.1 330 14:59 25.05.2020
2553 Clouds 18 1033 63 10000 4.6 330 14:38 25.05.2020
2554 Clouds 18 1033 63 10000 4.6 320 14:20 25.05.2020
2555 Clouds 18 1033 67 10000 4.6 320 13:40 25.05.2020
2556 Clouds 18 1033 67 10000 5.1 310 13:21 25.05.2020
2557 Clouds 17 1033 67 10000 5.1 310 12:59 25.05.2020
2558 Clouds 17 1033 72 10000 3.6 320 12:39 25.05.2020
2559 Clouds 17 1033 72 10000 3.6 330 12:20 25.05.2020
2560 Clouds 17 1033 72 10000 3.6 330 11:56 25.05.2020
2561 Clouds 16 1033 77 10000 4.6 310 11:37 25.05.2020
2562 Clouds 16 1033 82 10000 4.6 310 11:18 25.05.2020
2563 Clouds 16 1033 77 10000 5.1 320 10:41 25.05.2020
2564 Clouds 16 1033 77 10000 5.1 320 10:41 25.05.2020
2565 Clouds 15 1033 77 10000 5.1 320 10:20 25.05.2020
2566 Clouds 14 1033 82 10000 5.1 300 09:56 25.05.2020
2567 Clouds 14 1033 82 10000 5.1 300 09:38 25.05.2020
2568 Clouds 14 1032 82 10000 4.6 300 09:19 25.05.2020
2569 Clouds 14 1032 87 10000 3.6 310 08:44 25.05.2020
2570 Clouds 14 1032 87 10000 3.6 310 08:24 25.05.2020
2571 Clouds 13 1032 87 10000 2.1 310 07:58 25.05.2020
2572 Clouds 13 1032 87 10000 2.1 320 07:39 25.05.2020
2573 Clouds 13 1032 87 10000 2.1 320 07:19 25.05.2020
2574 Clouds 13 1032 93 10000 2.1 310 06:41 25.05.2020
2575 Clouds 13 1032 93 10000 2.1 310 06:41 25.05.2020
2576 Clouds 13 1032 93 10000 2.1 310 06:21 25.05.2020
2577 Rain 13 1032 93 10000 2.6 310 03:40 25.05.2020
2578 Rain 13 1032 93 10000 2.6 310 03:22 25.05.2020
2579 Rain 13 1032 87 10000 3.1 320 02:44 25.05.2020
2580 Clouds 13 1031 93 10000 0.5 150 01:42 25.05.2020
2581 Clouds 13 1032 93 10000 0.5 70 00:58 25.05.2020
2582 Clouds 13 1032 93 10000 1.5 50 00:33 25.05.2020
2583 Clouds 13 1031 93 10000 2.1 250 23:59 24.05.2020
2584 Clouds 13 1032 93 10000 1.5 330 23:40 24.05.2020
2585 Clouds 13 1032 93 10000 1.5 330 23:22 24.05.2020
2586 Clouds 13 1031 93 10000 2.6 330 22:58 24.05.2020
2587 Rain 13 1031 93 10000 7.7 320 22:40 24.05.2020
2588 Rain 13 1031 93 10000 7.7 320 22:18 24.05.2020
2589 Clouds 13 1031 87 10000 2.1 330 21:55 24.05.2020
2590 Clouds 14 1031 87 10000 2.1 330 21:37 24.05.2020
2591 Clouds 15 1031 87 10000 2.1 330 21:19 24.05.2020
2592 Rain 15 1030 87 10000 5.7 320 20:43 24.05.2020
2593 Rain 15 1030 87 10000 5.7 320 20:43 24.05.2020
2594 Rain 15 1030 87 10000 5.7 320 20:22 24.05.2020
2595 Rain 15 1030 63 10000 5.7 280 19:59 24.05.2020
2596 Rain 15 1030 63 10000 5.7 280 19:59 24.05.2020
2597 Clouds 16 1030 63 10000 7.2 300 19:40 24.05.2020
2598 Clouds 17 1030 63 10000 7.2 310 19:19 24.05.2020
2599 Clouds 17 1030 63 10000 7.2 310 18:56 24.05.2020
2600 Clouds 16 1030 63 10000 8.7 300 18:37 24.05.2020
2601 Clouds 16 1029 63 10000 8.2 300 18:19 24.05.2020
2602 Clouds 17 1029 59 10000 8.2 280 17:41 24.05.2020
2603 Clouds 17 1029 55 10000 8.7 300 17:22 24.05.2020
2604 Clouds 17 1029 55 10000 8.7 300 16:58 24.05.2020
2605 Rain 17 1029 59 10000 8.2 300 16:39 24.05.2020
2606 Rain 16 1029 59 10000 8.2 300 16:20 24.05.2020
2607 Rain 17 1029 55 10000 8.7 290 16:20 24.05.2020
2608 Rain 17 1029 55 10000 8.7 290 15:57 24.05.2020
2609 Rain 16 1029 59 10000 7.7 280 15:38 24.05.2020
2610 Rain 17 1029 59 10000 7.7 280 15:19 24.05.2020
2611 Rain 17 1028 51 10000 7.2 280 14:55 24.05.2020
2612 Clouds 17 1028 51 10000 6.2 280 14:37 24.05.2020
2613 Clouds 17 1028 51 10000 6.7 270 14:18 24.05.2020
2614 Clouds 17 1028 51 10000 7.7 280 13:43 24.05.2020
2615 Clouds 17 1028 51 10000 7.7 280 13:23 24.05.2020
2616 Clouds 17 1028 48 10000 6.7 280 12:59 24.05.2020
2617 Clouds 17 1028 48 10000 6.7 280 12:59 24.05.2020
2618 Clouds 16 1029 51 10000 7.2 260 12:41 24.05.2020
2619 Clouds 17 1029 51 10000 7.2 260 12:22 24.05.2020
2620 Clouds 16 1028 55 10000 6.7 260 11:59 24.05.2020
2621 Clouds 16 1029 54 10000 6.7 260 11:41 24.05.2020
2622 Clouds 15 1029 54 10000 6.7 260 11:23 24.05.2020
2623 Clouds 15 1029 54 10000 6.7 260 11:23 24.05.2020
2624 Clouds 15 1029 58 10000 6.2 260 10:59 24.05.2020
2625 Rain 14 1034 51 0 2.68 165 10:39 24.05.2020
2626 Clouds 14 1029 62 10000 6.2 250 10:21 24.05.2020
2627 Clouds 14 1029 66 10000 6.2 260 09:55 24.05.2020
2628 Clouds 13 1034 55 0 2.24 202 09:37 24.05.2020
2629 Clouds 13 1029 66 10000 6.2 260 09:18 24.05.2020
2630 Clouds 12 1028 71 10000 4.1 230 08:40 24.05.2020
2631 Clouds 12 1028 71 10000 4.1 230 08:22 24.05.2020
2632 Clouds 12 1028 71 10000 2.6 210 07:54 24.05.2020
2633 Clouds 12 1028 71 10000 3.1 190 07:36 24.05.2020
2634 Clouds 11 1028 71 10000 3.1 190 07:18 24.05.2020
2635 Clouds 11 1027 71 10000 2.6 180 06:38 24.05.2020
2636 Clouds 11 1027 71 10000 2.6 200 05:49 24.05.2020
2637 Clear 12 1032 50 0 1.34 161 03:49 24.05.2020
2638 Clear 12 1032 49 0 1.79 209 03:26 24.05.2020
2639 Clear 12 1027 57 10000 3.6 220 02:23 24.05.2020
2640 Clear 13 1027 54 10000 5.1 250 00:59 24.05.2020
2641 Clear 14 1027 50 10000 5.1 260 00:36 24.05.2020
2642 Clear 14 1027 50 10000 5.1 260 00:18 24.05.2020
2643 Clear 14 1026 47 10000 6.7 260 23:38 23.05.2020
2644 Clear 15 1026 47 10000 6.7 260 23:19 23.05.2020
2645 Clear 15 1026 44 10000 6.2 270 22:55 23.05.2020
2646 Clear 16 1026 38 10000 7.7 270 22:37 23.05.2020
2647 Clear 16 1025 41 10000 6.7 260 22:18 23.05.2020
2648 Clear 16 1025 41 10000 6.7 260 21:56 23.05.2020
2649 Clear 17 1025 39 10000 8.2 270 21:36 23.05.2020
2650 Clear 17 1025 39 10000 8.2 270 21:18 23.05.2020
2651 Clear 18 1024 34 10000 8.7 280 20:40 23.05.2020
2652 Clouds 18 1024 34 10000 8.7 280 20:20 23.05.2020
2653 Clouds 19 1024 34 10000 9.3 280 19:59 23.05.2020
2654 Clouds 19 1024 48 10000 4.1 210 19:40 23.05.2020
2655 Clouds 19 1023 45 10000 5.1 210 19:19 23.05.2020
2656 Clouds 19 1023 45 10000 5.1 210 18:55 23.05.2020
2657 Clouds 19 1023 45 10000 6.2 230 18:36 23.05.2020
2658 Clouds 19 1023 48 10000 7.7 220 18:18 23.05.2020
2659 Clouds 19 1023 48 10000 7.7 220 17:54 23.05.2020
2660 Clouds 19 1023 45 10000 5.7 260 17:36 23.05.2020
2661 Clouds 19 1023 45 10000 5.7 260 17:18 23.05.2020
2662 Clouds 19 1024 45 10000 5.7 260 16:41 23.05.2020
2663 Clouds 19 1024 45 10000 5.7 260 16:21 23.05.2020
2664 Clouds 19 1024 45 10000 5.7 260 16:21 23.05.2020
2665 Clouds 18 1023 48 10000 6.2 260 15:59 23.05.2020
2666 Clouds 18 1024 48 10000 6.7 260 15:41 23.05.2020
2667 Clouds 17 1024 48 10000 6.7 260 15:22 23.05.2020
2668 Clouds 17 1023 55 10000 6.2 230 14:43 23.05.2020
2669 Clouds 16 1023 55 10000 6.2 230 14:24 23.05.2020
2670 Clouds 16 1024 54 10000 8.2 240 13:57 23.05.2020
2671 Clouds 16 1024 54 10000 6.7 240 13:38 23.05.2020
2672 Clouds 15 1024 62 10000 6.2 230 13:18 23.05.2020
2673 Rain 15 1023 54 10000 7.7 240 12:42 23.05.2020
2674 Clouds 15 1023 58 10000 8.7 250 12:20 23.05.2020
2675 Clouds 15 1023 58 10000 8.7 250 11:59 23.05.2020
2676 Rain 15 1023 67 10000 8.2 250 11:41 23.05.2020
2677 Rain 15 1023 62 10000 6.7 250 11:19 23.05.2020
2678 Rain 15 1023 67 10000 4.6 240 10:56 23.05.2020
2679 Rain 15 1023 67 10000 4.6 240 10:38 23.05.2020
2680 Rain 14 1023 66 10000 3.6 220 10:19 23.05.2020
2681 Rain 14 1023 66 10000 3.6 220 09:55 23.05.2020
2682 Clouds 14 1023 62 10000 4.6 250 09:37 23.05.2020
2683 Clouds 14 1022 62 10000 3.6 240 09:19 23.05.2020
2684 Clouds 14 1022 66 10000 2.1 220 08:41 23.05.2020
2685 Clouds 14 1022 71 10000 2.6 200 08:19 23.05.2020
2686 Clouds 14 1021 76 10000 1.5 160 07:46 23.05.2020
2687 Clouds 14 1021 76 10000 1.5 160 07:28 23.05.2020
2688 Clouds 14 1021 76 10000 1.5 170 06:53 23.05.2020
2689 Clouds 14 1021 76 10000 2.1 180 06:35 23.05.2020
2690 Clouds 15 1021 82 10000 3.1 210 04:49 23.05.2020
2691 Rain 15 1021 87 10000 2.1 170 03:29 23.05.2020
2692 Clouds 16 1021 87 10000 1.5 210 02:56 23.05.2020
2693 Rain 16 1021 93 10000 2.6 160 01:57 23.05.2020
2694 Rain 16 1021 87 10000 2.6 170 01:21 23.05.2020
2695 Rain 16 1021 82 10000 2.6 210 00:46 23.05.2020
2696 Rain 16 1021 82 10000 2.6 210 00:25 23.05.2020
2697 Rain 17 1020 77 10000 3.1 220 23:57 22.05.2020
2698 Rain 17 1020 82 10000 3.6 260 23:38 22.05.2020
2699 Clouds 17 1020 82 10000 5.7 270 23:18 22.05.2020
2700 Clouds 17 1020 82 10000 4.1 260 22:43 22.05.2020
2701 Clouds 17 1020 82 10000 4.1 260 22:21 22.05.2020
2702 Clouds 17 1020 72 10000 6.2 300 21:57 22.05.2020
2703 Clouds 17 1020 72 10000 6.7 290 21:39 22.05.2020
2704 Clouds 18 1020 72 10000 6.7 290 21:20 22.05.2020
2705 Clouds 18 1019 72 10000 7.2 310 20:46 22.05.2020
2706 Clouds 19 1019 68 10000 8.2 310 20:21 22.05.2020
2707 Rain 20 1018 64 10000 7.2 320 19:59 22.05.2020
2708 Clouds 20 1018 60 10000 7.7 320 19:40 22.05.2020
2709 Clouds 21 1018 60 10000 7.7 320 19:22 22.05.2020
2710 Clouds 23 1017 53 10000 2.6 320 18:39 22.05.2020
2711 Clouds 23 1017 53 10000 2.6 320 18:20 22.05.2020
2712 Rain 23 1017 47 10000 6.2 290 17:57 22.05.2020
2713 Rain 24 1016 47 10000 4.6 220 17:37 22.05.2020
2714 Rain 24 1016 47 10000 4.6 220 17:18 22.05.2020
2715 Rain 27 1017 47 10000 4.6 200 16:44 22.05.2020
2716 Rain 27 1017 47 10000 4.6 200 16:20 22.05.2020
2717 Rain 27 1017 44 10000 6.7 200 15:59 22.05.2020
2718 Rain 27 1017 47 10000 6.2 210 15:41 22.05.2020
2719 Rain 27 1017 47 10000 6.2 210 15:20 22.05.2020
2720 Clouds 27 1017 47 10000 5.7 190 14:44 22.05.2020
2721 Rain 26 1017 47 10000 5.7 190 14:24 22.05.2020
2722 Rain 26 1018 47 10000 4.1 190 13:49 22.05.2020
2723 Rain 26 1018 50 10000 5.1 180 13:21 22.05.2020
2724 Rain 25 1018 53 10000 4.6 170 12:56 22.05.2020
2725 Rain 24 1018 53 10000 4.1 160 12:37 22.05.2020
2726 Rain 24 1018 56 10000 3.6 160 12:19 22.05.2020
2727 Rain 23 1019 60 10000 3.1 150 11:44 22.05.2020
2728 Rain 22 1019 60 10000 3.1 150 11:21 22.05.2020
2729 Rain 22 1019 64 10000 3.1 130 10:55 22.05.2020
2730 Rain 21 1019 68 10000 2.1 130 10:37 22.05.2020
2731 Rain 21 1018 64 10000 2.1 130 10:18 22.05.2020
2732 Clouds 20 1019 68 10000 2.6 140 09:42 22.05.2020
2733 Clouds 19 1019 68 10000 2.6 140 09:20 22.05.2020
2734 Clouds 19 1018 72 10000 2.1 130 08:55 22.05.2020
2735 Clouds 18 1018 72 10000 1.5 130 08:37 22.05.2020
2736 Clouds 18 1018 72 10000 1.5 130 08:18 22.05.2020
2737 Clouds 18 1018 67 10000 2.1 90 07:46 22.05.2020
2738 Clouds 17 1018 67 10000 2.1 90 07:22 22.05.2020
2739 Clouds 16 1018 82 10000 0.5 0 06:46 22.05.2020
2740 Clouds 16 1018 82 10000 0.5 0 06:28 22.05.2020
2741 Clouds 16 1018 82 10000 1 0 05:35 22.05.2020
2742 Clouds 16 1019 82 10000 1 0 04:48 22.05.2020
2743 Clouds 17 1019 72 10000 1.5 110 03:50 22.05.2020
2744 Clouds 17 1019 72 10000 2.1 80 03:29 22.05.2020
2745 Clouds 18 1019 77 10000 2.1 60 01:58 22.05.2020
2746 Clouds 18 1019 77 10000 1.5 70 01:32 22.05.2020
2747 Clouds 18 1019 77 10000 1 0 00:52 22.05.2020
2748 Clouds 19 1020 67 10000 2.6 50 00:30 22.05.2020
2749 Clouds 19 1020 67 10000 1 0 23:57 21.05.2020
2750 Clouds 20 1019 67 10000 0.5 70 23:39 21.05.2020
2751 Clouds 20 1019 63 10000 2.6 70 23:20 21.05.2020
2752 Clouds 21 1019 63 10000 2.6 70 22:57 21.05.2020
2753 Clouds 22 1019 52 10000 1.5 60 22:37 21.05.2020
2754 Clear 22 1019 52 10000 1.5 60 22:19 21.05.2020
2755 Clear 25 1019 47 10000 1 50 21:47 21.05.2020
2756 Clear 25 1019 47 10000 1 50 21:27 21.05.2020
2757 Clear 26 1019 34 10000 1.5 30 20:57 21.05.2020
2758 Clear 27 1019 30 10000 2.1 30 20:39 21.05.2020
2759 Clouds 27 1019 30 10000 2.1 30 20:20 21.05.2020
2760 Clouds 28 1019 30 10000 3.1 350 19:40 21.05.2020
2761 Clouds 28 1019 30 10000 3.1 350 19:19 21.05.2020
2762 Clouds 28 1019 28 10000 1.5 0 18:57 21.05.2020
2763 Clouds 28 1019 28 10000 2.6 290 18:36 21.05.2020
2764 Clouds 29 1019 28 10000 2.1 40 18:18 21.05.2020
2765 Clouds 28 1019 28 10000 2.1 40 17:54 21.05.2020
2766 Clouds 28 1020 28 10000 1.5 0 17:36 21.05.2020
2767 Clouds 28 1020 28 10000 3.6 260 17:18 21.05.2020
2768 Clouds 28 1020 34 10000 1.5 0 16:40 21.05.2020
2769 Clouds 27 1020 36 10000 2.1 10 16:21 21.05.2020
2770 Clouds 27 1020 39 10000 2.1 0 15:41 21.05.2020
2771 Clear 27 1020 39 10000 2.1 0 15:22 21.05.2020
2772 Clear 26 1021 39 10000 1.5 0 14:41 21.05.2020
2773 Clouds 26 1021 39 10000 1.5 0 14:23 21.05.2020
2774 Clouds 25 1021 41 10000 2.1 0 13:58 21.05.2020
2775 Clouds 25 1021 44 10000 3.1 0 13:38 21.05.2020
2776 Clear 25 1021 44 10000 3.1 0 13:18 21.05.2020
2777 Clouds 23 1021 46 10000 3.1 0 12:40 21.05.2020
2778 Clouds 24 1021 46 10000 3.1 0 12:40 21.05.2020
2779 Clouds 23 1022 49 10000 2.6 150 12:21 21.05.2020
2780 Clouds 22 1022 49 10000 2.6 150 11:58 21.05.2020
2781 Clouds 22 1022 52 10000 3.1 150 11:39 21.05.2020
2782 Clear 21 1022 52 10000 3.1 150 11:21 21.05.2020
2783 Clear 20 1022 59 10000 3.1 150 10:45 21.05.2020
2784 Clear 20 1022 59 10000 3.1 150 10:23 21.05.2020
2785 Clear 18 1022 59 10000 2.6 140 09:59 21.05.2020
2786 Clear 16 1022 63 10000 2.1 130 09:40 21.05.2020
2787 Clear 16 1022 63 10000 2.1 130 09:40 21.05.2020
2788 Clear 17 1022 63 10000 2.1 130 09:22 21.05.2020
2789 Clear 16 1022 67 10000 2.1 120 08:57 21.05.2020
2790 Clear 15 1022 72 10000 2.1 90 08:38 21.05.2020
2791 Clear 15 1022 72 10000 2.1 90 08:20 21.05.2020
2792 Clear 13 1022 87 10000 1 0 07:42 21.05.2020
2793 Clear 12 1022 87 10000 1 0 07:22 21.05.2020
2794 Clear 11 1021 100 10000 1 60 06:37 21.05.2020
2795 Clear 11 1021 100 10000 1.5 150 05:50 21.05.2020
2796 Clear 12 1022 93 10000 0.5 0 04:18 21.05.2020
2797 Clear 13 1022 76 10000 1.5 90 03:21 21.05.2020
2798 Clear 13 1022 76 10000 1.5 90 03:21 21.05.2020
2799 Clear 13 1022 76 10000 1.5 90 03:21 21.05.2020
2800 Clear 13 1022 76 10000 1.5 90 03:21 21.05.2020
2801 Clear 13 1022 76 10000 2.1 70 02:31 21.05.2020
2802 Clear 14 1022 71 10000 2.1 90 01:52 21.05.2020
2803 Clear 14 1022 71 10000 2.1 90 01:24 21.05.2020
2804 Clear 15 1022 71 10000 3.1 80 00:59 21.05.2020
2805 Clear 15 1022 82 10000 2.6 60 00:41 21.05.2020
2806 Clear 15 1022 82 10000 2.6 60 00:19 21.05.2020
2807 Clear 16 1022 72 10000 2.1 50 23:40 20.05.2020
2808 Clear 17 1022 72 10000 1.5 60 23:19 20.05.2020
2809 Clear 17 1022 63 10000 1.5 20 22:55 20.05.2020
2810 Clear 17 1022 63 10000 1.5 20 22:37 20.05.2020
2811 Clear 18 1021 59 10000 3.1 10 22:19 20.05.2020
2812 Clear 19 1021 55 10000 3.1 20 21:40 20.05.2020
2813 Clear 20 1021 55 10000 3.1 20 21:20 20.05.2020
2814 Clouds 20 1021 49 10000 3.6 10 20:44 20.05.2020
2815 Clouds 21 1021 49 10000 3.6 10 20:24 20.05.2020
2816 Clouds 21 1021 52 10000 4.6 20 19:56 20.05.2020
2817 Clouds 22 1021 46 10000 4.1 20 19:37 20.05.2020
2818 Clouds 22 1021 46 10000 4.1 20 19:19 20.05.2020
2819 Clouds 22 1021 49 10000 3.6 360 18:43 20.05.2020
2820 Clouds 22 1021 49 10000 3.6 360 18:23 20.05.2020
2821 Clouds 22 1021 49 10000 3.6 340 17:43 20.05.2020
2822 Clouds 22 1021 46 10000 3.6 340 17:24 20.05.2020
2823 Clouds 22 1021 46 10000 3.6 340 16:58 20.05.2020
2824 Clouds 21 1022 46 10000 3.6 360 16:39 20.05.2020
2825 Clouds 22 1022 46 10000 3.1 0 16:21 20.05.2020
2826 Clouds 21 1022 46 10000 3.1 0 15:55 20.05.2020
2827 Clouds 21 1022 49 10000 3.1 350 15:36 20.05.2020
2828 Clouds 21 1022 52 10000 3.1 0 15:18 20.05.2020
2829 Clouds 20 1022 52 10000 3.6 320 14:38 20.05.2020
2830 Clouds 20 1022 56 10000 3.6 340 14:19 20.05.2020
2831 Clouds 20 1022 59 10000 3.1 330 13:40 20.05.2020
2832 Clouds 20 1022 59 10000 3.1 330 13:18 20.05.2020
2833 Clouds 19 1022 59 10000 3.1 320 12:42 20.05.2020
2834 Clouds 19 1022 59 10000 3.1 320 12:21 20.05.2020
2835 Clouds 19 1022 63 10000 2.6 300 11:57 20.05.2020
2836 Clouds 18 1022 68 10000 3.1 320 11:36 20.05.2020
2837 Clouds 18 1022 63 10000 2.1 330 11:18 20.05.2020
2838 Clouds 18 1022 68 10000 2.6 340 10:42 20.05.2020
2839 Clouds 18 1022 68 10000 2.6 340 10:19 20.05.2020
2840 Clouds 17 1022 72 10000 2.6 320 09:44 20.05.2020
2841 Clouds 17 1022 72 10000 2.6 320 09:21 20.05.2020
2842 Clear 16 1022 77 10000 3.1 320 08:54 20.05.2020
2843 Clear 15 1022 82 10000 3.1 330 08:36 20.05.2020
2844 Clear 15 1022 82 10000 3.1 330 08:18 20.05.2020
2845 Clear 15 1022 82 10000 1.5 350 07:41 20.05.2020
2846 Clear 15 1022 82 10000 1.5 350 07:19 20.05.2020
2847 Clear 14 1021 87 10000 1 0 06:34 20.05.2020
2848 Clear 15 1021 82 10000 0.5 10 05:22 20.05.2020
2849 Clear 15 1022 82 10000 3.1 350 04:26 20.05.2020
2850 Clear 16 1022 82 10000 1.5 350 03:38 20.05.2020
2851 Clear 16 1021 77 10000 3.1 340 02:24 20.05.2020
2852 Clear 17 1021 67 10000 2.1 330 01:28 20.05.2020
2853 Clear 18 1021 63 10000 1.5 340 00:44 20.05.2020
2854 Clear 18 1022 63 10000 1.5 360 00:23 20.05.2020
2855 Clear 19 1021 59 10000 2.1 360 23:42 19.05.2020
2856 Clear 19 1021 59 10000 2.1 360 23:19 19.05.2020
2857 Clear 20 1021 59 10000 2.1 10 22:56 19.05.2020
2858 Clear 19 1021 63 10000 1.5 20 22:38 19.05.2020
2859 Clear 20 1021 56 10000 2.1 10 22:19 19.05.2020
2860 Clear 20 1021 56 10000 2.1 10 21:58 19.05.2020
2861 Clear 21 1021 52 10000 2.1 20 21:38 19.05.2020
2862 Clear 21 1021 52 10000 2.1 20 21:38 19.05.2020
2863 Clear 21 1021 52 10000 2.1 20 21:19 19.05.2020
2864 Clear 22 1020 49 10000 2.6 360 20:57 19.05.2020
2865 Clear 22 1020 46 10000 3.6 340 20:39 19.05.2020
2866 Clouds 23 1020 46 10000 4.6 330 20:21 19.05.2020
2867 Clouds 22 1020 46 10000 3.6 340 20:21 19.05.2020
2868 Clouds 22 1020 46 10000 4.6 330 19:55 19.05.2020
2869 Clouds 22 1020 46 10000 4.1 350 19:37 19.05.2020
2870 Rain 23 1020 43 10000 3.6 330 19:18 19.05.2020
2871 Rain 23 1020 41 10000 5.7 320 18:42 19.05.2020
2872 Clouds 24 1020 41 10000 5.7 320 18:20 19.05.2020
2873 Clouds 24 1020 41 10000 5.1 340 17:44 19.05.2020
2874 Clouds 24 1020 41 10000 5.7 310 17:21 19.05.2020
2875 Clouds 23 1021 40 10000 5.7 330 16:59 19.05.2020
2876 Clouds 23 1021 40 10000 5.1 350 16:39 19.05.2020
2877 Clear 23 1021 40 10000 5.1 350 16:20 19.05.2020
2878 Clear 23 1021 36 10000 5.1 330 15:47 19.05.2020
2879 Clouds 23 1021 38 10000 4.1 320 15:23 19.05.2020
2880 Clouds 22 1021 38 10000 3.6 340 14:59 19.05.2020
2881 Clouds 22 1021 35 10000 4.1 300 14:41 19.05.2020
2882 Clouds 22 1021 35 10000 4.1 300 14:21 19.05.2020
2883 Clouds 22 1022 33 10000 3.1 0 13:58 19.05.2020
2884 Clouds 22 1022 28 10000 2.6 290 13:40 19.05.2020
2885 Clouds 22 1022 28 10000 3.1 0 13:21 19.05.2020
2886 Clouds 21 1022 28 10000 3.1 0 12:58 19.05.2020
2887 Clouds 21 1022 32 10000 2.1 270 12:39 19.05.2020
2888 Clouds 20 1022 32 10000 2.1 270 12:21 19.05.2020
2889 Clouds 19 1022 34 10000 2.1 0 11:57 19.05.2020
2890 Clouds 19 1022 34 10000 2.1 0 11:39 19.05.2020
2891 Clouds 19 1022 34 10000 2.1 0 11:21 19.05.2020
2892 Clouds 17 1022 41 10000 2.1 290 10:46 19.05.2020
2893 Clouds 17 1022 41 10000 2.1 290 10:28 19.05.2020
2894 Clouds 16 1022 41 10000 1.5 260 09:58 19.05.2020
2895 Clouds 16 1022 51 10000 1.5 270 09:40 19.05.2020
2896 Clouds 15 1022 51 10000 1.5 270 09:22 19.05.2020
2897 Clouds 14 1022 66 10000 1.5 130 08:43 19.05.2020
2898 Clouds 13 1022 66 10000 1.5 130 08:24 19.05.2020
2899 Clouds 12 1022 87 10000 1 50 07:45 19.05.2020
2900 Clouds 11 1022 87 10000 1 50 07:26 19.05.2020
2901 Clouds 10 1022 93 10000 2.1 60 06:54 19.05.2020
2902 Clouds 10 1022 93 10000 0.5 140 06:25 19.05.2020
2903 Clouds 10 1022 87 10000 1 60 05:42 19.05.2020
2904 Clouds 10 1022 87 10000 1 60 05:42 19.05.2020
2905 Clouds 11 1022 81 10000 0.5 0 04:57 19.05.2020
2906 Clouds 11 1022 75 10000 0.5 50 04:34 19.05.2020
2907 Clouds 13 1023 71 10000 1 170 02:21 19.05.2020
2908 Clouds 15 1023 58 10000 2.1 360 00:48 19.05.2020
2909 Clouds 16 1022 62 10000 1.5 20 00:26 19.05.2020
2910 Clouds 17 1022 58 10000 1.5 340 23:58 18.05.2020
2911 Clouds 17 1022 59 10000 1 0 23:40 18.05.2020
2912 Clouds 17 1022 67 10000 1 0 23:20 18.05.2020
2913 Clouds 17 1022 59 10000 1.5 350 22:42 18.05.2020
2914 Clouds 19 1022 59 10000 1.5 350 22:22 18.05.2020
2915 Clouds 20 1022 48 10000 3.1 300 21:59 18.05.2020
2916 Clouds 21 1021 43 10000 4.6 290 21:40 18.05.2020
2917 Clouds 22 1021 43 10000 5.7 270 21:20 18.05.2020
2918 Clouds 22 1021 43 10000 5.7 270 20:57 18.05.2020
2919 Clouds 22 1021 43 10000 5.7 270 20:37 18.05.2020
2920 Clouds 23 1021 40 10000 5.7 300 20:18 18.05.2020
2921 Clouds 23 1021 38 10000 4.6 280 19:41 18.05.2020
2922 Clouds 23 1021 38 10000 4.6 280 19:41 18.05.2020
2923 Clear 23 1021 40 10000 5.7 300 19:20 18.05.2020
2924 Clouds 23 1021 40 10000 5.7 300 18:59 18.05.2020
2925 Clouds 23 1022 40 10000 3.6 310 18:41 18.05.2020
2926 Clouds 23 1022 40 10000 6.2 300 18:20 18.05.2020
2927 Clouds 23 1022 38 10000 5.1 290 17:38 18.05.2020
2928 Clouds 23 1022 38 10000 5.1 290 17:18 18.05.2020
2929 Clouds 23 1022 38 10000 5.7 290 17:18 18.05.2020
2930 Clouds 23 1022 38 10000 5.7 290 16:56 18.05.2020
2931 Clouds 23 1022 38 10000 5.1 260 16:37 18.05.2020
2932 Clouds 22 1022 38 10000 4.6 260 16:18 18.05.2020
2933 Clouds 22 1022 37 10000 3.1 0 15:46 18.05.2020
2934 Clouds 22 1023 37 10000 4.1 280 15:25 18.05.2020
2935 Clouds 22 1023 37 10000 4.1 280 14:59 18.05.2020
2936 Clouds 21 1023 37 10000 3.6 270 14:41 18.05.2020
2937 Clouds 21 1023 37 10000 4.6 280 14:23 18.05.2020
2938 Clouds 21 1023 37 10000 4.6 280 13:54 18.05.2020
2939 Clouds 20 1023 40 10000 4.1 320 13:36 18.05.2020
2940 Clouds 20 1024 40 10000 4.6 290 13:18 18.05.2020
2941 Clouds 20 1024 40 10000 4.6 290 12:55 18.05.2020
2942 Clouds 19 1024 39 10000 5.1 280 12:37 18.05.2020
2943 Clouds 19 1024 39 10000 5.1 270 12:18 18.05.2020
2944 Clouds 18 1024 39 10000 5.1 270 11:46 18.05.2020
2945 Clouds 18 1024 45 10000 2.6 0 11:26 18.05.2020
2946 Clouds 17 1024 51 10000 2.6 310 10:57 18.05.2020
2947 Clouds 17 1024 51 10000 2.1 240 10:38 18.05.2020
2948 Clouds 16 1024 54 10000 1.5 180 10:20 18.05.2020
2949 Clouds 15 1023 58 10000 2.6 160 09:42 18.05.2020
2950 Clouds 14 1024 66 10000 3.1 140 09:24 18.05.2020
2951 Clouds 13 1024 71 10000 3.1 150 08:44 18.05.2020
2952 Clouds 13 1024 76 10000 2.1 140 08:25 18.05.2020
2953 Clouds 12 1029 53 0 0.45 124 07:52 18.05.2020
2954 Clouds 11 1029 55 0 1.47 173 07:26 18.05.2020
2955 Clouds 10 1029 60 0 0.45 153 06:51 18.05.2020
2956 Clouds 10 1029 62 0 1.47 173 06:33 18.05.2020
2957 Clouds 9 1023 87 10000 1 0 05:49 18.05.2020
2958 Clouds 9 1023 87 10000 0.5 0 05:21 18.05.2020
2959 Clear 11 1029 57 0 0.45 104 03:31 18.05.2020
2960 Clear 11 1023 87 10000 1.5 60 02:22 18.05.2020
2961 Clear 12 1023 76 10000 0.5 0 00:55 18.05.2020
2962 Clear 12 1023 76 10000 0.5 110 00:25 18.05.2020
2963 Clear 13 1023 66 10000 0.5 70 23:57 17.05.2020
2964 Clear 14 1023 66 10000 1.5 60 23:39 17.05.2020
2965 Clear 14 1023 66 10000 1.5 60 23:20 17.05.2020
2966 Clear 14 1023 62 10000 0.5 0 22:56 17.05.2020
2967 Clear 15 1023 62 10000 0.5 0 22:37 17.05.2020
2968 Clear 16 1023 54 10000 1 30 22:19 17.05.2020
2969 Clear 16 1023 54 10000 1 30 21:56 17.05.2020
2970 Clear 17 1023 48 10000 2.1 360 21:38 17.05.2020
2971 Clear 18 1023 45 10000 2.6 350 21:18 17.05.2020
2972 Clear 18 1023 42 10000 2.6 310 20:42 17.05.2020
2973 Clear 19 1023 42 10000 2.6 310 20:22 17.05.2020
2974 Clear 19 1023 37 10000 3.6 300 19:57 17.05.2020
2975 Clear 19 1023 37 10000 3.6 300 19:39 17.05.2020
2976 Clear 19 1023 37 10000 3.6 300 19:20 17.05.2020
2977 Clear 19 1023 37 10000 3.6 310 18:54 17.05.2020
2978 Clear 19 1023 37 10000 4.1 310 18:36 17.05.2020
2979 Clear 19 1023 37 10000 4.1 310 18:18 17.05.2020
2980 Clear 19 1023 36 10000 3.6 10 17:40 17.05.2020
2981 Clear 19 1023 36 10000 3.6 10 17:21 17.05.2020
2982 Clear 19 1024 34 10000 2.1 0 16:40 17.05.2020
2983 Clouds 18 1024 36 10000 2.6 0 16:21 17.05.2020
2984 Clouds 18 1024 36 10000 2.6 0 15:59 17.05.2020
2985 Clouds 18 1024 34 10000 3.1 250 15:40 17.05.2020
2986 Clouds 18 1025 34 10000 3.6 320 15:22 17.05.2020
2987 Clouds 18 1025 34 10000 3.6 320 14:56 17.05.2020
2988 Clear 17 1025 39 10000 3.6 300 14:37 17.05.2020
2989 Clouds 17 1025 39 10000 3.6 300 14:19 17.05.2020
2990 Clear 17 1025 41 10000 3.1 290 13:41 17.05.2020
2991 Clear 17 1025 41 10000 3.1 290 13:20 17.05.2020
2992 Clouds 7 1023 93 10000 1.5 340 04:54 17.05.2020
2993 Clear 9 1023 81 10000 1 0 03:31 17.05.2020
2994 Clouds 9 1022 75 10000 1 0 02:26 17.05.2020
2995 Clouds 10 1022 75 10000 1.5 350 01:53 17.05.2020
2996 Clouds 11 1022 62 10000 3.6 340 00:46 17.05.2020
2997 Clouds 12 1022 62 10000 3.6 340 00:26 17.05.2020
2998 Clouds 12 1022 54 10000 3.1 340 23:42 16.05.2020
2999 Clouds 13 1021 54 10000 3.6 340 23:23 16.05.2020
3000 Clouds 13 1021 54 10000 3.6 340 22:59 16.05.2020
3001 Clouds 13 1021 50 10000 4.1 330 22:41 16.05.2020
3002 Clouds 14 1020 47 10000 5.1 330 22:22 16.05.2020
3003 Clouds 15 1020 47 10000 5.1 330 21:56 16.05.2020
3004 Clouds 15 1020 41 10000 3.6 320 21:38 16.05.2020
3005 Clouds 16 1020 41 10000 3.6 320 21:19 16.05.2020
3006 Clouds 16 1020 41 10000 3.6 320 20:56 16.05.2020
3007 Clouds 17 1020 41 10000 2.6 330 20:38 16.05.2020
3008 Clouds 17 1020 39 10000 4.6 310 20:19 16.05.2020
3009 Clouds 18 1020 36 10000 4.1 320 19:43 16.05.2020
3010 Clouds 18 1020 36 10000 4.6 310 19:23 16.05.2020
3011 Clouds 18 1020 36 10000 4.6 310 19:23 16.05.2020
3012 Clouds 18 1020 36 10000 4.6 310 18:59 16.05.2020
3013 Clouds 18 1020 36 10000 4.6 310 18:59 16.05.2020
3014 Clouds 18 1021 36 10000 3.6 320 18:40 16.05.2020
3015 Clouds 18 1021 36 10000 3.6 340 18:22 16.05.2020
3016 Clouds 18 1021 39 10000 3.6 330 17:42 16.05.2020
3017 Clouds 18 1021 39 10000 3.6 330 17:42 16.05.2020
3018 Clouds 18 1021 39 10000 2.1 330 17:21 16.05.2020
3019 Clouds 17 1021 39 10000 2.1 330 16:57 16.05.2020
3020 Clouds 17 1021 36 10000 3.6 310 16:38 16.05.2020
3021 Clouds 17 1021 36 10000 2.6 210 16:18 16.05.2020
3022 Clouds 18 1022 34 10000 2.6 0 15:42 16.05.2020
3023 Clouds 18 1022 36 10000 1.5 0 15:21 16.05.2020
3024 Clouds 18 1022 36 10000 1.5 0 14:59 16.05.2020
3025 Clouds 17 1023 36 10000 2.1 330 14:41 16.05.2020
3026 Clouds 17 1023 36 10000 2.1 330 14:20 16.05.2020
3027 Clouds 17 1023 34 10000 2.1 0 13:56 16.05.2020
3028 Clouds 17 1023 36 10000 1.5 0 13:36 16.05.2020
3029 Clouds 17 1023 36 10000 1.5 0 13:18 16.05.2020
3030 Clouds 16 1023 38 10000 1.5 320 12:43 16.05.2020
3031 Clouds 15 1023 38 10000 1.5 320 12:20 16.05.2020
3032 Clouds 15 1023 38 10000 2.1 0 11:56 16.05.2020
3033 Clouds 15 1024 44 10000 2.1 270 11:37 16.05.2020
3034 Clouds 15 1024 47 10000 1.5 0 11:18 16.05.2020
3035 Clear 14 1024 50 10000 1 0 10:54 16.05.2020
3036 Clear 13 1024 50 10000 1 0 10:36 16.05.2020
3037 Clear 13 1024 57 10000 1 0 10:18 16.05.2020
3038 Clear 9 1024 61 10000 1 0 09:39 16.05.2020
3039 Clear 10 1024 61 10000 1 0 09:18 16.05.2020
3040 Clear 9 1024 70 10000 1.5 150 08:42 16.05.2020
3041 Clear 8 1024 70 10000 1.5 150 08:21 16.05.2020
3042 Clear 7 1024 86 10000 0.5 0 07:45 16.05.2020
3043 Clear 5 1024 73 10000 0.5 80 07:26 16.05.2020
3044 Clear 5 1023 73 10000 0.5 0 06:57 16.05.2020
3045 Clear 4 1023 73 10000 1.5 60 06:37 16.05.2020
3046 Clear 5 1023 76 10000 2.1 130 06:18 16.05.2020
3047 Clear 5 1023 76 10000 1 60 05:32 16.05.2020
3048 Clear 6 1023 74 10000 1 150 03:37 16.05.2020
3049 Clear 7 1023 86 10000 0.5 0 02:59 16.05.2020
3050 Clouds 8 1024 70 10000 0.5 0 02:21 16.05.2020
3051 Clear 8 1023 80 10000 1.5 70 01:53 16.05.2020
3052 Clear 8 1023 80 10000 1.5 40 01:23 16.05.2020
3053 Clear 9 1023 75 10000 0.5 0 00:49 16.05.2020
3054 Clear 9 1023 70 10000 0.5 0 00:22 16.05.2020
3055 Clear 10 1023 61 10000 0.5 0 23:41 15.05.2020
3056 Clear 10 1023 61 10000 0.5 0 23:41 15.05.2020
3057 Clear 10 1023 61 10000 0.5 0 23:20 15.05.2020
3058 Clear 11 1023 57 10000 1.5 50 22:59 15.05.2020
3059 Clear 11 1023 53 10000 1.5 360 22:40 15.05.2020
3060 Clear 12 1022 50 10000 2.6 10 22:19 15.05.2020
3061 Clear 12 1022 55 10000 3.6 10 21:40 15.05.2020
3062 Clouds 13 1022 52 10000 3.6 10 21:22 15.05.2020
3063 Clear 14 1022 43 10000 5.7 20 20:59 15.05.2020
3064 Clear 14 1022 43 10000 5.7 20 20:59 15.05.2020
3065 Clear 14 1021 41 10000 4.6 360 20:41 15.05.2020
3066 Clear 15 1021 41 10000 4.6 360 20:23 15.05.2020
3067 Clear 15 1021 38 10000 5.7 360 19:59 15.05.2020
3068 Clear 15 1021 38 10000 5.7 360 19:41 15.05.2020
3069 Clear 16 1021 38 10000 5.7 360 19:22 15.05.2020
3070 Clear 16 1021 31 10000 4.1 30 18:47 15.05.2020
3071 Clear 16 1021 31 10000 4.1 30 18:27 15.05.2020
3072 Clear 16 1021 31 10000 5.1 360 17:57 15.05.2020
3073 Clear 16 1020 31 10000 4.1 360 17:36 15.05.2020
3074 Clear 16 1020 31 10000 5.1 10 17:18 15.05.2020
3075 Clear 17 1020 31 10000 5.1 10 16:54 15.05.2020
3076 Clear 16 1020 32 10000 4.6 0 16:36 15.05.2020
3077 Clear 16 1020 33 10000 3.1 0 16:18 15.05.2020
3078 Clear 16 1020 36 10000 3.6 350 15:40 15.05.2020
3079 Clear 16 1020 36 10000 3.6 350 15:20 15.05.2020
3080 Clear 15 1020 32 10000 4.6 20 14:56 15.05.2020
3081 Clear 15 1020 38 10000 5.1 350 14:38 15.05.2020
3082 Clear 15 1020 38 10000 5.1 350 14:19 15.05.2020
3083 Clear 14 1020 35 10000 5.7 10 13:41 15.05.2020
3084 Clear 14 1020 35 10000 5.7 10 13:22 15.05.2020
3085 Clear 14 1020 35 10000 5.7 350 12:56 15.05.2020
3086 Clear 13 1020 35 10000 3.6 360 12:36 15.05.2020
3087 Clear 13 1020 35 10000 3.6 360 12:18 15.05.2020
3088 Clear 13 1020 39 10000 4.1 10 11:56 15.05.2020
3089 Clear 13 1020 44 10000 3.6 340 11:37 15.05.2020
3090 Clear 13 1020 44 10000 3.6 340 11:18 15.05.2020
3091 Clouds 12 1020 46 10000 4.1 320 10:54 15.05.2020
3092 Clear 11 1020 50 10000 2.6 0 10:36 15.05.2020
3093 Clear 11 1020 53 10000 2.1 0 10:18 15.05.2020
3094 Clear 10 1020 61 10000 2.1 330 09:38 15.05.2020
3095 Clear 8 1020 61 10000 2.1 330 09:19 15.05.2020
3096 Clear 8 1020 65 10000 2.6 340 08:58 15.05.2020
3097 Clear 7 1020 54 10000 2.6 350 08:37 15.05.2020
3098 Clear 7 1020 61 10000 0.5 0 08:18 15.05.2020
3099 Clear 6 1019 61 10000 0.5 0 07:44 15.05.2020
3100 Clear 5 1019 67 10000 0.5 0 07:24 15.05.2020
3101 Clear 5 1019 86 10000 1.5 160 06:54 15.05.2020
3102 Clear 5 1018 86 10000 1 0 05:49 15.05.2020
3103 Clear 5 1018 74 10000 0.5 170 04:28 15.05.2020
3104 Clear 6 1018 69 10000 3.1 60 03:48 15.05.2020
3105 Clear 7 1018 65 10000 2.1 50 02:35 15.05.2020
3106 Clear 8 1018 60 10000 2.1 30 01:24 15.05.2020
3107 Clear 8 1018 60 10000 2.1 30 00:56 15.05.2020
3108 Clear 8 1018 56 10000 2.1 30 00:37 15.05.2020
3109 Clear 9 1018 52 10000 2.1 20 00:19 15.05.2020
3110 Clear 9 1018 49 10000 1.5 40 23:40 14.05.2020
3111 Clear 10 1018 49 10000 1.5 40 23:18 14.05.2020
3112 Clear 11 1018 43 10000 3.1 20 22:41 14.05.2020
3113 Clear 11 1018 43 10000 3.1 20 22:20 14.05.2020
3114 Clear 12 1018 43 10000 3.1 10 21:58 14.05.2020
3115 Clear 12 1017 37 10000 3.6 20 21:39 14.05.2020
3116 Clouds 13 1017 37 10000 3.6 20 21:19 14.05.2020
3117 Clear 13 1017 35 10000 5.1 20 21:19 14.05.2020
3118 Clear 13 1017 35 10000 5.1 20 20:56 14.05.2020
3119 Clear 14 1017 35 10000 6.2 20 20:38 14.05.2020
3120 Clouds 14 1017 35 10000 6.2 20 20:18 14.05.2020
3121 Clouds 15 1017 35 10000 5.7 20 19:55 14.05.2020
3122 Clouds 15 1017 33 10000 5.1 20 19:37 14.05.2020
3123 Clouds 15 1017 33 10000 5.1 20 19:19 14.05.2020
3124 Clouds 15 1017 33 10000 6.2 20 18:54 14.05.2020
3125 Clouds 15 1017 33 10000 6.7 10 18:36 14.05.2020
3126 Clouds 15 1017 33 10000 6.7 10 18:18 14.05.2020
3127 Clouds 15 1017 33 10000 5.1 20 17:55 14.05.2020
3128 Clouds 15 1017 37 10000 5.1 10 17:36 14.05.2020
3129 Clouds 15 1017 36 10000 5.1 10 17:18 14.05.2020
3130 Clouds 15 1017 33 10000 4.6 10 17:18 14.05.2020
3131 Clouds 15 1017 35 10000 5.1 40 16:39 14.05.2020
3132 Clouds 15 1017 36 10000 4.6 10 16:20 14.05.2020
3133 Clouds 15 1017 36 10000 4.6 10 15:57 14.05.2020
3134 Clouds 15 1018 36 10000 4.6 10 15:39 14.05.2020
3135 Clear 15 1018 36 10000 4.6 10 15:20 14.05.2020
3136 Clear 14 1018 37 10000 3.6 40 14:56 14.05.2020
3137 Clear 14 1018 36 10000 4.1 40 14:38 14.05.2020
3138 Clouds 13 1019 37 10000 6.2 10 14:19 14.05.2020
3139 Clouds 14 1018 37 10000 4.1 40 14:19 14.05.2020
3140 Clouds 14 1019 37 10000 6.2 10 13:56 14.05.2020
3141 Clouds 13 1019 37 10000 4.6 20 13:38 14.05.2020
3142 Clouds 13 1019 43 10000 5.1 30 13:18 14.05.2020
3143 Clouds 13 1019 43 10000 5.1 30 12:57 14.05.2020
3144 Clouds 12 1019 40 10000 5.7 30 12:37 14.05.2020
3145 Clouds 12 1019 43 10000 5.7 30 12:18 14.05.2020
3146 Clouds 11 1019 50 10000 5.1 30 11:56 14.05.2020
3147 Clouds 11 1019 50 10000 5.1 30 11:37 14.05.2020
3148 Clouds 11 1019 50 10000 5.1 30 11:19 14.05.2020
3149 Clouds 10 1019 57 10000 5.7 30 10:44 14.05.2020
3150 Clouds 9 1019 57 10000 5.7 30 10:26 14.05.2020
3151 Clouds 9 1019 65 10000 4.1 30 09:56 14.05.2020
3152 Clouds 8 1019 70 10000 3.1 50 09:38 14.05.2020
3153 Clouds 8 1019 70 10000 3.6 50 09:19 14.05.2020
3154 Clouds 7 1019 80 10000 2.1 340 08:40 14.05.2020
3155 Clouds 6 1019 80 10000 2.1 340 08:19 14.05.2020
3156 Clouds 4 1018 67 10000 0.5 0 07:45 14.05.2020
3157 Clouds 5 1018 73 10000 0.5 0 07:24 14.05.2020
3158 Clouds 4 1017 73 10000 1 0 06:54 14.05.2020
3159 Clouds 4 1017 76 10000 1.5 10 06:28 14.05.2020
3160 Clouds 4 1017 76 10000 2.1 40 05:44 14.05.2020
3161 Clouds 5 1017 93 10000 1 360 05:23 14.05.2020
3162 Clouds 5 1016 86 10000 3.1 340 04:25 14.05.2020
3163 Clouds 6 1016 80 10000 3.1 340 03:22 14.05.2020
3164 Clouds 7 1015 80 10000 3.1 330 02:41 14.05.2020
3165 Clouds 7 1015 75 10000 2.6 330 01:56 14.05.2020
3166 Clouds 8 1015 65 10000 2.6 350 01:23 14.05.2020
3167 Clouds 8 1014 65 10000 3.6 10 00:44 14.05.2020
3168 Clouds 8 1014 65 10000 4.1 360 00:23 14.05.2020
3169 Rain 9 1013 65 10000 4.6 10 23:42 13.05.2020
3170 Rain 9 1013 65 10000 4.6 10 23:21 13.05.2020
3171 Clouds 9 1013 61 10000 5.1 20 22:54 13.05.2020
3172 Clouds 10 1013 61 10000 5.1 20 22:36 13.05.2020
3173 Clouds 10 1013 61 10000 5.1 20 22:18 13.05.2020
3174 Clouds 10 1012 66 10000 5.7 30 21:55 13.05.2020
3175 Clouds 10 1012 61 10000 4.6 10 21:37 13.05.2020
3176 Clouds 10 1011 66 10000 5.1 10 21:18 13.05.2020
3177 Clouds 11 1011 62 10000 6.7 10 20:41 13.05.2020
3178 Clouds 11 1011 62 10000 6.7 10 20:23 13.05.2020
3179 Clouds 12 1011 54 10000 5.7 360 19:44 13.05.2020
3180 Clouds 12 1011 54 10000 5.7 360 19:25 13.05.2020
3181 Clouds 12 1011 54 10000 4.6 10 18:58 13.05.2020
3182 Clouds 12 1011 53 10000 3.1 320 18:39 13.05.2020
3183 Clouds 13 1011 46 10000 3.1 320 18:21 13.05.2020
3184 Clouds 13 1011 35 10000 2.6 90 17:39 13.05.2020
3185 Clouds 13 1011 43 10000 1.5 0 17:20 13.05.2020
3186 Clouds 15 1011 43 10000 1.5 0 16:56 13.05.2020
3187 Clouds 15 1011 37 10000 1 0 16:38 13.05.2020
3188 Clouds 14 1011 37 10000 1 0 16:19 13.05.2020
3189 Clouds 14 1012 37 10000 1.5 0 15:43 13.05.2020
3190 Clouds 14 1012 37 10000 2.6 300 15:20 13.05.2020
3191 Clouds 14 1012 37 10000 2.6 300 14:59 13.05.2020
3192 Clouds 14 1012 40 10000 2.1 30 14:41 13.05.2020
3193 Clouds 14 1012 40 10000 2.1 30 14:22 13.05.2020
3194 Clouds 13 1012 40 10000 1.5 0 13:58 13.05.2020
3195 Clouds 13 1013 40 10000 2.1 0 13:39 13.05.2020
3196 Clouds 13 1013 40 10000 2.1 0 13:39 13.05.2020
3197 Clouds 13 1013 40 10000 1.5 10 13:21 13.05.2020
3198 Clouds 12 1013 40 10000 1.5 10 12:57 13.05.2020
3199 Clouds 12 1013 43 10000 2.1 340 12:39 13.05.2020
3200 Clouds 11 1013 43 10000 1 0 12:18 13.05.2020
3201 Clouds 12 1013 43 10000 1 0 11:56 13.05.2020
3202 Clouds 12 1013 40 10000 3.1 320 11:36 13.05.2020
3203 Clouds 12 1013 40 10000 3.1 320 11:18 13.05.2020
3204 Clouds 12 1013 40 10000 1.5 0 10:56 13.05.2020
3205 Clouds 11 1013 45 10000 1.5 0 10:38 13.05.2020
3206 Clouds 11 1013 45 10000 1.5 0 10:18 13.05.2020
3207 Clouds 10 1014 57 10000 1.5 70 09:43 13.05.2020
3208 Clouds 10 1014 57 10000 1.5 70 09:23 13.05.2020
3209 Clouds 9 1014 65 10000 2.1 160 08:57 13.05.2020
3210 Clouds 8 1014 75 10000 1.5 160 08:37 13.05.2020
3211 Clouds 8 1014 75 10000 1.5 160 08:19 13.05.2020
3212 Clouds 6 1014 86 10000 1 0 07:44 13.05.2020
3213 Clouds 6 1014 86 10000 1 0 07:26 13.05.2020
3214 Clouds 5 1014 66 10000 1 160 06:49 13.05.2020
3215 Clouds 5 1014 70 10000 1 160 06:28 13.05.2020
3216 Clouds 6 1014 86 10000 1 70 05:33 13.05.2020
3217 Clouds 6 1015 80 10000 1.5 140 03:28 13.05.2020
3218 Clouds 7 1015 80 10000 2.1 40 02:34 13.05.2020
3219 Clouds 7 1015 62 10000 1 0 01:45 13.05.2020
3220 Clouds 6 1015 60 10000 2.6 60 00:55 13.05.2020
3221 Clouds 7 1015 58 10000 2.6 60 00:22 13.05.2020
3222 Clouds 7 1015 58 10000 0.5 0 23:58 12.05.2020
3223 Clouds 8 1015 58 10000 0.5 0 23:39 12.05.2020
3224 Clouds 8 1015 56 10000 1 60 23:18 12.05.2020
3225 Clouds 8 1015 75 10000 1 60 22:42 12.05.2020
3226 Clouds 9 1015 53 10000 1.5 50 22:22 12.05.2020
3227 Clouds 10 1015 53 10000 1.5 50 21:56 12.05.2020
3228 Clouds 10 1015 46 10000 2.1 10 21:38 12.05.2020
3229 Clouds 11 1015 46 10000 2.1 10 21:19 12.05.2020
3230 Clouds 11 1015 43 10000 2.6 10 20:58 12.05.2020
3231 Clouds 11 1016 40 10000 2.6 360 20:39 12.05.2020
3232 Clear 12 1016 40 10000 2.6 360 20:21 12.05.2020
3233 Clear 12 1016 40 10000 3.1 320 19:58 12.05.2020
3234 Clear 12 1016 40 10000 3.6 310 19:40 12.05.2020
3235 Clear 12 1016 40 10000 4.1 320 19:21 12.05.2020
3236 Clear 12 1016 40 10000 4.1 320 18:56 12.05.2020
3237 Clear 13 1016 37 10000 4.1 270 18:38 12.05.2020
3238 Clear 13 1016 37 10000 4.1 270 18:20 12.05.2020
3239 Clear 13 1017 37 10000 2.6 250 17:43 12.05.2020
3240 Clear 12 1017 37 10000 2.6 250 17:24 12.05.2020
3241 Clear 13 1018 40 10000 3.1 340 16:47 12.05.2020
3242 Clear 12 1018 40 10000 3.1 340 16:26 12.05.2020
3243 Clear 12 1018 40 10000 2.6 310 15:57 12.05.2020
3244 Clear 12 1018 37 10000 3.6 0 15:39 12.05.2020
3245 Clear 12 1018 37 10000 3.6 0 15:39 12.05.2020
3246 Clear 12 1018 37 10000 3.6 0 15:19 12.05.2020
3247 Clear 12 1018 43 10000 2.1 0 14:58 12.05.2020
3248 Clouds 11 1019 46 10000 3.1 330 14:39 12.05.2020
3249 Clouds 11 1019 46 10000 3.1 330 14:20 12.05.2020
3250 Clouds 11 1019 43 10000 2.1 0 13:59 12.05.2020
3251 Clouds 11 1025 31 0 0.89 347 13:41 12.05.2020
3252 Clouds 10 1025 34 0 0.89 279 13:20 12.05.2020
3253 Clouds 10 1025 38 0 0.89 328 12:58 12.05.2020
3254 Clouds 9 1025 41 0 1.79 315 12:40 12.05.2020
3255 Clouds 9 1025 41 0 1.79 315 12:40 12.05.2020
3256 Clouds 9 1025 39 0 0.89 317 12:22 12.05.2020
3257 Clouds 9 1020 57 10000 2.1 0 11:58 12.05.2020
3258 Clouds 9 1020 57 10000 2.1 0 11:39 12.05.2020
3259 Clouds 9 1020 57 10000 2.1 0 11:21 12.05.2020
3260 Clouds 8 1020 57 10000 2.1 0 10:59 12.05.2020
3261 Clouds 8 1020 57 10000 1.5 0 10:40 12.05.2020
3262 Clouds 8 1021 65 10000 1 0 10:22 12.05.2020
3263 Clouds 7 1021 65 10000 1 0 09:59 12.05.2020
3264 Clouds 7 1021 70 10000 2.1 300 09:40 12.05.2020
3265 Clouds 7 1021 70 10000 2.1 300 09:21 12.05.2020
3266 Clouds 7 1021 70 10000 2.1 300 09:21 12.05.2020
3267 Clouds 6 1020 56 10000 1.5 300 08:59 12.05.2020
3268 Clear 6 1020 62 10000 1 0 08:38 12.05.2020
3269 Clear 5 1020 86 10000 0.5 180 08:19 12.05.2020
3270 Clear 4 1020 62 10000 0.5 0 07:42 12.05.2020
3271 Clear 3 1020 92 10000 2.1 70 07:24 12.05.2020
3272 Clear 2 1020 92 10000 1.5 60 06:50 12.05.2020
3273 Clear 2 1020 92 10000 1.5 60 06:29 12.05.2020
3274 Clear 3 1020 92 10000 1.5 50 05:54 12.05.2020
3275 Clear 4 1020 72 10000 1.5 50 05:35 12.05.2020
3276 Clear 4 1019 80 10000 1.5 10 03:43 12.05.2020
3277 Clear 5 1018 64 10000 2.1 340 02:53 12.05.2020
3278 Clouds 5 1018 64 10000 2.1 340 02:25 12.05.2020
3279 Clouds 6 1018 60 10000 3.1 350 01:29 12.05.2020
3280 Clouds 7 1017 56 10000 3.6 350 00:37 12.05.2020
3281 Clouds 7 1017 56 10000 3.6 350 00:18 12.05.2020
3282 Clouds 7 1017 56 10000 3.6 350 00:18 12.05.2020
3283 Clouds 7 1017 56 10000 2.6 360 23:54 11.05.2020
3284 Clouds 8 1016 48 10000 3.1 360 23:36 11.05.2020
3285 Clouds 8 1016 48 10000 3.1 360 23:18 11.05.2020
3286 Clouds 8 1015 48 10000 3.1 360 22:54 11.05.2020
3287 Clouds 8 1015 48 10000 3.1 360 22:36 11.05.2020
3288 Clouds 9 1015 48 10000 3.1 360 22:18 11.05.2020
3289 Clouds 10 1014 42 10000 5.1 360 21:54 11.05.2020
3290 Clouds 10 1014 43 10000 4.6 10 21:36 11.05.2020
3291 Clouds 11 1014 43 10000 4.6 10 21:18 11.05.2020
3292 Clouds 11 1013 37 10000 4.6 10 20:42 11.05.2020
3293 Clouds 11 1013 37 10000 4.6 10 20:21 11.05.2020
3294 Clouds 12 1012 37 10000 6.7 10 19:58 11.05.2020
3295 Clouds 12 1012 37 10000 7.2 350 19:40 11.05.2020
3296 Clouds 13 1012 37 10000 7.2 350 19:21 11.05.2020
3297 Clouds 13 1011 35 10000 7.7 360 18:57 11.05.2020
3298 Clouds 13 1011 37 10000 9.3 40 18:38 11.05.2020
3299 Clouds 13 1011 37 10000 9.3 40 18:19 11.05.2020
3300 Clouds 13 1011 37 10000 8.2 360 17:57 11.05.2020
3301 Clouds 13 1010 40 10000 8.7 20 17:39 11.05.2020
3302 Clouds 13 1010 40 10000 8.7 20 17:20 11.05.2020
3303 Clouds 13 1010 40 10000 8.7 30 16:56 11.05.2020
3304 Clouds 13 1010 37 10000 8.7 20 16:37 11.05.2020
3305 Clouds 13 1009 40 10000 8.2 10 16:18 11.05.2020
3306 Clouds 13 1009 37 10000 9.3 30 15:42 11.05.2020
3307 Clouds 13 1009 37 10000 9.3 30 15:20 11.05.2020
3308 Clouds 12 1009 50 10000 9.8 360 14:58 11.05.2020
3309 Clouds 12 1009 40 10000 10.3 20 14:40 11.05.2020
3310 Clouds 12 1009 41 10000 10.3 20 14:21 11.05.2020
3311 Clouds 12 1009 50 10000 10.3 30 13:54 11.05.2020
3312 Clouds 12 1009 43 10000 8.7 360 13:36 11.05.2020
3313 Clouds 11 1009 43 10000 7.7 20 13:18 11.05.2020
3314 Clouds 11 1009 43 10000 7.7 20 12:54 11.05.2020
3315 Clouds 11 1009 57 10000 8.2 10 12:36 11.05.2020
3316 Clouds 10 1009 57 10000 8.2 10 12:18 11.05.2020
3317 Clouds 9 1009 65 10000 5.7 20 11:41 11.05.2020
3318 Clouds 9 1009 65 10000 5.7 20 11:22 11.05.2020
3319 Clouds 8 1010 70 10000 6.2 10 10:58 11.05.2020
3320 Clouds 8 1010 70 10000 6.2 10 10:58 11.05.2020
3321 Clouds 8 1009 75 10000 5.1 10 10:40 11.05.2020
3322 Clouds 7 1009 75 10000 5.1 10 10:21 11.05.2020
3323 Drizzle 7 1009 80 10000 5.7 10 09:58 11.05.2020
3324 Drizzle 7 1009 80 10000 5.1 10 09:39 11.05.2020
3325 Drizzle 6 1009 80 10000 5.1 10 09:19 11.05.2020
3326 Drizzle 6 1009 86 10000 5.1 360 08:55 11.05.2020
3327 Drizzle 6 1009 86 10000 5.1 360 08:37 11.05.2020
3328 Rain 6 1009 86 10000 4.6 10 08:18 11.05.2020
3329 Drizzle 6 1009 93 10000 4.6 10 07:42 11.05.2020
3330 Drizzle 6 1009 86 10000 4.6 360 07:23 11.05.2020
3331 Rain 7 1009 81 10000 5.1 10 06:43 11.05.2020
3332 Rain 7 1009 70 10000 5.1 10 05:58 11.05.2020
3333 Clouds 7 1008 75 10000 4.6 360 05:25 11.05.2020
3334 Clouds 7 1008 75 10000 5.1 360 04:32 11.05.2020
3335 Rain 7 1008 81 10000 4.1 10 03:29 11.05.2020
3336 Rain 8 1008 76 10000 5.7 10 02:29 11.05.2020
3337 Clouds 9 1007 76 10000 6.7 30 01:43 11.05.2020
3338 Clouds 10 1007 81 10000 7.7 20 00:53 11.05.2020
3339 Clouds 11 1006 82 10000 7.2 360 00:21 11.05.2020
3340 Clouds 12 1006 82 10000 6.7 360 23:45 10.05.2020
3341 Clouds 13 1006 82 10000 6.7 360 23:26 10.05.2020
3342 Clouds 14 1005 72 10000 7.7 10 22:57 10.05.2020
3343 Clouds 15 1005 82 10000 3.1 350 22:39 10.05.2020
3344 Clouds 16 1005 77 10000 2.6 340 22:20 10.05.2020
3345 Clouds 16 1004 72 10000 2.6 340 21:44 10.05.2020
3346 Clouds 18 1004 72 10000 2.6 340 21:20 10.05.2020
3347 Clouds 18 1004 77 10000 2.6 340 20:56 10.05.2020
3348 Clouds 18 1004 77 10000 2.6 330 20:38 10.05.2020
3349 Clouds 19 1004 77 10000 2.6 330 20:20 10.05.2020
3350 Clouds 19 1004 72 10000 2.6 350 19:54 10.05.2020
3351 Clouds 19 1004 68 10000 3.1 330 19:36 10.05.2020
3352 Clouds 19 1004 68 10000 3.1 330 19:18 10.05.2020
3353 Clouds 19 1005 68 10000 2.1 320 18:54 10.05.2020
3354 Clouds 19 1005 68 10000 2.1 320 18:36 10.05.2020
3355 Clouds 19 1005 68 10000 2.1 320 18:18 10.05.2020
3356 Clouds 20 1005 72 10000 3.6 250 17:55 10.05.2020
3357 Clouds 19 1005 82 10000 3.1 240 17:36 10.05.2020
3358 Clouds 19 1005 68 10000 1.5 320 17:18 10.05.2020
3359 Rain 19 1005 77 10000 1 0 16:41 10.05.2020
3360 Rain 19 1005 77 10000 1 0 16:20 10.05.2020
3361 Clouds 20 1005 60 10000 1.5 0 15:58 10.05.2020
3362 Rain 20 1005 60 10000 1.5 350 15:38 10.05.2020
3363 Clouds 20 1005 56 10000 1 0 15:20 10.05.2020
3364 Clouds 20 1005 56 10000 1 0 14:55 10.05.2020
3365 Clouds 20 1005 60 10000 2.1 360 14:37 10.05.2020
3366 Clouds 21 1005 56 10000 0.5 0 14:18 10.05.2020
3367 Clouds 20 1005 56 10000 0.5 0 13:56 10.05.2020
3368 Clouds 20 1005 56 10000 1 0 13:36 10.05.2020
3369 Clouds 20 1005 56 10000 1 0 13:36 10.05.2020
3370 Clouds 20 1005 56 10000 1 0 13:36 10.05.2020
3371 Clouds 20 1005 56 10000 1.5 240 13:18 10.05.2020
3372 Clouds 20 1005 63 10000 1.5 0 12:42 10.05.2020
3373 Clouds 20 1005 63 10000 1.5 0 12:22 10.05.2020
3374 Clouds 19 1005 68 10000 1.5 150 11:59 10.05.2020
3375 Rain 19 1006 68 10000 1.5 0 11:40 10.05.2020
3376 Clouds 18 1006 68 10000 2.6 130 11:21 10.05.2020
3377 Clouds 18 1006 68 10000 2.6 130 10:58 10.05.2020
3378 Clouds 17 1006 72 10000 2.1 100 10:40 10.05.2020
3379 Clouds 16 1011 59 0 0.45 121 10:22 10.05.2020
3380 Rain 15 1006 76 10000 1 0 09:42 10.05.2020
3381 Rain 15 1006 76 10000 1 0 09:23 10.05.2020
3382 Rain 13 1006 87 10000 1.5 150 08:59 10.05.2020
3383 Clouds 13 1006 87 10000 1 70 08:40 10.05.2020
3384 Clouds 13 1006 87 10000 1 70 08:22 10.05.2020
3385 Clouds 13 1006 81 10000 2.1 60 07:42 10.05.2020
3386 Clouds 13 1006 81 10000 2.1 60 07:19 10.05.2020
3387 Clouds 12 1006 81 10000 1.5 60 06:50 10.05.2020
3388 Clouds 12 1006 87 10000 1.5 90 06:27 10.05.2020
3389 Clouds 12 1007 93 10000 1.5 60 05:48 10.05.2020
3390 Clouds 13 1007 87 10000 1 0 04:48 10.05.2020
3391 Clouds 13 1007 87 10000 2.1 70 04:29 10.05.2020
3392 Clouds 13 1007 81 10000 1 0 03:51 10.05.2020
3393 Clouds 14 1008 82 10000 2.1 80 03:30 10.05.2020
3394 Clouds 14 1008 82 10000 1.5 80 02:25 10.05.2020
3395 Clouds 15 1008 81 10000 1 0 01:59 10.05.2020
3396 Clouds 15 1008 82 10000 2.6 50 01:40 10.05.2020
3397 Clouds 15 1009 82 10000 1.5 60 01:19 10.05.2020
3398 Clouds 15 1009 82 10000 1.5 60 00:53 10.05.2020
3399 Clouds 16 1009 72 10000 1 0 00:23 10.05.2020
3400 Clouds 16 1009 76 10000 0.5 0 23:58 09.05.2020
3401 Clouds 17 1009 67 10000 2.1 100 23:39 09.05.2020
3402 Clouds 18 1009 67 10000 2.1 100 23:20 09.05.2020
3403 Clouds 19 1009 59 10000 2.6 130 22:42 09.05.2020
3404 Clouds 19 1009 59 10000 2.6 130 22:24 09.05.2020
3405 Clouds 20 1009 59 10000 2.6 140 21:58 09.05.2020
3406 Clouds 21 1009 55 10000 2.6 150 21:40 09.05.2020
3407 Clouds 21 1009 55 10000 2.6 150 21:21 09.05.2020
3408 Clouds 22 1009 52 10000 3.1 150 20:58 09.05.2020
3409 Clouds 23 1009 40 10000 2.6 120 20:38 09.05.2020
3410 Clouds 23 1009 43 10000 3.6 150 20:20 09.05.2020
3411 Clouds 24 1009 43 10000 3.6 150 19:56 09.05.2020
3412 Clouds 24 1009 38 10000 4.1 150 19:38 09.05.2020
3413 Clouds 25 1010 38 10000 3.6 140 19:19 09.05.2020
3414 Clouds 25 1010 38 10000 3.6 150 18:44 09.05.2020
3415 Clouds 25 1010 38 10000 3.6 150 18:26 09.05.2020
3416 Clouds 25 1010 36 10000 2.6 120 17:56 09.05.2020
3417 Clouds 26 1010 33 0 3.6 160 17:36 09.05.2020
3418 Clouds 26 1011 33 10000 2.1 0 17:18 09.05.2020
3419 Clouds 25 1011 33 10000 2.6 110 16:41 09.05.2020
3420 Clouds 25 1011 38 10000 2.1 0 16:20 09.05.2020
3421 Clouds 25 1012 38 10000 1.5 0 15:45 09.05.2020
3422 Clouds 25 1012 38 10000 1.5 0 15:26 09.05.2020
3423 Clouds 25 1012 38 10000 1.5 0 14:59 09.05.2020
3424 Clouds 24 1012 40 10000 2.6 70 14:40 09.05.2020
3425 Clouds 24 1012 40 10000 2.6 70 14:19 09.05.2020
3426 Clouds 23 1012 40 10000 1.5 60 13:58 09.05.2020
3427 Clouds 22 1012 43 10000 1.5 140 13:40 09.05.2020
3428 Clouds 22 1013 40 10000 2.1 130 13:20 09.05.2020
3429 Clouds 21 1013 42 10000 2.1 130 12:42 09.05.2020
3430 Clouds 20 1013 45 10000 1.5 0 12:22 09.05.2020
3431 Clouds 20 1013 45 10000 1.5 0 11:56 09.05.2020
3432 Clouds 20 1013 52 10000 2.6 130 11:37 09.05.2020
3433 Clouds 19 1013 51 10000 2.6 90 11:18 09.05.2020
3434 Clouds 18 1014 55 10000 2.1 80 10:43 09.05.2020
3435 Clouds 17 1014 55 10000 2.1 80 10:25 09.05.2020
3436 Clouds 17 1014 51 10000 2.1 90 09:58 09.05.2020
3437 Clouds 16 1014 54 10000 1.5 130 09:38 09.05.2020
3438 Clouds 16 1014 62 10000 1 0 09:19 09.05.2020
3439 Clouds 15 1014 62 10000 1 0 08:51 09.05.2020
3440 Clouds 13 1014 76 10000 1.5 160 08:33 09.05.2020
3441 Clouds 12 1014 87 10000 1.5 120 07:51 09.05.2020
3442 Clouds 12 1014 81 10000 1.5 50 07:33 09.05.2020
3443 Clouds 11 1014 93 10000 3.1 150 06:55 09.05.2020
3444 Clouds 11 1014 76 10000 1.5 80 06:26 09.05.2020
3445 Clouds 12 1014 81 10000 0.5 0 05:49 09.05.2020
3446 Clouds 12 1015 76 10000 2.6 50 04:43 09.05.2020
3447 Clouds 13 1015 62 10000 1.5 0 03:38 09.05.2020
3448 Clouds 13 1015 71 10000 1 40 02:50 09.05.2020
3449 Clouds 13 1015 66 10000 0.5 0 01:54 09.05.2020
3450 Clouds 14 1015 62 10000 1 0 01:26 09.05.2020
3451 Clouds 14 1015 62 10000 0.5 0 00:59 09.05.2020
3452 Clouds 14 1015 58 10000 0.5 0 00:38 09.05.2020
3453 Clouds 15 1015 62 10000 1.5 120 23:58 08.05.2020
3454 Clouds 16 1015 51 10000 3.1 60 23:39 08.05.2020
3455 Clouds 16 1016 48 10000 3.1 60 23:19 08.05.2020
3456 Clouds 17 1016 48 10000 3.1 60 22:54 08.05.2020
3457 Clouds 18 1016 45 10000 3.1 70 22:36 08.05.2020
3458 Clouds 18 1015 42 10000 3.6 50 22:18 08.05.2020
3459 Clouds 18 1016 45 10000 3.1 70 22:18 08.05.2020
3460 Clouds 18 1015 42 10000 3.6 50 21:54 08.05.2020
3461 Clouds 19 1015 39 10000 4.1 40 21:36 08.05.2020
3462 Clouds 19 1015 39 10000 4.1 40 21:18 08.05.2020
3463 Clouds 20 1015 40 10000 3.1 350 20:41 08.05.2020
3464 Clouds 21 1016 37 10000 3.6 320 20:23 08.05.2020
3465 Clouds 21 1016 37 10000 3.6 320 19:58 08.05.2020
3466 Clouds 22 1015 33 10000 2.6 340 19:40 08.05.2020
3467 Clouds 22 1015 33 10000 2.6 340 19:20 08.05.2020
3468 Clouds 22 1016 33 10000 3.6 330 18:45 08.05.2020
3469 Clouds 23 1016 33 10000 4.6 310 18:27 08.05.2020
3470 Clouds 23 1016 33 10000 3.1 330 17:43 08.05.2020
3471 Clouds 23 1016 33 10000 3.1 330 17:43 08.05.2020
3472 Clouds 23 1016 33 10000 3.1 330 17:20 08.05.2020
3473 Clouds 23 1016 33 10000 3.1 300 16:56 08.05.2020
3474 Clouds 23 1016 31 10000 2.1 280 16:38 08.05.2020
3475 Clouds 23 1017 31 10000 1.5 0 16:19 08.05.2020
3476 Clouds 23 1017 31 10000 2.6 0 15:43 08.05.2020
3477 Clouds 23 1017 35 10000 2.6 260 15:22 08.05.2020
3478 Clouds 23 1017 35 10000 2.6 260 14:57 08.05.2020
3479 Clouds 23 1017 33 10000 2.1 0 14:39 08.05.2020
3480 Clouds 23 1017 33 10000 2.1 0 14:19 08.05.2020
3481 Clouds 22 1018 35 10000 3.1 220 13:55 08.05.2020
3482 Clouds 22 1018 37 10000 2.6 0 13:37 08.05.2020
3483 Clouds 22 1018 40 10000 2.1 260 13:18 08.05.2020
3484 Clouds 21 1018 42 10000 2.1 0 12:42 08.05.2020
3485 Clouds 20 1018 42 10000 2.1 0 12:23 08.05.2020
3486 Clouds 20 1019 42 10000 1.5 0 11:54 08.05.2020
3487 Clouds 19 1019 48 10000 1 0 11:36 08.05.2020
3488 Clouds 18 1019 51 10000 1 0 11:18 08.05.2020
3489 Clouds 18 1019 58 10000 2.1 180 10:42 08.05.2020
3490 Clouds 16 1019 58 10000 2.1 180 10:20 08.05.2020
3491 Clouds 16 1019 58 10000 2.1 160 09:58 08.05.2020
3492 Clouds 14 1019 71 10000 1.5 160 09:39 08.05.2020
3493 Clouds 13 1019 76 10000 1.5 150 09:18 08.05.2020
3494 Clouds 11 1019 81 10000 0.5 0 08:45 08.05.2020
3495 Clouds 11 1019 81 10000 0.5 0 08:23 08.05.2020
3496 Clouds 9 1019 93 10000 0.5 60 07:44 08.05.2020
3497 Clouds 9 1019 93 10000 0.5 60 07:25 08.05.2020
3498 Clouds 9 1019 93 10000 0.5 0 06:51 08.05.2020
3499 Clouds 9 1019 93 10000 0.5 0 06:24 08.05.2020
3500 Clouds 9 1019 93 10000 0.5 0 05:59 08.05.2020
3501 Clouds 10 1019 87 10000 1 0 04:50 08.05.2020
3502 Clouds 11 1019 76 10000 2.1 50 02:54 08.05.2020
3503 Clouds 12 1020 71 10000 1.5 80 02:21 08.05.2020
3504 Clouds 12 1020 66 10000 1 0 01:37 08.05.2020
3505 Clouds 13 1020 66 10000 1 0 01:18 08.05.2020
3506 Clouds 13 1020 71 10000 2.1 140 00:45 08.05.2020
3507 Clouds 13 1020 71 10000 2.1 140 00:22 08.05.2020
3508 Clouds 14 1020 62 10000 0.5 100 23:44 07.05.2020
3509 Clouds 14 1020 62 10000 0.5 100 23:24 07.05.2020
3510 Clouds 15 1020 58 10000 2.1 60 22:59 07.05.2020
3511 Clouds 16 1020 58 10000 1.5 60 22:41 07.05.2020
3512 Clouds 16 1020 58 10000 1.5 60 22:20 07.05.2020
3513 Clouds 17 1020 58 10000 1.5 50 21:57 07.05.2020
3514 Clouds 18 1020 54 10000 1 0 21:38 07.05.2020
3515 Clouds 18 1020 54 10000 1 0 21:19 07.05.2020
3516 Clouds 18 1020 54 10000 1 0 21:19 07.05.2020
3517 Clouds 19 1020 48 10000 1 60 20:57 07.05.2020
3518 Clouds 19 1020 48 10000 1 70 20:37 07.05.2020
3519 Clouds 20 1020 34 10000 1 0 20:19 07.05.2020
3520 Clouds 20 1020 26 0 1 0 19:46 07.05.2020
3521 Clouds 21 1020 26 0 1 0 19:22 07.05.2020
3522 Clouds 22 1020 24 10000 1.5 10 18:56 07.05.2020
3523 Clouds 22 1021 36 10000 2.1 270 18:38 07.05.2020
3524 Clouds 23 1021 30 10000 1.5 290 18:20 07.05.2020
3525 Clouds 22 1021 24 10000 1.5 260 17:41 07.05.2020
3526 Clouds 23 1022 27 10000 1 0 17:20 07.05.2020
3527 Clouds 22 1022 22 10000 2.1 360 16:43 07.05.2020
3528 Clear 22 1023 20 10000 1.5 0 16:19 07.05.2020
3529 Clear 21 1023 20 10000 1.5 0 15:58 07.05.2020
3530 Clear 21 1023 20 10000 1 0 15:39 07.05.2020
3531 Clear 22 1023 20 10000 1 0 15:19 07.05.2020
3532 Clear 21 1023 24 10000 2.1 0 14:59 07.05.2020
3533 Clear 21 1024 25 10000 2.6 0 14:41 07.05.2020
3534 Clear 20 1024 25 10000 2.6 0 14:18 07.05.2020
3535 Clear 20 1024 32 10000 3.1 230 13:42 07.05.2020
3536 Clear 19 1024 32 10000 3.1 230 13:24 07.05.2020
3537 Clear 19 1024 36 10000 2.6 0 12:44 07.05.2020
3538 Clear 18 1024 36 10000 2.6 0 12:20 07.05.2020
3539 Clear 18 1025 33 10000 1.5 260 11:58 07.05.2020
3540 Clear 17 1025 38 10000 1 0 11:38 07.05.2020
3541 Clear 16 1025 47 10000 1 0 11:20 07.05.2020
3542 Clear 14 1025 47 10000 1 0 10:41 07.05.2020
3543 Clear 14 1025 47 10000 1 0 10:22 07.05.2020
3544 Clear 12 1025 61 10000 1 0 09:41 07.05.2020
3545 Clear 12 1025 61 10000 1 0 09:41 07.05.2020
3546 Clear 11 1025 61 10000 1 0 09:20 07.05.2020
3547 Clear 10 1025 70 10000 1 0 08:57 07.05.2020
3548 Clear 10 1025 70 10000 1 0 08:38 07.05.2020
3549 Clear 8 1025 86 10000 1.5 150 08:20 07.05.2020
3550 Clear 7 1025 86 10000 0.5 0 07:46 07.05.2020
3551 Clear 6 1025 86 10000 0.5 0 07:28 07.05.2020
3552 Clear 5 1025 93 10000 1 0 06:52 07.05.2020
3553 Clear 5 1025 86 10000 1 0 06:33 07.05.2020
3554 Clear 6 1025 86 10000 1 0 05:38 07.05.2020
3555 Clear 7 1025 86 10000 1 0 04:25 07.05.2020
3556 Clear 8 1025 80 10000 2.6 60 03:26 07.05.2020
3557 Clear 8 1025 80 10000 1 0 02:55 07.05.2020
3558 Clear 9 1025 86 10000 1.5 60 02:19 07.05.2020
3559 Clear 9 1025 75 10000 0.5 0 01:24 07.05.2020
3560 Clear 10 1025 70 10000 3.1 60 00:50 07.05.2020
3561 Clear 11 1025 70 10000 3.1 60 00:29 07.05.2020
3562 Clear 11 1025 61 10000 3.1 70 23:58 06.05.2020
3563 Clear 11 1024 66 10000 2.6 60 23:38 06.05.2020
3564 Clear 12 1024 66 10000 2.6 60 23:19 06.05.2020
3565 Clear 13 1024 53 10000 2.1 60 22:54 06.05.2020
3566 Clear 13 1024 53 10000 2.1 60 22:36 06.05.2020
3567 Clear 13 1024 53 10000 2.1 60 22:18 06.05.2020
3568 Clear 15 1024 47 10000 2.1 20 21:42 06.05.2020
3569 Clear 15 1024 42 10000 2.1 20 21:22 06.05.2020
3570 Clear 17 1024 36 10000 2.6 360 20:57 06.05.2020
3571 Clear 17 1023 33 10000 3.6 340 20:38 06.05.2020
3572 Clear 17 1023 39 10000 4.1 330 20:20 06.05.2020
3573 Clear 18 1023 39 10000 4.1 330 19:56 06.05.2020
3574 Clear 18 1023 39 10000 3.1 330 19:37 06.05.2020
3575 Clear 19 1023 34 10000 3.6 310 19:18 06.05.2020
3576 Clear 19 1023 34 10000 3.6 310 18:55 06.05.2020
3577 Clear 19 1023 25 10000 1.5 0 18:37 06.05.2020
3578 Clear 19 1023 25 10000 2.1 0 18:18 06.05.2020
3579 Clear 19 1023 25 10000 2.1 0 17:54 06.05.2020
3580 Clear 19 1024 25 10000 3.1 0 17:36 06.05.2020
3581 Clear 19 1024 25 10000 2.1 0 17:18 06.05.2020
3582 Clear 20 1024 25 10000 3.1 0 17:18 06.05.2020
3583 Clear 19 1024 25 10000 2.1 0 16:57 06.05.2020
3584 Clear 19 1024 27 10000 2.6 10 16:39 06.05.2020
3585 Clear 19 1024 27 10000 1 0 16:19 06.05.2020
3586 Clear 18 1024 27 10000 2.6 140 15:47 06.05.2020
3587 Clear 18 1024 27 10000 2.6 140 15:22 06.05.2020
3588 Clear 18 1024 29 10000 2.6 0 14:58 06.05.2020
3589 Clear 18 1024 26 10000 2.1 0 14:39 06.05.2020
3590 Clear 18 1024 26 10000 2.1 0 14:19 06.05.2020
3591 Clear 17 1025 29 10000 3.1 90 14:19 06.05.2020
3592 Clear 17 1025 29 10000 3.1 90 13:58 06.05.2020
3593 Clear 17 1025 31 10000 3.6 0 13:39 06.05.2020
3594 Clear 16 1025 28 10000 3.6 60 13:19 06.05.2020
3595 Clear 16 1025 30 10000 2.6 80 12:43 06.05.2020
3596 Clear 16 1025 30 10000 2.6 80 12:25 06.05.2020
3597 Clear 14 1025 33 10000 3.6 0 11:55 06.05.2020
3598 Clear 14 1025 33 10000 3.6 0 11:36 06.05.2020
3599 Clear 13 1025 37 10000 3.1 160 11:18 06.05.2020
3600 Clear 13 1025 37 10000 3.1 160 10:55 06.05.2020
3601 Clear 13 1025 50 10000 2.6 160 10:36 06.05.2020
3602 Clear 12 1025 50 10000 2.1 150 10:18 06.05.2020
3603 Clear 11 1025 57 10000 2.1 130 09:39 06.05.2020
3604 Clear 10 1025 61 10000 1 0 09:20 06.05.2020
3605 Clear 8 1025 80 10000 0.5 0 08:44 06.05.2020
3606 Clear 7 1025 80 10000 0.5 0 08:21 06.05.2020
3607 Clear 6 1024 59 10000 1 0 07:57 06.05.2020
3608 Clear 5 1024 86 10000 0.5 0 07:39 06.05.2020
3609 Clear 5 1024 66 10000 0.5 0 07:19 06.05.2020
3610 Clear 4 1024 66 10000 0.5 0 06:49 06.05.2020
3611 Clear 5 1024 67 10000 0.5 0 06:21 06.05.2020
3612 Clear 5 1024 67 10000 1 0 05:50 06.05.2020
3613 Clear 5 1023 66 10000 0.5 0 05:32 06.05.2020
3614 Clear 6 1023 64 10000 1 0 03:55 06.05.2020
3615 Clear 6 1023 64 10000 1 0 03:34 06.05.2020
3616 Clear 7 1023 62 10000 1.5 0 02:58 06.05.2020
3617 Clear 7 1023 60 10000 0.5 0 02:28 06.05.2020
3618 Clear 7 1023 75 10000 0.5 0 01:53 06.05.2020
3619 Clear 8 1023 75 10000 2.1 40 01:27 06.05.2020
3620 Clear 8 1022 70 10000 0.5 0 00:45 06.05.2020
3621 Clear 9 1022 70 10000 0.5 0 00:23 06.05.2020
3622 Clear 9 1022 70 10000 1.5 50 23:42 05.05.2020
3623 Clear 10 1021 61 10000 1.5 40 23:20 05.05.2020
3624 Clear 10 1021 61 10000 1.5 40 22:59 05.05.2020
3625 Clear 11 1021 51 10000 2.1 40 22:40 05.05.2020
3626 Clear 12 1020 51 10000 2.6 40 22:19 05.05.2020
3627 Clear 12 1020 51 10000 4.1 40 21:56 05.05.2020
3628 Clear 12 1020 51 10000 4.1 40 21:38 05.05.2020
3629 Clear 13 1020 47 10000 4.1 40 21:19 05.05.2020
3630 Clear 13 1020 47 10000 4.1 40 21:19 05.05.2020
3631 Clear 14 1020 48 10000 5.1 30 20:56 05.05.2020
3632 Clear 14 1020 48 10000 5.1 30 20:38 05.05.2020
3633 Clear 15 1019 41 10000 5.1 30 20:18 05.05.2020
3634 Clear 15 1019 38 10000 6.2 10 19:42 05.05.2020
3635 Clear 16 1019 38 10000 5.7 20 19:23 05.05.2020
3636 Clear 16 1019 38 10000 5.7 20 18:58 05.05.2020
3637 Clear 16 1019 37 10000 5.1 30 18:40 05.05.2020
3638 Clear 16 1019 35 10000 5.1 30 18:20 05.05.2020
3639 Clear 16 1019 33 10000 4.6 20 17:58 05.05.2020
3640 Clear 16 1019 30 10000 3.1 0 17:39 05.05.2020
3641 Clear 16 1019 26 10000 4.6 30 17:21 05.05.2020
3642 Clear 16 1019 26 10000 4.6 30 16:56 05.05.2020
3643 Clear 16 1019 26 10000 4.1 0 16:36 05.05.2020
3644 Clear 16 1019 28 10000 3.6 10 16:18 05.05.2020
3645 Clear 16 1019 28 10000 3.6 10 16:18 05.05.2020
3646 Clear 16 1019 26 10000 4.1 20 15:41 05.05.2020
3647 Clear 15 1019 26 10000 4.1 20 15:22 05.05.2020
3648 Clear 15 1019 28 10000 3.6 20 14:58 05.05.2020
3649 Clear 16 1020 33 10000 2.1 0 14:39 05.05.2020
3650 Clouds 15 1020 30 10000 2.6 0 14:20 05.05.2020
3651 Clouds 15 1020 30 10000 2.6 0 13:58 05.05.2020
3652 Clouds 14 1020 37 10000 2.1 0 13:39 05.05.2020
3653 Clouds 14 1020 37 10000 2.1 0 13:21 05.05.2020
3654 Clouds 14 1020 33 10000 2.1 0 12:58 05.05.2020
3655 Clouds 13 1020 43 10000 3.1 50 12:39 05.05.2020
3656 Clouds 13 1020 30 10000 3.6 60 12:19 05.05.2020
3657 Clouds 12 1020 35 10000 3.6 60 11:42 05.05.2020
3658 Clouds 12 1020 40 10000 3.6 60 11:21 05.05.2020
3659 Clouds 11 1020 40 10000 2.6 70 10:59 05.05.2020
3660 Clouds 11 1021 57 10000 2.1 50 10:39 05.05.2020
3661 Clouds 10 1020 61 10000 1.5 0 10:19 05.05.2020
3662 Clouds 9 1020 61 10000 1.5 0 09:58 05.05.2020
3663 Clouds 9 1020 65 10000 2.1 90 09:40 05.05.2020
3664 Clouds 8 1020 65 10000 2.1 90 09:22 05.05.2020
3665 Clouds 8 1020 70 10000 0.5 0 08:41 05.05.2020
3666 Clouds 8 1021 70 10000 0.5 0 08:20 05.05.2020
3667 Clouds 7 1021 70 10000 0.5 0 07:58 05.05.2020
3668 Clouds 7 1020 75 10000 1 0 07:38 05.05.2020
3669 Clouds 7 1020 75 10000 1.5 60 07:19 05.05.2020
3670 Clouds 7 1020 75 10000 1.5 70 06:49 05.05.2020
3671 Clouds 6 1020 75 10000 1.5 70 06:22 05.05.2020
3672 Clear 7 1020 70 10000 3.6 80 05:37 05.05.2020
3673 Clear 8 1019 70 10000 5.1 60 03:35 05.05.2020
3674 Clear 9 1021 75 10000 3.6 50 01:51 05.05.2020
3675 Clear 10 1020 75 10000 3.6 50 00:54 05.05.2020
3676 Clear 10 1020 75 10000 3.1 50 00:22 05.05.2020
3677 Clear 10 1020 87 10000 2.6 60 23:45 04.05.2020
3678 Clear 10 1020 87 10000 2.6 60 23:23 04.05.2020
3679 Clear 11 1019 81 10000 2.1 60 22:56 04.05.2020
3680 Clear 11 1019 81 10000 1.5 70 22:38 04.05.2020
3681 Clear 12 1019 76 10000 1.5 60 22:19 04.05.2020
3682 Clear 12 1019 76 10000 1.5 60 21:56 04.05.2020
3683 Clear 13 1018 62 10000 1.5 60 21:35 04.05.2020
3684 Clear 14 1018 50 10000 3.1 30 21:03 04.05.2020
3685 Clear 14 1018 50 10000 3.1 30 21:03 04.05.2020
3686 Clear 14 1018 50 10000 3.1 30 21:01 04.05.2020
3687 Clear 14 1018 50 10000 3.1 30 20:59 04.05.2020
3688 Clear 14 1018 50 10000 3.1 30 20:59 04.05.2020
3689 Clear 15 1018 50 10000 5.1 30 20:38 04.05.2020
3690 Clear 15 1018 50 10000 5.1 30 20:38 04.05.2020
3691 Clouds 15 1018 50 10000 5.1 30 20:18 04.05.2020
3692 Clouds 16 1018 41 10000 5.7 360 19:43 04.05.2020
3693 Clouds 16 1018 41 10000 5.7 360 19:23 04.05.2020
3694 Clouds 16 1018 41 10000 5.7 360 19:23 04.05.2020
3695 Clouds 16 1018 44 10000 4.6 20 18:58 04.05.2020
3696 Clouds 16 1018 54 10000 4.6 10 18:38 04.05.2020
3697 Clouds 16 1018 44 10000 4.6 360 18:19 04.05.2020
3698 Clouds 16 1018 48 10000 5.1 10 17:56 04.05.2020
3699 Clouds 16 1018 48 10000 5.1 10 17:37 04.05.2020
3700 Clouds 15 1018 54 10000 2.6 20 17:19 04.05.2020
3701 Clouds 16 1018 55 10000 4.6 10 16:43 04.05.2020
3702 Rain 16 1018 54 10000 4.1 360 16:23 04.05.2020
3703 Rain 16 1018 54 10000 4.1 360 15:58 04.05.2020
3704 Rain 15 1018 58 10000 3.1 20 15:39 04.05.2020
3705 Rain 15 1018 58 10000 3.1 20 15:20 04.05.2020
3706 Rain 15 1017 58 10000 5.7 40 14:48 04.05.2020
3707 Rain 14 1017 58 10000 5.7 40 14:20 04.05.2020
3708 Rain 14 1017 71 10000 5.7 20 13:21 04.05.2020
3709 Rain 14 1017 71 10000 5.7 20 13:21 04.05.2020
3710 Rain 14 1017 71 10000 5.7 20 13:21 04.05.2020
3711 Rain 13 1017 71 10000 3.1 20 12:44 04.05.2020
3712 Rain 13 1017 71 10000 3.1 20 12:44 04.05.2020
3713 Rain 13 1017 71 10000 3.1 20 12:44 04.05.2020
3714 Rain 13 1017 71 10000 3.1 20 12:44 04.05.2020
3715 Rain 13 1017 71 10000 3.1 20 12:44 04.05.2020
3716 Rain 13 1016 71 10000 3.1 30 11:21 04.05.2020
3717 Clouds 12 1016 81 10000 1 0 09:28 04.05.2020
3718 Rain 11 1015 87 10000 1 0 07:53 04.05.2020
3719 Rain 11 1015 87 10000 1 0 07:33 04.05.2020
3720 Clouds 11 1015 81 10000 2.1 60 05:49 04.05.2020
3721 Clouds 12 1016 87 10000 1.5 60 04:52 04.05.2020
3722 Clouds 12 1016 87 10000 1.5 60 04:52 04.05.2020
3723 Clouds 12 1016 87 10000 2.1 30 02:54 04.05.2020
3724 Rain 12 1016 81 10000 0.5 0 01:39 04.05.2020
3725 Clouds 12 1017 81 10000 3.1 60 00:18 04.05.2020
3726 Rain 13 1017 87 10000 2.1 60 23:43 03.05.2020
3727 Rain 13 1017 87 10000 2.1 60 23:43 03.05.2020
3728 Rain 13 1017 87 10000 2.1 60 23:23 03.05.2020
3729 Rain 13 1017 71 10000 1.5 210 22:44 03.05.2020
3730 Rain 13 1017 71 10000 1.5 210 22:25 03.05.2020
3731 Rain 14 1017 66 10000 2.1 60 21:56 03.05.2020
3732 Rain 14 1017 66 10000 2.6 40 21:38 03.05.2020
3733 Rain 14 1017 71 10000 3.1 10 21:19 03.05.2020
3734 Rain 14 1017 71 10000 3.1 10 21:19 03.05.2020
3735 Rain 14 1017 66 10000 2.6 40 21:19 03.05.2020
3736 Rain 14 1017 66 10000 2.6 40 21:19 03.05.2020
3737 Rain 15 1017 62 10000 3.1 290 20:42 03.05.2020
3738 Rain 15 1017 62 10000 3.1 290 20:42 03.05.2020
3739 Clouds 15 1017 54 10000 4.1 230 20:20 03.05.2020
3740 Clouds 15 1017 48 10000 1 0 19:49 03.05.2020
3741 Rain 16 1017 48 10000 1 0 19:30 03.05.2020
3742 Rain 17 1017 45 10000 1.5 50 18:56 03.05.2020
3743 Rain 17 1017 45 10000 1.5 50 18:56 03.05.2020
3744 Rain 17 1017 45 10000 2.6 110 18:38 03.05.2020
3745 Rain 17 1017 45 10000 2.6 110 18:38 03.05.2020
3746 Rain 17 1017 45 10000 2.6 110 18:38 03.05.2020
3747 Rain 17 1017 45 10000 2.6 110 18:38 03.05.2020
3748 Rain 17 1017 45 10000 2.6 110 18:38 03.05.2020
3749 Rain 17 1017 45 10000 2.6 110 18:19 03.05.2020
3750 Rain 17 1017 45 10000 2.6 110 18:19 03.05.2020
3751 Rain 17 1017 45 10000 2.6 110 18:19 03.05.2020
3752 Rain 17 1017 45 10000 2.6 110 18:19 03.05.2020
3753 Rain 17 1017 45 10000 2.6 110 18:19 03.05.2020
3754 Rain 17 1017 42 10000 1.5 0 17:41 03.05.2020
3755 Rain 17 1017 42 10000 1.5 0 17:41 03.05.2020
3756 Clouds 18 1017 42 10000 1.5 0 17:21 03.05.2020
3757 Clouds 17 1017 44 10000 2.1 0 16:45 03.05.2020
3758 Clouds 17 1017 44 10000 2.1 0 16:21 03.05.2020
3759 Clouds 17 1017 42 10000 1.5 100 15:59 03.05.2020
3760 Clouds 18 1018 39 10000 2.6 270 15:40 03.05.2020
3761 Clouds 18 1018 42 10000 2.1 250 15:20 03.05.2020
3762 Clouds 17 1018 42 10000 2.1 250 14:58 03.05.2020
3763 Clouds 17 1018 44 10000 1.5 0 14:40 03.05.2020
3764 Clouds 16 1018 44 10000 1.5 0 14:21 03.05.2020
3765 Clouds 16 1018 51 10000 2.1 0 13:54 03.05.2020
3766 Clouds 16 1018 51 10000 2.1 0 13:21 03.05.2020
3767 Clouds 16 1018 51 10000 2.1 0 13:21 03.05.2020
3768 Clouds 16 1018 51 10000 2.1 0 13:21 03.05.2020
3769 Clouds 15 1019 50 10000 1.5 0 12:45 03.05.2020
3770 Clouds 14 1019 50 10000 1.5 0 12:18 03.05.2020
3771 Clouds 14 1019 58 10000 1 0 11:56 03.05.2020
3772 Clouds 14 1018 58 10000 1 0 11:37 03.05.2020
3773 Clouds 13 1018 58 10000 1 0 11:19 03.05.2020
3774 Clouds 12 1019 71 10000 1 0 10:47 03.05.2020
3775 Clouds 12 1019 71 10000 1 0 10:47 03.05.2020
3776 Clouds 12 1019 71 10000 1 0 10:47 03.05.2020
3777 Clouds 12 1019 71 10000 1 0 10:47 03.05.2020
3778 Clouds 11 1018 71 10000 1 0 09:58 03.05.2020
3779 Clouds 10 1018 76 10000 2.1 140 09:38 03.05.2020
3780 Clouds 9 1018 81 10000 1.5 120 08:56 03.05.2020
3781 Clear 7 1018 93 10000 2.1 140 08:27 03.05.2020
3782 Clear 6 1018 93 10000 2.1 60 07:40 03.05.2020
3783 Clear 5 1017 93 10000 2.1 0 06:29 03.05.2020
3784 Clear 5 1017 93 10000 2.1 0 06:29 03.05.2020
3785 Clear 5 1017 93 10000 2.1 0 06:29 03.05.2020
3786 Clear 5 1017 93 10000 2.1 0 06:29 03.05.2020
3787 Clear 5 1017 93 10000 2.1 0 06:29 03.05.2020
3788 Clear 6 1017 100 10000 1 0 05:49 03.05.2020
3789 Clear 6 1017 93 10000 1 60 05:28 03.05.2020
3790 Clear 6 1017 93 10000 1 60 05:28 03.05.2020
3791 Clear 6 1017 93 10000 1 60 05:28 03.05.2020
3792 Clear 6 1017 93 10000 1 60 05:28 03.05.2020
3793 Clear 6 1016 100 10000 0.5 0 04:27 03.05.2020
3794 Clear 6 1016 100 10000 0.5 0 04:27 03.05.2020
3795 Clear 7 1016 100 10000 1 0 03:29 03.05.2020
3796 Clear 7 1016 93 10000 0.5 0 02:30 03.05.2020
3797 Clear 7 1015 93 10000 1 0 01:47 03.05.2020
3798 Clear 7 1015 93 10000 1 0 01:27 03.05.2020
3799 Clear 8 1015 93 10000 0.5 0 00:57 03.05.2020
3800 Clear 8 1015 93 10000 0.5 0 00:57 03.05.2020
3801 Clear 9 1015 93 10000 1 0 00:38 03.05.2020
3802 Clear 9 1015 93 10000 1 0 00:20 03.05.2020
3803 Clear 9 1015 87 10000 1 0 23:44 02.05.2020
3804 Clear 9 1015 87 10000 1 0 23:26 02.05.2020
3805 Clear 10 1014 87 10000 1 0 22:56 02.05.2020
3806 Clouds 10 1014 87 10000 1 0 22:37 02.05.2020
3807 Clouds 10 1014 87 10000 1 0 22:19 02.05.2020
3808 Clouds 11 1013 81 10000 2.1 240 21:40 02.05.2020
3809 Clouds 11 1013 81 10000 2.1 240 21:20 02.05.2020
3810 Clouds 12 1012 76 10000 3.1 250 20:58 02.05.2020
3811 Clouds 12 1012 71 10000 4.1 280 20:38 02.05.2020
3812 Clouds 12 1012 71 10000 4.1 280 20:20 02.05.2020
3813 Clouds 12 1012 71 10000 3.6 270 19:57 02.05.2020
3814 Clouds 12 1012 66 10000 5.1 270 19:39 02.05.2020
3815 Clouds 12 1011 66 10000 7.7 290 19:20 02.05.2020
3816 Clouds 12 1012 66 10000 5.1 270 19:20 02.05.2020
3817 Clouds 12 1011 66 10000 7.7 290 18:56 02.05.2020
3818 Clouds 12 1011 66 10000 7.2 280 18:37 02.05.2020
3819 Clouds 12 1011 66 10000 7.2 280 18:19 02.05.2020
3820 Clouds 13 1011 71 10000 5.1 300 17:55 02.05.2020
3821 Clouds 12 1010 81 10000 5.1 290 17:37 02.05.2020
3822 Rain 12 1016 56 0 2.68 273 17:19 02.05.2020
3823 Clouds 12 1010 58 10000 6.7 270 16:44 02.05.2020
3824 Clouds 13 1010 58 10000 6.7 270 16:25 02.05.2020
3825 Clouds 12 1010 62 10000 6.7 280 15:55 02.05.2020
3826 Clouds 13 1010 66 10000 7.7 270 15:36 02.05.2020
3827 Clouds 12 1010 66 10000 7.7 270 15:18 02.05.2020
3828 Clouds 12 1009 71 10000 6.7 270 14:41 02.05.2020
3829 Clouds 12 1009 71 10000 6.7 270 14:23 02.05.2020
3830 Clouds 12 1009 76 10000 5.1 280 13:58 02.05.2020
3831 Rain 11 1009 81 10000 6.7 280 13:38 02.05.2020
3832 Rain 10 1009 81 10000 6.7 280 13:18 02.05.2020
3833 Rain 10 1008 58 10000 8.2 270 12:40 02.05.2020
3834 Rain 10 1008 58 10000 8.2 270 12:20 02.05.2020
3835 Rain 10 1008 66 10000 9.8 280 11:57 02.05.2020
3836 Rain 10 1007 71 10000 8.2 260 11:39 02.05.2020
3837 Rain 10 1007 71 10000 8.2 260 11:20 02.05.2020
3838 Rain 10 1007 76 10000 5.1 260 10:40 02.05.2020
3839 Rain 10 1007 76 10000 5.1 260 10:40 02.05.2020
3840 Rain 10 1007 76 10000 5.1 260 10:22 02.05.2020
3841 Rain 9 1007 87 10000 4.1 310 09:59 02.05.2020
3842 Rain 9 1007 87 10000 5.7 250 09:41 02.05.2020
3843 Rain 9 1007 87 10000 5.7 250 09:23 02.05.2020
3844 Rain 8 1007 87 10000 5.7 250 08:57 02.05.2020
3845 Rain 8 1007 87 10000 6.7 240 08:38 02.05.2020
3846 Rain 9 1007 87 10000 6.7 240 08:19 02.05.2020
3847 Rain 9 1006 93 10000 3.1 200 07:45 02.05.2020
3848 Rain 9 1006 93 10000 3.1 200 07:27 02.05.2020
3849 Clouds 9 1006 93 10000 3.1 210 06:43 02.05.2020
3850 Clouds 8 1005 93 10000 3.6 230 05:28 02.05.2020
3851 Clouds 8 1005 93 10000 3.1 220 04:31 02.05.2020
3852 Clouds 8 1005 93 10000 2.6 210 03:56 02.05.2020
3853 Rain 9 1005 87 10000 3.1 240 02:43 02.05.2020
3854 Rain 9 1005 87 10000 5.1 260 01:59 02.05.2020
3855 Rain 9 1004 93 10000 2.1 170 01:28 02.05.2020
3856 Rain 9 1004 93 10000 1.5 170 00:44 02.05.2020
3857 Rain 9 1004 93 10000 1.5 170 00:24 02.05.2020
3858 Rain 9 1004 93 10000 1 0 23:57 01.05.2020
3859 Rain 9 1003 93 10000 1 0 23:37 01.05.2020
3860 Rain 9 1003 93 10000 1 0 23:19 01.05.2020
3861 Rain 9 1003 93 10000 2.1 240 22:54 01.05.2020
3862 Rain 10 1003 81 10000 2.6 240 22:36 01.05.2020
3863 Rain 10 1002 76 10000 2.6 300 22:18 01.05.2020
3864 Rain 10 1002 66 10000 6.2 310 21:41 01.05.2020
3865 Rain 10 1002 66 10000 3.6 280 21:21 01.05.2020
3866 Rain 11 1002 66 10000 3.6 280 20:58 01.05.2020
3867 Rain 12 1001 62 10000 6.2 260 20:40 01.05.2020
3868 Rain 12 1001 62 10000 6.2 260 20:20 01.05.2020
3869 Rain 12 1001 62 10000 6.2 260 20:20 01.05.2020
3870 Rain 12 1001 58 10000 8.2 260 19:59 01.05.2020
3871 Rain 13 1001 58 10000 8.2 250 19:41 01.05.2020
3872 Rain 13 1001 58 10000 8.2 250 19:22 01.05.2020
3873 Clouds 14 1001 62 10000 7.2 260 18:57 01.05.2020
3874 Clouds 15 1000 67 10000 4.6 250 18:38 01.05.2020
3875 Thunderstorm 14 1001 76 10000 8.7 260 18:19 01.05.2020
3876 Thunderstorm 14 1001 76 10000 8.7 260 17:54 01.05.2020
3877 Clouds 15 1000 51 10000 7.2 220 17:36 01.05.2020
3878 Clouds 15 1000 54 10000 5.1 230 17:18 01.05.2020
3879 Rain 16 1000 54 10000 8.2 240 16:55 01.05.2020
3880 Rain 16 1000 54 10000 8.2 240 16:36 01.05.2020
3881 Rain 16 1000 54 10000 8.2 240 16:18 01.05.2020
3882 Clouds 15 1000 47 10000 5.7 240 15:42 01.05.2020
3883 Clouds 15 1000 47 10000 5.7 240 15:23 01.05.2020
3884 Clouds 15 1000 51 10000 5.7 240 14:57 01.05.2020
3885 Clouds 15 1000 54 10000 7.2 220 14:38 01.05.2020
3886 Clouds 15 1000 54 10000 7.2 220 14:20 01.05.2020
3887 Clouds 14 1001 58 10000 5.7 240 13:40 01.05.2020
3888 Clouds 14 1001 58 10000 5.7 240 13:22 01.05.2020
3889 Clouds 14 1001 62 10000 6.2 230 12:57 01.05.2020
3890 Clouds 13 1001 62 10000 6.2 250 12:39 01.05.2020
3891 Clouds 13 1006 45 0 2.24 213 12:19 01.05.2020
3892 Clouds 13 1001 58 10000 7.7 240 11:57 01.05.2020
3893 Clouds 13 1001 62 10000 7.2 230 11:39 01.05.2020
3894 Clouds 12 1002 71 10000 5.7 200 11:19 01.05.2020
3895 Clouds 11 1002 76 10000 5.1 190 10:41 01.05.2020
3896 Clouds 11 1002 76 10000 5.1 190 10:20 01.05.2020
3897 Clouds 10 1002 81 10000 4.1 180 09:55 01.05.2020
3898 Clouds 9 1002 87 10000 3.1 180 09:37 01.05.2020
3899 Clouds 9 1002 87 10000 3.1 180 09:18 01.05.2020
3900 Clouds 8 1002 81 10000 6.2 190 08:42 01.05.2020
3901 Clouds 8 1002 81 10000 6.2 190 08:24 01.05.2020
3902 Clouds 8 1002 93 10000 5.1 170 07:55 01.05.2020
3903 Clouds 8 1002 93 10000 3.1 180 07:36 01.05.2020
3904 Rain 7 1001 93 10000 3.6 180 06:57 01.05.2020
3905 Rain 8 1002 87 10000 4.1 160 05:41 01.05.2020
3906 Rain 9 1002 87 10000 4.1 160 05:20 01.05.2020
3907 Clouds 9 1002 93 10000 4.1 160 03:42 01.05.2020
3908 Clouds 9 1002 87 10000 4.1 190 02:50 01.05.2020
3909 Clouds 9 1002 87 10000 4.1 190 02:32 01.05.2020
3910 Clouds 9 1001 93 10000 2.6 190 01:47 01.05.2020
3911 Clouds 9 1001 93 10000 2.6 190 01:26 01.05.2020
3912 Rain 10 1001 93 10000 3.1 170 00:40 01.05.2020
3913 Rain 10 1001 93 10000 3.1 170 00:20 01.05.2020
3914 Rain 10 1001 87 10000 4.1 150 23:57 30.04.2020
3915 Rain 10 1001 93 10000 4.1 150 23:38 30.04.2020
3916 Rain 10 1001 93 10000 4.1 150 23:38 30.04.2020
3917 Rain 10 1001 93 10000 4.1 150 23:20 30.04.2020
3918 Rain 10 1001 93 10000 4.1 150 23:20 30.04.2020
3919 Clouds 10 1001 87 10000 4.6 140 22:56 30.04.2020
3920 Clouds 10 1001 87 10000 4.6 140 22:56 30.04.2020
3921 Clouds 10 1001 87 10000 4.6 140 22:37 30.04.2020
3922 Clouds 10 1001 87 10000 4.6 140 22:18 30.04.2020
3923 Clouds 10 1001 93 10000 4.1 160 21:42 30.04.2020
3924 Rain 10 1001 93 10000 4.1 160 21:22 30.04.2020
3925 Rain 10 1001 87 10000 4.1 140 20:58 30.04.2020
3926 Clouds 10 1001 87 10000 3.1 150 20:40 30.04.2020
3927 Clouds 10 1001 87 10000 3.1 150 20:18 30.04.2020
3928 Rain 11 1001 87 10000 2.6 140 19:46 30.04.2020
3929 Rain 11 1001 93 9000 1 0 19:26 30.04.2020
3930 Rain 10 1001 93 10000 1 0 18:59 30.04.2020
3931 Rain 10 1001 93 10000 3.6 270 18:39 30.04.2020
3932 Rain 10 1001 93 10000 3.6 270 18:21 30.04.2020
3933 Rain 11 1001 81 7000 4.6 270 17:58 30.04.2020
3934 Rain 11 1001 62 10000 7.2 220 17:40 30.04.2020
3935 Clouds 13 1000 41 10000 3.6 180 17:21 30.04.2020
3936 Clouds 16 1000 41 10000 3.6 180 16:57 30.04.2020
3937 Clouds 17 1001 41 10000 5.1 190 16:38 30.04.2020
3938 Clouds 17 1001 41 10000 6.2 200 16:19 30.04.2020
3939 Clouds 17 1002 41 10000 5.1 210 15:48 30.04.2020
3940 Clouds 17 1001 41 10000 6.2 200 15:48 30.04.2020
3941 Clear 17 1002 41 10000 5.1 210 15:25 30.04.2020
3942 Clear 16 1002 41 10000 7.2 200 14:58 30.04.2020
3943 Clouds 16 1002 41 10000 6.7 210 14:39 30.04.2020
3944 Clouds 16 1002 44 10000 7.2 240 14:19 30.04.2020
3945 Clouds 16 1002 44 10000 7.2 240 13:56 30.04.2020
3946 Clouds 16 1002 44 10000 7.2 240 13:56 30.04.2020
3947 Clouds 15 1003 47 10000 5.7 230 13:38 30.04.2020
3948 Clouds 15 1003 47 10000 5.7 230 13:19 30.04.2020
3949 Clouds 14 1003 62 10000 5.1 250 12:41 30.04.2020
3950 Clouds 14 1003 62 10000 5.1 250 12:21 30.04.2020
3951 Clouds 14 1003 66 10000 6.2 250 11:59 30.04.2020
3952 Clouds 13 1003 66 10000 6.7 240 11:37 30.04.2020
3953 Clouds 13 1003 66 10000 6.7 240 11:18 30.04.2020
3954 Clouds 13 1003 67 10000 7.7 240 10:54 30.04.2020
3955 Clouds 12 1002 81 10000 5.7 220 10:36 30.04.2020
3956 Clouds 12 1002 81 10000 5.7 220 10:18 30.04.2020
3957 Clouds 11 1002 81 10000 5.1 190 09:43 30.04.2020
3958 Rain 11 1002 87 10000 4.1 170 09:23 30.04.2020
3959 Clouds 11 1002 87 10000 4.1 170 08:54 30.04.2020
3960 Clouds 11 1002 93 10000 3.1 160 08:36 30.04.2020
3961 Rain 11 1001 93 10000 3.6 160 08:18 30.04.2020
3962 Rain 11 1002 93 10000 5.1 180 07:42 30.04.2020
3963 Rain 11 1002 93 10000 5.1 180 07:23 30.04.2020
3964 Rain 11 1001 87 10000 4.6 170 06:48 30.04.2020
3965 Rain 11 1002 93 10000 3.6 160 05:49 30.04.2020
3966 Rain 11 1002 93 10000 3.6 160 05:28 30.04.2020
3967 Rain 11 1003 81 10000 1 0 04:32 30.04.2020
3968 Clouds 11 1003 87 10000 1 0 03:53 30.04.2020
3969 Rain 11 1009 70 0 0.89 174 02:43 30.04.2020
3970 Rain 12 1009 70 0 0.89 227 02:23 30.04.2020
3971 Rain 14 1004 67 10000 5.1 180 01:35 30.04.2020
3972 Rain 14 1004 67 10000 6.2 190 00:42 30.04.2020
3973 Rain 14 1004 67 10000 4.1 180 00:19 30.04.2020
3974 Rain 14 1004 67 10000 4.1 180 23:57 29.04.2020
3975 Rain 14 1005 67 10000 4.1 170 23:37 29.04.2020
3976 Rain 15 1005 67 10000 4.1 170 23:18 29.04.2020
3977 Rain 15 1005 58 10000 4.1 190 22:40 29.04.2020
3978 Clouds 15 1005 58 10000 4.1 190 22:21 29.04.2020
3979 Clouds 15 1005 71 10000 3.1 160 21:57 29.04.2020
3980 Clouds 15 1005 71 10000 3.1 160 21:37 29.04.2020
3981 Clouds 15 1005 71 10000 3.1 160 21:18 29.04.2020
3982 Rain 15 1005 71 10000 1.5 140 20:55 29.04.2020
3983 Clouds 16 1005 67 10000 1.5 90 20:36 29.04.2020
3984 Clouds 16 1005 62 10000 1.5 130 20:18 29.04.2020
3985 Clouds 16 1005 62 10000 1.5 130 20:18 29.04.2020
3986 Rain 17 1010 46 0 0.45 166 19:42 29.04.2020
3987 Clouds 17 1005 55 10000 1 0 19:20 29.04.2020
3988 Clouds 17 1006 59 10000 1 0 18:57 29.04.2020
3989 Clouds 17 1006 71 10000 2.1 310 18:38 29.04.2020
3990 Clouds 17 1006 71 10000 2.1 310 18:18 29.04.2020
3991 Rain 16 1006 48 10000 5.7 230 17:41 29.04.2020
3992 Rain 16 1006 48 10000 5.7 230 17:21 29.04.2020
3993 Rain 16 1006 48 10000 5.1 220 16:55 29.04.2020
3994 Clouds 17 1006 48 10000 5.1 220 16:36 29.04.2020
3995 Clouds 17 1006 48 10000 5.1 220 16:18 29.04.2020
3996 Clouds 17 1006 55 10000 6.2 230 15:54 29.04.2020
3997 Clouds 17 1006 55 10000 6.2 230 15:36 29.04.2020
3998 Clouds 17 1006 55 10000 5.7 230 15:18 29.04.2020
3999 Clouds 16 1006 59 10000 6.7 230 14:41 29.04.2020
4000 Clouds 16 1006 59 10000 6.7 230 14:23 29.04.2020
4001 Clouds 15 1006 59 10000 5.1 220 13:56 29.04.2020
4002 Clouds 15 1006 67 10000 5.1 220 13:38 29.04.2020
4003 Clouds 15 1006 67 10000 5.1 220 13:38 29.04.2020
4004 Clouds 14 1006 71 10000 5.7 210 13:18 29.04.2020
4005 Rain 14 1006 67 10000 7.7 240 12:41 29.04.2020
4006 Rain 13 1006 67 10000 7.7 240 12:19 29.04.2020
4007 Rain 13 1006 67 10000 7.7 240 12:19 29.04.2020
4008 Rain 14 1006 58 10000 6.7 230 11:59 29.04.2020
4009 Clouds 14 1006 58 10000 5.1 210 11:38 29.04.2020
4010 Clouds 14 1005 58 10000 6.7 230 11:20 29.04.2020
4011 Clouds 14 1005 63 10000 4.1 200 10:54 29.04.2020
4012 Clouds 14 1005 63 10000 4.1 200 10:36 29.04.2020
4013 Clouds 14 1006 71 10000 3.6 180 10:18 29.04.2020
4014 Clouds 13 1006 76 10000 3.1 180 09:41 29.04.2020
4015 Clouds 13 1006 76 10000 3.1 180 09:21 29.04.2020
4016 Clouds 12 1005 81 10000 3.1 180 08:44 29.04.2020
4017 Clouds 12 1005 81 10000 3.1 180 08:25 29.04.2020
4018 Clouds 12 1005 76 10000 3.1 200 07:55 29.04.2020
4019 Clouds 12 1005 81 10000 3.1 190 07:29 29.04.2020
4020 Clouds 12 1005 87 10000 2.1 170 06:53 29.04.2020
4021 Clouds 12 1005 81 10000 1.5 190 06:32 29.04.2020
4022 Rain 12 1005 76 10000 2.1 220 05:53 29.04.2020
4023 Rain 13 1005 76 10000 3.1 240 05:19 29.04.2020
4024 Clouds 13 1005 76 10000 3.1 250 04:20 29.04.2020
4025 Clouds 13 1005 76 10000 3.1 250 03:53 29.04.2020
4026 Clouds 13 1005 76 10000 3.1 210 01:59 29.04.2020
4027 Rain 13 1005 82 10000 3.6 230 01:37 29.04.2020
4028 Clouds 14 1004 71 10000 4.1 240 01:19 29.04.2020
4029 Clouds 14 1004 71 10000 3.6 230 00:38 29.04.2020
4030 Rain 14 1004 76 10000 3.1 230 00:18 29.04.2020
4031 Rain 14 1004 76 10000 3.1 230 23:45 28.04.2020
4032 Rain 14 1004 87 10000 3.1 190 23:22 28.04.2020
4033 Clouds 13 1004 93 10000 2.6 170 22:40 28.04.2020
4034 Clouds 14 1004 93 10000 2.6 170 22:22 28.04.2020
4035 Clouds 14 1004 93 10000 0.5 0 22:22 28.04.2020
4036 Clouds 14 1004 93 10000 0.5 0 21:59 28.04.2020
4037 Clouds 14 1004 93 10000 0.5 0 21:59 28.04.2020
4038 Clouds 14 1004 100 10000 1 80 21:41 28.04.2020
4039 Clouds 15 1003 87 10000 1 0 21:23 28.04.2020
4040 Clouds 16 1003 87 10000 1 0 20:59 28.04.2020
4041 Clouds 16 1003 87 10000 2.1 170 20:40 28.04.2020
4042 Clouds 16 1003 87 10000 2.1 170 20:21 28.04.2020
4043 Clouds 16 1003 82 10000 1.5 150 19:58 28.04.2020
4044 Clouds 16 1003 77 10000 2.6 250 19:39 28.04.2020
4045 Clouds 16 1003 77 10000 2.6 250 19:20 28.04.2020
4046 Clouds 16 1003 87 10000 1.5 360 18:57 28.04.2020
4047 Clouds 16 1003 87 10000 3.1 290 18:38 28.04.2020
4048 Clouds 16 1003 87 10000 3.1 290 18:19 28.04.2020
4049 Rain 15 1003 87 10000 5.1 300 17:38 28.04.2020
4050 Rain 15 1003 87 10000 5.1 300 17:20 28.04.2020
4051 Rain 15 1003 93 10000 6.7 270 16:59 28.04.2020
4052 Rain 14 1003 100 10000 7.2 250 16:40 28.04.2020
4053 Rain 15 1003 72 8000 4.1 230 16:22 28.04.2020
4054 Rain 16 1003 72 8000 4.1 230 15:57 28.04.2020
4055 Rain 17 1003 72 10000 2.1 130 15:39 28.04.2020
4056 Rain 17 1002 68 10000 3.1 110 15:20 28.04.2020
4057 Rain 18 1002 68 10000 3.1 110 14:57 28.04.2020
4058 Clouds 18 1003 67 10000 6.2 150 14:39 28.04.2020
4059 Clouds 19 1003 55 10000 6.7 150 14:19 28.04.2020
4060 Clouds 20 1003 55 10000 6.7 150 13:57 28.04.2020
4061 Clouds 20 1003 59 10000 3.6 150 13:37 28.04.2020
4062 Clouds 19 1003 55 10000 3.1 130 13:19 28.04.2020
4063 Clouds 19 1003 59 10000 5.1 130 12:44 28.04.2020
4064 Rain 20 1003 52 10000 4.1 140 12:24 28.04.2020
4065 Rain 18 1003 55 10000 2.1 140 11:45 28.04.2020
4066 Rain 18 1003 55 10000 2.1 140 11:26 28.04.2020
4067 Rain 18 1004 59 10000 2.1 80 11:00 28.04.2020
4068 Rain 18 1004 59 10000 2.1 80 10:59 28.04.2020
4069 Rain 17 1004 63 10000 2.6 120 10:39 28.04.2020
4070 Clouds 16 1004 67 10000 2.1 120 10:19 28.04.2020
4071 Clouds 16 1004 67 10000 2.1 120 09:58 28.04.2020
4072 Clouds 16 1004 62 10000 3.6 140 09:39 28.04.2020
4073 Clouds 15 1004 62 10000 3.6 140 09:20 28.04.2020
4074 Clouds 14 1004 66 10000 3.6 120 08:46 28.04.2020
4075 Clouds 13 1004 66 10000 3.6 120 08:26 28.04.2020
4076 Clouds 11 1004 81 10000 1.5 120 07:46 28.04.2020
4077 Clouds 11 1004 81 10000 1.5 120 07:21 28.04.2020
4078 Clouds 10 1004 81 10000 2.1 40 06:55 28.04.2020
4079 Clouds 11 1004 75 10000 1.5 70 06:28 28.04.2020
4080 Clouds 11 1004 76 10000 1.5 80 05:44 28.04.2020
4081 Clouds 11 1004 76 10000 1.5 80 05:25 28.04.2020
4082 Clouds 11 1005 75 10000 1 0 04:33 28.04.2020
4083 Clouds 12 1005 76 10000 1 0 02:36 28.04.2020
4084 Clouds 14 1006 71 10000 0.5 0 01:25 28.04.2020
4085 Clouds 14 1006 71 10000 0.5 0 00:59 28.04.2020
4086 Clouds 14 1006 66 10000 1 0 00:26 28.04.2020
4087 Clouds 15 1006 62 10000 2.1 60 23:47 27.04.2020
4088 Clouds 15 1006 66 10000 0.5 0 23:25 27.04.2020
4089 Clouds 15 1006 58 10000 0.5 0 22:57 27.04.2020
4090 Clouds 16 1006 54 10000 1 0 22:38 27.04.2020
4091 Clouds 16 1006 54 10000 1 0 22:20 27.04.2020
4092 Clouds 17 1006 48 10000 1 0 21:56 27.04.2020
4093 Clouds 18 1006 48 10000 0.5 0 21:38 27.04.2020
4094 Clouds 19 1006 48 10000 0.5 0 21:18 27.04.2020
4095 Clouds 19 1006 48 10000 0.5 0 21:18 27.04.2020
4096 Clouds 20 1006 39 10000 1 0 20:55 27.04.2020
4097 Clouds 21 1006 32 10000 1 0 20:37 27.04.2020
4098 Clouds 21 1006 32 10000 1 0 20:18 27.04.2020
4099 Clouds 22 1006 28 10000 3.1 270 19:40 27.04.2020
4100 Clouds 21 1006 28 10000 2.6 0 19:22 27.04.2020
4101 Clouds 22 1006 28 10000 2.6 0 18:59 27.04.2020
4102 Clouds 22 1006 28 10000 2.6 250 18:40 27.04.2020
4103 Clouds 22 1006 26 10000 3.6 290 18:20 27.04.2020
4104 Clouds 22 1006 26 10000 3.6 290 17:58 27.04.2020
4105 Clouds 22 1006 28 10000 4.6 300 17:40 27.04.2020
4106 Clouds 22 1006 28 10000 4.6 290 17:19 27.04.2020
4107 Clouds 22 1007 28 10000 4.6 310 16:40 27.04.2020
4108 Clouds 22 1007 28 10000 4.6 310 16:40 27.04.2020
4109 Clouds 22 1007 30 10000 4.1 260 16:22 27.04.2020
4110 Clouds 21 1007 30 10000 4.1 260 15:57 27.04.2020
4111 Clouds 21 1007 30 10000 4.1 260 15:57 27.04.2020
4112 Clouds 21 1007 30 10000 4.1 230 15:38 27.04.2020
4113 Clouds 21 1007 28 10000 4.1 260 15:19 27.04.2020
4114 Clouds 21 1007 28 10000 4.1 260 14:58 27.04.2020
4115 Clouds 21 1007 28 10000 4.1 260 14:58 27.04.2020
4116 Clouds 21 1007 30 10000 3.1 0 14:40 27.04.2020
4117 Clouds 21 1008 34 10000 3.1 0 14:19 27.04.2020
4118 Clouds 21 1008 34 10000 3.1 0 13:57 27.04.2020
4119 Clouds 20 1008 34 10000 3.6 270 13:37 27.04.2020
4120 Clouds 20 1008 34 10000 3.6 270 13:18 27.04.2020
4121 Clouds 19 1008 39 10000 2.6 0 12:43 27.04.2020
4122 Clouds 18 1008 42 10000 2.1 300 12:21 27.04.2020
4123 Clouds 17 1008 42 10000 2.1 300 11:55 27.04.2020
4124 Clouds 17 1009 48 10000 1 0 11:37 27.04.2020
4125 Clouds 17 1009 48 10000 1 0 11:18 27.04.2020
4126 Clouds 15 1009 50 10000 1 0 10:42 27.04.2020
4127 Clouds 14 1009 58 10000 1.5 150 10:24 27.04.2020
4128 Clouds 14 1009 58 10000 1.5 150 10:24 27.04.2020
4129 Clouds 13 1009 66 10000 2.1 140 09:58 27.04.2020
4130 Clear 11 1009 66 10000 2.1 140 09:39 27.04.2020
4131 Clear 11 1009 70 10000 1 0 09:18 27.04.2020
4132 Clear 8 1009 93 10000 1.5 150 08:52 27.04.2020
4133 Clear 7 1009 93 10000 1.5 150 08:32 27.04.2020
4134 Clear 6 1009 86 10000 0.5 0 07:45 27.04.2020
4135 Clear 6 1009 86 10000 0.5 0 07:27 27.04.2020
4136 Clear 6 1009 93 10000 0.5 0 06:58 27.04.2020
4137 Clear 6 1009 93 10000 2.1 150 06:30 27.04.2020
4138 Clear 6 1009 93 10000 1 150 05:57 27.04.2020
4139 Clear 7 1009 86 10000 0.5 0 05:21 27.04.2020
4140 Clear 7 1009 86 10000 0.5 0 04:40 27.04.2020
4141 Clear 8 1010 86 10000 1 0 03:47 27.04.2020
4142 Clear 9 1010 81 10000 0.5 60 02:35 27.04.2020
4143 Clear 10 1010 75 10000 0.5 0 01:20 27.04.2020
4144 Clear 10 1010 70 10000 1.5 70 00:40 27.04.2020
4145 Clear 11 1010 70 10000 1.5 70 00:19 27.04.2020
4146 Clear 11 1010 61 10000 1 0 23:55 26.04.2020
4147 Clear 11 1010 61 10000 1 0 23:37 26.04.2020
4148 Clear 13 1010 61 10000 1 0 23:18 26.04.2020
4149 Clear 12 1010 54 10000 1.5 50 22:55 26.04.2020
4150 Clear 14 1010 57 10000 1 0 22:37 26.04.2020
4151 Clear 14 1009 50 10000 1.5 10 22:18 26.04.2020
4152 Clear 15 1009 41 10000 2.1 360 21:55 26.04.2020
4153 Clear 15 1009 41 10000 2.1 360 21:37 26.04.2020
4154 Clear 16 1009 41 10000 2.1 360 21:18 26.04.2020
4155 Clear 17 1009 33 10000 2.6 340 20:39 26.04.2020
4156 Clear 18 1009 33 10000 2.6 340 20:20 26.04.2020
4157 Clear 19 1009 29 10000 3.1 330 19:59 26.04.2020
4158 Clear 19 1009 29 10000 3.1 340 19:38 26.04.2020
4159 Clear 19 1009 29 10000 3.1 340 19:19 26.04.2020
4160 Clear 20 1009 28 10000 2.1 0 18:45 26.04.2020
4161 Clear 20 1009 28 10000 2.1 0 18:25 26.04.2020
4162 Clear 20 1009 27 10000 1.5 0 17:58 26.04.2020
4163 Clear 20 1009 22 10000 1 0 17:39 26.04.2020
4164 Clear 20 1010 28 10000 2.6 240 17:21 26.04.2020
4165 Clear 20 1010 24 10000 1.5 120 16:42 26.04.2020
4166 Clear 20 1010 24 10000 1.5 120 16:24 26.04.2020
4167 Clear 19 1010 29 10000 3.1 280 15:59 26.04.2020
4168 Clear 19 1010 29 10000 3.1 280 15:59 26.04.2020
4169 Clear 19 1010 29 10000 3.1 280 15:59 26.04.2020
4170 Clear 19 1010 32 10000 2.1 0 15:41 26.04.2020
4171 Clear 19 1010 32 10000 2.1 0 15:41 26.04.2020
4172 Clear 19 1010 32 10000 2.1 0 15:22 26.04.2020
4173 Clear 19 1011 34 10000 3.1 0 14:58 26.04.2020
4174 Clear 19 1011 34 10000 3.1 0 14:39 26.04.2020
4175 Clear 18 1011 36 10000 2.6 0 14:18 26.04.2020
4176 Clear 18 1011 36 10000 2.6 0 13:57 26.04.2020
4177 Clear 18 1011 39 10000 2.1 0 13:38 26.04.2020
4178 Clear 17 1012 44 10000 2.1 0 13:19 26.04.2020
4179 Clear 16 1012 44 10000 2.1 0 12:54 26.04.2020
4180 Clear 16 1012 44 10000 2.1 0 12:36 26.04.2020
4181 Clear 15 1012 44 10000 1.5 0 12:18 26.04.2020
4182 Clear 14 1012 50 10000 1.5 0 11:41 26.04.2020
4183 Clear 14 1012 50 10000 1.5 0 11:23 26.04.2020
4184 Clear 13 1012 54 10000 1 0 10:59 26.04.2020
4185 Clear 13 1012 62 10000 1.5 140 10:41 26.04.2020
4186 Clear 12 1012 62 10000 1.5 140 10:22 26.04.2020
4187 Clear 11 1012 70 10000 1 0 09:57 26.04.2020
4188 Clear 9 1012 75 10000 1.5 140 09:37 26.04.2020
4189 Clear 8 1012 87 10000 2.1 150 09:18 26.04.2020
4190 Clear 6 1012 93 10000 1 0 08:41 26.04.2020
4191 Clear 6 1012 93 10000 0.5 90 08:22 26.04.2020
4192 Clear 5 1012 93 10000 0.5 90 07:48 26.04.2020
4193 Clouds 5 1011 86 10000 3.1 250 07:23 26.04.2020
4194 Clear 5 1011 100 10000 1 0 06:47 26.04.2020
4195 Clear 5 1012 93 10000 1.5 50 06:23 26.04.2020
4196 Clear 5 1012 93 10000 1.5 50 05:49 26.04.2020
4197 Clear 6 1012 93 10000 0.5 0 05:30 26.04.2020
4198 Clear 6 1012 93 10000 1.5 60 04:37 26.04.2020
4199 Clear 7 1012 80 10000 1 0 03:39 26.04.2020
4200 Clear 8 1011 86 10000 0.5 0 02:37 26.04.2020
4201 Clear 8 1012 80 10000 1.5 150 02:19 26.04.2020
4202 Clear 8 1012 86 10000 1 0 01:36 26.04.2020
4203 Clear 9 1012 75 10000 3.1 60 00:41 26.04.2020
4204 Clear 10 1012 75 10000 3.1 60 00:21 26.04.2020
4205 Clear 10 1012 75 10000 3.1 60 00:21 26.04.2020
4206 Clear 10 1011 66 10000 2.1 60 23:56 25.04.2020
4207 Clear 10 1011 66 10000 2.1 60 23:37 25.04.2020
4208 Clear 11 1011 66 10000 2.1 60 23:18 25.04.2020
4209 Clear 12 1011 61 10000 1.5 10 22:42 25.04.2020
4210 Clear 12 1011 57 10000 2.6 360 22:21 25.04.2020
4211 Clear 13 1011 57 10000 2.6 360 21:58 25.04.2020
4212 Clear 13 1011 50 10000 3.1 330 21:39 25.04.2020
4213 Clouds 14 1011 50 10000 3.6 320 21:19 25.04.2020
4214 Clouds 14 1011 50 10000 3.6 320 20:54 25.04.2020
4215 Clouds 15 1011 44 10000 4.1 320 20:36 25.04.2020
4216 Clouds 16 1011 38 10000 4.1 300 20:18 25.04.2020
4217 Clouds 16 1011 41 10000 3.6 290 19:40 25.04.2020
4218 Clouds 16 1011 41 10000 3.6 290 19:22 25.04.2020
4219 Clouds 17 1011 39 10000 3.1 280 18:57 25.04.2020
4220 Clouds 16 1011 36 10000 3.1 270 18:38 25.04.2020
4221 Clouds 17 1011 36 10000 3.1 270 18:19 25.04.2020
4222 Clouds 17 1012 38 10000 3.6 310 17:55 25.04.2020
4223 Clouds 16 1012 38 10000 3.6 310 17:37 25.04.2020
4224 Clouds 17 1012 38 10000 3.6 310 17:18 25.04.2020
4225 Clouds 16 1012 41 10000 3.1 320 16:48 25.04.2020
4226 Clouds 16 1012 38 10000 3.6 310 16:28 25.04.2020
4227 Clouds 16 1012 38 10000 3.6 0 15:59 25.04.2020
4228 Clouds 15 1013 41 10000 3.1 0 15:39 25.04.2020
4229 Clouds 15 1013 41 10000 1.5 0 15:19 25.04.2020
4230 Clouds 15 1013 41 10000 1.5 0 14:58 25.04.2020
4231 Clouds 14 1013 41 10000 3.1 290 14:38 25.04.2020
4232 Clouds 15 1013 41 10000 3.1 290 14:19 25.04.2020
4233 Clouds 13 1014 47 10000 2.6 0 13:43 25.04.2020
4234 Clouds 13 1014 47 10000 2.6 0 13:19 25.04.2020
4235 Clouds 13 1014 54 10000 3.1 270 12:58 25.04.2020
4236 Clouds 12 1014 53 10000 3.6 310 12:40 25.04.2020
4237 Clouds 11 1014 53 10000 3.6 310 12:20 25.04.2020
4238 Clouds 11 1015 50 10000 2.1 0 11:57 25.04.2020
4239 Clouds 11 1015 54 10000 3.1 30 11:39 25.04.2020
4240 Clouds 10 1015 61 10000 2.6 40 11:20 25.04.2020
4241 Clouds 10 1015 61 10000 2.1 20 10:43 25.04.2020
4242 Clouds 9 1015 61 10000 2.1 20 10:23 25.04.2020
4243 Clouds 9 1014 61 10000 2.1 10 09:48 25.04.2020
4244 Clouds 8 1014 65 10000 3.1 20 09:29 25.04.2020
4245 Clouds 8 1014 70 10000 2.6 340 08:59 25.04.2020
4246 Clouds 8 1014 70 10000 1.5 310 08:40 25.04.2020
4247 Clouds 8 1014 70 10000 1.5 310 08:21 25.04.2020
4248 Clouds 8 1014 75 10000 1.5 320 07:58 25.04.2020
4249 Clouds 8 1014 75 10000 2.6 340 07:40 25.04.2020
4250 Clouds 7 1014 75 10000 2.6 330 06:56 25.04.2020
4251 Clouds 7 1013 75 10000 3.6 330 06:36 25.04.2020
4252 Clouds 7 1013 81 10000 5.1 320 05:42 25.04.2020
4253 Clouds 7 1013 81 10000 5.1 320 05:23 25.04.2020
4254 Clouds 8 1012 75 10000 3.6 330 03:29 25.04.2020
4255 Clear 9 1012 75 10000 3.1 340 02:28 25.04.2020
4256 Clear 10 1012 70 10000 3.1 330 01:56 25.04.2020
4257 Clear 10 1012 61 10000 3.6 330 01:37 25.04.2020
4258 Clear 11 1012 61 10000 3.6 330 01:18 25.04.2020
4259 Clouds 12 1012 57 10000 3.6 330 00:38 25.04.2020
4260 Clouds 13 1012 54 10000 4.1 340 23:59 24.04.2020
4261 Clouds 13 1011 54 10000 4.1 340 23:40 24.04.2020
4262 Clouds 13 1011 46 10000 2.1 340 23:20 24.04.2020
4263 Clouds 15 1011 53 10000 2.6 330 22:41 24.04.2020
4264 Clouds 15 1011 53 10000 2.6 330 22:20 24.04.2020
4265 Clouds 15 1011 53 10000 2.6 330 21:59 24.04.2020
4266 Clouds 16 1011 38 10000 3.6 330 21:40 24.04.2020
4267 Clouds 16 1011 38 10000 3.6 330 21:22 24.04.2020
4268 Clouds 17 1011 39 10000 4.6 330 20:58 24.04.2020
4269 Clouds 17 1010 36 10000 5.1 330 20:40 24.04.2020
4270 Clouds 18 1010 36 10000 5.1 330 20:19 24.04.2020
4271 Clouds 19 1011 32 10000 6.2 310 19:47 24.04.2020
4272 Clouds 20 1011 32 10000 6.2 310 19:28 24.04.2020
4273 Clouds 20 1011 34 10000 5.7 320 18:58 24.04.2020
4274 Clouds 20 1011 37 10000 6.2 320 18:38 24.04.2020
4275 Clouds 21 1011 37 10000 7.7 300 18:20 24.04.2020
4276 Clouds 21 1011 37 10000 5.7 320 17:43 24.04.2020
4277 Clouds 20 1011 37 10000 6.7 320 17:24 24.04.2020
4278 Clouds 20 1011 37 10000 6.7 320 16:59 24.04.2020
4279 Clouds 20 1011 40 10000 5.1 330 16:41 24.04.2020
4280 Clouds 20 1011 37 10000 5.1 300 16:22 24.04.2020
4281 Clouds 20 1011 37 10000 5.1 300 15:59 24.04.2020
4282 Clouds 20 1012 35 10000 6.2 310 15:38 24.04.2020
4283 Clouds 20 1012 35 10000 6.2 310 15:18 24.04.2020
4284 Clouds 20 1012 37 10000 6.2 300 14:40 24.04.2020
4285 Clouds 20 1012 40 10000 6.2 310 14:21 24.04.2020
4286 Clouds 20 1012 40 10000 6.2 310 13:57 24.04.2020
4287 Clouds 20 1012 40 10000 5.7 300 13:38 24.04.2020
4288 Clouds 20 1013 42 10000 4.6 300 13:20 24.04.2020
4289 Clouds 19 1013 42 10000 3.6 280 12:42 24.04.2020
4290 Clouds 18 1013 42 10000 3.6 280 12:24 24.04.2020
4291 Clouds 18 1013 45 10000 3.1 280 11:58 24.04.2020
4292 Clouds 17 1013 51 10000 2.1 290 11:39 24.04.2020
4293 Clouds 17 1013 51 10000 2.1 290 11:20 24.04.2020
4294 Clouds 16 1013 51 10000 2.6 280 10:56 24.04.2020
4295 Clouds 15 1013 51 10000 3.6 270 10:37 24.04.2020
4296 Clouds 15 1013 51 10000 3.6 270 10:19 24.04.2020
4297 Clouds 13 1013 62 10000 1 0 09:46 24.04.2020
4298 Clouds 13 1013 62 10000 1 0 09:24 24.04.2020
4299 Clouds 12 1013 81 10000 0.5 0 08:58 24.04.2020
4300 Clouds 11 1013 66 10000 0.5 260 08:40 24.04.2020
4301 Clouds 11 1013 66 10000 0.5 260 08:18 24.04.2020
4302 Clouds 10 1013 66 10000 0.5 260 07:47 24.04.2020
4303 Clouds 9 1013 86 10000 0.5 0 07:27 24.04.2020
4304 Clouds 9 1013 86 10000 1.24 262 06:59 24.04.2020
4305 Clouds 9 1013 81 10000 2.1 60 06:40 24.04.2020
4306 Clouds 9 1013 81 10000 1 0 05:49 24.04.2020
4307 Clouds 10 1014 75 10000 0.5 0 04:46 24.04.2020
4308 Clouds 11 1014 75 10000 0.5 0 03:28 24.04.2020
4309 Clouds 11 1014 70 10000 0.5 0 02:47 24.04.2020
4310 Clouds 12 1015 70 10000 0.5 0 02:20 24.04.2020
4311 Clouds 12 1015 70 10000 0.5 0 01:37 24.04.2020
4312 Clouds 13 1015 61 10000 0.5 0 00:46 24.04.2020
4313 Clouds 14 1015 57 10000 0.5 0 00:18 24.04.2020
4314 Clouds 14 1016 54 10000 1 0 23:46 23.04.2020
4315 Clouds 15 1016 54 10000 1 0 23:27 23.04.2020
4316 Clouds 15 1016 44 10000 1 0 22:57 23.04.2020
4317 Clouds 16 1016 41 10000 1 0 22:38 23.04.2020
4318 Clouds 16 1016 41 10000 1 0 22:19 23.04.2020
4319 Clouds 17 1016 50 10000 0.5 0 21:57 23.04.2020
4320 Clouds 18 1016 39 10000 0.5 110 21:39 23.04.2020
4321 Clouds 19 1016 39 10000 0.5 110 21:20 23.04.2020
4322 Clouds 20 1016 34 10000 1.5 100 20:56 23.04.2020
4323 Clouds 21 1016 32 10000 1.5 100 20:38 23.04.2020
4324 Clouds 22 1016 26 10000 2.1 90 20:19 23.04.2020
4325 Clouds 22 1016 28 10000 2.1 130 19:56 23.04.2020
4326 Clouds 22 1016 26 10000 3.1 150 19:38 23.04.2020
4327 Clouds 23 1016 23 10000 3.1 160 19:19 23.04.2020
4328 Clouds 24 1017 25 10000 3.6 160 18:41 23.04.2020
4329 Clear 24 1017 25 10000 4.6 170 18:23 23.04.2020
4330 Clear 24 1017 25 10000 4.6 170 17:58 23.04.2020
4331 Clear 24 1017 25 10000 4.6 160 17:39 23.04.2020
4332 Clear 24 1017 25 10000 5.1 160 17:21 23.04.2020
4333 Clear 24 1017 25 10000 5.1 160 16:56 23.04.2020
4334 Clear 23 1018 26 10000 4.6 160 16:38 23.04.2020
4335 Clear 23 1018 24 10000 4.6 180 16:18 23.04.2020
4336 Clear 22 1018 26 10000 4.6 160 15:42 23.04.2020
4337 Clear 23 1018 26 10000 4.6 160 15:22 23.04.2020
4338 Clear 22 1019 24 10000 6.2 160 14:56 23.04.2020
4339 Clear 22 1019 24 10000 6.2 160 14:37 23.04.2020
4340 Clear 22 1019 24 10000 6.2 160 14:19 23.04.2020
4341 Clear 22 1019 26 10000 4.1 140 13:55 23.04.2020
4342 Clear 22 1019 26 10000 4.1 140 13:36 23.04.2020
4343 Clear 22 1019 26 10000 4.1 140 13:36 23.04.2020
4344 Clear 21 1020 30 10000 4.6 140 13:18 23.04.2020
4345 Clear 21 1020 30 10000 4.6 110 12:42 23.04.2020
4346 Clear 20 1020 30 10000 4.6 110 12:24 23.04.2020
4347 Clear 19 1020 29 10000 5.1 130 11:56 23.04.2020
4348 Clear 19 1021 31 10000 4.1 110 11:38 23.04.2020
4349 Clear 18 1020 33 10000 3.6 120 11:18 23.04.2020
4350 Clear 18 1020 33 10000 3.6 120 11:18 23.04.2020
4351 Clear 17 1021 36 10000 4.1 130 10:41 23.04.2020
4352 Clear 16 1021 41 10000 3.1 110 10:21 23.04.2020
4353 Clear 16 1021 41 10000 3.1 110 09:55 23.04.2020
4354 Clear 13 1021 44 10000 3.1 120 09:37 23.04.2020
4355 Clear 12 1021 54 10000 0.5 0 09:18 23.04.2020
4356 Clear 11 1021 66 10000 1.5 130 08:42 23.04.2020
4357 Clear 10 1021 66 10000 1.5 130 08:23 23.04.2020
4358 Clear 9 1020 75 10000 0.5 0 07:42 23.04.2020
4359 Clear 8 1020 75 10000 0.5 0 07:23 23.04.2020
4360 Clear 9 1020 61 10000 2.6 90 06:49 23.04.2020
4361 Clear 8 1020 70 10000 0.5 0 06:22 23.04.2020
4362 Clear 9 1020 75 10000 1 0 05:31 23.04.2020
4363 Clear 10 1020 57 10000 2.1 130 04:52 23.04.2020
4364 Clear 13 1020 46 10000 2.6 100 02:25 23.04.2020
4365 Clear 13 1020 43 10000 2.6 120 01:49 23.04.2020
4366 Clear 14 1020 41 10000 2.6 120 01:28 23.04.2020
4367 Clear 15 1020 41 10000 3.6 90 00:47 23.04.2020
4368 Clear 15 1020 41 10000 3.6 90 00:22 23.04.2020
4369 Clear 15 1019 38 10000 3.6 80 23:50 22.04.2020
4370 Clear 16 1019 55 10000 4.1 80 23:24 22.04.2020
4371 Clear 16 1019 55 10000 4.1 80 22:58 22.04.2020
4372 Clear 17 1019 55 10000 3.6 80 22:38 22.04.2020
4373 Clear 17 1019 55 10000 3.6 80 22:19 22.04.2020
4374 Clear 18 1019 55 10000 3.1 90 21:56 22.04.2020
4375 Clear 19 1018 44 10000 3.6 80 21:38 22.04.2020
4376 Clear 19 1018 25 10000 3.6 80 21:20 22.04.2020
4377 Clear 19 1018 25 10000 3.6 80 20:54 22.04.2020
4378 Clear 21 1018 21 10000 3.6 80 20:36 22.04.2020
4379 Clear 21 1017 21 10000 4.6 80 20:18 22.04.2020
4380 Clear 21 1017 21 10000 4.6 80 19:54 22.04.2020
4381 Clear 21 1017 21 10000 4.6 80 19:54 22.04.2020
4382 Clear 22 1017 19 10000 5.1 70 19:36 22.04.2020
4383 Clear 22 1017 19 10000 5.1 70 19:36 22.04.2020
4384 Clear 22 1017 19 10000 5.1 70 19:18 22.04.2020
4385 Clear 23 1017 17 10000 4.6 100 18:55 22.04.2020
4386 Clear 23 1017 17 10000 4.6 80 18:37 22.04.2020
4387 Clear 23 1017 17 10000 5.7 80 18:18 22.04.2020
4388 Clear 23 1017 16 10000 4.6 100 17:42 22.04.2020
4389 Clear 23 1017 16 10000 5.7 90 17:23 22.04.2020
4390 Clear 23 1017 17 10000 5.7 100 16:47 22.04.2020
4391 Clear 23 1017 17 10000 5.7 100 16:28 22.04.2020
4392 Clear 23 1018 17 10000 5.7 100 15:59 22.04.2020
4393 Clear 23 1018 17 10000 5.1 70 15:38 22.04.2020
4394 Clear 23 1018 17 10000 5.1 70 15:19 22.04.2020
4395 Clear 22 1018 18 10000 6.2 110 14:56 22.04.2020
4396 Clear 22 1018 18 10000 5.7 70 14:36 22.04.2020
4397 Clear 22 1018 18 10000 5.7 70 14:18 22.04.2020
4398 Clear 22 1018 19 10000 6.7 80 13:43 22.04.2020
4399 Clear 21 1019 22 10000 6.2 80 13:20 22.04.2020
4400 Clear 20 1019 25 10000 5.1 100 12:43 22.04.2020
4401 Clear 18 1019 25 10000 5.1 100 12:24 22.04.2020
4402 Clear 19 1019 27 10000 5.1 100 11:58 22.04.2020
4403 Clear 18 1019 27 10000 5.1 100 11:58 22.04.2020
4404 Clear 18 1019 29 10000 5.7 100 11:39 22.04.2020
4405 Clear 18 1019 29 10000 5.7 100 11:39 22.04.2020
4406 Clear 18 1019 29 10000 5.7 100 11:20 22.04.2020
4407 Clear 16 1019 37 10000 4.1 80 10:45 22.04.2020
4408 Clear 15 1019 37 10000 4.1 80 10:25 22.04.2020
4409 Clear 15 1019 37 10000 5.1 80 09:56 22.04.2020
4410 Clear 12 1019 41 10000 4.1 90 09:38 22.04.2020
4411 Clear 12 1019 54 10000 4.1 80 09:19 22.04.2020
4412 Clear 11 1019 54 10000 4.1 80 08:54 22.04.2020
4413 Clear 11 1019 54 10000 4.1 80 08:54 22.04.2020
4414 Clear 11 1019 54 10000 2.6 80 08:36 22.04.2020
4415 Clear 11 1019 54 10000 2.6 80 08:18 22.04.2020
4416 Clear 10 1019 54 10000 4.1 70 07:46 22.04.2020
4417 Clear 10 1019 54 10000 4.1 70 07:22 22.04.2020
4418 Clear 10 1019 54 10000 3.1 70 06:45 22.04.2020
4419 Clear 11 1018 57 10000 4.1 70 05:47 22.04.2020
4420 Clear 11 1018 57 10000 4.1 70 05:23 22.04.2020
4421 Clear 12 1018 57 10000 3.6 90 03:55 22.04.2020
4422 Clear 13 1018 57 10000 3.6 90 02:37 22.04.2020
4423 Clear 13 1018 52 10000 5.1 90 01:43 22.04.2020
4424 Clear 14 1018 52 10000 5.1 90 01:24 22.04.2020
4425 Clear 14 1018 52 10000 4.1 80 00:46 22.04.2020
4426 Clear 14 1017 53 10000 3.6 70 00:22 22.04.2020
4427 Clear 15 1017 53 10000 3.6 70 23:56 21.04.2020
4428 Clear 15 1017 53 10000 3.6 80 23:37 21.04.2020
4429 Clear 15 1017 53 10000 2.6 70 23:18 21.04.2020
4430 Clear 16 1017 53 10000 1.5 50 22:40 21.04.2020
4431 Clear 16 1017 53 10000 3.6 70 22:21 21.04.2020
4432 Clear 16 1017 53 10000 3.6 70 21:58 21.04.2020
4433 Clear 17 1016 53 10000 3.6 70 21:40 21.04.2020
4434 Clear 17 1016 46 10000 3.6 70 21:22 21.04.2020
4435 Clear 18 1016 46 10000 6.2 80 20:54 21.04.2020
4436 Clear 19 1016 46 10000 6.2 80 20:36 21.04.2020
4437 Clear 19 1016 46 10000 6.2 80 20:36 21.04.2020
4438 Clear 19 1015 25 10000 6.2 80 20:18 21.04.2020
4439 Clear 20 1015 24 10000 6.2 80 19:40 21.04.2020
4440 Clear 20 1015 24 10000 6.2 80 19:19 21.04.2020
4441 Clear 20 1015 22 10000 5.7 100 18:57 21.04.2020
4442 Clear 21 1015 22 10000 7.2 120 18:38 21.04.2020
4443 Clear 21 1015 21 10000 6.2 100 18:19 21.04.2020
4444 Clear 21 1015 21 10000 6.2 100 17:55 21.04.2020
4445 Clear 21 1015 21 10000 6.7 80 17:37 21.04.2020
4446 Clear 21 1015 21 10000 6.7 80 17:18 21.04.2020
4447 Clear 21 1015 19 10000 6.2 110 16:39 21.04.2020
4448 Clear 21 1015 19 10000 6.2 110 16:19 21.04.2020
4449 Clear 21 1015 19 10000 6.2 90 15:57 21.04.2020
4450 Clear 21 1015 19 10000 7.7 70 15:39 21.04.2020
4451 Clear 21 1015 19 10000 7.7 70 15:21 21.04.2020
4452 Clear 20 1016 20 10000 8.7 80 14:57 21.04.2020
4453 Clear 20 1016 19 10000 8.2 70 14:39 21.04.2020
4454 Clear 19 1016 20 10000 7.2 90 14:21 21.04.2020
4455 Clear 19 1016 20 10000 7.2 90 13:42 21.04.2020
4456 Clear 19 1016 20 10000 7.2 90 13:42 21.04.2020
4457 Clear 19 1016 20 10000 7.2 90 13:23 21.04.2020
4458 Clear 19 1016 22 10000 6.7 80 12:57 21.04.2020
4459 Clear 19 1016 22 10000 6.2 100 12:37 21.04.2020
4460 Clear 18 1016 25 10000 8.2 100 12:18 21.04.2020
4461 Clear 17 1016 25 10000 8.2 100 11:55 21.04.2020
4462 Clear 17 1016 25 10000 8.2 100 11:55 21.04.2020
4463 Clear 17 1016 26 10000 8.2 90 11:36 21.04.2020
4464 Clear 16 1017 28 10000 6.7 80 11:18 21.04.2020
4465 Clear 16 1017 28 10000 6.7 80 10:56 21.04.2020
4466 Clear 14 1017 33 10000 6.2 80 10:38 21.04.2020
4467 Clear 14 1017 33 10000 6.2 80 10:20 21.04.2020
4468 Clear 11 1017 40 10000 4.6 90 09:37 21.04.2020
4469 Clear 11 1017 40 10000 4.6 90 09:19 21.04.2020
4470 Clear 11 1017 43 10000 2.6 90 08:57 21.04.2020
4471 Clear 11 1016 46 10000 4.1 70 08:39 21.04.2020
4472 Clear 10 1016 49 10000 4.1 70 08:19 21.04.2020
4473 Clear 9 1016 49 10000 3.6 80 07:44 21.04.2020
4474 Clear 9 1016 49 10000 2.6 80 07:22 21.04.2020
4475 Clear 9 1016 49 10000 2.1 90 06:49 21.04.2020
4476 Clear 9 1016 49 10000 2.1 90 06:20 21.04.2020
4477 Clear 9 1016 49 10000 2.6 90 05:49 21.04.2020
4478 Clear 10 1016 43 10000 2.1 110 04:21 21.04.2020
4479 Clear 10 1017 43 10000 3.6 80 03:44 21.04.2020
4480 Clear 12 1017 34 10000 3.6 90 01:46 21.04.2020
4481 Clear 12 1017 34 10000 3.6 90 01:28 21.04.2020
4482 Clear 13 1017 34 10000 6.2 80 00:37 21.04.2020
4483 Clear 13 1017 35 10000 5.7 80 23:47 20.04.2020
4484 Clear 13 1017 35 10000 5.7 80 23:25 20.04.2020
4485 Clear 14 1017 32 10000 5.1 80 22:58 20.04.2020
4486 Clear 14 1017 30 10000 4.1 80 22:40 20.04.2020
4487 Clear 15 1017 30 10000 4.1 80 22:21 20.04.2020
4488 Clear 15 1017 30 10000 5.7 70 21:58 20.04.2020
4489 Clear 15 1016 28 10000 5.1 80 21:39 20.04.2020
4490 Clear 16 1016 29 10000 5.1 80 21:20 20.04.2020
4491 Clear 16 1016 29 10000 5.1 80 20:59 20.04.2020
4492 Clear 17 1016 27 10000 6.2 80 20:40 20.04.2020
4493 Clear 17 1016 27 10000 6.2 80 20:19 20.04.2020
4494 Clear 18 1015 25 10000 6.7 70 19:59 20.04.2020
4495 Clear 18 1015 25 10000 6.7 70 19:59 20.04.2020
4496 Clear 19 1015 25 10000 5.7 90 19:39 20.04.2020
4497 Clear 19 1015 25 10000 5.7 90 19:39 20.04.2020
4498 Clear 18 1015 25 10000 5.7 90 19:19 20.04.2020
4499 Clear 19 1015 22 10000 7.7 80 18:54 20.04.2020
4500 Clear 19 1015 22 10000 6.2 90 18:36 20.04.2020
4501 Clear 19 1015 22 10000 6.2 90 18:18 20.04.2020
4502 Clear 19 1015 20 10000 6.7 100 17:43 20.04.2020
4503 Clear 19 1015 20 10000 6.7 100 17:22 20.04.2020
4504 Clear 20 1015 20 10000 6.7 100 16:59 20.04.2020
4505 Clear 20 1015 19 10000 6.7 100 16:40 20.04.2020
4506 Clear 20 1015 19 10000 6.7 100 16:19 20.04.2020
4507 Clear 19 1016 19 10000 6.7 100 15:55 20.04.2020
4508 Clear 19 1016 18 10000 7.7 80 15:36 20.04.2020
4509 Clear 19 1016 18 10000 7.7 80 15:36 20.04.2020
4510 Clear 19 1016 19 10000 6.2 80 15:18 20.04.2020
4511 Clear 19 1016 19 10000 6.2 80 15:18 20.04.2020
4512 Clear 19 1017 22 10000 7.2 80 14:41 20.04.2020
4513 Clear 18 1017 22 10000 6.7 90 14:19 20.04.2020
4514 Clear 18 1017 22 10000 6.7 90 13:57 20.04.2020
4515 Clear 18 1018 27 10000 6.2 80 13:38 20.04.2020
4516 Clear 18 1018 27 10000 6.2 80 13:20 20.04.2020
4517 Clear 18 1018 29 10000 6.2 100 12:44 20.04.2020
4518 Clear 17 1018 29 10000 6.7 80 12:22 20.04.2020
4519 Clear 17 1018 29 10000 6.7 80 11:57 20.04.2020
4520 Clear 16 1018 33 10000 7.2 120 11:38 20.04.2020
4521 Clear 16 1018 33 10000 7.2 120 11:18 20.04.2020
4522 Clear 15 1024 25 0 3.58 122 10:54 20.04.2020
4523 Clear 14 1019 37 10000 6.2 70 10:36 20.04.2020
4524 Clear 14 1019 40 10000 7.2 70 10:18 20.04.2020
4525 Clear 12 1019 40 10000 6.7 80 09:43 20.04.2020
4526 Clear 11 1019 43 10000 5.7 80 09:25 20.04.2020
4527 Clear 11 1019 43 10000 5.7 80 08:58 20.04.2020
4528 Clear 10 1018 45 10000 6.2 80 08:39 20.04.2020
4529 Clear 10 1018 45 10000 5.7 70 08:18 20.04.2020
4530 Clear 9 1018 49 10000 5.1 80 07:51 20.04.2020
4531 Clear 9 1018 49 10000 5.1 80 07:28 20.04.2020
4532 Clear 8 1018 49 10000 4.1 80 06:38 20.04.2020
4533 Clear 8 1018 49 10000 4.1 80 06:38 20.04.2020
4534 Clear 8 1018 49 10000 4.1 80 06:20 20.04.2020
4535 Clear 9 1018 45 10000 4.1 70 05:22 20.04.2020
4536 Clear 9 1018 43 10000 2.6 90 03:30 20.04.2020
4537 Clear 10 1019 43 10000 3.1 80 02:38 20.04.2020
4538 Clear 11 1019 40 10000 4.1 70 01:31 20.04.2020
4539 Clear 11 1018 43 10000 4.6 70 00:57 20.04.2020
4540 Clear 12 1018 43 10000 4.1 80 00:33 20.04.2020
4541 Clear 13 1018 40 10000 4.6 70 23:55 19.04.2020
4542 Clear 13 1018 40 10000 3.6 70 23:37 19.04.2020
4543 Clear 13 1018 53 10000 3.1 70 23:18 19.04.2020
4544 Clear 14 1018 53 10000 3.6 90 22:39 19.04.2020
4545 Clear 14 1018 53 10000 3.6 90 22:39 19.04.2020
4546 Clear 14 1018 53 10000 3.6 90 22:21 19.04.2020
4547 Clear 15 1018 44 10000 4.1 80 21:57 19.04.2020
4548 Clear 15 1017 44 10000 3.6 80 21:38 19.04.2020
4549 Clouds 16 1017 48 10000 3.6 70 21:20 19.04.2020
4550 Clouds 17 1017 44 10000 4.1 80 20:41 19.04.2020
4551 Clouds 17 1017 44 10000 4.1 80 20:21 19.04.2020
4552 Clouds 17 1016 45 10000 4.1 90 19:59 19.04.2020
4553 Clouds 18 1016 39 10000 3.6 120 19:41 19.04.2020
4554 Clouds 18 1016 39 10000 3.6 120 19:22 19.04.2020
4555 Clouds 18 1016 45 10000 3.6 120 18:58 19.04.2020
4556 Clouds 18 1016 42 10000 3.6 110 18:39 19.04.2020
4557 Clouds 18 1016 42 10000 3.6 110 18:20 19.04.2020
4558 Clouds 18 1016 42 10000 5.1 90 17:58 19.04.2020
4559 Clouds 19 1016 48 10000 5.1 80 17:40 19.04.2020
4560 Clouds 19 1016 48 10000 5.1 80 17:21 19.04.2020
4561 Clouds 18 1016 48 10000 4.1 120 16:58 19.04.2020
4562 Clouds 19 1017 48 10000 3.6 100 16:38 19.04.2020
4563 Clouds 19 1017 48 10000 3.6 100 16:20 19.04.2020
4564 Clouds 17 1017 67 8000 2.1 50 15:43 19.04.2020
4565 Clouds 16 1017 67 8000 2.1 50 15:23 19.04.2020
4566 Clouds 15 1017 77 8000 1.5 0 14:56 19.04.2020
4567 Clouds 14 1018 82 6000 2.6 340 14:38 19.04.2020
4568 Clouds 14 1018 82 6000 2.6 340 14:19 19.04.2020
4569 Rain 13 1018 87 4200 2.1 320 13:41 19.04.2020
4570 Rain 13 1018 87 4200 2.1 320 13:22 19.04.2020
4571 Rain 13 1018 82 4000 2.6 320 12:59 19.04.2020
4572 Mist 13 1018 82 5000 2.1 310 12:41 19.04.2020
4573 Mist 13 1018 82 5000 2.1 310 12:23 19.04.2020
4574 Mist 13 1018 82 5000 2.1 310 12:23 19.04.2020
4575 Mist 13 1017 82 4500 2.6 310 11:39 19.04.2020
4576 Mist 12 1017 87 4500 3.1 320 11:20 19.04.2020
4577 Mist 12 1017 87 4500 3.1 320 10:58 19.04.2020
4578 Mist 12 1017 87 4000 2.1 330 10:40 19.04.2020
4579 Mist 12 1017 87 4000 2.1 330 10:20 19.04.2020
4580 Mist 12 1017 87 4200 2.6 340 09:47 19.04.2020
4581 Mist 12 1017 87 4200 2.6 340 09:28 19.04.2020
4582 Mist 12 1017 87 4200 2.6 330 08:59 19.04.2020
4583 Mist 12 1017 93 3800 2.1 360 08:38 19.04.2020
4584 Mist 12 1017 93 3800 2.1 10 08:18 19.04.2020
4585 Mist 11 1017 93 3800 1.5 10 07:44 19.04.2020
4586 Mist 11 1017 93 3800 1.5 10 07:25 19.04.2020
4587 Mist 11 1017 93 3800 1.5 10 07:25 19.04.2020
4588 Clouds 11 1017 93 7000 1.49 301 06:37 19.04.2020
4589 Clouds 11 1017 93 9000 1 0 06:18 19.04.2020
4590 Clouds 12 1017 93 10000 0.5 0 04:56 19.04.2020
4591 Clouds 11 1016 100 10000 1 0 03:24 19.04.2020
4592 Clouds 12 1016 93 10000 1 10 02:22 19.04.2020
4593 Clouds 12 1016 93 10000 1.5 40 01:39 19.04.2020
4594 Clouds 12 1016 93 10000 1.5 40 01:21 19.04.2020
4595 Clouds 12 1016 93 10000 0.5 0 00:40 19.04.2020
4596 Clouds 13 1016 93 10000 0.5 0 00:19 19.04.2020
4597 Clouds 13 1016 87 10000 1 60 23:41 18.04.2020
4598 Clouds 14 1016 87 10000 1 60 23:19 18.04.2020
4599 Clouds 15 1016 82 10000 1.39 305 22:43 18.04.2020
4600 Clouds 15 1016 82 10000 1.39 305 22:43 18.04.2020
4601 Clouds 15 1016 82 10000 1.39 305 22:24 18.04.2020
4602 Clouds 15 1016 77 10000 0.5 0 21:59 18.04.2020
4603 Clouds 15 1016 77 10000 1.5 360 21:41 18.04.2020
4604 Clouds 16 1016 77 10000 1.5 360 21:22 18.04.2020
4605 Clouds 16 1016 72 10000 2.6 360 20:59 18.04.2020
4606 Clouds 16 1016 67 10000 3.6 330 20:40 18.04.2020
4607 Clouds 16 1016 67 10000 3.6 330 20:21 18.04.2020
4608 Rain 17 1015 63 10000 3.6 330 19:43 18.04.2020
4609 Rain 17 1015 63 10000 3.6 330 19:25 18.04.2020
4610 Rain 17 1015 63 10000 3.6 330 19:25 18.04.2020
4611 Clouds 17 1015 67 10000 4.6 310 18:58 18.04.2020
4612 Clouds 17 1015 59 10000 5.7 300 18:36 18.04.2020
4613 Rain 17 1015 59 10000 4.6 300 18:18 18.04.2020
4614 Rain 17 1015 59 10000 4.6 310 17:41 18.04.2020
4615 Rain 17 1015 59 10000 4.6 310 17:21 18.04.2020
4616 Rain 17 1015 59 10000 4.6 320 16:56 18.04.2020
4617 Rain 17 1015 59 10000 5.1 300 16:36 18.04.2020
4618 Rain 18 1015 59 10000 5.1 300 16:18 18.04.2020
4619 Rain 18 1015 55 10000 4.1 310 15:38 18.04.2020
4620 Rain 20 1015 52 10000 6.2 300 15:20 18.04.2020
4621 Rain 19 1015 55 10000 4.1 270 14:45 18.04.2020
4622 Rain 18 1015 55 10000 4.1 270 14:26 18.04.2020
4623 Rain 20 1015 52 10000 3.6 290 13:56 18.04.2020
4624 Rain 20 1015 49 10000 3.6 280 13:38 18.04.2020
4625 Rain 20 1015 49 10000 3.6 280 13:18 18.04.2020
4626 Rain 20 1014 46 10000 2.1 170 12:41 18.04.2020
4627 Rain 19 1014 48 10000 2.1 150 12:22 18.04.2020
4628 Rain 19 1014 45 10000 2.6 180 11:43 18.04.2020
4629 Rain 19 1014 45 10000 2.6 180 11:24 18.04.2020
4630 Rain 19 1014 48 10000 2.6 150 10:58 18.04.2020
4631 Rain 18 1014 48 10000 3.1 140 10:39 18.04.2020
4632 Rain 17 1014 48 10000 3.1 140 10:19 18.04.2020
4633 Rain 15 1014 55 10000 2.1 120 09:55 18.04.2020
4634 Rain 13 1014 58 10000 1.5 120 09:37 18.04.2020
4635 Clouds 12 1014 62 10000 1 0 09:18 18.04.2020
4636 Clouds 12 1014 66 10000 1 0 08:39 18.04.2020
4637 Clouds 11 1014 66 10000 1 0 08:20 18.04.2020
4638 Clouds 11 1014 87 10000 1 0 07:38 18.04.2020
4639 Clouds 10 1014 87 10000 1.5 160 07:19 18.04.2020
4640 Clouds 10 1014 87 10000 0.5 0 06:30 18.04.2020
4641 Clouds 10 1014 76 10000 1.5 110 05:43 18.04.2020
4642 Clouds 11 1014 76 10000 2.6 150 04:47 18.04.2020
4643 Clouds 11 1014 76 10000 2.6 150 04:47 18.04.2020
4644 Clouds 11 1014 87 10000 1.5 170 04:28 18.04.2020
4645 Clouds 12 1014 76 10000 2.6 60 02:58 18.04.2020
4646 Clouds 12 1014 71 10000 1.5 50 02:40 18.04.2020
4647 Clouds 13 1014 71 10000 1.5 50 02:19 18.04.2020
4648 Clouds 13 1014 66 10000 0.5 0 01:36 18.04.2020
4649 Clouds 14 1014 66 10000 1 160 00:51 18.04.2020
4650 Clouds 14 1014 62 10000 0.5 0 00:24 18.04.2020
4651 Clouds 15 1014 62 10000 0.5 0 23:57 17.04.2020
4652 Clouds 15 1014 54 10000 1 0 23:39 17.04.2020
4653 Clouds 16 1014 54 10000 1 0 23:19 17.04.2020
4654 Clouds 16 1014 51 10000 3.1 60 22:56 17.04.2020
4655 Clouds 16 1014 48 10000 4.1 60 22:38 17.04.2020
4656 Clouds 16 1014 48 10000 4.1 60 22:19 17.04.2020
4657 Clouds 17 1014 48 10000 3.6 40 21:56 17.04.2020
4658 Clouds 18 1013 45 10000 3.1 30 21:37 17.04.2020
4659 Clouds 18 1013 45 10000 3.1 30 21:18 17.04.2020
4660 Clouds 19 1013 42 10000 3.1 20 20:54 17.04.2020
4661 Clouds 20 1013 42 10000 4.6 20 20:36 17.04.2020
4662 Clouds 20 1013 42 10000 4.6 20 20:18 17.04.2020
4663 Clouds 21 1014 37 10000 4.6 20 19:42 17.04.2020
4664 Clouds 22 1014 37 10000 4.6 20 19:23 17.04.2020
4665 Clouds 23 1013 35 10000 5.1 40 18:45 17.04.2020
4666 Clear 23 1013 35 10000 5.1 40 18:24 17.04.2020
4667 Clear 23 1013 35 10000 4.1 330 17:58 17.04.2020
4668 Clear 23 1014 31 10000 2.6 290 17:37 17.04.2020
4669 Clear 23 1014 31 10000 2.6 290 17:18 17.04.2020
4670 Clear 24 1014 31 10000 2.6 0 16:44 17.04.2020
4671 Clear 23 1014 33 10000 2.6 250 16:23 17.04.2020
4672 Clear 23 1014 31 10000 2.6 0 16:23 17.04.2020
4673 Clear 23 1014 33 10000 2.6 250 15:58 17.04.2020
4674 Clear 23 1014 35 10000 2.6 300 15:37 17.04.2020
4675 Clear 23 1015 33 10000 3.1 290 15:19 17.04.2020
4676 Clear 22 1015 35 10000 2.1 0 14:40 17.04.2020
4677 Clear 22 1015 40 10000 2.1 0 14:22 17.04.2020
4678 Clear 21 1015 40 10000 2.1 0 13:56 17.04.2020
4679 Clear 20 1015 40 10000 1.5 0 13:37 17.04.2020
4680 Clear 19 1016 45 10000 1.5 240 13:18 17.04.2020
4681 Clear 19 1016 42 10000 2.1 250 12:46 17.04.2020
4682 Clear 18 1016 42 10000 2.1 250 12:26 17.04.2020
4683 Clear 17 1016 48 10000 1.5 180 11:42 17.04.2020
4684 Clear 16 1016 48 10000 1.5 180 11:20 17.04.2020
4685 Clear 16 1016 48 10000 1.5 180 11:20 17.04.2020
4686 Clear 15 1016 54 10000 0.5 0 10:59 17.04.2020
4687 Clear 14 1016 54 10000 1 0 10:39 17.04.2020
4688 Clear 14 1016 58 10000 2.1 170 10:19 17.04.2020
4689 Clear 13 1016 58 10000 2.1 170 09:54 17.04.2020
4690 Clear 11 1017 71 10000 1 0 09:36 17.04.2020
4691 Clear 11 1016 81 10000 1.5 60 09:18 17.04.2020
4692 Clear 10 1016 81 10000 1.5 60 08:45 17.04.2020
4693 Clear 9 1016 81 10000 1 0 08:25 17.04.2020
4694 Clear 9 1016 87 10000 0.5 0 07:54 17.04.2020
4695 Clear 8 1016 81 10000 1 0 07:36 17.04.2020
4696 Clear 8 1016 81 10000 1 0 07:18 17.04.2020
4697 Clear 8 1016 81 10000 1.5 40 06:28 17.04.2020
4698 Clear 9 1016 75 10000 1 0 05:42 17.04.2020
4699 Clouds 11 1016 70 10000 2.1 60 03:22 17.04.2020
4700 Clouds 11 1016 66 10000 1.5 50 02:49 17.04.2020
4701 Clouds 13 1015 58 10000 2.1 60 01:30 17.04.2020
4702 Clouds 13 1015 62 10000 3.6 60 00:59 17.04.2020
4703 Clouds 13 1015 58 10000 3.6 50 00:20 17.04.2020
4704 Clouds 13 1015 54 10000 1.5 70 23:46 16.04.2020
4705 Clouds 15 1015 50 10000 2.6 50 23:24 16.04.2020
4706 Clouds 15 1015 47 10000 1 0 22:59 16.04.2020
4707 Clouds 15 1015 47 10000 1 0 22:59 16.04.2020
4708 Clouds 15 1015 47 10000 1 0 22:39 16.04.2020
4709 Clouds 16 1015 58 10000 1.5 190 22:21 16.04.2020
4710 Clouds 17 1014 47 10000 2.1 50 21:57 16.04.2020
4711 Clouds 18 1014 42 10000 1 50 21:39 16.04.2020
4712 Clouds 19 1014 42 10000 1 50 21:19 16.04.2020
4713 Clouds 19 1014 34 10000 2.1 360 20:42 16.04.2020
4714 Clouds 21 1014 34 10000 2.6 350 20:23 16.04.2020
4715 Clouds 21 1014 32 10000 3.6 340 19:59 16.04.2020
4716 Clouds 22 1014 32 10000 3.6 340 19:39 16.04.2020
4717 Clouds 22 1014 27 10000 3.6 340 19:20 16.04.2020
4718 Clouds 23 1014 27 10000 3.6 310 18:56 16.04.2020
4719 Clouds 23 1014 25 10000 4.1 300 18:38 16.04.2020
4720 Clouds 23 1014 25 10000 4.1 300 18:20 16.04.2020
4721 Clouds 23 1014 23 10000 3.6 300 17:45 16.04.2020
4722 Clouds 24 1014 25 10000 1 0 17:26 16.04.2020
4723 Clouds 23 1015 25 10000 1 0 17:00 16.04.2020
4724 Clouds 23 1015 25 10000 1 0 16:59 16.04.2020
4725 Clouds 23 1015 25 10000 1 0 16:41 16.04.2020
4726 Clouds 23 1015 25 10000 1.5 0 16:19 16.04.2020
4727 Clouds 23 1015 25 10000 3.1 280 15:44 16.04.2020
4728 Clouds 23 1015 25 10000 3.1 280 15:19 16.04.2020
4729 Clouds 22 1016 27 10000 2.1 250 14:58 16.04.2020
4730 Clouds 22 1016 27 10000 2.1 250 14:39 16.04.2020
4731 Clouds 22 1016 26 10000 1.5 0 14:19 16.04.2020
4732 Clouds 22 1016 26 10000 2.1 0 13:57 16.04.2020
4733 Clouds 21 1016 26 10000 2.1 0 13:37 16.04.2020
4734 Clouds 21 1016 36 10000 1 0 13:37 16.04.2020
4735 Clouds 21 1016 36 10000 1 0 13:19 16.04.2020
4736 Clouds 20 1016 28 10000 1.5 0 12:56 16.04.2020
4737 Clouds 20 1016 28 10000 1.5 0 12:56 16.04.2020
4738 Clouds 20 1016 28 10000 1.5 0 12:38 16.04.2020
4739 Clouds 18 1017 42 10000 1 0 12:19 16.04.2020
4740 Clouds 18 1017 42 10000 1 0 12:19 16.04.2020
4741 Clouds 18 1017 31 10000 1 0 11:55 16.04.2020
4742 Clouds 17 1017 36 10000 1.5 0 11:36 16.04.2020
4743 Clouds 17 1017 36 10000 1.5 0 11:18 16.04.2020
4744 Clouds 15 1017 38 10000 3.1 180 10:40 16.04.2020
4745 Clouds 15 1017 44 10000 2.6 140 10:19 16.04.2020
4746 Clouds 14 1017 43 10000 2.6 140 09:59 16.04.2020
4747 Clouds 11 1017 53 10000 2.1 140 09:38 16.04.2020
4748 Clouds 11 1017 53 10000 2.1 140 09:20 16.04.2020
4749 Clouds 9 1017 66 10000 2.6 150 08:45 16.04.2020
4750 Clouds 8 1017 75 10000 3.1 150 08:25 16.04.2020
4751 Clouds 8 1017 80 10000 2.6 130 07:58 16.04.2020
4752 Clouds 7 1017 56 10000 2.6 140 07:39 16.04.2020
4753 Clouds 7 1017 56 10000 2.6 140 07:20 16.04.2020
4754 Clouds 7 1018 56 10000 1 0 06:40 16.04.2020
4755 Clouds 7 1018 55 10000 1.5 80 06:22 16.04.2020
4756 Clouds 7 1019 65 10000 1.5 90 04:48 16.04.2020
4757 Clouds 8 1019 70 10000 1 0 03:25 16.04.2020
4758 Clouds 8 1019 57 10000 1.5 90 02:58 16.04.2020
4759 Clouds 8 1019 53 10000 2.1 0 02:34 16.04.2020
4760 Clouds 9 1020 57 10000 1.5 100 01:23 16.04.2020
4761 Clouds 9 1020 50 10000 2.6 90 00:53 16.04.2020
4762 Clouds 10 1020 50 10000 2.1 80 00:21 16.04.2020
4763 Clouds 10 1020 50 10000 0.5 0 23:54 15.04.2020
4764 Clouds 11 1020 53 10000 0.5 0 23:36 15.04.2020
4765 Clouds 11 1020 53 10000 0.5 0 23:18 15.04.2020
4766 Clouds 12 1020 47 10000 0.5 0 22:39 15.04.2020
4767 Clouds 12 1020 50 10000 1.5 70 22:20 15.04.2020
4768 Clouds 12 1020 57 10000 2.1 160 21:56 15.04.2020
4769 Clouds 13 1020 57 10000 2.1 160 21:38 15.04.2020
4770 Clouds 13 1020 57 10000 2.1 160 21:38 15.04.2020
4771 Clear 13 1020 41 10000 1.5 90 21:19 15.04.2020
4772 Clear 15 1020 44 10000 1.5 90 20:55 15.04.2020
4773 Clear 16 1020 44 10000 1.5 90 20:37 15.04.2020
4774 Clear 17 1020 31 10000 1.5 100 20:19 15.04.2020
4775 Clear 18 1020 44 10000 2.1 110 19:41 15.04.2020
4776 Clear 18 1021 27 10000 2.6 100 19:20 15.04.2020
4777 Clear 18 1021 27 10000 2.6 100 19:20 15.04.2020
4778 Clear 18 1021 27 10000 2.6 100 19:20 15.04.2020
4779 Clear 18 1021 44 10000 2.6 100 18:54 15.04.2020
4780 Clear 19 1021 29 10000 2.1 90 18:36 15.04.2020
4781 Clear 18 1021 29 10000 2.1 90 18:18 15.04.2020
4782 Clear 19 1022 29 10000 2.1 190 17:40 15.04.2020
4783 Clear 19 1021 29 10000 1 0 17:40 15.04.2020
4784 Clear 19 1022 29 10000 2.1 190 17:20 15.04.2020
4785 Clear 18 1022 27 10000 3.1 70 16:57 15.04.2020
4786 Clear 18 1022 27 10000 3.1 70 16:38 15.04.2020
4787 Clear 18 1022 27 10000 2.1 0 16:19 15.04.2020
4788 Clear 18 1022 27 10000 2.1 0 16:19 15.04.2020
4789 Clear 18 1022 29 10000 2.1 0 15:57 15.04.2020
4790 Clouds 17 1023 30 10000 2.1 220 15:39 15.04.2020
4791 Clouds 17 1023 30 10000 2.1 220 15:19 15.04.2020
4792 Clouds 17 1023 31 10000 2.6 120 14:58 15.04.2020
4793 Clouds 16 1023 31 10000 2.6 120 14:39 15.04.2020
4794 Clouds 16 1024 36 10000 2.6 0 14:39 15.04.2020
4795 Clouds 16 1024 36 10000 2.6 0 14:21 15.04.2020
4796 Clouds 15 1024 35 10000 2.1 160 13:58 15.04.2020
4797 Clouds 15 1024 35 10000 2.1 160 13:38 15.04.2020
4798 Clouds 14 1024 33 10000 3.1 120 13:20 15.04.2020
4799 Clouds 13 1025 35 10000 3.1 110 12:56 15.04.2020
4800 Clouds 13 1025 35 10000 3.1 110 12:38 15.04.2020
4801 Clouds 12 1025 37 10000 3.1 120 12:19 15.04.2020
4802 Clouds 11 1025 40 10000 3.1 150 11:42 15.04.2020
4803 Clouds 11 1025 43 10000 2.6 150 11:24 15.04.2020
4804 Clouds 10 1026 49 10000 3.1 140 10:58 15.04.2020
4805 Clouds 8 1026 56 10000 3.1 150 10:37 15.04.2020
4806 Clouds 8 1026 56 10000 3.1 150 10:19 15.04.2020
4807 Clouds 7 1026 65 10000 3.6 140 09:55 15.04.2020
4808 Clouds 5 1026 44 10000 2.1 150 09:37 15.04.2020
4809 Clouds 4 1026 65 10000 2.1 150 09:18 15.04.2020
4810 Clouds 3 1026 80 10000 0.5 0 08:41 15.04.2020
4811 Clouds 3 1026 80 10000 0.5 0 08:41 15.04.2020
4812 Clouds 3 1026 80 10000 1.5 60 08:21 15.04.2020
4813 Clouds 2 1025 65 10000 1.5 160 07:56 15.04.2020
4814 Clouds 1 1025 92 10000 1 0 07:36 15.04.2020
4815 Clouds 1 1025 86 10000 1.5 0 06:49 15.04.2020
4816 Clouds 1 1025 86 10000 0.5 0 06:20 15.04.2020
4817 Clouds 1 1025 86 10000 2.6 60 05:22 15.04.2020
4818 Clouds 2 1025 92 10000 1 0 04:46 15.04.2020
4819 Clouds 2 1026 70 10000 0.5 0 03:55 15.04.2020
4820 Clouds 2 1026 66 10000 2.1 140 03:20 15.04.2020
4821 Clouds 2 1026 66 10000 1 0 02:40 15.04.2020
4822 Clouds 2 1026 80 10000 1 0 01:50 15.04.2020
4823 Clouds 3 1026 74 10000 1 0 01:24 15.04.2020
4824 Clouds 3 1026 80 10000 1 130 00:46 15.04.2020
4825 Clear 3 1026 74 10000 0.5 0 00:23 15.04.2020
4826 Clear 4 1026 74 10000 0.5 0 23:55 14.04.2020
4827 Clear 4 1026 74 10000 0.5 0 23:37 14.04.2020
4828 Clear 4 1026 64 10000 1 0 23:19 14.04.2020
4829 Clear 5 1026 64 10000 0.5 0 22:56 14.04.2020
4830 Clear 5 1026 64 10000 0.5 0 22:38 14.04.2020
4831 Clear 5 1026 60 10000 1 0 22:20 14.04.2020
4832 Clear 6 1026 56 10000 1.5 10 21:56 14.04.2020
4833 Clear 6 1026 56 10000 1.5 10 21:37 14.04.2020
4834 Clear 7 1026 52 10000 1.5 20 21:19 14.04.2020
4835 Clear 8 1025 49 10000 1.5 360 20:55 14.04.2020
4836 Clear 8 1025 49 10000 1.5 360 20:36 14.04.2020
4837 Clouds 9 1026 45 10000 3.1 320 20:18 14.04.2020
4838 Clouds 9 1025 43 10000 2.6 10 19:41 14.04.2020
4839 Clouds 10 1025 43 10000 2.6 10 19:41 14.04.2020
4840 Clear 10 1025 43 10000 2.6 360 19:22 14.04.2020
4841 Clouds 10 1025 43 10000 3.6 350 18:58 14.04.2020
4842 Clear 10 1025 43 10000 3.6 350 18:39 14.04.2020
4843 Clouds 11 1025 43 10000 3.1 0 18:21 14.04.2020
4844 Clear 10 1025 40 10000 3.1 320 17:58 14.04.2020
4845 Clouds 10 1025 40 10000 3.1 320 17:38 14.04.2020
4846 Clear 10 1025 43 10000 4.1 350 17:19 14.04.2020
4847 Clouds 10 1026 39 10000 2.6 0 16:56 14.04.2020
4848 Clear 10 1026 39 10000 2.6 0 16:38 14.04.2020
4849 Clouds 10 1026 43 10000 3.6 290 16:19 14.04.2020
4850 Clear 10 1026 45 10000 5.1 340 15:55 14.04.2020
4851 Clouds 10 1026 45 10000 5.1 340 15:37 14.04.2020
4852 Clouds 10 1026 42 10000 5.1 340 15:18 14.04.2020
4853 Clouds 9 1026 45 10000 5.1 300 14:55 14.04.2020
4854 Clouds 9 1026 45 10000 5.1 300 14:37 14.04.2020
4855 Clouds 9 1026 42 10000 3.1 20 14:19 14.04.2020
4856 Clouds 8 1026 42 10000 2.6 340 13:43 14.04.2020
4857 Clouds 8 1026 49 10000 3.6 340 13:24 14.04.2020
4858 Clouds 8 1026 45 10000 3.1 350 12:56 14.04.2020
4859 Clouds 8 1026 49 10000 3.6 350 12:37 14.04.2020
4860 Clouds 8 1026 49 10000 3.6 350 12:18 14.04.2020
4861 Clouds 7 1026 52 10000 4.6 320 11:40 14.04.2020
4862 Clouds 7 1026 52 10000 4.1 350 11:22 14.04.2020
4863 Clouds 7 1026 52 10000 4.6 340 10:47 14.04.2020
4864 Clouds 7 1026 56 10000 4.1 340 10:29 14.04.2020
4865 Clouds 6 1026 65 10000 2.6 340 09:59 14.04.2020
4866 Clouds 6 1026 65 10000 2.6 340 09:41 14.04.2020
4867 Clouds 6 1026 65 10000 2.6 340 09:22 14.04.2020
4868 Clouds 5 1026 65 10000 1.5 340 08:55 14.04.2020
4869 Clouds 5 1026 65 10000 1.5 340 08:36 14.04.2020
4870 Clouds 4 1026 74 10000 1 0 08:18 14.04.2020
4871 Clouds 4 1025 74 10000 1 0 07:49 14.04.2020
4872 Clouds 4 1025 74 10000 2.1 330 07:25 14.04.2020
4873 Clouds 3 1025 74 10000 2.1 320 06:45 14.04.2020
4874 Clouds 3 1025 74 10000 2.6 330 05:40 14.04.2020
4875 Clear 2 1025 69 10000 1.5 330 03:28 14.04.2020
4876 Clear 2 1025 69 10000 2.1 320 02:33 14.04.2020
4877 Clear 3 1025 59 10000 3.6 360 01:27 14.04.2020
4878 Clear 3 1025 59 10000 3.6 360 00:50 14.04.2020
4879 Clear 4 1024 55 10000 2.1 360 00:24 14.04.2020
4880 Clear 4 1024 55 10000 2.1 360 23:59 13.04.2020
4881 Clear 4 1024 55 10000 2.1 360 23:37 13.04.2020
4882 Clear 5 1024 51 10000 2.1 360 23:19 13.04.2020
4883 Clear 5 1023 41 10000 2.6 10 22:54 13.04.2020
4884 Clear 6 1023 45 10000 3.1 10 22:36 13.04.2020
4885 Clear 6 1023 45 10000 3.1 10 22:18 13.04.2020
4886 Clear 6 1023 45 10000 3.6 10 21:41 13.04.2020
4887 Clouds 7 1022 48 10000 3.1 350 21:21 13.04.2020
4888 Clouds 7 1022 39 10000 3.6 350 20:58 13.04.2020
4889 Clouds 8 1022 39 10000 3.6 350 20:40 13.04.2020
4890 Clouds 9 1022 36 10000 4.6 20 20:19 13.04.2020
4891 Clouds 9 1021 39 10000 5.7 350 19:58 13.04.2020
4892 Clouds 10 1021 37 10000 6.7 10 19:37 13.04.2020
4893 Clouds 10 1021 37 10000 6.7 10 19:18 13.04.2020
4894 Clouds 10 1021 31 10000 7.7 20 18:57 13.04.2020
4895 Clouds 11 1021 34 10000 7.2 340 18:37 13.04.2020
4896 Clouds 11 1021 34 10000 7.2 340 18:18 13.04.2020
4897 Clouds 11 1021 34 10000 7.2 340 17:56 13.04.2020
4898 Clouds 11 1021 34 10000 7.2 340 17:37 13.04.2020
4899 Clouds 11 1021 37 10000 6.7 360 17:19 13.04.2020
4900 Clouds 11 1021 37 10000 6.7 360 17:19 13.04.2020
4901 Clouds 11 1021 37 10000 6.7 360 17:19 13.04.2020
4902 Clouds 11 1021 40 10000 6.2 340 16:57 13.04.2020
4903 Clouds 11 1021 40 10000 6.2 340 16:37 13.04.2020
4904 Clouds 11 1021 37 10000 6.7 340 16:19 13.04.2020
4905 Clouds 10 1021 39 10000 7.2 20 15:55 13.04.2020
4906 Clouds 10 1021 46 10000 4.6 350 15:37 13.04.2020
4907 Clouds 10 1021 46 10000 4.6 350 15:18 13.04.2020
4908 Clouds 10 1021 43 10000 6.2 10 14:41 13.04.2020
4909 Clouds 10 1021 46 10000 7.7 10 14:22 13.04.2020
4910 Clouds 9 1021 42 10000 5.1 360 13:56 13.04.2020
4911 Clouds 9 1021 42 10000 5.1 360 13:38 13.04.2020
4912 Clouds 9 1021 65 10000 7.2 20 13:20 13.04.2020
4913 Clouds 9 1021 65 10000 5.1 20 12:59 13.04.2020
4914 Clouds 9 1021 65 10000 5.1 20 12:40 13.04.2020
4915 Clouds 8 1020 70 10000 5.1 10 12:20 13.04.2020
4916 Clouds 8 1020 75 10000 6.2 360 11:58 13.04.2020
4917 Clouds 8 1020 75 10000 6.2 360 11:40 13.04.2020
4918 Rain 8 1019 81 10000 4.6 360 11:18 13.04.2020
4919 Rain 8 1019 81 10000 3.6 360 10:55 13.04.2020
4920 Rain 8 1019 70 10000 4.6 360 10:37 13.04.2020
4921 Rain 8 1019 70 10000 4.6 360 10:18 13.04.2020
4922 Rain 8 1018 70 10000 5.1 350 09:44 13.04.2020
4923 Rain 9 1018 70 10000 4.6 20 09:26 13.04.2020
4924 Rain 8 1018 70 10000 4.6 20 09:26 13.04.2020
4925 Rain 9 1017 70 10000 6.7 10 08:48 13.04.2020
4926 Rain 9 1017 71 10000 5.7 20 08:29 13.04.2020
4927 Clouds 9 1015 76 10000 3.6 10 07:58 13.04.2020
4928 Clouds 9 1015 76 10000 3.6 10 07:38 13.04.2020
4929 Clouds 9 1015 81 10000 1 0 07:20 13.04.2020
4930 Clouds 9 1014 87 10000 2.1 210 06:47 13.04.2020
4931 Clouds 11 1013 81 10000 0.5 80 05:56 13.04.2020
4932 Clouds 11 1013 76 10000 2.1 300 05:28 13.04.2020
4933 Clouds 11 1013 76 10000 2.1 300 04:52 13.04.2020
4934 Clouds 11 1013 81 10000 0.5 0 04:22 13.04.2020
4935 Clouds 11 1013 76 10000 3 353 03:46 13.04.2020
4936 Clouds 12 1013 76 10000 0.5 0 02:50 13.04.2020
4937 Clouds 12 1013 66 10000 0.5 0 01:54 13.04.2020
4938 Clouds 12 1013 66 10000 0.5 0 01:36 13.04.2020
4939 Clouds 13 1013 58 10000 0.5 0 00:58 13.04.2020
4940 Clouds 13 1013 58 10000 0.5 0 00:39 13.04.2020
4941 Clear 14 1013 58 10000 3.1 150 00:18 13.04.2020
4942 Clear 14 1013 58 10000 2.6 150 23:45 12.04.2020
4943 Clear 15 1013 51 10000 0.5 150 23:22 12.04.2020
4944 Clear 16 1013 51 10000 1.5 350 22:58 12.04.2020
4945 Clear 16 1013 51 10000 1.5 350 22:37 12.04.2020
4946 Clear 16 1013 47 10000 3.6 340 22:19 12.04.2020
4947 Clear 17 1013 47 10000 3.6 350 21:40 12.04.2020
4948 Clouds 18 1013 38 10000 0.5 0 21:21 12.04.2020
4949 Clouds 18 1012 29 10000 1.5 20 20:58 12.04.2020
4950 Clouds 19 1012 29 10000 1.5 20 20:39 12.04.2020
4951 Clouds 19 1012 29 10000 1.5 20 20:39 12.04.2020
4952 Clouds 20 1012 28 10000 1.5 340 20:21 12.04.2020
4953 Clouds 20 1012 28 10000 2.6 280 19:56 12.04.2020
4954 Clouds 21 1012 38 10000 2.6 320 19:37 12.04.2020
4955 Clouds 21 1012 38 10000 2.6 320 19:18 12.04.2020
4956 Clouds 22 1013 20 10000 2.1 350 18:41 12.04.2020
4957 Clouds 22 1013 20 10000 2.1 350 18:23 12.04.2020
4958 Clouds 22 1013 29 10000 3.6 290 17:57 12.04.2020
4959 Clouds 23 1013 29 10000 2.1 0 17:39 12.04.2020
4960 Clouds 23 1013 29 10000 2.1 0 17:20 12.04.2020
4961 Clouds 23 1013 23 10000 3.6 300 16:57 12.04.2020
4962 Clouds 23 1014 22 10000 4.1 280 16:39 12.04.2020
4963 Clouds 23 1014 22 10000 4.1 280 16:20 12.04.2020
4964 Clouds 22 1014 25 10000 1.5 0 15:47 12.04.2020
4965 Clear 22 1014 30 10000 2.1 0 15:29 12.04.2020
4966 Clear 22 1015 33 10000 3.1 340 14:54 12.04.2020
4967 Clear 22 1015 33 10000 2.1 0 14:36 12.04.2020
4968 Clear 22 1015 33 10000 2.1 0 14:18 12.04.2020
4969 Clear 22 1015 33 10000 2.1 0 14:18 12.04.2020
4970 Clear 22 1015 33 10000 2.1 210 13:41 12.04.2020
4971 Clear 21 1016 37 10000 2.1 0 13:23 12.04.2020
4972 Clear 21 1016 37 10000 2.1 0 12:55 12.04.2020
4973 Clear 21 1016 37 10000 2.1 0 12:37 12.04.2020
4974 Clear 20 1017 42 10000 2.6 0 12:18 12.04.2020
4975 Clear 19 1017 42 10000 0.5 0 11:55 12.04.2020
4976 Clear 19 1017 45 10000 1.5 0 11:36 12.04.2020
4977 Clear 18 1017 45 10000 1.5 0 11:18 12.04.2020
4978 Clear 18 1017 45 10000 1.5 240 10:54 12.04.2020
4979 Clear 17 1017 45 10000 1.5 240 10:36 12.04.2020
4980 Clear 17 1017 51 10000 1.5 190 10:18 12.04.2020
4981 Clear 15 1017 54 10000 2.1 150 09:40 12.04.2020
4982 Clear 15 1017 54 10000 2.1 150 09:40 12.04.2020
4983 Clear 13 1018 54 10000 1.5 0 09:21 12.04.2020
4984 Clear 12 1018 71 10000 1 0 08:55 12.04.2020
4985 Clear 11 1018 75 10000 2.1 60 08:37 12.04.2020
4986 Clear 11 1018 75 10000 2.1 60 08:19 12.04.2020
4987 Clear 10 1018 70 10000 0.5 0 07:42 12.04.2020
4988 Clear 10 1018 75 10000 1 0 07:18 12.04.2020
4989 Clear 10 1018 70 10000 2.1 60 06:35 12.04.2020
4990 Clouds 11 1018 61 10000 0.5 0 05:51 12.04.2020
4991 Clouds 11 1018 61 10000 0.5 0 05:29 12.04.2020
4992 Clouds 12 1018 50 10000 0.5 0 03:44 12.04.2020
4993 Clouds 12 1019 47 10000 1 0 03:22 12.04.2020
4994 Clouds 13 1019 50 10000 0.5 0 02:34 12.04.2020
4995 Clouds 13 1019 41 10000 2.1 110 01:51 12.04.2020
4996 Clouds 14 1020 38 10000 2.6 100 00:58 12.04.2020
4997 Clouds 14 1020 38 10000 2.6 100 00:39 12.04.2020
4998 Rain 14 1020 36 10000 1.5 100 00:20 12.04.2020
4999 Rain 14 1020 31 10000 3.6 120 23:46 11.04.2020
5000 Rain 14 1020 34 10000 3.1 120 23:26 11.04.2020
5001 Rain 15 1020 39 10000 2.6 120 22:55 11.04.2020
5002 Rain 15 1020 39 10000 2.6 120 22:36 11.04.2020
5003 Rain 16 1020 39 10000 0.5 0 22:18 11.04.2020
5004 Rain 16 1020 39 10000 1.5 100 21:54 11.04.2020
5005 Clouds 17 1020 45 10000 1.5 100 21:36 11.04.2020
5006 Clear 17 1020 45 10000 1.5 100 21:18 11.04.2020
5007 Clear 17 1020 45 10000 1.5 100 21:18 11.04.2020
5008 Clear 18 1020 39 10000 1.5 100 20:54 11.04.2020
5009 Clear 20 1020 33 10000 1.5 100 20:36 11.04.2020
5010 Clear 20 1020 33 10000 1.5 100 20:18 11.04.2020
5011 Clear 21 1020 28 10000 1.5 120 19:54 11.04.2020
5012 Clear 21 1020 28 10000 1.5 120 19:36 11.04.2020
5013 Clear 22 1020 28 10000 1 0 19:18 11.04.2020
5014 Clear 22 1020 28 10000 2.1 90 18:54 11.04.2020
5015 Clear 22 1020 28 10000 2.6 60 18:36 11.04.2020
5016 Clear 23 1020 28 10000 2.6 60 18:18 11.04.2020
5017 Clear 23 1021 31 10000 1.5 110 17:55 11.04.2020
5018 Clear 23 1021 28 10000 2.6 0 17:36 11.04.2020
5019 Clear 23 1021 28 10000 2.6 0 17:18 11.04.2020
5020 Clear 23 1021 28 10000 3.1 70 16:41 11.04.2020
5021 Clear 23 1021 28 10000 2.1 0 16:21 11.04.2020
5022 Clear 22 1022 28 10000 1.5 0 15:40 11.04.2020
5023 Clear 22 1022 27 10000 1.5 0 15:20 11.04.2020
5024 Clear 22 1022 28 10000 2.1 0 14:57 11.04.2020
5025 Clear 22 1022 28 10000 2.1 0 14:39 11.04.2020
5026 Clear 21 1023 28 10000 2.6 90 14:20 11.04.2020
5027 Clear 21 1023 26 10000 2.6 0 13:42 11.04.2020
5028 Clear 20 1024 29 10000 3.1 0 13:24 11.04.2020
5029 Clear 20 1024 26 10000 3.6 120 12:59 11.04.2020
5030 Clear 19 1024 26 10000 3.6 120 12:37 11.04.2020
5031 Clouds 18 1024 35 10000 2.6 0 12:18 11.04.2020
5032 Clouds 17 1025 31 10000 2.6 160 11:43 11.04.2020
5033 Clouds 16 1025 31 10000 2.6 120 11:21 11.04.2020
5034 Clouds 15 1025 35 10000 3.1 120 10:57 11.04.2020
5035 Clouds 14 1025 35 10000 3.1 120 10:39 11.04.2020
5036 Clouds 13 1025 40 10000 3.1 130 10:21 11.04.2020
5037 Clouds 12 1025 43 10000 2.6 140 09:57 11.04.2020
5038 Clouds 11 1025 43 10000 2.6 140 09:38 11.04.2020
5039 Clouds 10 1025 46 10000 2.6 110 09:20 11.04.2020
5040 Clouds 8 1025 49 10000 0.5 0 08:43 11.04.2020
5041 Clouds 8 1025 53 10000 1 0 08:25 11.04.2020
5042 Clouds 6 1025 56 10000 1 0 07:49 11.04.2020
5043 Clouds 6 1025 60 10000 1 0 07:28 11.04.2020
5044 Clouds 6 1025 65 10000 1 0 06:47 11.04.2020
5045 Clouds 7 1025 52 10000 2.1 90 05:59 11.04.2020
5046 Clouds 7 1025 56 10000 3.1 70 04:34 11.04.2020
5047 Clouds 8 1025 70 10000 2.6 50 03:40 11.04.2020
5048 Clouds 9 1025 65 10000 2.1 40 01:53 11.04.2020
5049 Clouds 10 1025 61 10000 1.5 50 01:20 11.04.2020
5050 Clouds 11 1025 57 10000 1 40 00:44 11.04.2020
5051 Clouds 11 1025 53 10000 0.5 30 00:19 11.04.2020
5052 Clouds 11 1025 53 10000 1 0 23:57 10.04.2020
5053 Clouds 12 1025 53 10000 1 0 23:38 10.04.2020
5054 Clouds 12 1025 50 10000 0.5 0 23:18 10.04.2020
5055 Clouds 13 1024 47 10000 3.6 40 22:43 10.04.2020
5056 Clouds 13 1024 47 10000 3.6 40 22:22 10.04.2020
5057 Clouds 14 1024 44 10000 3.1 40 21:58 10.04.2020
5058 Clouds 15 1024 44 10000 3.1 40 21:40 10.04.2020
5059 Clouds 15 1024 44 10000 3.1 20 21:20 10.04.2020
5060 Clouds 16 1024 45 10000 3.6 20 20:44 10.04.2020
5061 Clouds 17 1023 42 10000 3.6 30 20:24 10.04.2020
5062 Clouds 18 1023 37 10000 4.6 20 19:59 10.04.2020
5063 Clouds 19 1023 32 10000 4.6 40 19:41 10.04.2020
5064 Clouds 19 1023 32 10000 4.6 40 19:21 10.04.2020
5065 Clouds 19 1023 32 10000 4.6 40 19:21 10.04.2020
5066 Clouds 20 1023 34 10000 5.7 10 18:58 10.04.2020
5067 Clouds 20 1023 34 10000 5.7 10 18:58 10.04.2020
5068 Clouds 20 1023 32 10000 5.1 30 18:40 10.04.2020
5069 Clouds 20 1023 34 10000 5.7 10 18:40 10.04.2020
5070 Clouds 20 1023 32 10000 5.1 30 18:21 10.04.2020
5071 Clouds 20 1023 35 10000 4.6 50 17:59 10.04.2020
5072 Clouds 21 1023 35 10000 4.6 50 17:40 10.04.2020
5073 Clouds 21 1023 35 10000 4.1 20 17:21 10.04.2020
5074 Clouds 20 1023 37 10000 4.6 10 16:59 10.04.2020
5075 Clouds 20 1023 37 10000 4.6 10 16:41 10.04.2020
5076 Clouds 21 1024 35 10000 4.1 40 16:21 10.04.2020
5077 Clouds 21 1024 35 10000 5.7 310 15:58 10.04.2020
5078 Clouds 21 1024 35 10000 5.7 310 15:38 10.04.2020
5079 Clouds 21 1024 37 10000 4.1 270 15:20 10.04.2020
5080 Clouds 20 1024 37 10000 4.6 290 14:58 10.04.2020
5081 Clouds 20 1025 37 10000 3.1 0 14:39 10.04.2020
5082 Clouds 20 1025 37 10000 3.1 0 14:20 10.04.2020
5083 Clouds 20 1025 35 10000 2.1 0 13:45 10.04.2020
5084 Clouds 19 1025 37 10000 2.1 0 13:22 10.04.2020
5085 Clouds 19 1025 40 10000 2.1 70 12:55 10.04.2020
5086 Clear 19 1026 42 10000 1.5 0 12:37 10.04.2020
5087 Clear 18 1026 42 10000 1.5 0 12:19 10.04.2020
5088 Clear 17 1026 48 10000 1.5 300 11:42 10.04.2020
5089 Clear 17 1026 48 10000 1 0 11:24 10.04.2020
5090 Clear 16 1026 51 10000 1 0 10:57 10.04.2020
5091 Clear 15 1026 51 10000 1 0 10:38 10.04.2020
5092 Clear 14 1026 54 10000 1.5 90 10:19 10.04.2020
5093 Clear 12 1026 62 10000 0.5 0 09:43 10.04.2020
5094 Clear 13 1026 62 10000 0.5 0 09:43 10.04.2020
5095 Clouds 11 1026 76 10000 1 0 09:22 10.04.2020
5096 Clouds 10 1026 87 10000 1.5 140 08:50 10.04.2020
5097 Clouds 9 1026 81 10000 0.5 0 08:27 10.04.2020
5098 Clouds 9 1026 81 10000 0.5 0 08:27 10.04.2020
5099 Clouds 8 1026 93 10000 0.5 0 07:57 10.04.2020
5100 Clouds 8 1026 93 10000 1.5 150 07:39 10.04.2020
5101 Clouds 8 1026 93 10000 1.5 150 07:20 10.04.2020
5102 Clouds 8 1025 87 10000 2.1 50 06:39 10.04.2020
5103 Clouds 9 1025 87 10000 2.1 50 06:21 10.04.2020
5104 Clouds 9 1026 87 10000 1.5 60 05:33 10.04.2020
5105 Clouds 9 1026 81 10000 1.5 50 04:56 10.04.2020
5106 Clouds 11 1026 76 10000 3.6 40 03:36 10.04.2020
5107 Clouds 11 1025 76 10000 1 0 02:59 10.04.2020
5108 Clouds 11 1025 76 10000 1 0 02:36 10.04.2020
5109 Clouds 11 1025 76 10000 1.5 50 01:59 10.04.2020
5110 Clouds 12 1026 71 10000 2.1 130 01:29 10.04.2020
5111 Clouds 12 1025 66 10000 2.1 60 00:49 10.04.2020
5112 Clear 13 1025 58 10000 2.6 50 00:22 10.04.2020
5113 Clear 13 1025 58 10000 2.1 50 23:44 09.04.2020
5114 Clear 14 1025 54 10000 2.6 60 23:26 09.04.2020
5115 Clear 14 1025 51 10000 2.6 50 22:59 09.04.2020
5116 Clear 14 1025 51 10000 2.6 50 22:40 09.04.2020
5117 Clear 15 1025 48 10000 3.1 30 22:22 09.04.2020
5118 Clear 16 1025 45 10000 3.6 30 21:45 09.04.2020
5119 Clear 16 1024 48 10000 4.1 20 21:26 09.04.2020
5120 Clear 17 1024 45 10000 4.1 30 20:59 09.04.2020
5121 Clear 18 1024 45 10000 4.1 30 20:40 09.04.2020
5122 Clear 19 1024 40 10000 5.1 30 20:20 09.04.2020
5123 Clear 20 1023 40 10000 4.1 350 19:41 09.04.2020
5124 Clear 21 1023 40 10000 4.1 350 19:23 09.04.2020
5125 Clear 21 1023 35 10000 4.1 340 18:59 09.04.2020
5126 Clear 21 1023 35 10000 4.1 340 18:40 09.04.2020
5127 Clear 21 1023 35 10000 5.1 320 18:18 09.04.2020
5128 Clear 21 1023 35 10000 6.2 340 17:40 09.04.2020
5129 Clear 22 1023 33 10000 6.2 310 17:22 09.04.2020
5130 Clear 22 1023 33 10000 5.7 300 16:56 09.04.2020
5131 Clear 22 1023 33 10000 5.7 320 16:37 09.04.2020
5132 Clear 22 1023 33 10000 5.7 320 16:18 09.04.2020
5133 Clouds 22 1024 40 10000 4.1 340 15:54 09.04.2020
5134 Clear 22 1024 40 10000 4.1 0 15:36 09.04.2020
5135 Clouds 22 1023 38 10000 5.7 290 15:18 09.04.2020
5136 Clouds 21 1024 40 10000 3.6 290 14:39 09.04.2020
5137 Clouds 22 1024 40 10000 3.6 290 14:20 09.04.2020
5138 Clouds 21 1024 40 10000 3.6 270 13:43 09.04.2020
5139 Clouds 21 1024 42 10000 2.6 260 13:24 09.04.2020
5140 Clouds 20 1024 45 10000 2.6 280 12:59 09.04.2020
5141 Clouds 20 1024 45 10000 2.6 280 12:40 09.04.2020
5142 Clouds 19 1024 48 10000 2.1 300 12:21 09.04.2020
5143 Clouds 19 1024 51 10000 2.6 280 11:57 09.04.2020
5144 Clouds 19 1024 51 10000 2.6 280 11:38 09.04.2020
5145 Clouds 18 1024 45 10000 2.1 270 11:19 09.04.2020
5146 Clouds 17 1024 48 10000 1.5 150 10:55 09.04.2020
5147 Clouds 17 1024 48 10000 1.5 150 10:37 09.04.2020
5148 Clouds 15 1024 51 10000 1.5 0 10:18 09.04.2020
5149 Clouds 14 1024 66 10000 2.1 160 09:40 09.04.2020
5150 Clouds 12 1024 71 10000 1 0 09:21 09.04.2020
5151 Clouds 12 1024 71 10000 1 0 09:21 09.04.2020
5152 Clouds 12 1024 76 10000 2.6 260 08:59 09.04.2020
5153 Clouds 11 1024 87 10000 1 0 08:40 09.04.2020
5154 Clouds 11 1023 81 10000 1.5 260 08:22 09.04.2020
5155 Clouds 10 1023 87 10000 2.1 60 07:51 09.04.2020
5156 Clouds 10 1023 87 10000 1.5 10 07:23 09.04.2020
5157 Clouds 10 1022 81 10000 1.5 330 06:50 09.04.2020
5158 Clouds 10 1022 81 10000 1 100 05:49 09.04.2020
5159 Clouds 11 1022 81 10000 0.5 230 05:28 09.04.2020
5160 Clouds 12 1022 70 10000 1 0 02:37 09.04.2020
5161 Clouds 12 1023 71 10000 0.5 230 02:18 09.04.2020
5162 Clouds 13 1022 66 10000 1.5 20 01:39 09.04.2020
5163 Clouds 13 1022 66 10000 1.5 20 01:19 09.04.2020
5164 Clouds 13 1023 62 10000 1.5 0 00:39 09.04.2020
5165 Clear 13 1022 54 10000 1.5 120 00:19 09.04.2020
5166 Clear 13 1022 54 10000 1.5 120 00:19 09.04.2020
5167 Clear 13 1022 54 10000 1 0 23:56 08.04.2020
5168 Clear 14 1022 54 10000 1 0 23:37 08.04.2020
5169 Clear 14 1022 47 10000 3.1 60 23:19 08.04.2020
5170 Clear 16 1022 39 10000 1 60 22:42 08.04.2020
5171 Clear 16 1022 39 10000 1 60 22:23 08.04.2020
5172 Clear 17 1022 39 10000 1 50 21:56 08.04.2020
5173 Clear 18 1022 36 10000 0.5 0 21:37 08.04.2020
5174 Clear 18 1022 36 10000 0.5 0 21:37 08.04.2020
5175 Clear 18 1022 36 10000 0.5 0 21:19 08.04.2020
5176 Clear 19 1022 34 10000 1.5 360 20:56 08.04.2020
5177 Clear 20 1022 34 10000 2.6 340 20:38 08.04.2020
5178 Clear 21 1022 34 10000 2.6 340 20:19 08.04.2020
5179 Clear 22 1022 28 10000 2.1 320 19:42 08.04.2020
5180 Clear 23 1022 23 10000 3.1 280 19:22 08.04.2020
5181 Clear 23 1022 23 10000 3.1 280 18:58 08.04.2020
5182 Clear 23 1022 23 10000 1.5 0 18:40 08.04.2020
5183 Clear 24 1022 23 10000 2.6 260 18:20 08.04.2020
5184 Clear 24 1022 23 10000 2.6 260 17:43 08.04.2020
5185 Clear 24 1023 23 10000 3.1 290 17:22 08.04.2020
5186 Clear 24 1023 23 10000 3.1 290 17:22 08.04.2020
5187 Clear 24 1023 23 10000 3.1 290 16:59 08.04.2020
5188 Clear 24 1023 22 10000 2.1 220 16:41 08.04.2020
5189 Clear 24 1023 22 10000 2.1 220 16:22 08.04.2020
5190 Clear 24 1023 25 10000 3.6 290 15:55 08.04.2020
5191 Clear 24 1023 25 10000 3.6 290 15:36 08.04.2020
5192 Clear 24 1023 25 10000 1 0 15:18 08.04.2020
5193 Clear 23 1023 25 10000 1 0 14:41 08.04.2020
5194 Clouds 23 1024 29 10000 2.6 290 14:23 08.04.2020
5195 Clear 23 1024 29 0 1 0 13:45 08.04.2020
5196 Clear 23 1024 33 10000 1.5 0 13:22 08.04.2020
5197 Clear 22 1025 35 10000 1.5 160 12:59 08.04.2020
5198 Clear 22 1025 35 10000 1.5 160 12:41 08.04.2020
5199 Clear 20 1025 43 10000 2.1 160 12:18 08.04.2020
5200 Clear 21 1025 43 10000 2.1 160 12:18 08.04.2020
5201 Clear 20 1025 45 10000 2.6 160 11:55 08.04.2020
5202 Clear 19 1026 48 10000 3.6 160 11:37 08.04.2020
5203 Clear 19 1026 48 10000 3.6 160 11:19 08.04.2020
5204 Clear 18 1026 51 10000 4.6 150 10:55 08.04.2020
5205 Clear 17 1026 55 10000 3.1 140 10:37 08.04.2020
5206 Clear 16 1026 55 10000 3.1 140 10:18 08.04.2020
5207 Clear 13 1026 62 10000 1.5 110 09:42 08.04.2020
5208 Clear 13 1026 62 10000 1.5 110 09:20 08.04.2020
5209 Clear 12 1026 66 10000 2.1 90 08:59 08.04.2020
5210 Clear 12 1026 66 10000 2.1 90 08:59 08.04.2020
5211 Clear 12 1026 66 10000 2.1 90 08:40 08.04.2020
5212 Clear 11 1026 71 10000 2.1 70 08:21 08.04.2020
5213 Clear 11 1026 76 10000 1 0 07:43 08.04.2020
5214 Clear 10 1026 76 10000 1 0 07:22 08.04.2020
5215 Clear 10 1026 76 10000 2.1 90 06:48 08.04.2020
5216 Clear 10 1026 76 10000 1.5 100 05:49 08.04.2020
5217 Clear 12 1027 81 10000 1.5 130 03:34 08.04.2020
5218 Clear 12 1027 81 10000 2.1 150 02:49 08.04.2020
5219 Clear 12 1028 71 10000 1.5 120 02:19 08.04.2020
5220 Clear 13 1028 62 10000 2.6 100 01:30 08.04.2020
5221 Clear 13 1028 62 10000 2.6 100 00:59 08.04.2020
5222 Clear 13 1028 62 10000 2.6 100 00:41 08.04.2020
5223 Clear 13 1028 62 10000 1.5 110 00:21 08.04.2020
5224 Clear 14 1028 62 10000 3.1 80 23:39 07.04.2020
5225 Clear 15 1028 67 10000 4.1 70 23:20 07.04.2020
5226 Clear 15 1028 63 10000 4.1 60 22:57 07.04.2020
5227 Clear 15 1028 63 10000 4.1 60 22:57 07.04.2020
5228 Clear 15 1028 63 10000 4.1 60 22:39 07.04.2020
5229 Clear 15 1028 63 10000 4.1 50 22:19 07.04.2020
5230 Clear 16 1028 59 10000 4.1 60 21:56 07.04.2020
5231 Clear 16 1028 59 10000 4.1 60 21:56 07.04.2020
5232 Clear 16 1028 59 10000 4.1 60 21:38 07.04.2020
5233 Rain 17 1028 55 10000 3.6 60 21:19 07.04.2020
5234 Rain 17 1027 52 10000 3.1 30 20:55 07.04.2020
5235 Rain 18 1027 42 10000 1.5 60 20:37 07.04.2020
5236 Rain 19 1027 42 10000 1.5 60 20:19 07.04.2020
5237 Rain 20 1028 37 10000 1 0 19:56 07.04.2020
5238 Rain 19 1027 37 10000 1 40 19:56 07.04.2020
5239 Rain 20 1028 37 10000 1 0 19:36 07.04.2020
5240 Rain 20 1028 37 10000 1 0 19:18 07.04.2020
5241 Rain 21 1028 37 10000 2.1 60 18:54 07.04.2020
5242 Rain 20 1028 37 10000 0.5 0 18:36 07.04.2020
5243 Clouds 21 1028 40 10000 2.1 0 18:18 07.04.2020
5244 Clouds 21 1028 40 10000 2.1 0 17:44 07.04.2020
5245 Clouds 21 1028 40 10000 2.1 0 17:20 07.04.2020
5246 Clouds 21 1029 45 10000 3.1 100 16:46 07.04.2020
5247 Clouds 20 1029 45 10000 3.1 100 16:27 07.04.2020
5248 Clouds 20 1029 43 10000 1.5 0 15:57 07.04.2020
5249 Clouds 20 1029 43 10000 1.5 0 15:38 07.04.2020
5250 Clouds 20 1029 43 10000 1.5 0 15:20 07.04.2020
5251 Clouds 20 1030 45 10000 1.5 210 14:41 07.04.2020
5252 Clouds 20 1030 45 10000 2.6 0 14:22 07.04.2020
5253 Clouds 19 1030 45 10000 2.1 10 13:57 07.04.2020
5254 Clouds 19 1031 48 10000 2.1 360 13:38 07.04.2020
5255 Clouds 19 1031 48 10000 2.1 360 13:18 07.04.2020
5256 Clouds 19 1031 48 10000 2.1 360 13:18 07.04.2020
5257 Clouds 18 1031 48 10000 2.1 0 12:55 07.04.2020
5258 Clouds 17 1031 55 10000 1.5 0 12:36 07.04.2020
5259 Clouds 16 1031 55 10000 1.5 0 12:18 07.04.2020
5260 Clouds 16 1031 59 10000 1.5 0 11:44 07.04.2020
5261 Clouds 16 1031 63 10000 2.1 30 11:25 07.04.2020
5262 Clouds 15 1031 71 10000 0.5 0 10:59 07.04.2020
5263 Clouds 14 1031 71 10000 0.5 0 10:38 07.04.2020
5264 Clouds 14 1031 71 10000 0.5 0 10:19 07.04.2020
5265 Clouds 12 1031 71 10000 0.5 0 09:45 07.04.2020
5266 Clouds 12 1031 81 10000 0.5 0 09:19 07.04.2020
5267 Clouds 11 1030 87 10000 0.5 0 08:56 07.04.2020
5268 Clouds 10 1030 87 10000 0.5 0 08:38 07.04.2020
5269 Clouds 10 1030 93 10000 2.1 50 08:18 07.04.2020
5270 Clouds 9 1030 93 10000 1 0 07:43 07.04.2020
5271 Clouds 9 1029 93 10000 0.5 0 07:25 07.04.2020
5272 Clouds 9 1029 87 10000 1 60 06:51 07.04.2020
5273 Rain 9 1029 87 10000 0.5 0 06:25 07.04.2020
5274 Rain 10 1029 81 10000 0.5 0 05:46 07.04.2020
5275 Rain 11 1028 81 10000 1 0 05:22 07.04.2020
5276 Rain 13 1028 62 10000 0.5 60 03:32 07.04.2020
5277 Rain 13 1027 66 10000 1.66 304 02:59 07.04.2020
5278 Clouds 13 1027 66 10000 1.96 262 02:33 07.04.2020
5279 Clouds 14 1027 66 10000 1 0 01:33 07.04.2020
5280 Clouds 14 1026 62 10000 1 0 00:52 07.04.2020
5281 Clouds 14 1026 58 10000 2.6 310 00:25 07.04.2020
5282 Clouds 15 1025 50 10000 1.5 340 23:40 06.04.2020
5283 Clouds 15 1025 47 10000 3.1 330 23:21 06.04.2020
5284 Clouds 15 1024 43 10000 1.5 310 22:54 06.04.2020
5285 Clouds 16 1024 43 10000 1.5 310 22:36 06.04.2020
5286 Clouds 16 1024 66 10000 1.5 140 22:18 06.04.2020
5287 Clouds 17 1023 66 10000 2.1 170 21:42 06.04.2020
5288 Clear 17 1023 52 10000 2.6 170 21:20 06.04.2020
5289 Clear 18 1022 31 10000 2.6 190 20:57 06.04.2020
5290 Clear 19 1022 31 10000 2.6 190 20:39 06.04.2020
5291 Clear 19 1022 52 10000 2.6 200 20:21 06.04.2020
5292 Clear 20 1021 52 10000 3.6 210 19:57 06.04.2020
5293 Clear 21 1021 52 10000 3.6 210 19:38 06.04.2020
5294 Clear 21 1021 52 10000 5.7 220 19:20 06.04.2020
5295 Clear 22 1021 52 10000 5.1 220 18:43 06.04.2020
5296 Clear 22 1021 31 10000 5.1 220 18:24 06.04.2020
5297 Clear 22 1021 22 10000 4.6 220 17:58 06.04.2020
5298 Clear 23 1021 22 10000 4.6 220 17:39 06.04.2020
5299 Clear 23 1021 23 10000 5.1 230 17:18 06.04.2020
5300 Clear 23 1020 31 10000 5.7 200 16:49 06.04.2020
5301 Clear 22 1020 31 10000 6.7 220 16:30 06.04.2020
5302 Clear 22 1020 30 10000 6.7 200 15:00 06.04.2020
5303 Clear 21 1020 30 10000 5.7 180 13:45 06.04.2020
5304 Clear 21 1020 26 10000 5.7 180 13:23 06.04.2020
5305 Clear 20 1020 30 10000 6.2 160 12:50 06.04.2020
5306 Clear 20 1020 30 10000 6.2 160 12:50 06.04.2020
5307 Clear 20 1020 30 10000 6.2 160 12:50 06.04.2020
5308 Clear 20 1020 30 10000 6.2 160 12:50 06.04.2020
5309 Clear 20 1020 30 10000 6.2 160 12:49 06.04.2020
5310 Clear 19 1020 30 10000 7.2 180 12:21 06.04.2020
5311 Clear 18 1020 29 10000 6.7 180 11:54 06.04.2020
5312 Clear 18 1020 29 10000 6.7 180 11:54 06.04.2020
5313 Clear 18 1020 29 10000 6.7 180 11:54 06.04.2020
5314 Clear 18 1020 29 10000 6.7 180 11:53 06.04.2020
5315 Clear 18 1020 29 10000 6.7 180 11:53 06.04.2020
5316 Clear 18 1020 29 10000 6.7 180 11:28 06.04.2020
5317 Clear 18 1020 29 10000 6.7 180 11:28 06.04.2020
5318 Clear 18 1020 29 10000 6.7 180 11:28 06.04.2020
5319 Clear 18 1020 29 10000 6.7 180 11:28 06.04.2020
5320 Clear 18 1020 29 10000 6.7 180 11:28 06.04.2020
5321 Clear 17 1019 33 10000 6.7 170 10:49 06.04.2020
5322 Clear 16 1019 33 10000 6.7 170 10:49 06.04.2020
5323 Clear 16 1019 33 10000 6.7 170 10:49 06.04.2020
5324 Clear 16 1019 33 10000 6.7 170 10:49 06.04.2020
5325 Clear 16 1019 33 10000 6.7 170 10:49 06.04.2020
5326 Clear 15 1019 36 10000 4.1 130 10:21 06.04.2020
5327 Clear 15 1019 36 10000 4.1 130 10:21 06.04.2020
5328 Clear 14 1019 41 10000 4.1 130 09:42 06.04.2020
5329 Clear 14 1019 41 10000 4.1 130 09:42 06.04.2020
5330 Clear 14 1019 41 10000 4.1 130 09:42 06.04.2020
5331 Clear 14 1019 41 10000 4.1 130 09:42 06.04.2020
5332 Clear 12 1019 66 10000 4.1 130 09:20 06.04.2020
5333 Clear 11 1019 67 10000 4.1 130 08:51 06.04.2020
5334 Clear 11 1019 67 10000 4.1 130 08:30 06.04.2020
5335 Clear 10 1019 46 10000 3.1 120 07:26 06.04.2020
5336 Clear 10 1018 43 10000 2.6 110 06:39 06.04.2020
5337 Clear 10 1018 43 10000 2.6 110 06:39 06.04.2020
5338 Clear 9 1018 43 10000 3.1 110 06:18 06.04.2020
5339 Clear 10 1018 40 10000 2.6 110 04:18 06.04.2020
5340 Clear 10 1018 62 10000 3.6 130 02:56 06.04.2020
5341 Clear 10 1018 60 10000 3.6 120 02:18 06.04.2020
5342 Clear 11 1019 60 10000 4.1 130 01:23 06.04.2020
5343 Clear 12 1018 37 10000 4.1 120 00:41 06.04.2020
5344 Clear 12 1019 52 10000 3.6 120 00:21 06.04.2020
5345 Clear 12 1019 52 10000 3.6 120 00:21 06.04.2020
5346 Clear 12 1019 52 10000 3.6 120 00:21 06.04.2020
5347 Clear 12 1019 52 10000 3.6 120 00:21 06.04.2020
5348 Clear 12 1019 52 10000 3.1 100 23:43 05.04.2020
5349 Clear 12 1019 52 10000 3.1 100 23:23 05.04.2020
5350 Clear 13 1019 52 10000 2.6 100 23:23 05.04.2020
5351 Clear 12 1019 52 10000 3.1 100 23:23 05.04.2020
5352 Clear 13 1019 52 10000 2.1 100 22:55 05.04.2020
5353 Clear 13 1019 52 10000 2.1 100 22:37 05.04.2020
5354 Clear 14 1019 52 10000 2.6 110 22:18 05.04.2020
5355 Clear 14 1019 52 10000 3.1 110 21:44 05.04.2020
5356 Clear 15 1019 31 10000 4.1 120 21:23 05.04.2020
5357 Clear 16 1019 29 10000 4.6 130 20:26 05.04.2020
5358 Clear 17 1019 27 10000 6.7 130 19:45 05.04.2020
5359 Clear 18 1019 27 10000 6.7 130 19:26 05.04.2020
5360 Clear 19 1019 25 10000 5.7 120 18:59 05.04.2020
5361 Clear 19 1019 25 10000 5.7 120 18:39 05.04.2020
5362 Clear 19 1019 25 10000 5.7 120 18:39 05.04.2020
5363 Clear 19 1019 25 10000 5.7 120 18:39 05.04.2020
5364 Clear 19 1019 25 10000 5.7 120 18:39 05.04.2020
5365 Clear 19 1019 25 10000 5.7 120 18:32 05.04.2020
5366 Clear 20 1019 24 10000 7.2 140 17:51 05.04.2020
5367 Clear 20 1019 24 10000 7.2 140 17:51 05.04.2020
5368 Clear 20 1019 24 10000 7.2 140 17:51 05.04.2020
5369 Clear 20 1019 24 10000 7.2 140 17:51 05.04.2020
5370 Clear 20 1020 24 10000 7.2 140 17:23 05.04.2020
5371 Clear 20 1020 25 10000 6.7 130 16:47 05.04.2020
5372 Clear 19 1020 24 10000 6.7 140 16:20 05.04.2020
5373 Clear 19 1020 24 10000 6.7 140 16:20 05.04.2020
5374 Clear 19 1021 25 10000 6.2 110 15:48 05.04.2020
5375 Clear 19 1021 25 10000 6.2 110 15:30 05.04.2020
5376 Clear 18 1021 33 10000 6.7 140 14:48 05.04.2020
5377 Clear 18 1021 33 10000 6.7 140 14:48 05.04.2020
5378 Clear 18 1022 33 10000 7.7 140 14:24 05.04.2020
5379 Clear 18 1022 33 10000 8.2 140 13:41 05.04.2020
5380 Clear 17 1023 33 10000 8.2 130 12:48 05.04.2020
5381 Clear 15 1024 44 10000 8.2 130 11:41 05.04.2020
5382 Clear 14 1024 41 10000 6.7 140 11:20 05.04.2020
5383 Clear 14 1024 41 10000 6.7 140 11:20 05.04.2020
5384 Clear 13 1024 43 10000 5.1 130 10:48 05.04.2020
5385 Clear 12 1024 43 10000 5.1 130 10:24 05.04.2020
5386 Clear 12 1024 43 10000 5.1 130 10:24 05.04.2020
5387 Clear 11 1024 46 10000 5.1 130 09:57 05.04.2020
5388 Clear 10 1024 53 10000 2.6 160 09:31 05.04.2020
5389 Clear 8 1024 65 10000 2.6 150 09:02 05.04.2020
5390 Clear 8 1024 65 10000 2.6 150 09:02 05.04.2020
5391 Clear 8 1024 65 10000 2.6 150 09:02 05.04.2020
5392 Clear 5 1023 67 10000 3.1 140 07:31 05.04.2020
5393 Clear 5 1023 69 10000 1.5 110 04:36 05.04.2020
5394 Clear 6 1023 80 10000 2.6 140 03:31 05.04.2020
5395 Clear 6 1024 60 10000 2.1 120 02:51 05.04.2020
5396 Clear 7 1024 61 10000 2.6 90 01:48 05.04.2020
5397 Clear 7 1024 61 10000 2.6 90 01:28 05.04.2020
5398 Clear 7 1024 61 10000 2.6 90 01:28 05.04.2020
5399 Clear 7 1024 61 10000 1.5 110 00:44 05.04.2020
5400 Clear 7 1024 56 10000 2.6 100 00:21 05.04.2020
5401 Clear 7 1024 56 10000 2.6 100 23:55 04.04.2020
5402 Clear 8 1024 56 10000 2.6 90 23:37 04.04.2020
5403 Clear 8 1024 56 10000 2.1 90 23:19 04.04.2020
5404 Clear 9 1024 56 10000 2.6 90 22:40 04.04.2020
5405 Clear 9 1024 56 10000 2.6 90 22:22 04.04.2020
5406 Clear 9 1024 56 10000 2.1 100 21:59 04.04.2020
5407 Clear 9 1024 56 10000 2.1 100 21:59 04.04.2020
5408 Clear 10 1024 56 10000 2.1 110 21:40 04.04.2020
5409 -273 0 0 0 0 0 21:20 04.04.2020
5410 Clouds 11 1023 44 10000 1.5 110 20:59 04.04.2020
5411 Clear 11 1023 40 10000 2.1 130 20:41 04.04.2020
5412 Clear 12 1023 45 10000 3.6 150 20:22 04.04.2020
5413 Clear 13 1023 45 10000 4.1 150 19:57 04.04.2020
5414 Clear 14 1023 45 10000 4.1 150 19:37 04.04.2020
5415 Clear 14 1023 45 10000 3.1 150 19:19 04.04.2020
5416 Clear 14 1023 45 10000 3.1 110 18:57 04.04.2020
5417 Clear 14 1023 45 10000 3.1 110 18:57 04.04.2020
5418 Clear 14 1023 45 10000 3.1 110 18:38 04.04.2020
5419 Clouds 14 1023 44 10000 3.1 110 18:38 04.04.2020
5420 Clear 15 1023 34 10000 3.1 110 18:19 04.04.2020
5421 Clear 15 1023 33 10000 3.1 130 17:56 04.04.2020
5422 Clear 15 1023 33 10000 3.1 130 17:38 04.04.2020
5423 Clear 15 1023 34 10000 2.6 210 17:18 04.04.2020
5424 Clear 15 1023 33 10000 2.6 130 16:42 04.04.2020
5425 Clear 14 1023 33 10000 2.6 0 16:23 04.04.2020
5426 Clear 14 1024 30 10000 3.1 150 15:57 04.04.2020
5427 Clear 14 1024 30 10000 3.1 150 15:38 04.04.2020
5428 Clear 14 1024 30 10000 3.6 130 15:19 04.04.2020
5429 Clear 13 1024 28 10000 3.6 120 14:44 04.04.2020
5430 Clouds 13 1024 28 10000 3.6 120 14:23 04.04.2020
5431 Clouds 13 1024 32 10000 3.1 0 13:58 04.04.2020
5432 Clouds 13 1025 30 10000 3.1 150 13:40 04.04.2020
5433 Clouds 12 1025 34 10000 2.6 100 13:20 04.04.2020
5434 Clouds 12 1025 34 10000 2.6 0 12:57 04.04.2020
5435 Clouds 12 1025 34 10000 2.6 0 12:39 04.04.2020
5436 Clouds 11 1025 37 10000 1.5 0 12:19 04.04.2020
5437 Clouds 10 1025 46 10000 2.1 0 11:41 04.04.2020
5438 Clouds 9 1025 49 10000 2.1 110 11:23 04.04.2020
5439 Clouds 8 1025 49 10000 2.6 150 10:58 04.04.2020
5440 Clouds 8 1025 49 10000 2.6 150 10:40 04.04.2020
5441 Clouds 7 1025 60 10000 2.1 150 10:22 04.04.2020
5442 Clouds 6 1025 60 10000 2.1 150 09:56 04.04.2020
5443 Clouds 5 1025 49 10000 2.1 140 09:38 04.04.2020
5444 Clouds 3 1025 74 10000 1.5 100 09:20 04.04.2020
5445 Clouds 3 1025 80 10000 0.5 0 08:43 04.04.2020
5446 Clouds 2 1025 80 10000 0.5 0 08:23 04.04.2020
5447 Clouds 1 1024 92 10000 0.5 0 07:57 04.04.2020
5448 Clouds 0 1024 92 10000 0.5 0 07:38 04.04.2020
5449 Clouds 0 1023 92 10000 0.5 0 07:20 04.04.2020
5450 Clouds 0 1023 92 10000 1.5 70 06:38 04.04.2020
5451 Clouds 0 1023 86 10000 0.5 260 05:52 04.04.2020
5452 Clouds 0 1023 86 10000 0.5 260 05:52 04.04.2020
5453 Clouds 1 1023 92 10000 1 60 05:33 04.04.2020
5454 Clouds 1 1023 75 10000 1 50 04:34 04.04.2020
5455 Clouds 1 1022 92 10000 0.5 0 03:57 04.04.2020
5456 Clouds 1 1022 75 10000 1 0 03:37 04.04.2020
5457 Clouds 2 1022 86 10000 0.5 0 02:48 04.04.2020
5458 Clouds 2 1022 86 10000 0.5 0 02:29 04.04.2020
5459 Clouds 3 1022 74 10000 0.55 277 01:48 04.04.2020
5460 Clouds 3 1022 74 10000 0.55 277 01:21 04.04.2020
5461 Clouds 3 1021 74 10000 0.5 150 00:45 04.04.2020
5462 Clouds 4 1021 74 10000 0.5 150 00:26 04.04.2020
5463 Clouds 4 1021 69 10000 2.1 340 23:39 03.04.2020
5464 Clouds 5 1020 60 10000 2.1 340 23:20 03.04.2020
5465 Clouds 5 1020 60 10000 2.1 340 22:56 03.04.2020
5466 Clouds 5 1020 60 10000 3.1 320 22:37 03.04.2020
5467 Clouds 6 1020 56 10000 3.6 310 22:18 03.04.2020
5468 Clouds 7 1019 49 10000 4.1 290 21:43 03.04.2020
5469 Clouds 8 1019 49 10000 5.1 280 21:22 03.04.2020
5470 Clouds 8 1019 49 10000 4.1 280 20:56 03.04.2020
5471 Clouds 8 1019 49 10000 4.1 280 20:56 03.04.2020
5472 Clouds 8 1019 49 10000 4.1 280 20:37 03.04.2020
5473 Clouds 9 1018 49 10000 5.7 280 20:19 03.04.2020
5474 Clouds 9 1018 49 10000 5.7 280 19:56 03.04.2020
5475 Clouds 10 1018 49 10000 6.2 300 19:38 03.04.2020
5476 Clouds 10 1018 56 10000 6.2 280 19:20 03.04.2020
5477 Clouds 10 1018 46 10000 6.7 290 18:58 03.04.2020
5478 Clouds 10 1018 46 10000 6.7 290 18:40 03.04.2020
5479 Clouds 11 1017 51 10000 7.2 280 18:22 03.04.2020
5480 Clouds 11 1017 51 10000 7.2 280 17:55 03.04.2020
5481 Clouds 10 1017 51 10000 7.2 280 17:36 03.04.2020
5482 Clouds 11 1017 50 10000 7.2 290 17:18 03.04.2020
5483 Clouds 11 1017 53 10000 6.2 280 16:43 03.04.2020
5484 Clouds 11 1017 53 10000 5.1 300 16:21 03.04.2020
5485 Clouds 11 1017 53 10000 5.1 300 15:58 03.04.2020
5486 Clouds 11 1017 57 10000 6.2 290 15:39 03.04.2020
5487 Clouds 11 1016 50 10000 6.7 280 15:20 03.04.2020
5488 Clouds 10 1016 50 10000 6.2 280 14:56 03.04.2020
5489 Clouds 11 1016 50 10000 6.2 280 14:37 03.04.2020
5490 Clouds 10 1016 50 10000 6.2 280 14:19 03.04.2020
5491 Clouds 10 1016 50 10000 6.2 280 13:43 03.04.2020
5492 Clouds 10 1016 53 10000 6.7 270 13:25 03.04.2020
5493 Clouds 10 1016 61 10000 5.7 270 12:56 03.04.2020
5494 Clouds 10 1016 61 10000 5.7 270 12:37 03.04.2020
5495 Clouds 10 1016 61 10000 6.2 280 12:18 03.04.2020
5496 Clouds 10 1015 61 10000 6.7 260 11:54 03.04.2020
5497 Clouds 10 1015 61 10000 6.7 260 11:36 03.04.2020
5498 Clouds 10 1015 66 10000 4.6 260 11:18 03.04.2020
5499 Clouds 9 1015 70 10000 5.1 270 10:54 03.04.2020
5500 Clouds 9 1015 70 10000 5.1 270 10:36 03.04.2020
5501 Clouds 9 1015 70 10000 5.7 270 10:18 03.04.2020
5502 Clouds 8 1014 75 10000 4.6 270 09:40 03.04.2020
5503 Clouds 8 1014 75 10000 4.6 270 09:40 03.04.2020
5504 Clouds 8 1014 75 10000 4.6 270 09:22 03.04.2020
5505 Clouds 7 1014 75 10000 4.6 270 08:58 03.04.2020
5506 Clouds 7 1014 75 10000 3.1 270 08:40 03.04.2020
5507 Clouds 7 1014 75 10000 3.1 270 08:40 03.04.2020
5508 Clouds 7 1014 75 10000 3.6 280 08:22 03.04.2020
5509 Clouds 7 1013 75 10000 4.6 270 07:50 03.04.2020
5510 Clouds 7 1013 75 10000 4.6 270 07:32 03.04.2020
5511 Clouds 7 1012 75 10000 4.6 270 06:50 03.04.2020
5512 Clouds 7 1012 81 10000 3.1 260 06:25 03.04.2020
5513 Rain 7 1012 81 10000 4.1 270 05:40 03.04.2020
5514 Clouds 7 1012 65 10000 3.1 250 03:47 03.04.2020
5515 Clouds 7 1012 65 10000 3.1 250 03:29 03.04.2020
5516 Clouds 7 1012 65 10000 2.1 220 02:29 03.04.2020
5517 Clouds 7 1012 65 10000 2.6 210 01:24 03.04.2020
5518 Clouds 7 1012 65 10000 2.6 220 00:43 03.04.2020
5519 Clouds 7 1012 63 10000 2.6 230 00:23 03.04.2020
5520 Clouds 7 1012 63 10000 3.1 250 23:43 02.04.2020
5521 Clouds 7 1012 63 10000 4.6 250 23:24 02.04.2020
5522 Clouds 7 1012 63 10000 4.6 250 22:59 02.04.2020
5523 Clouds 7 1012 61 10000 6.2 270 22:41 02.04.2020
5524 Clouds 8 1012 63 10000 5.7 270 22:21 02.04.2020
5525 Clouds 8 1012 63 10000 5.7 270 21:57 02.04.2020
5526 Clouds 8 1013 69 10000 6.2 280 21:37 02.04.2020
5527 Clouds 8 1012 59 10000 7.2 310 21:18 02.04.2020
5528 Clouds 8 1012 59 10000 7.2 300 20:44 02.04.2020
5529 Clouds 9 1012 49 10000 7.2 290 20:24 02.04.2020
5530 Clouds 9 1012 49 10000 7.2 290 19:57 02.04.2020
5531 Clouds 9 1012 49 10000 6.7 300 19:38 02.04.2020
5532 Clouds 10 1012 46 10000 5.7 300 19:20 02.04.2020
5533 Clouds 10 1011 43 10000 6.2 300 18:54 02.04.2020
5534 Clouds 10 1012 43 10000 5.7 300 18:36 02.04.2020
5535 Clouds 10 1012 43 10000 5.7 300 18:18 02.04.2020
5536 Clouds 10 1012 43 10000 5.7 310 17:42 02.04.2020
5537 Clouds 11 1012 46 10000 6.2 290 17:24 02.04.2020
5538 Clouds 11 1012 46 10000 6.2 290 16:58 02.04.2020
5539 Clouds 10 1012 46 10000 6.2 290 16:40 02.04.2020
5540 Clouds 11 1012 46 10000 6.2 280 16:22 02.04.2020
5541 Clouds 11 1012 46 10000 6.2 280 15:57 02.04.2020
5542 Clouds 11 1012 46 10000 5.7 290 15:39 02.04.2020
5543 Clouds 10 1013 47 10000 4.6 320 15:19 02.04.2020
5544 Clouds 10 1013 47 10000 4.6 320 14:57 02.04.2020
5545 Clouds 10 1013 47 10000 5.1 300 14:38 02.04.2020
5546 Clouds 10 1014 43 10000 4.6 280 14:18 02.04.2020
5547 Clouds 9 1014 43 10000 4.1 260 13:55 02.04.2020
5548 Clouds 9 1014 43 10000 4.1 260 13:37 02.04.2020
5549 Clouds 9 1014 46 10000 2.1 0 13:18 02.04.2020
5550 Clouds 9 1014 49 10000 2.6 260 12:45 02.04.2020
5551 Clouds 9 1014 49 10000 2.6 260 12:45 02.04.2020
5552 Clouds 8 1015 52 10000 1.5 250 12:20 02.04.2020
5553 Clear 7 1015 56 10000 2.1 290 11:58 02.04.2020
5554 Clear 7 1015 56 10000 2.1 290 11:58 02.04.2020
5555 Clear 7 1015 56 10000 2.1 290 11:39 02.04.2020
5556 Clear 7 1015 56 10000 1 0 11:20 02.04.2020
5557 Clear 7 1015 56 10000 2.1 290 11:20 02.04.2020
5558 Clear 6 1015 60 10000 1 0 10:57 02.04.2020
5559 Clear 6 1015 56 10000 1 0 10:57 02.04.2020
5560 Clear 6 1015 60 10000 1 0 10:38 02.04.2020
5561 Clear 5 1015 64 10000 1.5 140 10:20 02.04.2020
5562 Clear 4 1015 74 10000 2.6 150 09:59 02.04.2020
5563 Clouds 3 1015 74 10000 2.6 150 09:41 02.04.2020
5564 Clouds 2 1016 86 10000 1 150 09:21 02.04.2020
5565 Clouds 2 1016 86 10000 0.5 160 08:48 02.04.2020
5566 Clouds 1 1015 86 10000 1 0 08:28 02.04.2020
5567 Clouds 0 1015 86 10000 1 0 07:59 02.04.2020
5568 Clouds 0 1015 86 10000 1 0 07:41 02.04.2020
5569 Clouds 0 1015 86 10000 1 0 07:19 02.04.2020
5570 Clouds 0 1015 86 10000 2.1 150 06:25 02.04.2020
5571 Clear 0 1016 86 10000 1.5 60 05:59 02.04.2020
5572 Clear 0 1016 86 10000 1.5 60 05:41 02.04.2020
5573 Clear 1 1016 73 10000 2.1 150 02:46 02.04.2020
5574 Clear 2 1017 74 10000 0.5 210 01:28 02.04.2020
5575 Clear 3 1017 64 10000 2.1 40 00:42 02.04.2020
5576 Clear 4 1017 64 10000 3.1 50 00:24 02.04.2020
5577 Clear 4 1017 60 10000 2.6 40 23:41 01.04.2020
5578 Clear 4 1017 52 10000 2.6 30 23:20 01.04.2020
5579 Clear 5 1017 51 10000 2.1 10 22:58 01.04.2020
5580 Clear 5 1017 51 10000 2.1 10 22:58 01.04.2020
5581 Clear 5 1017 51 10000 2.1 10 22:39 01.04.2020
5582 Clear 5 1017 51 10000 2.1 10 22:21 01.04.2020
5583 Clear 6 1017 45 10000 2.1 350 21:42 01.04.2020
5584 Clear 6 1017 45 10000 2.1 350 21:42 01.04.2020
5585 -273 0 0 0 0 0 21:22 01.04.2020
5586 Clear 6 1017 45 10000 1.5 350 21:21 01.04.2020
5587 Clear 6 1017 45 10000 1.5 350 21:21 01.04.2020
5588 Clear 6 1017 45 10000 1.5 350 21:21 01.04.2020
5589 Clear 6 1017 45 10000 1.5 350 21:20 01.04.2020
5590 Clear 6 1017 45 10000 1.5 350 20:57 01.04.2020
5591 Clear 7 1017 42 10000 2.1 340 20:39 01.04.2020
5592 Clear 8 1017 39 10000 2.6 330 20:20 01.04.2020
5593 Clear 8 1017 39 10000 2.6 330 20:20 01.04.2020
5594 Clear 9 1017 39 10000 2.6 330 19:59 01.04.2020
5595 Clear 9 1017 34 10000 3.1 310 19:41 01.04.2020
5596 -273 0 0 0 0 0 19:20 01.04.2020
5597 Clear 10 1018 32 10000 3.1 310 18:44 01.04.2020
5598 Clear 11 1018 29 10000 4.1 280 18:25 01.04.2020
5599 Clear 11 1018 29 10000 3.6 300 17:58 01.04.2020
5600 Clear 11 1018 29 10000 3.6 300 17:38 01.04.2020
5601 Clear 11 1018 29 10000 3.1 280 17:20 01.04.2020
5602 Clear 11 1018 29 10000 3.1 280 16:59 01.04.2020
5603 Clear 11 1019 29 10000 2.6 270 16:40 01.04.2020
5604 Clear 11 1019 29 10000 2.1 250 16:22 01.04.2020
5605 Clear 11 1019 32 10000 2.1 270 15:58 01.04.2020
5606 Clear 11 1019 32 10000 2.1 270 15:38 01.04.2020
5607 Clear 11 1020 32 10000 2.1 0 15:20 01.04.2020
5608 Clear 10 1020 32 10000 2.1 0 14:57 01.04.2020
5609 Clear 10 1020 34 10000 2.6 280 14:38 01.04.2020
5610 Clear 10 1021 34 10000 3.1 330 14:19 01.04.2020
5611 Clear 10 1021 34 10000 3.1 330 13:57 01.04.2020
5612 Clear 9 1021 34 10000 2.6 300 13:37 01.04.2020
5613 Clear 9 1022 36 10000 2.1 0 13:18 01.04.2020
5614 Clear 9 1022 36 10000 2.1 0 12:54 01.04.2020
5615 Clear 8 1022 36 10000 1.5 0 12:36 01.04.2020
5616 Clear 8 1023 33 10000 1.5 0 12:18 01.04.2020
5617 Clear 7 1023 39 10000 1.5 0 11:42 01.04.2020
5618 Clear 7 1023 39 10000 1.5 0 11:23 01.04.2020
5619 Clear 6 1023 41 10000 1.5 0 10:58 01.04.2020
5620 Clear 5 1024 48 10000 1.5 150 10:38 01.04.2020
5621 Clear 5 1024 51 10000 2.1 160 10:19 01.04.2020
5622 Clear 4 1024 51 10000 2.1 160 09:57 01.04.2020
5623 Clear 3 1024 59 10000 1.5 150 09:39 01.04.2020
5624 Clouds 1 1024 64 10000 1.5 150 09:18 01.04.2020
5625 Clouds 0 1024 74 10000 0.5 120 08:42 01.04.2020
5626 Clouds -1 1024 79 10000 1.5 120 08:18 01.04.2020
5627 Clouds -2 1024 79 10000 0.5 0 07:46 01.04.2020
5628 Clouds -2 1024 79 10000 1.5 140 07:21 01.04.2020
5629 Clouds -2 1024 79 10000 1.5 140 06:58 01.04.2020
5630 Clouds -1 1024 79 10000 0.5 0 06:27 01.04.2020
5631 Clouds -1 1024 79 10000 0.5 0 05:59 01.04.2020
5632 Clouds -1 1025 74 10000 0.5 0 04:36 01.04.2020
5633 Clouds -1 1025 74 10000 1 0 03:35 01.04.2020
5634 Clear 0 1025 59 0 2.1 70 02:57 01.04.2020
5635 Clear 0 1026 68 10000 2.1 60 02:23 01.04.2020
5636 Clear 1 1026 59 10000 0.5 0 01:43 01.04.2020
5637 Clear 1 1026 59 10000 0.5 0 01:23 01.04.2020
5638 Clear 1 1026 76 10000 1.5 90 00:47 01.04.2020
5639 Clear 2 1026 64 10000 2.1 40 00:21 01.04.2020
5640 Clear 2 1027 59 10000 1.5 120 23:54 31.03.2020
5641 Clear 3 1027 59 10000 1.5 120 23:36 31.03.2020
5642 Clear 3 1027 55 10000 1 30 23:18 31.03.2020
5643 Clear 3 1027 51 10000 2.1 40 22:40 31.03.2020
5644 Clear 4 1027 44 10000 3.1 40 22:21 31.03.2020
5645 Clear 4 1027 44 10000 3.1 30 21:58 31.03.2020
5646 Clear 4 1027 44 10000 3.1 30 21:58 31.03.2020
5647 Clear 5 1027 44 10000 3.1 30 21:39 31.03.2020
5648 Clear 5 1027 41 10000 4.1 20 21:21 31.03.2020
5649 Clear 6 1027 41 10000 4.1 20 20:57 31.03.2020
5650 Clear 7 1027 39 10000 5.1 20 20:37 31.03.2020
5651 Clear 7 1027 39 10000 5.1 20 20:19 31.03.2020
5652 Clear 8 1027 39 10000 5.1 10 19:56 31.03.2020
5653 Clear 8 1027 39 10000 5.1 10 19:37 31.03.2020
5654 Clear 9 1027 36 10000 4.6 20 19:19 31.03.2020
5655 Clear 9 1026 34 10000 4.1 20 18:44 31.03.2020
5656 Clear 10 1027 34 10000 4.6 360 18:20 31.03.2020
5657 Clear 10 1027 31 10000 4.1 30 17:57 31.03.2020
5658 Clear 10 1027 31 10000 4.1 30 17:57 31.03.2020
5659 Clear 10 1027 31 10000 4.1 30 17:39 31.03.2020
5660 Clear 10 1027 29 10000 1.5 0 17:21 31.03.2020
5661 Clear 10 1027 29 10000 4.1 20 16:56 31.03.2020
5662 Clear 10 1027 29 10000 4.1 20 16:37 31.03.2020
5663 Clear 10 1028 29 10000 2.1 0 16:18 31.03.2020
5664 Clear 10 1028 29 10000 2.1 0 15:56 31.03.2020
5665 Clear 9 1028 29 10000 2.6 0 15:37 31.03.2020
5666 Clear 9 1028 29 10000 2.6 0 15:37 31.03.2020
5667 Clear 9 1028 34 10000 3.1 0 15:18 31.03.2020
5668 Clear 9 1028 36 10000 3.6 0 14:43 31.03.2020
5669 Clear 9 1029 36 10000 3.6 30 14:24 31.03.2020
5670 Clear 9 1029 36 10000 3.6 30 13:59 31.03.2020
5671 Clear 8 1029 39 10000 3.1 100 13:41 31.03.2020
5672 Clear 8 1029 39 10000 2.6 0 13:19 31.03.2020
5673 Clear 8 1029 39 10000 2.1 0 12:54 31.03.2020
5674 Clear 7 1029 39 10000 2.1 0 12:36 31.03.2020
5675 Clear 7 1029 42 10000 4.1 90 12:18 31.03.2020
5676 Clouds 6 1030 42 10000 4.6 60 11:38 31.03.2020
5677 Clouds 6 1030 52 10000 3.6 90 11:19 31.03.2020
5678 Clouds 5 1029 56 10000 4.1 70 10:57 31.03.2020
5679 Clouds 5 1029 56 10000 4.1 70 10:39 31.03.2020
5680 Clouds 4 1029 58 10000 3.6 50 10:21 31.03.2020
5681 Clouds 4 1029 58 10000 3.6 50 10:21 31.03.2020
5682 Clear 4 1029 58 10000 3.1 70 09:56 31.03.2020
5683 Clear 3 1029 58 10000 3.1 70 09:37 31.03.2020
5684 Clouds 2 1029 83 10000 0.5 0 09:19 31.03.2020
5685 Clouds 2 1029 83 10000 1.5 40 08:55 31.03.2020
5686 Clouds 2 1029 83 10000 1.5 40 08:37 31.03.2020
5687 Clouds 1 1029 83 10000 2.6 50 08:18 31.03.2020
5688 Clouds 1 1028 83 10000 3.1 50 07:44 31.03.2020
5689 Clouds 1 1028 83 10000 3.1 50 07:25 31.03.2020
5690 Clouds 1 1028 83 10000 2.6 60 06:59 31.03.2020
5691 Clouds 1 1028 83 10000 2.1 50 06:41 31.03.2020
5692 Clouds 2 1027 81 10000 1.5 40 05:44 31.03.2020
5693 Clouds 2 1027 100 10000 1.5 10 05:24 31.03.2020
5694 Clouds 3 1027 93 10000 2.6 20 02:57 31.03.2020
5695 -273 0 0 0 0 0 01:47 31.03.2020
5696 Rain 4 1026 100 10000 2.1 350 01:27 31.03.2020
5697 Clouds 4 1026 93 10000 0.5 0 00:43 31.03.2020
5698 Clouds 5 1027 93 10000 1 30 00:23 31.03.2020
5699 Clouds 5 1027 93 10000 1.5 340 23:41 30.03.2020
5700 Clouds 5 1026 93 10000 0.5 0 23:20 30.03.2020
5701 Clouds 5 1026 93 10000 0.5 0 22:58 30.03.2020
5702 Clouds 5 1026 93 10000 0.5 0 22:58 30.03.2020
5703 Rain 5 1026 80 10000 2.1 350 22:39 30.03.2020
5704 Rain 5 1026 80 10000 1 0 22:19 30.03.2020
5705 Rain 6 1026 80 10000 1 0 21:58 30.03.2020
5706 Rain 6 1026 75 10000 1.5 30 21:38 30.03.2020
5707 Rain 6 1026 70 10000 4.1 340 21:20 30.03.2020
5708 Rain 6 1026 56 10000 2.6 330 20:58 30.03.2020
5709 Rain 6 1026 56 10000 2.6 330 20:39 30.03.2020
5710 Rain 7 1026 56 10000 2.6 320 20:20 30.03.2020
5711 Clouds 7 1026 52 10000 3.6 310 19:56 30.03.2020
5712 Clouds 7 1026 52 10000 3.6 310 19:38 30.03.2020
5713 Clouds 7 1026 52 10000 3.6 340 19:20 30.03.2020
5714 Clouds 7 1026 52 10000 4.1 310 18:43 30.03.2020
5715 Clouds 7 1026 52 10000 4.1 310 18:25 30.03.2020
5716 Clouds 8 1026 48 10000 3.6 330 17:58 30.03.2020
5717 Clouds 8 1026 48 10000 3.6 330 17:39 30.03.2020
5718 Clouds 8 1027 45 10000 5.7 320 17:20 30.03.2020
5719 Clouds 8 1027 45 10000 5.7 320 16:58 30.03.2020
5720 Clouds 8 1027 48 10000 3.6 330 16:39 30.03.2020
5721 Clouds 8 1028 45 10000 5.1 320 16:20 30.03.2020
5722 Clouds 8 1028 45 10000 5.1 320 16:20 30.03.2020
5723 Clouds 8 1028 45 10000 5.1 320 16:20 30.03.2020
5724 Clouds 8 1028 45 10000 5.1 320 15:56 30.03.2020
5725 Clouds 7 1028 45 10000 4.1 330 15:38 30.03.2020
5726 Clear 7 1028 42 10000 5.7 310 15:20 30.03.2020
5727 Clear 7 1028 39 10000 4.1 0 14:56 30.03.2020
5728 Clear 7 1028 39 10000 4.1 0 14:37 30.03.2020
5729 Clear 7 1028 36 10000 4.1 300 14:18 30.03.2020
5730 Clear 7 1029 35 10000 2.6 220 13:56 30.03.2020
5731 Clear 6 1029 35 10000 2.6 220 13:37 30.03.2020
5732 Clear 6 1029 38 10000 4.1 300 13:19 30.03.2020
5733 Clear 5 1030 38 10000 2.6 270 12:44 30.03.2020
5734 Clear 5 1030 32 10000 3.1 300 12:21 30.03.2020
5735 Clear 5 1030 32 10000 3.1 300 12:21 30.03.2020
5736 Clear 4 1031 38 10000 1.5 0 11:57 30.03.2020
5737 Clear 4 1031 38 10000 1.5 0 11:39 30.03.2020
5738 Clear 3 1031 37 10000 1 0 11:21 30.03.2020
5739 Clear 3 1031 44 10000 1.5 290 10:55 30.03.2020
5740 Clear 2 1031 44 10000 1.5 290 10:36 30.03.2020
5741 Clear 2 1031 47 10000 1 0 10:18 30.03.2020
5742 Clear 0 1032 60 10000 0.5 0 09:40 30.03.2020
5743 Clear -1 1031 82 10000 0.5 120 09:19 30.03.2020
5744 Clear -2 1031 82 10000 0.5 120 08:56 30.03.2020
5745 Clear -2 1031 68 10000 1 70 08:36 30.03.2020
5746 Clear -3 1031 63 10000 1 0 08:18 30.03.2020
5747 Clear -4 1032 63 10000 1.5 60 07:42 30.03.2020
5748 Clear -4 1032 58 10000 1.5 360 07:21 30.03.2020
5749 Clear -4 1032 58 10000 2.1 20 06:43 30.03.2020
5750 Clear -4 1032 58 10000 2.1 20 06:25 30.03.2020
5751 Clear -3 1032 58 10000 1.5 30 05:44 30.03.2020
5752 Clear -2 1032 54 10000 3.6 360 04:31 30.03.2020
5753 Clear -2 1032 54 10000 2.6 30 03:57 30.03.2020
5754 Clear -1 1032 54 10000 3.1 20 02:45 30.03.2020
5755 Clear 0 1032 82 10000 3.6 10 01:57 30.03.2020
5756 Clear 0 1032 47 10000 4.1 20 01:18 30.03.2020
5757 Clear 1 1032 47 10000 3.6 20 00:29 30.03.2020
5758 Clouds 2 1032 47 10000 4.1 20 23:56 29.03.2020
5759 Clouds 2 1032 51 10000 4.6 20 23:37 29.03.2020
5760 Clouds 2 1032 55 10000 4.1 20 23:19 29.03.2020
5761 Clouds 3 1032 55 10000 4.1 20 22:55 29.03.2020
5762 Clouds 3 1032 59 10000 4.6 20 22:37 29.03.2020
5763 Clouds 3 1032 59 10000 4.6 20 22:37 29.03.2020
5764 Clouds 3 1031 59 10000 6.2 30 22:18 29.03.2020
5765 Clouds 3 1031 55 10000 6.7 30 21:38 29.03.2020
5766 Clouds 3 1031 60 10000 6.7 20 21:20 29.03.2020
5767 Clouds 3 1030 64 10000 6.7 10 20:56 29.03.2020
5768 Clouds 3 1030 64 10000 6.7 10 20:37 29.03.2020
5769 Clouds 4 1030 69 10000 6.7 30 20:19 29.03.2020
5770 Snow 3 1029 74 10000 5.7 20 19:58 29.03.2020
5771 Snow 3 1029 74 10000 5.7 20 19:40 29.03.2020
5772 Clouds 4 1029 69 10000 8.2 20 19:22 29.03.2020
5773 Snow 3 1028 72 10000 7.2 20 18:57 29.03.2020
5774 Snow 3 1028 72 10000 7.2 20 18:38 29.03.2020
5775 Snow 3 1028 69 10000 6.2 30 18:20 29.03.2020
5776 Snow 3 1028 69 10000 5.7 20 17:56 29.03.2020
5777 Snow 3 1028 69 10000 5.7 20 17:38 29.03.2020
5778 Clouds 3 1027 69 10000 6.2 10 17:19 29.03.2020
5779 Clouds 3 1027 74 10000 6.7 10 16:57 29.03.2020
5780 Clouds 3 1027 74 10000 6.7 10 16:38 29.03.2020
5781 Clouds 3 1027 74 10000 6.7 10 16:38 29.03.2020
5782 Clouds 3 1027 73 10000 7.2 360 16:19 29.03.2020
5783 Clouds 3 1027 73 10000 8.7 10 15:43 29.03.2020
5784 Clouds 3 1027 73 10000 8.7 10 15:25 29.03.2020
5785 Rain 4 1026 69 10000 7.7 10 14:59 29.03.2020
5786 Rain 4 1026 67 10000 7.2 360 14:40 29.03.2020
5787 Clouds 4 1026 67 10000 7.7 360 14:20 29.03.2020
5788 Clouds 4 1026 67 10000 7.7 360 13:59 29.03.2020
5789 Clouds 4 1026 65 10000 8.7 20 13:41 29.03.2020
5790 Rain 4 1026 86 10000 5.1 360 13:21 29.03.2020
5791 Rain 4 1026 60 10000 4.6 340 12:58 29.03.2020
5792 Rain 5 1026 60 10000 4.6 340 12:39 29.03.2020
5793 Rain 5 1026 52 10000 7.7 360 12:19 29.03.2020
5794 Clouds 5 1026 56 10000 8.7 10 11:58 29.03.2020
5795 Clouds 5 1026 56 10000 8.7 10 11:37 29.03.2020
5796 Clouds 5 1025 60 10000 6.7 10 11:19 29.03.2020
5797 Clouds 5 1025 65 10000 8.2 20 10:39 29.03.2020
5798 Clouds 4 1025 65 10000 7.2 10 10:20 29.03.2020
5799 Clouds 4 1025 65 10000 7.2 10 09:56 29.03.2020
5800 Clouds 4 1024 69 10000 5.7 350 09:38 29.03.2020
5801 Clouds 4 1024 74 10000 4.1 340 09:18 29.03.2020
5802 Clouds 3 1024 80 10000 2.6 330 08:43 29.03.2020
5803 Clouds 3 1024 80 10000 2.6 330 08:25 29.03.2020
5804 Clouds 3 1024 80 10000 3.6 320 07:47 29.03.2020
5805 Clouds 3 1024 80 10000 3.6 320 07:47 29.03.2020
5806 Clouds 3 1024 74 10000 4.6 320 07:23 29.03.2020
5807 Clouds 3 1024 74 10000 4.6 330 06:40 29.03.2020
5808 Clouds 3 1024 74 10000 3.1 320 04:56 29.03.2020
5809 Clouds 3 1025 69 10000 3.1 330 03:41 29.03.2020
5810 Clouds 4 1025 64 10000 4.1 350 03:22 29.03.2020
5811 Clouds 4 1025 65 10000 4.1 340 01:44 29.03.2020
5812 Clouds 4 1025 69 10000 3.6 350 01:23 29.03.2020
5813 Clouds 5 1024 65 10000 4.1 350 00:46 29.03.2020
5814 Clouds 5 1024 64 10000 4.1 340 00:28 29.03.2020
5815 Clouds 5 1024 64 10000 4.6 350 23:41 28.03.2020
5816 Clouds 5 1024 70 10000 5.1 360 23:23 28.03.2020
5817 Clouds 6 1023 65 10000 5.1 360 22:54 28.03.2020
5818 Clouds 6 1023 65 10000 5.1 360 22:36 28.03.2020
5819 Clouds 6 1023 65 10000 4.6 360 22:18 28.03.2020
5820 Clouds 7 1023 65 10000 4.1 360 21:41 28.03.2020
5821 Clouds 8 1022 61 10000 6.7 360 21:23 28.03.2020
5822 Clouds 8 1022 61 10000 4.6 10 20:58 28.03.2020
5823 Clouds 8 1022 61 10000 4.6 10 20:39 28.03.2020
5824 Clear 9 1022 43 10000 4.6 360 20:20 28.03.2020
5825 Clear 9 1022 43 10000 4.6 360 19:56 28.03.2020
5826 Clear 10 1021 49 10000 4.1 360 19:37 28.03.2020
5827 Clear 10 1021 40 10000 3.6 360 19:18 28.03.2020
5828 Clear 11 1020 49 10000 6.2 10 18:47 28.03.2020
5829 Clear 12 1020 37 10000 5.1 20 18:23 28.03.2020
5830 Clear 13 1020 35 10000 6.2 10 17:58 28.03.2020
5831 Clear 13 1020 35 10000 6.2 10 17:38 28.03.2020
5832 Clear 14 1020 35 10000 7.2 360 17:19 28.03.2020
5833 Clear 14 1020 33 10000 7.7 360 16:42 28.03.2020
5834 Clear 14 1020 33 10000 7.2 360 16:20 28.03.2020
5835 Clear 14 1020 33 10000 7.2 360 15:56 28.03.2020
5836 Clear 15 1020 31 10000 7.7 10 15:38 28.03.2020
5837 Clear 15 1020 31 10000 7.7 360 15:19 28.03.2020
5838 Clear 15 1020 31 10000 7.2 360 14:43 28.03.2020
5839 Clear 15 1020 31 10000 7.2 360 14:23 28.03.2020
5840 Clear 15 1020 36 10000 7.7 20 13:59 28.03.2020
5841 Clear 15 1020 38 10000 7.2 10 13:38 28.03.2020
5842 Clear 15 1020 33 10000 3.6 20 13:19 28.03.2020
5843 Clear 15 1020 36 10000 4.1 30 12:39 28.03.2020
5844 Clear 14 1020 41 10000 4.1 270 12:21 28.03.2020
5845 Clear 14 1020 47 10000 3.1 260 11:42 28.03.2020
5846 Clear 13 1020 54 10000 2.6 280 11:21 28.03.2020
5847 Clear 12 1020 54 10000 1.5 270 10:56 28.03.2020
5848 Clear 12 1020 54 10000 1.5 270 10:38 28.03.2020
5849 Clear 11 1021 57 10000 1.5 290 10:18 28.03.2020
5850 Clear 10 1021 61 10000 1 0 09:41 28.03.2020
5851 Clear 9 1020 70 10000 0.5 0 09:23 28.03.2020
5852 Clear 8 1020 70 10000 1 0 08:45 28.03.2020
5853 Clear 8 1020 70 10000 1 0 08:27 28.03.2020
5854 Clouds 7 1020 80 10000 0.5 150 07:59 28.03.2020
5855 Clouds 6 1020 80 7000 2.1 260 07:41 28.03.2020
5856 Clouds 5 1019 86 10000 1.5 70 06:56 28.03.2020
5857 Clouds 5 1020 70 10000 3.6 20 06:33 28.03.2020
5858 Clouds 5 1019 78 10000 1.5 60 05:41 28.03.2020
5859 Clouds 6 1019 78 7000 1.5 260 05:21 28.03.2020
5860 Clouds 6 1019 78 7000 1.5 260 04:40 28.03.2020
5861 Clouds 6 1019 75 10000 1.5 60 03:34 28.03.2020
5862 Clouds 8 1019 70 10000 0.5 0 01:53 28.03.2020
5863 Clear 8 1018 75 10000 1 0 01:25 28.03.2020
5864 Clear 8 1018 70 10000 0.5 0 00:57 28.03.2020
5865 Clear 9 1018 70 10000 0.5 0 00:36 28.03.2020
5866 Clear 9 1018 70 10000 0.99 45 23:56 27.03.2020
5867 Clear 9 1018 70 10000 0.99 45 23:38 27.03.2020
5868 Clear 10 1018 70 10000 0.5 0 23:19 27.03.2020
5869 Clear 10 1018 65 10000 1.5 60 22:55 27.03.2020
5870 Clear 10 1018 65 10000 1.5 60 22:37 27.03.2020
5871 Clear 10 1018 57 10000 3.1 50 22:18 27.03.2020
5872 Clear 11 1018 57 10000 2.6 50 21:43 27.03.2020
5873 Clear 11 1018 57 10000 2.1 40 21:24 27.03.2020
5874 Clear 11 1018 57 10000 2.1 40 20:59 27.03.2020
5875 Clear 12 1018 53 10000 2.1 50 20:41 27.03.2020
5876 Clear 12 1017 50 10000 2.1 50 20:20 27.03.2020
5877 Clear 12 1017 50 10000 2.1 50 20:20 27.03.2020
5878 Clear 13 1017 43 10000 1 100 19:57 27.03.2020
5879 Clear 13 1017 43 10000 1 100 19:39 27.03.2020
5880 Clear 13 1017 43 10000 1 100 19:39 27.03.2020
5881 -273 0 0 0 0 0 19:20 27.03.2020
5882 Clear 15 1017 36 10000 2.6 90 18:44 27.03.2020
5883 Clear 15 1017 36 10000 2.6 90 18:25 27.03.2020
5884 Clear 16 1016 33 10000 4.1 80 17:59 27.03.2020
5885 Clear 16 1016 33 10000 4.1 80 17:39 27.03.2020
5886 Clear 16 1016 43 10000 3.6 100 17:20 27.03.2020
5887 Clear 16 1016 43 10000 4.1 80 16:44 27.03.2020
5888 Clear 16 1016 33 10000 4.6 100 16:26 27.03.2020
5889 Clear 16 1016 33 10000 4.6 100 15:57 27.03.2020
5890 Clear 16 1017 33 10000 4.1 80 15:39 27.03.2020
5891 Clear 17 1017 43 10000 4.1 60 15:21 27.03.2020
5892 Clear 17 1017 36 10000 3.6 90 14:45 27.03.2020
5893 Clear 16 1017 41 10000 4.6 100 14:24 27.03.2020
5894 Clear 16 1017 41 10000 4.6 100 13:56 27.03.2020
5895 Clear 16 1017 41 10000 3.6 30 13:37 27.03.2020
5896 Clear 15 1017 35 10000 4.6 60 13:18 27.03.2020
5897 Clear 15 1018 35 10000 3.6 50 12:49 27.03.2020
5898 Clear 14 1018 41 10000 4.1 40 12:21 27.03.2020
5899 Clear 14 1018 37 10000 2.6 100 11:59 27.03.2020
5900 Clear 14 1018 37 10000 2.6 100 11:59 27.03.2020
5901 Clear 13 1018 37 10000 2.6 100 11:41 27.03.2020
5902 Clear 13 1018 37 10000 2.6 100 11:41 27.03.2020
5903 Clear 12 1018 37 10000 3.1 40 11:22 27.03.2020
5904 Clear 11 1018 40 10000 3.1 80 10:54 27.03.2020
5905 Clear 11 1018 40 10000 3.1 80 10:36 27.03.2020
5906 Clear 10 1019 43 10000 1.5 0 10:18 27.03.2020
5907 Clear 10 1019 45 10000 1 0 09:56 27.03.2020
5908 Clear 10 1019 45 10000 1 0 09:37 27.03.2020
5909 Clear 8 1019 56 10000 1 0 09:18 27.03.2020
5910 Clear 8 1018 56 10000 1 0 08:55 27.03.2020
5911 Clear 8 1018 56 10000 1 0 08:37 27.03.2020
5912 Clear 4 1019 69 10000 1.5 180 08:18 27.03.2020
5913 Clear 5 1019 69 10000 1 0 07:49 27.03.2020
5914 Clear 4 1019 74 10000 0.5 0 07:23 27.03.2020
5915 Clear 4 1019 69 10000 0.5 0 06:51 27.03.2020
5916 Clear 4 1018 64 10000 2.1 60 06:33 27.03.2020
5917 Clear 4 1019 60 10000 3.6 50 04:23 27.03.2020
5918 Clear 5 1019 60 10000 3.1 40 02:25 27.03.2020
5919 Clear 5 1020 60 10000 4.1 50 01:23 27.03.2020
5920 Clear 6 1020 60 10000 3.6 40 00:48 27.03.2020
5921 Clear 6 1020 60 10000 2.6 40 00:23 27.03.2020
5922 Clear 6 1020 52 10000 3.6 60 23:44 26.03.2020
5923 Clear 7 1020 52 10000 2.6 50 23:22 26.03.2020
5924 Clear 7 1020 56 10000 3.1 40 22:58 26.03.2020
5925 Clear 7 1020 56 10000 3.1 40 22:38 26.03.2020
5926 Clear 7 1020 60 10000 2.6 50 22:19 26.03.2020
5927 Clear 7 1020 60 10000 2.6 50 21:56 26.03.2020
5928 Clear 8 1020 52 10000 1.5 40 21:37 26.03.2020
5929 Clear 8 1020 48 10000 1.5 40 21:18 26.03.2020
5930 Clear 9 1020 48 10000 1.5 40 20:57 26.03.2020
5931 Clear 9 1021 48 10000 2.6 60 20:38 26.03.2020
5932 Clear 9 1021 45 10000 2.1 70 20:20 26.03.2020
5933 Clear 10 1020 42 10000 3.1 70 19:54 26.03.2020
5934 Clear 10 1020 42 10000 3.1 70 19:36 26.03.2020
5935 Clear 11 1020 39 10000 3.1 80 19:18 26.03.2020
5936 Clear 11 1020 34 10000 4.6 80 18:55 26.03.2020
5937 Clear 12 1020 34 10000 5.1 70 18:36 26.03.2020
5938 Clear 12 1020 34 10000 5.1 70 18:18 26.03.2020
5939 Clear 12 1020 34 10000 4.6 90 17:42 26.03.2020
5940 Clear 13 1020 32 10000 5.1 120 17:18 26.03.2020
5941 Clear 12 1019 30 10000 4.1 110 16:45 26.03.2020
5942 Clear 13 1019 30 10000 4.1 110 16:45 26.03.2020
5943 Clear 13 1020 27 10000 7.2 60 16:27 26.03.2020
5944 Clear 13 1020 27 10000 7.2 60 15:58 26.03.2020
5945 -273 0 0 0 0 0 15:40 26.03.2020
5946 Clear 12 1020 29 10000 4.6 80 15:21 26.03.2020
5947 Clear 12 1020 29 10000 5.1 70 14:57 26.03.2020
5948 Clear 12 1020 29 10000 5.1 70 14:38 26.03.2020
5949 Clear 11 1020 27 10000 5.1 110 14:19 26.03.2020
5950 Clear 11 1020 27 10000 3.6 110 13:43 26.03.2020
5951 Clear 12 1020 27 10000 3.6 110 13:23 26.03.2020
5952 Clear 11 1021 31 10000 6.2 70 12:57 26.03.2020
5953 Clear 11 1021 31 10000 6.2 70 12:38 26.03.2020
5954 Clear 10 1021 29 10000 5.1 90 12:19 26.03.2020
5955 Clear 10 1021 29 10000 6.7 70 11:45 26.03.2020
5956 Clear 10 1021 29 10000 6.7 70 11:45 26.03.2020
5957 Clear 9 1021 31 10000 5.1 90 11:21 26.03.2020
5958 Clear 9 1021 33 10000 4.6 90 10:56 26.03.2020
5959 Clear 8 1021 33 10000 4.6 90 10:37 26.03.2020
5960 Clear 8 1021 33 10000 4.6 90 10:37 26.03.2020
5961 Clear 8 1022 33 10000 5.1 80 10:19 26.03.2020
5962 Clear 7 1022 38 10000 4.6 80 09:44 26.03.2020
5963 Clear 6 1022 41 10000 4.1 80 09:20 26.03.2020
5964 Clear 6 1022 41 10000 4.1 80 08:55 26.03.2020
5965 Clear 5 1022 41 10000 3.1 60 08:37 26.03.2020
5966 Clear 3 1022 47 10000 2.1 20 08:18 26.03.2020
5967 Clear 3 1022 75 10000 1.5 10 07:43 26.03.2020
5968 Clear 2 1022 75 10000 2.1 20 07:21 26.03.2020
5969 Clear 2 1022 75 10000 2.1 20 06:56 26.03.2020
5970 Clear 2 1021 40 10000 2.6 50 05:59 26.03.2020
5971 Clear 2 1022 40 10000 3.6 60 04:49 26.03.2020
5972 Clear 3 1022 40 10000 3.6 70 03:44 26.03.2020
5973 Clear 3 1022 37 10000 4.1 70 02:55 26.03.2020
5974 Clouds 4 1023 35 10000 4.1 70 01:50 26.03.2020
5975 Clouds 5 1023 35 10000 4.1 80 00:53 26.03.2020
5976 Clouds 5 1023 32 10000 4.6 80 00:22 26.03.2020
5977 Clouds 6 1023 32 10000 4.6 90 23:41 25.03.2020
5978 Clouds 6 1023 30 10000 3.6 90 23:21 25.03.2020
5979 Clouds 7 1023 30 10000 5.1 80 22:42 25.03.2020
5980 Clouds 7 1023 28 10000 5.1 80 22:21 25.03.2020
5981 Clouds 7 1023 28 10000 5.1 80 21:56 25.03.2020
5982 Clouds 8 1023 26 10000 3.1 80 21:38 25.03.2020
5983 Clouds 8 1023 24 10000 3.6 100 21:20 25.03.2020
5984 Clouds 9 1023 21 10000 4.1 80 20:56 25.03.2020
5985 Clouds 9 1023 21 10000 4.1 80 20:37 25.03.2020
5986 Clouds 10 1022 21 10000 3.6 90 20:18 25.03.2020
5987 Clouds 10 1022 21 10000 3.1 80 19:43 25.03.2020
5988 Clouds 10 1022 21 10000 3.1 80 19:43 25.03.2020
5989 Clouds 11 1022 18 10000 3.6 100 19:23 25.03.2020
5990 Clouds 12 1022 17 10000 4.1 80 18:58 25.03.2020
5991 Clouds 12 1022 17 10000 4.1 80 18:40 25.03.2020
5992 Clouds 13 1022 16 10000 4.6 80 18:22 25.03.2020
5993 Clouds 13 1022 16 10000 4.1 100 17:56 25.03.2020
5994 Clouds 14 1022 13 10000 4.1 90 17:38 25.03.2020
5995 Clouds 14 1022 13 10000 4.1 90 17:38 25.03.2020
5996 Clouds 14 1022 13 10000 4.1 90 17:20 25.03.2020
5997 Clouds 14 1022 15 10000 4.1 90 16:55 25.03.2020
5998 Clouds 14 1023 15 10000 5.7 70 16:36 25.03.2020
5999 Clouds 14 1023 15 10000 5.7 70 16:18 25.03.2020
6000 Clouds 14 1023 15 10000 4.1 80 15:41 25.03.2020
6001 Clouds 14 1023 15 10000 4.6 80 15:20 25.03.2020
6002 Clouds 14 1023 15 10000 4.6 80 14:56 25.03.2020
6003 Clouds 13 1024 14 10000 4.6 90 14:37 25.03.2020
6004 Clear 13 1024 16 10000 4.1 80 14:18 25.03.2020
6005 Clear 12 1025 15 10000 5.7 80 13:42 25.03.2020
6006 Clear 12 1025 15 10000 4.6 90 13:22 25.03.2020
6007 Clear 10 1026 18 10000 4.1 90 12:38 25.03.2020
6008 Clear 10 1027 24 10000 4.6 90 12:20 25.03.2020
6009 Clear 10 1027 26 10000 5.1 80 11:57 25.03.2020
6010 Clear 9 1027 26 10000 5.1 80 11:39 25.03.2020
6011 Clear 7 1027 30 10000 3.6 80 11:20 25.03.2020
6012 Clear 7 1027 30 10000 4.6 100 10:57 25.03.2020
6013 Clear 7 1027 30 10000 4.6 100 10:39 25.03.2020
6014 Clear 7 1028 32 10000 3.6 110 10:18 25.03.2020
6015 Clear 5 1028 32 10000 4.6 110 09:43 25.03.2020
6016 Clear 5 1028 32 10000 4.6 110 09:25 25.03.2020
6017 Clear 4 1028 37 10000 3.6 100 08:58 25.03.2020
6018 Clear 4 1028 37 10000 3.6 100 08:58 25.03.2020
6019 Clear 4 1028 37 10000 3.6 100 08:39 25.03.2020
6020 Clear 2 1028 40 10000 3.1 90 08:20 25.03.2020
6021 Clear 2 1028 43 10000 3.1 90 07:44 25.03.2020
6022 Clear 1 1028 50 10000 2.1 90 07:24 25.03.2020
6023 Clear 1 1028 80 10000 3.6 80 06:57 25.03.2020
6024 Clear 1 1028 80 10000 3.6 80 06:37 25.03.2020
6025 Clear 2 1028 40 10000 4.1 80 06:19 25.03.2020
6026 Clear 2 1028 43 10000 3.6 80 05:42 25.03.2020
6027 Clear 2 1028 43 10000 3.6 80 04:41 25.03.2020
6028 Clear 2 1028 40 10000 3.1 90 03:57 25.03.2020
6029 Clear 3 1028 40 10000 3.1 90 03:30 25.03.2020
6030 Clear 4 1029 37 10000 3.6 90 01:40 25.03.2020
6031 Clear 4 1029 37 10000 3.6 100 00:50 25.03.2020
6032 Clear 4 1029 37 10000 2.6 90 00:27 25.03.2020
6033 Clear 5 1029 35 10000 3.6 90 23:55 24.03.2020
6034 Clear 4 1030 40 10000 2.6 80 23:28 24.03.2020
6035 Clear 4 1030 40 10000 1.5 80 22:58 24.03.2020
6036 Clear 5 1030 40 10000 1.5 80 22:38 24.03.2020
6037 Clear 4 1030 40 10000 1.5 80 22:38 24.03.2020
6038 Clear 5 1030 34 10000 2.1 80 22:20 24.03.2020
6039 Clear 5 1030 34 10000 2.1 80 21:58 24.03.2020
6040 Clear 6 1029 35 10000 2.6 80 21:40 24.03.2020
6041 Clear 6 1029 30 10000 2.6 90 21:19 24.03.2020
6042 Clear 6 1029 30 10000 2.6 90 20:59 24.03.2020
6043 Clear 6 1029 28 10000 3.1 100 20:40 24.03.2020
6044 Clear 7 1029 28 10000 2.6 100 20:22 24.03.2020
6045 Rain 7 1029 28 10000 2.1 90 19:48 24.03.2020
6046 Rain 9 1029 22 10000 3.1 110 19:22 24.03.2020
6047 Clear 9 1029 22 10000 3.1 110 18:59 24.03.2020
6048 Clear 10 1029 21 10000 4.6 120 18:39 24.03.2020
6049 Clear 10 1029 21 10000 4.1 110 18:20 24.03.2020
6050 Clear 10 1029 21 10000 5.7 110 17:58 24.03.2020
6051 Clear 11 1029 21 10000 5.7 110 17:40 24.03.2020
6052 Clear 11 1029 21 10000 5.7 110 17:40 24.03.2020
6053 Clear 11 1029 23 10000 5.1 120 17:22 24.03.2020
6054 Clear 10 1029 23 10000 4.6 120 16:57 24.03.2020
6055 Clear 10 1029 23 10000 4.6 120 16:38 24.03.2020
6056 Clear 10 1029 23 10000 6.2 140 16:20 24.03.2020
6057 Clear 10 1030 23 10000 5.1 130 15:44 24.03.2020
6058 Clear 10 1030 23 10000 5.1 130 15:44 24.03.2020
6059 Clear 10 1030 23 10000 5.1 130 15:25 24.03.2020
6060 Clear 10 1030 23 10000 6.2 150 14:57 24.03.2020
6061 Clear 10 1030 23 10000 6.2 150 14:39 24.03.2020
6062 Clear 11 1031 21 10000 7.7 150 14:18 24.03.2020
6063 Clear 10 1031 21 10000 7.2 140 13:42 24.03.2020
6064 Clear 10 1032 22 10000 8.2 130 13:23 24.03.2020
6065 Clear 9 1032 24 10000 6.7 130 12:47 24.03.2020
6066 Clear 9 1032 24 10000 6.7 130 12:28 24.03.2020
6067 Clear 8 1033 28 10000 7.7 150 11:59 24.03.2020
6068 Clear 7 1033 28 10000 7.7 150 11:39 24.03.2020
6069 Clear 6 1033 30 10000 7.2 140 11:19 24.03.2020
6070 Clear 5 1033 30 10000 6.7 130 10:42 24.03.2020
6071 Clear 5 1033 35 10000 8.2 140 10:20 24.03.2020
6072 Clear 5 1033 35 10000 8.2 140 09:58 24.03.2020
6073 Clear 4 1033 38 10000 6.7 130 09:39 24.03.2020
6074 Clear 4 1033 40 10000 7.2 140 09:20 24.03.2020
6075 Clear 3 1033 37 10000 5.1 130 08:38 24.03.2020
6076 Clear 2 1032 43 10000 4.6 140 08:20 24.03.2020
6077 Clear 1 1032 47 10000 2.6 110 07:48 24.03.2020
6078 Clear 1 1032 42 10000 2.6 110 07:24 24.03.2020
6079 Clear 0 1032 42 10000 3.6 110 06:58 24.03.2020
6080 Clear 0 1032 42 10000 3.1 100 06:31 24.03.2020
6081 Clear 1 1032 47 10000 3.1 100 05:22 24.03.2020
6082 Clear 1 1032 47 10000 2.6 90 04:31 24.03.2020
6083 Clear 1 1032 47 10000 2.6 100 03:18 24.03.2020
6084 Clear 2 1032 47 10000 2.6 90 01:50 24.03.2020
6085 Clear 2 1032 43 10000 2.6 100 00:51 24.03.2020
6086 Clear 3 1032 43 10000 2.6 100 00:26 24.03.2020
6087 Clear 3 1032 37 10000 3.1 100 23:49 23.03.2020
6088 Clear 3 1032 37 10000 2.6 90 23:27 23.03.2020
6089 Clear 3 1032 37 10000 2.6 90 22:58 23.03.2020
6090 Clear 3 1032 37 10000 2.1 90 22:39 23.03.2020
6091 Clear 4 1032 35 10000 2.1 90 22:21 23.03.2020
6092 Clear 4 1032 35 10000 2.6 100 21:44 23.03.2020
6093 Clear 5 1032 30 10000 2.6 120 21:21 23.03.2020
6094 Clear 5 1032 30 10000 2.6 120 20:59 23.03.2020
6095 Clear 5 1032 28 10000 3.6 120 20:41 23.03.2020
6096 Clear 5 1032 28 10000 3.1 120 20:23 23.03.2020
6097 Clear 6 1032 28 10000 3.1 110 19:55 23.03.2020
6098 Clear 6 1032 28 10000 3.1 110 19:55 23.03.2020
6099 Clear 6 1032 28 10000 3.1 110 19:37 23.03.2020
6100 Clear 6 1032 26 10000 3.1 110 19:18 23.03.2020
6101 Clear 8 1031 24 10000 5.1 120 18:43 23.03.2020
6102 Clear 8 1032 24 10000 4.6 120 18:24 23.03.2020
6103 Clear 9 1031 23 10000 4.1 110 17:59 23.03.2020
6104 Clear 9 1031 23 10000 4.1 110 17:40 23.03.2020
6105 Clear 9 1031 23 10000 5.1 100 17:19 23.03.2020
6106 Clear 10 1031 21 10000 6.2 150 16:43 23.03.2020
6107 Clear 10 1032 23 10000 6.7 130 16:25 23.03.2020
6108 Clear 10 1032 23 10000 6.7 130 15:54 23.03.2020
6109 Clear 9 1032 23 10000 6.2 140 15:36 23.03.2020
6110 Clear 10 1032 21 10000 6.7 140 15:18 23.03.2020
6111 Clear 10 1032 21 10000 6.7 140 15:18 23.03.2020
6112 Clear 9 1032 19 10000 8.7 140 14:37 23.03.2020
6113 Clear 9 1032 21 10000 10.3 150 14:19 23.03.2020
6114 Clear 9 1032 21 10000 10.3 150 14:19 23.03.2020
6115 Clear 9 1033 22 10000 8.7 140 13:57 23.03.2020
6116 Clear 9 1033 22 10000 8.7 140 13:38 23.03.2020
6117 Clear 8 1033 22 10000 9.3 130 13:20 23.03.2020
6118 Clear 8 1033 24 10000 9.3 140 12:43 23.03.2020
6119 Clear 7 1033 26 10000 8.7 140 12:23 23.03.2020
6120 Clear 6 1033 28 10000 9.3 140 11:56 23.03.2020
6121 Clear 6 1033 28 10000 9.3 140 11:37 23.03.2020
6122 Clear 5 1033 30 10000 8.7 120 11:19 23.03.2020
6123 Clear 5 1033 32 10000 8.2 120 10:56 23.03.2020
6124 Clear 4 1033 32 10000 8.2 120 10:36 23.03.2020
6125 Clear 4 1034 32 10000 7.7 130 10:18 23.03.2020
6126 Clear 3 1034 34 10000 8.7 120 09:42 23.03.2020
6127 Clear 2 1034 37 10000 8.7 130 09:20 23.03.2020
6128 Clear 2 1033 40 10000 7.2 120 08:38 23.03.2020
6129 Clear 1 1033 43 10000 5.7 110 08:20 23.03.2020
6130 Clear 1 1033 43 10000 5.7 110 07:58 23.03.2020
6131 Clear 1 1033 43 10000 5.7 120 07:37 23.03.2020
6132 Clear 0 1033 43 10000 5.1 110 07:18 23.03.2020
6133 Clear 0 1033 43 10000 5.1 120 06:48 23.03.2020
6134 Clear 1 1033 47 10000 5.7 120 05:45 23.03.2020
6135 Clear 1 1033 47 10000 6.7 120 04:41 23.03.2020
6136 Clear 2 1033 43 10000 6.7 120 03:23 23.03.2020
6137 Clear 2 1033 47 10000 6.2 110 01:50 23.03.2020
6138 Clear 3 1033 44 10000 4.6 110 00:52 23.03.2020
6139 Clear 3 1033 44 10000 4.6 110 00:33 23.03.2020
6140 Clear 3 1032 44 10000 4.1 110 23:46 22.03.2020
6141 Clear 3 1032 44 10000 5.1 110 23:25 22.03.2020
6142 Clear 4 1032 41 10000 4.1 110 22:45 22.03.2020
6143 Clear 4 1032 41 10000 3.6 100 22:23 22.03.2020
6144 Clear 4 1032 41 10000 4.6 100 21:55 22.03.2020
6145 Clear 5 1032 41 10000 4.6 100 21:37 22.03.2020
6146 Clear 5 1031 38 10000 5.1 100 21:18 22.03.2020
6147 Clear 5 1031 38 10000 5.1 90 20:46 22.03.2020
6148 Clear 6 1031 41 10000 4.1 80 20:25 22.03.2020
6149 Clear 6 1031 41 10000 4.1 80 20:25 22.03.2020
6150 Clear 6 1031 41 10000 4.1 80 19:58 22.03.2020
6151 Clear 7 1031 38 10000 4.1 100 19:40 22.03.2020
6152 Clear 7 1030 36 10000 4.1 90 19:20 22.03.2020
6153 Clear 7 1030 33 10000 3.6 100 18:59 22.03.2020
6154 Clear 8 1030 33 10000 3.6 100 18:41 22.03.2020
6155 Clear 9 1030 31 10000 4.6 90 18:22 22.03.2020
6156 Clear 9 1029 31 10000 5.1 100 17:59 22.03.2020
6157 Clear 9 1029 31 10000 5.1 100 17:39 22.03.2020
6158 Clear 10 1029 27 10000 5.1 110 17:20 22.03.2020
6159 Clear 10 1029 27 10000 5.1 110 16:58 22.03.2020
6160 Clear 10 1029 27 10000 5.1 110 16:58 22.03.2020
6161 Clear 10 1029 27 10000 5.7 90 16:39 22.03.2020
6162 Clear 10 1029 25 10000 6.2 100 16:21 22.03.2020
6163 Clear 10 1029 25 10000 6.2 100 15:57 22.03.2020
6164 Clear 10 1029 27 10000 6.7 80 15:39 22.03.2020
6165 Clear 10 1029 27 10000 6.2 90 14:47 22.03.2020
6166 Clear 9 1029 27 10000 4.1 90 14:19 22.03.2020
6167 Clear 9 1029 29 10000 6.2 120 13:56 22.03.2020
6168 Clear 9 1029 29 10000 6.2 120 13:37 22.03.2020
6169 Clear 9 1029 29 10000 7.2 70 13:19 22.03.2020
6170 Clear 8 1029 29 10000 5.7 90 12:44 22.03.2020
6171 Clear 8 1030 28 10000 7.2 90 12:20 22.03.2020
6172 Clear 7 1030 28 10000 7.7 100 11:56 22.03.2020
6173 Clear 7 1030 28 10000 7.7 100 11:38 22.03.2020
6174 Clear 6 1030 33 10000 7.2 110 11:19 22.03.2020
6175 Clear 6 1030 35 10000 6.7 110 10:43 22.03.2020
6176 Clear 5 1030 38 10000 6.7 110 10:24 22.03.2020
6177 Clear 5 1030 35 10000 6.7 110 10:24 22.03.2020
6178 Clear 4 1029 44 10000 7.2 100 09:49 22.03.2020
6179 Clear 4 1029 44 10000 7.2 100 09:30 22.03.2020
6180 Clear 3 1030 44 10000 6.2 100 08:55 22.03.2020
6181 Clear 2 1029 47 10000 5.1 110 08:36 22.03.2020
6182 Clear 2 1029 51 10000 5.7 100 08:18 22.03.2020
6183 Clear 1 1029 51 10000 3.6 100 07:49 22.03.2020
6184 Clear 1 1029 55 10000 3.6 100 07:18 22.03.2020
6185 Clear 1 1028 55 10000 4.6 110 05:56 22.03.2020
6186 Clear 1 1028 55 10000 5.1 110 04:58 22.03.2020
6187 Clear 1 1028 59 10000 3.1 90 02:58 22.03.2020
6188 Clear 2 1028 55 10000 4.1 100 01:22 22.03.2020
6189 Clear 2 1028 55 10000 4.1 100 01:22 22.03.2020
6190 Clear 2 1028 55 10000 4.1 100 00:39 22.03.2020
6191 Clear 3 1028 55 10000 4.6 90 00:21 22.03.2020
6192 Clear 3 1028 55 10000 5.1 90 23:41 21.03.2020
6193 Clear 3 1028 55 10000 5.1 90 23:19 21.03.2020
6194 Clear 4 1028 55 10000 5.1 90 22:39 21.03.2020
6195 Clear 4 1027 51 10000 5.7 80 22:20 21.03.2020
6196 Clear 4 1027 51 10000 5.7 80 21:59 21.03.2020
6197 Clear 4 1027 51 10000 6.2 90 21:41 21.03.2020
6198 Clear 5 1027 51 10000 6.2 90 21:22 21.03.2020
6199 Clear 5 1028 55 10000 7.2 80 21:22 21.03.2020
6200 Clear 5 1027 52 10000 3.6 90 20:56 21.03.2020
6201 Clear 5 1027 52 10000 3.6 90 20:38 21.03.2020
6202 Clear 6 1026 45 10000 5.1 80 20:19 21.03.2020
6203 Clear 6 1026 45 10000 4.6 90 19:43 21.03.2020
6204 Clear 6 1026 45 10000 4.6 90 19:24 21.03.2020
6205 Clear 7 1025 36 10000 7.7 80 18:55 21.03.2020
6206 Clear 8 1025 36 10000 7.7 80 18:37 21.03.2020
6207 Clear 8 1025 39 10000 6.2 80 18:19 21.03.2020
6208 Clear 9 1025 39 10000 6.2 70 17:55 21.03.2020
6209 Clear 9 1025 42 10000 6.7 70 17:37 21.03.2020
6210 Clear 9 1025 42 10000 6.7 70 17:18 21.03.2020
6211 Clear 9 1025 39 10000 7.2 70 16:41 21.03.2020
6212 Clear 10 1025 39 10000 7.7 70 16:19 21.03.2020
6213 Clear 10 1025 39 10000 6.2 80 15:56 21.03.2020
6214 Clear 10 1025 39 10000 6.2 80 15:37 21.03.2020
6215 Clear 9 1025 39 10000 6.7 70 15:19 21.03.2020
6216 Clear 10 1025 39 10000 6.2 100 14:54 21.03.2020
6217 Clear 9 1025 39 10000 6.2 100 14:36 21.03.2020
6218 Clear 9 1025 43 10000 6.7 90 14:18 21.03.2020
6219 Clear 9 1025 43 10000 6.7 90 13:57 21.03.2020
6220 Clear 9 1025 43 10000 7.2 80 13:38 21.03.2020
6221 Clouds 9 1025 45 10000 7.7 70 13:19 21.03.2020
6222 Clouds 9 1025 49 10000 6.7 70 12:40 21.03.2020
6223 Clouds 8 1026 52 10000 7.7 70 12:19 21.03.2020
6224 Clouds 8 1026 52 10000 7.2 70 11:59 21.03.2020
6225 Clouds 7 1026 52 10000 7.2 70 11:39 21.03.2020
6226 Clouds 7 1026 52 10000 8.2 70 11:19 21.03.2020
6227 Clouds 7 1026 52 10000 8.2 70 11:19 21.03.2020
6228 Clouds 7 1026 55 10000 7.2 70 10:58 21.03.2020
6229 Clouds 7 1026 55 10000 7.2 70 10:39 21.03.2020
6230 Clouds 6 1025 61 10000 6.7 50 10:21 21.03.2020
6231 Clouds 6 1026 65 10000 6.2 60 09:58 21.03.2020
6232 Clouds 5 1026 65 10000 6.2 60 09:39 21.03.2020
6233 Clouds 5 1026 70 10000 5.1 50 09:20 21.03.2020
6234 Clouds 5 1026 70 10000 5.1 50 08:55 21.03.2020
6235 Clear 4 1026 70 10000 5.1 40 08:37 21.03.2020
6236 Clouds 4 1026 75 10000 2.6 20 08:18 21.03.2020
6237 Clouds 4 1026 80 10000 3.1 30 07:37 21.03.2020
6238 Clouds 4 1026 80 10000 3.1 20 07:18 21.03.2020
6239 Clouds 4 1026 75 10000 2.6 20 06:42 21.03.2020
6240 Clouds 4 1025 80 10000 2.6 30 06:23 21.03.2020
6241 Clouds 4 1026 80 10000 3.1 20 05:39 21.03.2020
6242 Rain 5 1025 75 10000 3.1 60 03:49 21.03.2020
6243 Rain 5 1026 75 10000 4.1 70 02:37 21.03.2020
6244 Rain 5 1026 86 10000 4.1 60 01:44 21.03.2020
6245 Rain 5 1026 86 10000 3.6 40 01:23 21.03.2020
6246 Rain 5 1026 86 10000 3.6 50 00:39 21.03.2020
6247 Rain 5 1026 86 10000 5.1 50 00:21 21.03.2020
6248 Rain 5 1026 87 10000 4.6 40 23:43 20.03.2020
6249 Rain 5 1025 87 10000 4.1 20 23:22 20.03.2020
6250 Clouds 5 1025 75 10000 3.6 20 22:44 20.03.2020
6251 Rain 5 1026 93 5000 5.1 10 22:25 20.03.2020
6252 Clouds 6 1025 75 10000 4.6 30 21:58 20.03.2020
6253 Clouds 6 1025 70 10000 4.6 40 21:40 20.03.2020
6254 Clouds 6 1025 65 10000 4.1 40 21:20 20.03.2020
6255 Clouds 7 1025 65 10000 4.1 40 20:59 20.03.2020
6256 Clouds 7 1025 65 10000 4.1 40 20:41 20.03.2020
6257 Clouds 7 1024 70 10000 5.1 30 20:20 20.03.2020
6258 Clouds 7 1024 66 10000 5.1 50 19:48 20.03.2020
6259 Clouds 7 1024 70 10000 6.2 40 19:21 20.03.2020
6260 Clouds 8 1024 70 10000 4.6 30 18:58 20.03.2020
6261 Clouds 8 1024 70 10000 4.6 30 18:39 20.03.2020
6262 Clouds 8 1024 76 10000 6.2 20 18:20 20.03.2020
6263 Clouds 8 1024 76 10000 6.2 20 18:20 20.03.2020
6264 Clouds 8 1024 81 10000 5.7 30 17:56 20.03.2020
6265 Clouds 8 1024 81 10000 5.7 30 17:38 20.03.2020
6266 Clouds 9 1024 81 10000 5.7 10 17:19 20.03.2020
6267 Clouds 9 1023 76 10000 6.2 10 16:42 20.03.2020
6268 Clouds 9 1023 71 10000 5.7 360 16:21 20.03.2020
6269 Clouds 9 1023 71 10000 5.7 360 15:58 20.03.2020
6270 Clouds 9 1023 71 10000 5.7 20 15:39 20.03.2020
6271 Clouds 10 1023 71 10000 4.1 20 15:20 20.03.2020
6272 Clouds 10 1023 71 10000 3.6 10 14:42 20.03.2020
6273 Clouds 10 1023 66 10000 4.6 40 14:21 20.03.2020
6274 Clouds 10 1023 66 10000 4.6 40 13:55 20.03.2020
6275 Clouds 10 1024 71 10000 5.7 30 13:36 20.03.2020
6276 Clouds 10 1024 71 10000 4.6 10 13:18 20.03.2020
6277 Clouds 10 1024 76 0 5.1 30 12:39 20.03.2020
6278 Clouds 10 1024 76 10000 4.6 20 12:20 20.03.2020
6279 Clouds 10 1024 76 10000 4.6 20 12:20 20.03.2020
6280 Clouds 9 1024 76 10000 3.6 10 11:54 20.03.2020
6281 Clouds 9 1024 76 10000 4.1 360 11:36 20.03.2020
6282 Clouds 9 1024 76 10000 4.1 360 11:18 20.03.2020
6283 Clouds 9 1024 81 10000 2.6 340 10:41 20.03.2020
6284 Clouds 9 1024 81 10000 2.6 340 10:20 20.03.2020
6285 Clouds 9 1024 81 10000 2.6 340 09:55 20.03.2020
6286 Clouds 9 1024 81 10000 2.6 340 09:37 20.03.2020
6287 Clouds 9 1024 81 10000 3.1 330 09:18 20.03.2020
6288 Clouds 9 1023 87 9000 3.1 350 08:41 20.03.2020
6289 Clouds 8 1023 93 9000 1.5 330 08:22 20.03.2020
6290 Clouds 8 1023 93 9000 1 0 07:48 20.03.2020
6291 Clouds 8 1023 93 9000 1 0 07:30 20.03.2020
6292 Clouds 8 1023 93 9000 2.97 25 06:58 20.03.2020
6293 Clouds 8 1023 87 9000 0.5 0 06:40 20.03.2020
6294 Clouds 9 1022 81 10000 0.5 30 04:51 20.03.2020
6295 Clouds 9 1023 81 10000 1 0 03:21 20.03.2020
6296 Clouds 10 1023 81 10000 1 170 01:58 20.03.2020
6297 Clouds 10 1023 71 10000 2.28 33 00:59 20.03.2020
6298 Clouds 10 1023 71 10000 2.1 70 00:30 20.03.2020
6299 Clouds 11 1023 71 10000 3.6 60 23:47 19.03.2020
6300 Clouds 11 1023 71 10000 3.6 60 23:28 19.03.2020
6301 Clouds 11 1024 71 10000 2.6 50 22:57 19.03.2020
6302 Clouds 11 1024 71 10000 2.6 50 22:38 19.03.2020
6303 Clouds 11 1023 71 10000 2.1 50 22:19 19.03.2020
6304 Clouds 12 1023 71 10000 2.1 50 21:42 19.03.2020
6305 Clouds 12 1023 66 10000 2.1 60 21:20 19.03.2020
6306 Clouds 12 1023 66 10000 2.1 60 20:59 19.03.2020
6307 Clouds 13 1023 62 10000 2.1 30 20:41 19.03.2020
6308 Clouds 13 1023 58 10000 2.6 50 20:23 19.03.2020
6309 Clouds 13 1023 58 10000 1.5 30 19:55 19.03.2020
6310 Clouds 14 1023 58 10000 1.5 30 19:37 19.03.2020
6311 Clouds 14 1023 54 10000 2.1 40 19:19 19.03.2020
6312 Clouds 14 1023 54 10000 2.1 40 18:56 19.03.2020
6313 Clouds 15 1023 51 10000 2.1 60 18:38 19.03.2020
6314 Clouds 15 1023 51 10000 2.1 60 18:19 19.03.2020
6315 Clouds 15 1023 48 10000 2.1 60 17:41 19.03.2020
6316 Clouds 16 1023 51 10000 2.6 360 17:19 19.03.2020
6317 Clouds 16 1023 51 10000 2.6 10 16:45 19.03.2020
6318 Clouds 16 1023 51 10000 2.6 10 16:25 19.03.2020
6319 Clouds 16 1024 48 10000 4.1 40 15:55 19.03.2020
6320 Clouds 16 1024 48 10000 4.1 40 15:36 19.03.2020
6321 Clouds 16 1024 51 10000 3.6 30 15:18 19.03.2020
6322 Clouds 16 1024 51 10000 4.6 20 14:43 19.03.2020
6323 Clear 16 1024 45 0 2.1 0 14:21 19.03.2020
6324 Clouds 16 1024 48 10000 3.1 310 13:41 19.03.2020
6325 Clouds 16 1025 55 10000 2.6 310 13:21 19.03.2020
6326 Clouds 15 1025 55 10000 1.5 0 12:58 19.03.2020
6327 Clouds 16 1025 55 10000 1.5 0 12:40 19.03.2020
6328 Clouds 15 1025 58 10000 0.5 0 12:21 19.03.2020
6329 Clouds 15 1026 59 10000 1.5 300 11:57 19.03.2020
6330 Clouds 15 1026 58 10000 1 0 11:38 19.03.2020
6331 Clouds 14 1026 58 10000 1 0 11:19 19.03.2020
6332 Clear 14 1026 67 10000 1 0 10:41 19.03.2020
6333 Clear 13 1026 66 10000 1.5 150 10:20 19.03.2020
6334 Clear 12 1026 66 10000 1.5 150 09:57 19.03.2020
6335 Clear 11 1026 71 10000 2.1 140 09:37 19.03.2020
6336 Clouds 11 1025 76 10000 0.5 0 09:18 19.03.2020
6337 Clouds 9 1025 87 10000 0.5 0 08:45 19.03.2020
6338 Clouds 8 1025 93 10000 0.5 0 08:21 19.03.2020
6339 Clouds 7 1025 93 10000 1 60 07:47 19.03.2020
6340 Clear 7 1025 100 10000 1 0 07:28 19.03.2020
6341 Clear 7 1025 93 10000 1.5 60 06:49 19.03.2020
6342 Clouds 7 1025 100 10000 1 0 05:52 19.03.2020
6343 Clouds 7 1025 93 10000 2.6 60 05:19 19.03.2020
6344 Clouds 8 1025 93 10000 1 0 04:40 19.03.2020
6345 Clear 8 1025 93 10000 0.5 70 03:20 19.03.2020
6346 Clouds 9 1025 87 10000 1.5 50 01:27 19.03.2020
6347 Clouds 9 1025 81 10000 2.6 60 00:37 19.03.2020
6348 Clouds 9 1025 81 10000 0.5 90 23:58 18.03.2020
6349 Clouds 9 1025 81 10000 0.5 90 23:39 18.03.2020
6350 Clouds 10 1025 76 10000 1 60 23:18 18.03.2020
6351 Clouds 10 1025 76 10000 1 60 22:42 18.03.2020
6352 Clouds 10 1026 71 10000 0.5 0 22:22 18.03.2020
6353 Clouds 10 1026 71 10000 0.5 0 21:54 18.03.2020
6354 Clouds 11 1026 71 10000 0.5 0 21:36 18.03.2020
6355 Clear 11 1026 71 10000 1.5 140 21:18 18.03.2020
6356 Clear 11 1026 71 10000 1.5 140 20:54 18.03.2020
6357 Clear 12 1025 71 10000 0.5 0 20:36 18.03.2020
6358 Clouds 12 1025 62 10000 2.1 10 20:18 18.03.2020
6359 Clouds 13 1025 62 10000 1.5 20 19:40 18.03.2020
6360 Clouds 14 1025 58 10000 2.1 360 19:21 18.03.2020
6361 Clouds 14 1025 58 10000 2.1 360 18:56 18.03.2020
6362 Clouds 15 1025 54 10000 3.6 320 18:38 18.03.2020
6363 Clouds 16 1025 48 10000 3.6 270 18:19 18.03.2020
6364 Clouds 16 1025 48 10000 2.1 210 17:55 18.03.2020
6365 Clouds 17 1025 51 10000 2.1 230 17:37 18.03.2020
6366 Clouds 17 1025 51 10000 2.1 230 17:18 18.03.2020
6367 Clouds 17 1025 48 10000 4.1 230 16:42 18.03.2020
6368 Clouds 17 1025 48 10000 4.1 220 16:20 18.03.2020
6369 Clouds 17 1025 48 10000 4.1 220 16:20 18.03.2020
6370 Clouds 17 1025 48 10000 4.1 220 15:57 18.03.2020
6371 Clouds 17 1026 51 10000 3.1 230 15:38 18.03.2020
6372 Clouds 17 1026 51 10000 2.1 270 15:20 18.03.2020
6373 Clouds 17 1026 51 10000 3.1 260 14:42 18.03.2020
6374 Clouds 16 1027 55 10000 2.6 240 14:21 18.03.2020
6375 Clouds 16 1027 59 10000 3.6 210 13:42 18.03.2020
6376 Clouds 16 1027 59 10000 3.6 260 13:19 18.03.2020
6377 Clouds 16 1028 59 10000 5.1 240 12:55 18.03.2020
6378 Clouds 15 1028 59 10000 5.1 240 12:37 18.03.2020
6379 Clouds 15 1028 62 10000 5.1 250 12:19 18.03.2020
6380 Clouds 14 1028 62 10000 5.1 250 11:38 18.03.2020
6381 Clouds 14 1028 67 10000 3.1 230 11:19 18.03.2020
6382 Clear 13 1028 71 10000 3.1 210 10:57 18.03.2020
6383 Clear 13 1028 71 10000 3.1 210 10:38 18.03.2020
6384 Clear 12 1028 71 10000 2.6 200 10:19 18.03.2020
6385 Clear 11 1029 76 10000 2.6 150 09:43 18.03.2020
6386 Clear 11 1029 76 10000 2.6 150 09:24 18.03.2020
6387 Clear 9 1029 75 10000 2.6 130 08:56 18.03.2020
6388 Clear 8 1029 75 10000 2.6 130 08:38 18.03.2020
6389 Clouds 8 1028 81 10000 1.5 130 08:20 18.03.2020
6390 Clouds 7 1028 86 10000 1 0 07:44 18.03.2020
6391 Clouds 7 1028 86 10000 1 0 07:26 18.03.2020
6392 Clouds 6 1028 93 10000 1.5 90 06:44 18.03.2020
6393 Clouds 6 1028 86 10000 3.6 160 06:22 18.03.2020
6394 Clouds 6 1028 75 10000 4.1 150 05:35 18.03.2020
6395 Clouds 6 1028 86 10000 1.5 140 04:25 18.03.2020
6396 Clouds 7 1029 75 10000 1 0 02:48 18.03.2020
6397 Clouds 7 1029 80 10000 1 0 01:48 18.03.2020
6398 Clouds 7 1029 80 10000 1 0 01:27 18.03.2020
6399 Clouds 8 1030 70 10000 1.5 70 00:25 18.03.2020
6400 Clouds 8 1030 75 10000 1 40 23:57 17.03.2020
6401 Clouds 8 1030 75 10000 1 40 23:37 17.03.2020
6402 Clouds 8 1030 75 10000 0.5 90 23:18 17.03.2020
6403 Clouds 9 1030 70 10000 0.5 0 22:41 17.03.2020
6404 Clouds 9 1030 65 10000 2.1 90 22:22 17.03.2020
6405 Clouds 9 1030 61 10000 1.5 80 21:42 17.03.2020
6406 Clouds 10 1030 57 10000 1.5 70 21:22 17.03.2020
6407 Clouds 10 1029 61 10000 1.5 230 20:56 17.03.2020
6408 Clouds 10 1030 58 10000 2.1 50 20:37 17.03.2020
6409 Clouds 10 1029 53 10000 1 0 20:18 17.03.2020
6410 Clouds 11 1029 45 10000 1 20 19:41 17.03.2020
6411 Clouds 12 1029 46 10000 1 0 19:18 17.03.2020
6412 Clouds 12 1029 46 10000 2.6 320 18:56 17.03.2020
6413 Clouds 12 1029 46 10000 2.6 320 18:38 17.03.2020
6414 Clouds 13 1029 44 10000 2.6 300 18:20 17.03.2020
6415 Clouds 15 1029 36 10000 2.1 310 17:41 17.03.2020
6416 Clouds 15 1029 36 10000 2.6 270 17:23 17.03.2020
6417 Clouds 15 1029 36 10000 2.6 270 16:57 17.03.2020
6418 Clouds 15 1029 38 10000 2.1 260 16:39 17.03.2020
6419 Clouds 15 1029 38 10000 3.1 260 16:18 17.03.2020
6420 Clouds 15 1029 36 10000 3.6 270 15:44 17.03.2020
6421 Clouds 15 1029 38 10000 2.1 0 15:22 17.03.2020
6422 Clouds 15 1030 44 10000 3.1 230 14:44 17.03.2020
6423 Clouds 15 1030 47 10000 3.6 260 14:25 17.03.2020
6424 Clouds 14 1030 47 10000 3.6 260 13:58 17.03.2020
6425 Clouds 14 1030 44 10000 3.6 250 13:39 17.03.2020
6426 Clouds 14 1030 50 10000 3.6 0 13:21 17.03.2020
6427 Clouds 13 1030 50 10000 3.6 230 12:44 17.03.2020
6428 Clouds 13 1031 50 10000 3.6 270 12:24 17.03.2020
6429 Clouds 12 1030 54 10000 3.1 240 11:55 17.03.2020
6430 Clouds 12 1030 54 10000 3.1 240 11:37 17.03.2020
6431 Clouds 12 1031 58 10000 2.1 300 11:19 17.03.2020
6432 Clouds 11 1030 58 10000 3.1 290 10:54 17.03.2020
6433 Clouds 11 1030 58 10000 3.1 290 10:36 17.03.2020
6434 Clouds 10 1031 62 10000 2.1 310 10:18 17.03.2020
6435 Clouds 10 1030 71 10000 2.1 280 09:44 17.03.2020
6436 Clouds 9 1030 76 10000 2.6 320 09:20 17.03.2020
6437 Clouds 9 1030 76 10000 2.1 330 08:51 17.03.2020
6438 Clouds 8 1029 76 10000 2.6 320 08:24 17.03.2020
6439 Clouds 7 1029 76 10000 2.6 320 07:58 17.03.2020
6440 Clouds 7 1029 76 10000 3.6 320 07:40 17.03.2020
6441 Clouds 7 1029 76 10000 2.6 310 07:19 17.03.2020
6442 Clouds 7 1028 81 10000 2.6 290 06:41 17.03.2020
6443 Clouds 8 1028 81 10000 2.6 320 06:19 17.03.2020
6444 Clouds 9 1027 81 10000 3.6 320 04:51 17.03.2020
6445 Clouds 9 1027 76 10000 3.6 310 03:26 17.03.2020
6446 Rain 10 1026 81 10000 2.1 310 01:50 17.03.2020
6447 Rain 10 1026 81 10000 2.1 310 01:30 17.03.2020
6448 Clouds 10 1025 81 10000 2.1 320 00:51 17.03.2020
6449 Clouds 10 1025 81 10000 2.1 310 23:53 16.03.2020
6450 Clouds 10 1025 81 10000 2.1 310 23:34 16.03.2020
6451 Rain 11 1024 81 10000 3.1 320 22:55 16.03.2020
6452 Rain 11 1024 81 10000 3.1 320 22:37 16.03.2020
6453 Rain 11 1024 76 10000 3.1 320 22:19 16.03.2020
6454 Rain 11 1024 76 10000 3.6 310 21:44 16.03.2020
6455 Rain 11 1024 76 10000 3.6 310 21:25 16.03.2020
6456 Rain 11 1023 76 10000 1.5 330 20:58 16.03.2020
6457 Rain 12 1023 76 10000 2.6 330 20:39 16.03.2020
6458 Clouds 12 1023 71 10000 1.5 350 20:20 16.03.2020
6459 Clouds 12 1022 62 10000 1.5 20 19:46 16.03.2020
6460 Rain 13 1022 66 10000 3.1 330 19:23 16.03.2020
6461 Clouds 13 1022 66 10000 3.1 330 18:59 16.03.2020
6462 Clouds 13 1021 62 10000 2.6 330 18:39 16.03.2020
6463 Clouds 14 1021 54 10000 3.1 310 18:19 16.03.2020
6464 Clouds 15 1021 48 10000 3.1 300 17:46 16.03.2020
6465 Clouds 15 1020 48 10000 2.1 290 17:25 16.03.2020
6466 Clouds 16 1020 45 10000 2.1 0 16:57 16.03.2020
6467 Clouds 16 1020 45 10000 2.1 0 16:39 16.03.2020
6468 Clouds 17 1020 42 10000 3.6 290 16:20 16.03.2020
6469 Clouds 17 1020 39 10000 1.5 0 15:43 16.03.2020
6470 Clouds 17 1020 42 10000 1.5 270 15:23 16.03.2020
6471 Clouds 16 1020 45 10000 1 0 14:47 16.03.2020
6472 Clouds 16 1020 45 10000 2.1 270 14:23 16.03.2020
6473 Clouds 16 1020 44 10000 2.6 330 13:51 16.03.2020
6474 Clouds 16 1019 48 10000 2.1 330 13:29 16.03.2020
6475 Clouds 16 1019 48 10000 2.1 330 12:58 16.03.2020
6476 Clouds 15 1019 51 10000 1.5 280 12:39 16.03.2020
6477 Clouds 15 1019 47 10000 1.5 160 12:20 16.03.2020
6478 Clouds 14 1019 50 10000 1 0 11:44 16.03.2020
6479 Clouds 13 1019 50 10000 1 0 11:26 16.03.2020
6480 Clouds 12 1019 58 10000 1 0 10:45 16.03.2020
6481 Clouds 11 1019 57 10000 2.1 140 10:25 16.03.2020
6482 Clouds 11 1019 57 10000 2.1 140 09:59 16.03.2020
6483 Clouds 11 1019 61 10000 2.1 160 09:38 16.03.2020
6484 Clouds 10 1018 61 10000 2.1 120 09:19 16.03.2020
6485 Clouds 9 1018 65 10000 1 0 08:43 16.03.2020
6486 Clouds 7 1017 80 10000 0.5 0 08:23 16.03.2020
6487 Clouds 6 1017 80 10000 0.5 0 07:44 16.03.2020
6488 Clouds 5 1016 81 10000 0.5 0 07:21 16.03.2020
6489 Clouds 5 1016 81 10000 1.5 50 06:46 16.03.2020
6490 Clouds 5 1015 81 10000 1.5 50 06:22 16.03.2020
6491 Clouds 6 1014 80 10000 0.5 0 04:53 16.03.2020
6492 Clouds 7 1014 65 10000 1.5 130 01:49 16.03.2020
6493 Clouds 8 1013 57 10000 2.6 120 00:49 16.03.2020
6494 Clouds 8 1013 57 10000 2.6 120 00:30 16.03.2020
6495 Clouds 8 1013 57 10000 2.1 110 23:42 15.03.2020
6496 Clouds 8 1013 61 10000 2.1 110 23:20 15.03.2020
6497 Clouds 9 1013 57 10000 2.6 90 22:42 15.03.2020
6498 Clouds 9 1013 57 10000 3.6 110 22:22 15.03.2020
6499 Clouds 9 1013 57 10000 3.6 110 21:55 15.03.2020
6500 Clouds 10 1013 57 10000 2.6 110 21:37 15.03.2020
6501 Clouds 10 1013 53 10000 2.1 120 21:18 15.03.2020
6502 Clouds 10 1013 57 10000 2.6 120 20:42 15.03.2020
6503 Clouds 11 1013 54 10000 2.6 120 20:20 15.03.2020
6504 Clouds 11 1013 54 10000 2.6 120 19:56 15.03.2020
6505 Clouds 12 1013 54 10000 3.1 130 19:38 15.03.2020
6506 Clouds 12 1013 58 10000 3.6 160 19:19 15.03.2020
6507 Clouds 13 1013 54 10000 3.6 180 18:55 15.03.2020
6508 Clouds 13 1013 54 10000 3.6 180 18:36 15.03.2020
6509 Clouds 14 1012 50 10000 5.1 190 18:18 15.03.2020
6510 Clouds 14 1012 47 10000 5.1 190 17:40 15.03.2020
6511 Clouds 14 1012 47 10000 5.7 180 17:20 15.03.2020
6512 Clouds 14 1013 47 10000 7.2 170 16:56 15.03.2020
6513 Clouds 14 1013 47 10000 7.2 170 16:38 15.03.2020
6514 Clouds 14 1013 47 10000 7.2 190 16:19 15.03.2020
6515 Clouds 14 1013 47 10000 6.2 200 15:43 15.03.2020
6516 Clouds 14 1013 47 10000 6.2 200 15:43 15.03.2020
6517 Clouds 14 1013 47 10000 6.2 200 15:25 15.03.2020
6518 Clouds 14 1013 47 10000 6.2 200 14:57 15.03.2020
6519 Clouds 14 1014 51 10000 7.2 190 14:38 15.03.2020
6520 Clouds 14 1014 51 10000 7.7 180 14:18 15.03.2020
6521 Clouds 14 1014 51 10000 7.7 180 14:18 15.03.2020
6522 Clouds 14 1014 54 10000 7.2 190 13:54 15.03.2020
6523 Clouds 14 1014 54 10000 7.2 190 13:36 15.03.2020
6524 Clouds 13 1015 54 10000 7.7 170 13:18 15.03.2020
6525 Clouds 13 1015 54 10000 7.7 170 13:18 15.03.2020
6526 Clouds 13 1015 54 10000 7.2 170 12:39 15.03.2020
6527 Clouds 13 1016 58 10000 6.7 170 12:21 15.03.2020
6528 Clouds 12 1016 62 10000 5.7 170 11:43 15.03.2020
6529 Clouds 12 1016 58 10000 6.2 180 11:24 15.03.2020
6530 Clouds 11 1017 57 10000 6.7 160 10:58 15.03.2020
6531 Clouds 11 1017 57 10000 6.7 160 10:39 15.03.2020
6532 Clouds 10 1017 61 10000 5.7 160 10:21 15.03.2020
6533 Clouds 10 1017 61 10000 5.7 160 09:45 15.03.2020
6534 Clouds 9 1017 61 10000 4.1 160 09:25 15.03.2020
6535 Clouds 8 1017 61 10000 4.1 160 08:59 15.03.2020
6536 Clouds 8 1017 61 10000 4.1 130 08:40 15.03.2020
6537 Clouds 7 1017 61 10000 5.1 130 08:19 15.03.2020
6538 Clouds 7 1017 65 10000 4.1 130 07:45 15.03.2020
6539 Clouds 6 1017 65 10000 4.1 140 07:21 15.03.2020
6540 Clouds 6 1017 70 10000 5.7 150 06:43 15.03.2020
6541 Clouds 6 1017 65 10000 3.6 130 05:48 15.03.2020
6542 Clouds 7 1017 70 10000 4.1 130 04:57 15.03.2020
6543 Clouds 7 1017 70 10000 5.1 150 04:38 15.03.2020
6544 Clouds 7 1018 70 10000 5.1 150 04:20 15.03.2020
6545 Clouds 7 1018 70 10000 5.7 150 03:19 15.03.2020
6546 Clouds 7 1019 70 10000 5.1 150 02:23 15.03.2020
6547 Clouds 7 1019 70 10000 4.6 140 00:59 15.03.2020
6548 Clouds 7 1019 75 10000 4.1 150 00:40 15.03.2020
6549 Clouds 7 1020 70 10000 4.1 160 00:19 15.03.2020
6550 Clouds 7 1020 65 10000 4.6 150 23:39 14.03.2020
6551 Clouds 8 1020 65 10000 4.1 140 23:20 14.03.2020
6552 Clouds 8 1020 70 10000 3.6 150 22:56 14.03.2020
6553 Clouds 8 1020 70 10000 3.6 150 22:38 14.03.2020
6554 Clouds 8 1020 65 10000 4.1 140 22:19 14.03.2020
6555 Clouds 8 1020 70 10000 4.1 140 21:55 14.03.2020
6556 Clouds 8 1020 70 10000 4.1 140 21:36 14.03.2020
6557 Clouds 8 1020 70 10000 4.1 140 21:36 14.03.2020
6558 Clouds 8 1020 70 10000 4.1 150 21:18 14.03.2020
6559 Clouds 8 1020 70 10000 4.1 150 20:58 14.03.2020
6560 Clouds 8 1020 65 10000 4.6 140 20:39 14.03.2020
6561 Rain 9 1020 65 10000 4.1 150 20:18 14.03.2020
6562 Rain 9 1020 65 10000 4.6 160 19:42 14.03.2020
6563 Rain 9 1020 65 10000 4.6 150 19:24 14.03.2020
6564 Rain 9 1020 57 10000 4.6 150 18:41 14.03.2020
6565 Rain 10 1020 61 10000 4.6 150 18:22 14.03.2020
6566 Rain 10 1019 57 10000 5.1 150 17:55 14.03.2020
6567 Clouds 10 1020 53 10000 5.1 130 17:37 14.03.2020
6568 Clouds 11 1020 53 10000 5.1 130 17:18 14.03.2020
6569 Clouds 11 1020 61 10000 4.1 160 16:40 14.03.2020
6570 Rain 11 1020 61 10000 2.6 0 16:22 14.03.2020
6571 Rain 11 1020 66 10000 2.1 170 15:52 14.03.2020
6572 Rain 11 1020 57 10000 5.1 150 15:25 14.03.2020
6573 Clouds 11 1020 57 10000 1 0 14:47 14.03.2020
6574 Clouds 11 1020 57 10000 1 0 14:24 14.03.2020
6575 Clouds 11 1020 57 10000 1 0 13:58 14.03.2020
6576 Clouds 11 1021 61 10000 1 0 13:39 14.03.2020
6577 Clouds 11 1021 66 10000 1.5 0 13:21 14.03.2020
6578 Rain 11 1021 57 10000 1.5 0 12:47 14.03.2020
6579 Clouds 10 1021 61 10000 3.6 170 12:27 14.03.2020
6580 Clouds 10 1021 66 10000 4.6 170 11:57 14.03.2020
6581 Clouds 10 1021 66 10000 4.6 170 11:38 14.03.2020
6582 Clouds 9 1021 66 10000 4.6 160 11:20 14.03.2020
6583 Clouds 9 1021 66 10000 4.6 160 11:20 14.03.2020
6584 Clouds 8 1022 75 10000 3.1 150 10:45 14.03.2020
6585 Clouds 7 1022 81 10000 3.6 140 10:27 14.03.2020
6586 Clouds 7 1022 81 10000 3.6 140 09:57 14.03.2020
6587 Clouds 6 1022 81 10000 3.1 130 09:39 14.03.2020
6588 Clouds 5 1022 86 10000 3.1 120 09:20 14.03.2020
6589 Clouds 4 1021 93 10000 2.1 120 08:45 14.03.2020
6590 Clouds 4 1021 93 10000 2.1 120 08:45 14.03.2020
6591 Clouds 3 1021 93 10000 2.1 100 08:23 14.03.2020
6592 Clouds 3 1021 93 10000 1.5 110 07:39 14.03.2020
6593 Clouds 2 1021 100 10000 1 0 07:20 14.03.2020
6594 Clouds 2 1021 93 10000 1 0 06:41 14.03.2020
6595 Clouds 3 1021 100 10000 1.5 60 05:58 14.03.2020
6596 Clouds 3 1021 93 10000 2.1 110 04:52 14.03.2020
6597 Clouds 4 1021 93 10000 1 0 03:25 14.03.2020
6598 Clouds 4 1021 93 10000 1 0 02:35 14.03.2020
6599 Clouds 4 1021 93 10000 2.1 150 01:39 14.03.2020
6600 Rain 5 1021 93 10000 1 0 00:23 14.03.2020
6601 Rain 5 1021 93 10000 1.5 180 23:42 13.03.2020
6602 Clouds 6 1021 93 10000 1.5 170 23:22 13.03.2020
6603 Clouds 5 1021 93 10000 2.1 170 22:41 13.03.2020
6604 Clouds 6 1021 93 10000 1.5 50 22:22 13.03.2020
6605 Clouds 6 1021 93 10000 1 0 21:40 13.03.2020
6606 Clouds 6 1021 87 10000 2.6 320 21:19 13.03.2020
6607 Clouds 6 1021 87 10000 0.5 0 20:42 13.03.2020
6608 Clouds 7 1020 87 10000 2.1 230 20:22 13.03.2020
6609 Rain 7 1020 87 10000 2.6 320 19:58 13.03.2020
6610 Rain 7 1020 87 10000 2.6 320 19:39 13.03.2020
6611 Rain 7 1020 81 10000 8.2 270 19:19 13.03.2020
6612 Rain 8 1019 87 10000 2.6 250 18:43 13.03.2020
6613 Rain 8 1019 87 10000 3.1 260 18:23 13.03.2020
6614 Rain 9 1019 57 10000 6.2 270 17:43 13.03.2020
6615 -273 0 0 0 0 0 17:21 13.03.2020
6616 Clouds 9 1019 57 10000 6.2 270 16:59 13.03.2020
6617 Clouds 9 1019 57 10000 7.7 270 16:39 13.03.2020
6618 Clouds 10 1019 53 10000 8.7 260 16:20 13.03.2020
6619 Clouds 10 1019 53 10000 8.2 270 15:46 13.03.2020
6620 Clouds 10 1018 53 10000 7.7 250 15:23 13.03.2020
6621 Clouds 9 1018 53 10000 8.2 250 14:59 13.03.2020
6622 Clouds 9 1018 53 10000 8.2 250 14:40 13.03.2020
6623 Rain 9 1019 61 10000 9.3 260 14:22 13.03.2020
6624 Rain 9 1018 61 10000 9.8 280 13:55 13.03.2020
6625 Rain 9 1018 61 10000 9.8 280 13:36 13.03.2020
6626 Rain 9 1019 61 10000 9.8 270 13:18 13.03.2020
6627 Clouds 9 1018 57 10000 10.3 260 12:39 13.03.2020
6628 Clouds 9 1018 57 10000 10.3 260 12:39 13.03.2020
6629 Clouds 9 1018 55 10000 10.8 260 12:20 13.03.2020
6630 Clouds 9 1018 57 10000 11.8 250 11:57 13.03.2020
6631 Clouds 8 1018 57 10000 11.8 250 11:37 13.03.2020
6632 Clouds 8 1018 61 10000 9.8 260 11:19 13.03.2020
6633 Clouds 8 1017 65 10000 9.8 260 10:47 13.03.2020
6634 Clouds 7 1017 61 10000 10.8 260 10:26 13.03.2020
6635 Clouds 7 1017 61 10000 10.8 260 09:56 13.03.2020
6636 Clouds 7 1017 70 10000 9.3 260 09:38 13.03.2020
6637 Clouds 7 1016 70 10000 8.7 260 09:20 13.03.2020
6638 Clouds 6 1016 70 10000 7.7 250 08:44 13.03.2020
6639 Clouds 6 1015 75 10000 7.7 240 08:22 13.03.2020
6640 Clouds 6 1015 75 10000 8.7 250 07:47 13.03.2020
6641 Clouds 6 1014 70 10000 7.7 240 07:28 13.03.2020
6642 Clouds 6 1014 70 10000 8.7 240 06:47 13.03.2020
6643 Clouds 6 1014 70 10000 8.7 240 06:26 13.03.2020
6644 Clouds 6 1014 70 10000 7.2 240 05:49 13.03.2020
6645 Clouds 6 1014 70 10000 7.2 240 05:20 13.03.2020
6646 Clouds 6 1014 70 10000 6.7 230 04:37 13.03.2020
6647 Clouds 6 1014 70 10000 6.2 230 03:31 13.03.2020
6648 Clouds 6 1014 70 10000 6.2 240 01:46 13.03.2020
6649 Clouds 6 1014 70 10000 7.2 240 01:19 13.03.2020
6650 Clouds 6 1014 75 10000 8.2 250 00:53 13.03.2020
6651 Clouds 6 1014 75 10000 8.2 240 00:24 13.03.2020
6652 Clouds 6 1014 75 10000 9.3 240 23:50 12.03.2020
6653 Clouds 6 1013 80 10000 6.2 240 23:27 12.03.2020
6654 Rain 6 1013 80 10000 6.2 250 22:56 12.03.2020
6655 Rain 6 1013 80 10000 6.2 250 22:38 12.03.2020
6656 Rain 6 1013 70 10000 6.2 250 22:20 12.03.2020
6657 Rain 7 1013 93 7000 12.3 270 21:43 12.03.2020
6658 Rain 8 1012 58 10000 5.1 250 21:25 12.03.2020
6659 Rain 8 1012 52 10000 4.1 240 20:57 12.03.2020
6660 Rain 8 1012 52 10000 4.1 240 20:37 12.03.2020
6661 Rain 8 1012 52 10000 4.1 240 20:37 12.03.2020
6662 Rain 8 1012 52 10000 3.6 250 20:18 12.03.2020
6663 Rain 8 1012 49 10000 4.6 260 19:39 12.03.2020
6664 Rain 8 1012 43 10000 8.7 270 19:20 12.03.2020
6665 Rain 9 1012 70 10000 6.7 260 18:44 12.03.2020
6666 Rain 9 1012 70 10000 7.7 250 18:24 12.03.2020
6667 Rain 10 1011 43 10000 6.2 260 17:57 12.03.2020
6668 Rain 10 1011 43 10000 6.2 260 17:38 12.03.2020
6669 Clouds 11 1012 40 10000 9.3 280 17:19 12.03.2020
6670 Clouds 11 1012 43 10000 8.7 260 16:55 12.03.2020
6671 Clouds 11 1012 43 10000 8.7 260 16:37 12.03.2020
6672 Clouds 12 1012 46 10000 8.2 260 16:18 12.03.2020
6673 Clouds 11 1012 43 10000 8.7 260 15:45 12.03.2020
6674 Clouds 11 1012 40 10000 9.3 270 15:26 12.03.2020
6675 Clouds 11 1013 46 10000 8.7 270 14:41 12.03.2020
6676 Clouds 11 1013 37 10000 10.8 280 14:23 12.03.2020
6677 Clouds 11 1013 43 10000 10.3 270 13:57 12.03.2020
6678 Clouds 11 1013 43 10000 10.3 270 13:36 12.03.2020
6679 Clouds 11 1012 54 10000 9.8 270 13:18 12.03.2020
6680 Clouds 11 1012 37 10000 10.8 260 12:41 12.03.2020
6681 Clouds 11 1012 50 10000 9.8 270 12:22 12.03.2020
6682 Clouds 10 1012 62 10000 9.3 260 11:57 12.03.2020
6683 Clouds 10 1012 62 10000 9.3 260 11:57 12.03.2020
6684 Clouds 10 1012 66 10000 10.8 280 11:38 12.03.2020
6685 Clouds 10 1012 66 10000 10.8 280 11:20 12.03.2020
6686 Clouds 10 1011 70 10000 8.7 260 10:58 12.03.2020
6687 Clouds 9 1011 70 10000 8.7 260 10:40 12.03.2020
6688 Clouds 9 1011 81 10000 10.3 280 10:22 12.03.2020
6689 Rain 9 1011 76 10000 12.3 280 09:46 12.03.2020
6690 Rain 9 1010 76 10000 10.8 270 09:27 12.03.2020
6691 Clouds 9 1009 76 10000 8.2 270 08:45 12.03.2020
6692 Clouds 10 1009 81 10000 9.8 260 08:20 12.03.2020
6693 Clouds 10 1008 81 10000 11.3 260 07:59 12.03.2020
6694 Clouds 10 1008 81 10000 11.3 260 07:41 12.03.2020
6695 Rain 10 1008 93 10000 11.8 280 07:21 12.03.2020
6696 -273 0 0 0 0 0 07:21 12.03.2020
6697 Clouds 11 1007 71 10000 7.7 230 05:55 12.03.2020
6698 Clouds 12 1007 71 10000 6.2 220 05:27 12.03.2020
6699 Clouds 13 1009 71 10000 6.7 220 02:43 12.03.2020
6700 Clouds 13 1009 71 10000 5.1 210 01:38 12.03.2020
6701 Clouds<